<?xml version="1.0" encoding="UTF-8" standalone="no" ?>
<gpx xmlns="http://www.topografix.com/GPX/1/1" xmlns:xsi="http://www.w3.org/2001/XMLSchema-instance" xsi:schemaLocation="http://www.topografix.com/GPX/1/1 http://www.topografix.com/GPX/1/1/gpx.xsd" version="1.1" creator="VisuGPX - https://www.visugpx.com">
  <metadata>
    <name>RoadTrip Moto Ecosse Juin 2021 - V3</name>
  </metadata>
  <trk>
    <name><![CDATA[J14 - Dublin - Paris]]></name>
    <extensions>
      <line xmlns="http://www.topografix.com/GPX/gpx_style/0/2">
        <color>FF0000</color>
        <width>4</width>
      </line>
    </extensions>
    <trkseg>
      <trkpt lat="53.34975" lon="-6.26038">
        <ele>11.8</ele>
        <time>2021-03-20T14:24:54Z</time>
      </trkpt>
      <trkpt lat="53.35239" lon="-6.26153">
        <ele>11</ele>
        <time>2021-03-20T14:25:06Z</time>
      </trkpt>
      <trkpt lat="53.35243" lon="-6.26158">
        <ele>11</ele>
        <time>2021-03-20T14:25:17Z</time>
      </trkpt>
      <trkpt lat="53.35245" lon="-6.26167">
        <ele>11</ele>
        <time>2021-03-20T14:25:28Z</time>
      </trkpt>
      <trkpt lat="53.35245" lon="-6.26176">
        <ele>11.06</ele>
        <time>2021-03-20T14:25:40Z</time>
      </trkpt>
      <trkpt lat="53.35201" lon="-6.26269">
        <ele>9.55</ele>
        <time>2021-03-20T14:25:51Z</time>
      </trkpt>
      <trkpt lat="53.35189" lon="-6.26289">
        <ele>8.3</ele>
        <time>2021-03-20T14:26:02Z</time>
      </trkpt>
      <trkpt lat="53.35175" lon="-6.26298">
        <ele>7.38</ele>
        <time>2021-03-20T14:26:14Z</time>
      </trkpt>
      <trkpt lat="53.35137" lon="-6.2637">
        <ele>7.36</ele>
        <time>2021-03-20T14:26:25Z</time>
      </trkpt>
      <trkpt lat="53.35098" lon="-6.26459">
        <ele>9.91</ele>
        <time>2021-03-20T14:26:36Z</time>
      </trkpt>
      <trkpt lat="53.35031" lon="-6.26645">
        <ele>12.91</ele>
        <time>2021-03-20T14:26:47Z</time>
      </trkpt>
      <trkpt lat="53.35018" lon="-6.26692">
        <ele>13.48</ele>
        <time>2021-03-20T14:26:59Z</time>
      </trkpt>
      <trkpt lat="53.35014" lon="-6.26719">
        <ele>14.8</ele>
        <time>2021-03-20T14:27:10Z</time>
      </trkpt>
      <trkpt lat="53.3499" lon="-6.26812">
        <ele>14.5</ele>
        <time>2021-03-20T14:27:21Z</time>
      </trkpt>
      <trkpt lat="53.34993" lon="-6.26829">
        <ele>14.77</ele>
        <time>2021-03-20T14:27:33Z</time>
      </trkpt>
      <trkpt lat="53.35024" lon="-6.26946">
        <ele>10</ele>
        <time>2021-03-20T14:27:44Z</time>
      </trkpt>
      <trkpt lat="53.35053" lon="-6.26972">
        <ele>10.92</ele>
        <time>2021-03-20T14:27:55Z</time>
      </trkpt>
      <trkpt lat="53.35075" lon="-6.26983">
        <ele>11.12</ele>
        <time>2021-03-20T14:28:07Z</time>
      </trkpt>
      <trkpt lat="53.35094" lon="-6.26988">
        <ele>11</ele>
        <time>2021-03-20T14:28:18Z</time>
      </trkpt>
      <trkpt lat="53.35107" lon="-6.27007">
        <ele>11.27</ele>
        <time>2021-03-20T14:28:29Z</time>
      </trkpt>
      <trkpt lat="53.35085" lon="-6.27036">
        <ele>12.29</ele>
        <time>2021-03-20T14:28:34Z</time>
      </trkpt>
      <trkpt lat="53.35071" lon="-6.2706">
        <ele>12.4</ele>
        <time>2021-03-20T14:28:39Z</time>
      </trkpt>
      <trkpt lat="53.35058" lon="-6.27089">
        <ele>11.08</ele>
        <time>2021-03-20T14:28:44Z</time>
      </trkpt>
      <trkpt lat="53.35037" lon="-6.27163">
        <ele>9.14</ele>
        <time>2021-03-20T14:28:49Z</time>
      </trkpt>
      <trkpt lat="53.35031" lon="-6.27197">
        <ele>8.89</ele>
        <time>2021-03-20T14:28:53Z</time>
      </trkpt>
      <trkpt lat="53.35019" lon="-6.27285">
        <ele>11.27</ele>
        <time>2021-03-20T14:28:58Z</time>
      </trkpt>
      <trkpt lat="53.35017" lon="-6.27321">
        <ele>12.54</ele>
        <time>2021-03-20T14:29:03Z</time>
      </trkpt>
      <trkpt lat="53.35014" lon="-6.27454">
        <ele>12.49</ele>
        <time>2021-03-20T14:29:08Z</time>
      </trkpt>
      <trkpt lat="53.34985" lon="-6.27466">
        <ele>13.22</ele>
        <time>2021-03-20T14:29:14Z</time>
      </trkpt>
      <trkpt lat="53.348" lon="-6.27477">
        <ele>9.82</ele>
        <time>2021-03-20T14:29:20Z</time>
      </trkpt>
      <trkpt lat="53.34748" lon="-6.27486">
        <ele>7.94</ele>
        <time>2021-03-20T14:29:26Z</time>
      </trkpt>
      <trkpt lat="53.34707" lon="-6.27506">
        <ele>7.12</ele>
        <time>2021-03-20T14:29:32Z</time>
      </trkpt>
      <trkpt lat="53.34645" lon="-6.27528">
        <ele>8.77</ele>
        <time>2021-03-20T14:29:38Z</time>
      </trkpt>
      <trkpt lat="53.34573" lon="-6.27567">
        <ele>7.21</ele>
        <time>2021-03-20T14:29:43Z</time>
      </trkpt>
      <trkpt lat="53.34528" lon="-6.27587">
        <ele>6.89</ele>
        <time>2021-03-20T14:29:49Z</time>
      </trkpt>
      <trkpt lat="53.34476" lon="-6.27619">
        <ele>8</ele>
        <time>2021-03-20T14:29:55Z</time>
      </trkpt>
      <trkpt lat="53.34439" lon="-6.27634">
        <ele>9.36</ele>
        <time>2021-03-20T14:30:01Z</time>
      </trkpt>
      <trkpt lat="53.34428" lon="-6.27636">
        <ele>10.11</ele>
        <time>2021-03-20T14:30:07Z</time>
      </trkpt>
      <trkpt lat="53.34415" lon="-6.27633">
        <ele>11.02</ele>
        <time>2021-03-20T14:30:13Z</time>
      </trkpt>
      <trkpt lat="53.34403" lon="-6.27622">
        <ele>12.33</ele>
        <time>2021-03-20T14:30:19Z</time>
      </trkpt>
      <trkpt lat="53.34388" lon="-6.27603">
        <ele>13.78</ele>
        <time>2021-03-20T14:30:25Z</time>
      </trkpt>
      <trkpt lat="53.34379" lon="-6.27587">
        <ele>14.24</ele>
        <time>2021-03-20T14:30:31Z</time>
      </trkpt>
      <trkpt lat="53.34371" lon="-6.27565">
        <ele>13.87</ele>
        <time>2021-03-20T14:30:37Z</time>
      </trkpt>
      <trkpt lat="53.34364" lon="-6.27547">
        <ele>13.78</ele>
        <time>2021-03-20T14:30:42Z</time>
      </trkpt>
      <trkpt lat="53.34355" lon="-6.27505">
        <ele>14.04</ele>
        <time>2021-03-20T14:30:47Z</time>
      </trkpt>
      <trkpt lat="53.3434" lon="-6.27449">
        <ele>14.66</ele>
        <time>2021-03-20T14:30:53Z</time>
      </trkpt>
      <trkpt lat="53.343" lon="-6.27231">
        <ele>19</ele>
        <time>2021-03-20T14:30:58Z</time>
      </trkpt>
      <trkpt lat="53.34296" lon="-6.27197">
        <ele>19</ele>
        <time>2021-03-20T14:31:04Z</time>
      </trkpt>
      <trkpt lat="53.34295" lon="-6.27176">
        <ele>18.59</ele>
        <time>2021-03-20T14:31:09Z</time>
      </trkpt>
      <trkpt lat="53.34287" lon="-6.27178">
        <ele>18.81</ele>
        <time>2021-03-20T14:31:16Z</time>
      </trkpt>
      <trkpt lat="53.34276" lon="-6.27176">
        <ele>19</ele>
        <time>2021-03-20T14:31:24Z</time>
      </trkpt>
      <trkpt lat="53.34268" lon="-6.2718">
        <ele>19</ele>
        <time>2021-03-20T14:31:31Z</time>
      </trkpt>
      <trkpt lat="53.34224" lon="-6.27215">
        <ele>18.74</ele>
        <time>2021-03-20T14:31:38Z</time>
      </trkpt>
      <trkpt lat="53.3421" lon="-6.27221">
        <ele>18.97</ele>
        <time>2021-03-20T14:31:45Z</time>
      </trkpt>
      <trkpt lat="53.3406" lon="-6.27224">
        <ele>13.22</ele>
        <time>2021-03-20T14:31:53Z</time>
      </trkpt>
      <trkpt lat="53.34041" lon="-6.27223">
        <ele>13.02</ele>
        <time>2021-03-20T14:32:00Z</time>
      </trkpt>
      <trkpt lat="53.3402" lon="-6.27226">
        <ele>12.83</ele>
        <time>2021-03-20T14:32:07Z</time>
      </trkpt>
      <trkpt lat="53.33997" lon="-6.2723">
        <ele>12.28</ele>
        <time>2021-03-20T14:32:15Z</time>
      </trkpt>
      <trkpt lat="53.33957" lon="-6.27251">
        <ele>13.58</ele>
        <time>2021-03-20T14:32:22Z</time>
      </trkpt>
      <trkpt lat="53.3393" lon="-6.27259">
        <ele>14.32</ele>
        <time>2021-03-20T14:32:29Z</time>
      </trkpt>
      <trkpt lat="53.33842" lon="-6.27244">
        <ele>11.51</ele>
        <time>2021-03-20T14:32:36Z</time>
      </trkpt>
      <trkpt lat="53.33794" lon="-6.2724">
        <ele>10.26</ele>
        <time>2021-03-20T14:32:44Z</time>
      </trkpt>
      <trkpt lat="53.33755" lon="-6.27245">
        <ele>10.82</ele>
        <time>2021-03-20T14:32:51Z</time>
      </trkpt>
      <trkpt lat="53.3373" lon="-6.27253">
        <ele>11.71</ele>
        <time>2021-03-20T14:32:58Z</time>
      </trkpt>
      <trkpt lat="53.33686" lon="-6.27272">
        <ele>14.64</ele>
        <time>2021-03-20T14:33:06Z</time>
      </trkpt>
      <trkpt lat="53.33576" lon="-6.27328">
        <ele>16</ele>
        <time>2021-03-20T14:33:13Z</time>
      </trkpt>
      <trkpt lat="53.33516" lon="-6.27375">
        <ele>17</ele>
        <time>2021-03-20T14:33:20Z</time>
      </trkpt>
      <trkpt lat="53.33473" lon="-6.27415">
        <ele>17.91</ele>
        <time>2021-03-20T14:33:28Z</time>
      </trkpt>
      <trkpt lat="53.3343" lon="-6.27461">
        <ele>18.47</ele>
        <time>2021-03-20T14:33:35Z</time>
      </trkpt>
      <trkpt lat="53.33418" lon="-6.27478">
        <ele>18.03</ele>
        <time>2021-03-20T14:33:42Z</time>
      </trkpt>
      <trkpt lat="53.33336" lon="-6.27513">
        <ele>17.57</ele>
        <time>2021-03-20T14:33:49Z</time>
      </trkpt>
      <trkpt lat="53.33303" lon="-6.27525">
        <ele>17.91</ele>
        <time>2021-03-20T14:33:57Z</time>
      </trkpt>
      <trkpt lat="53.3318" lon="-6.27517">
        <ele>19.88</ele>
        <time>2021-03-20T14:34:04Z</time>
      </trkpt>
      <trkpt lat="53.33126" lon="-6.27521">
        <ele>19.34</ele>
        <time>2021-03-20T14:34:11Z</time>
      </trkpt>
      <trkpt lat="53.33019" lon="-6.27537">
        <ele>20.63</ele>
        <time>2021-03-20T14:34:19Z</time>
      </trkpt>
      <trkpt lat="53.32977" lon="-6.27547">
        <ele>22.83</ele>
        <time>2021-03-20T14:34:26Z</time>
      </trkpt>
      <trkpt lat="53.32951" lon="-6.27557">
        <ele>23.72</ele>
        <time>2021-03-20T14:34:33Z</time>
      </trkpt>
      <trkpt lat="53.32892" lon="-6.27601">
        <ele>23.87</ele>
        <time>2021-03-20T14:34:40Z</time>
      </trkpt>
      <trkpt lat="53.32711" lon="-6.27755">
        <ele>23</ele>
        <time>2021-03-20T14:34:48Z</time>
      </trkpt>
      <trkpt lat="53.32655" lon="-6.27795">
        <ele>24.98</ele>
        <time>2021-03-20T14:34:55Z</time>
      </trkpt>
      <trkpt lat="53.32554" lon="-6.27826">
        <ele>28.05</ele>
        <time>2021-03-20T14:35:03Z</time>
      </trkpt>
      <trkpt lat="53.32412" lon="-6.27864">
        <ele>29.91</ele>
        <time>2021-03-20T14:35:12Z</time>
      </trkpt>
      <trkpt lat="53.32386" lon="-6.27873">
        <ele>29.62</ele>
        <time>2021-03-20T14:35:20Z</time>
      </trkpt>
      <trkpt lat="53.32256" lon="-6.2793">
        <ele>32</ele>
        <time>2021-03-20T14:35:28Z</time>
      </trkpt>
      <trkpt lat="53.32222" lon="-6.2794">
        <ele>33</ele>
        <time>2021-03-20T14:35:36Z</time>
      </trkpt>
      <trkpt lat="53.32168" lon="-6.27935">
        <ele>32.03</ele>
        <time>2021-03-20T14:35:45Z</time>
      </trkpt>
      <trkpt lat="53.32114" lon="-6.27919">
        <ele>32</ele>
        <time>2021-03-20T14:35:53Z</time>
      </trkpt>
      <trkpt lat="53.32046" lon="-6.27885">
        <ele>33.35</ele>
        <time>2021-03-20T14:36:01Z</time>
      </trkpt>
      <trkpt lat="53.32026" lon="-6.2788">
        <ele>34</ele>
        <time>2021-03-20T14:36:10Z</time>
      </trkpt>
      <trkpt lat="53.31988" lon="-6.27875">
        <ele>34</ele>
        <time>2021-03-20T14:36:18Z</time>
      </trkpt>
      <trkpt lat="53.31921" lon="-6.27886">
        <ele>35</ele>
        <time>2021-03-20T14:36:26Z</time>
      </trkpt>
      <trkpt lat="53.31905" lon="-6.27892">
        <ele>34.65</ele>
        <time>2021-03-20T14:36:34Z</time>
      </trkpt>
      <trkpt lat="53.31859" lon="-6.27916">
        <ele>33.9</ele>
        <time>2021-03-20T14:36:43Z</time>
      </trkpt>
      <trkpt lat="53.31788" lon="-6.2796">
        <ele>33.38</ele>
        <time>2021-03-20T14:36:51Z</time>
      </trkpt>
      <trkpt lat="53.31747" lon="-6.27989">
        <ele>33.1</ele>
        <time>2021-03-20T14:36:59Z</time>
      </trkpt>
      <trkpt lat="53.31515" lon="-6.28205">
        <ele>38.67</ele>
        <time>2021-03-20T14:37:08Z</time>
      </trkpt>
      <trkpt lat="53.3146" lon="-6.28239">
        <ele>41.05</ele>
        <time>2021-03-20T14:37:16Z</time>
      </trkpt>
      <trkpt lat="53.31422" lon="-6.28252">
        <ele>41.21</ele>
        <time>2021-03-20T14:37:24Z</time>
      </trkpt>
      <trkpt lat="53.3141" lon="-6.28249">
        <ele>40.99</ele>
        <time>2021-03-20T14:37:32Z</time>
      </trkpt>
      <trkpt lat="53.31374" lon="-6.28231">
        <ele>40.82</ele>
        <time>2021-03-20T14:37:41Z</time>
      </trkpt>
      <trkpt lat="53.31349" lon="-6.28223">
        <ele>41.43</ele>
        <time>2021-03-20T14:37:49Z</time>
      </trkpt>
      <trkpt lat="53.31316" lon="-6.28228">
        <ele>42.51</ele>
        <time>2021-03-20T14:37:57Z</time>
      </trkpt>
      <trkpt lat="53.31277" lon="-6.2824">
        <ele>43.35</ele>
        <time>2021-03-20T14:38:06Z</time>
      </trkpt>
      <trkpt lat="53.31201" lon="-6.2826">
        <ele>41.22</ele>
        <time>2021-03-20T14:38:14Z</time>
      </trkpt>
      <trkpt lat="53.31033" lon="-6.2833">
        <ele>44</ele>
        <time>2021-03-20T14:38:22Z</time>
      </trkpt>
      <trkpt lat="53.30959" lon="-6.28365">
        <ele>44</ele>
        <time>2021-03-20T14:38:30Z</time>
      </trkpt>
      <trkpt lat="53.30901" lon="-6.28386">
        <ele>44.45</ele>
        <time>2021-03-20T14:38:39Z</time>
      </trkpt>
      <trkpt lat="53.30838" lon="-6.28398">
        <ele>44.89</ele>
        <time>2021-03-20T14:38:47Z</time>
      </trkpt>
      <trkpt lat="53.30784" lon="-6.28396">
        <ele>44.79</ele>
        <time>2021-03-20T14:38:55Z</time>
      </trkpt>
      <trkpt lat="53.30548" lon="-6.28332">
        <ele>44.03</ele>
        <time>2021-03-20T14:39:04Z</time>
      </trkpt>
      <trkpt lat="53.30503" lon="-6.2833">
        <ele>42.22</ele>
        <time>2021-03-20T14:39:12Z</time>
      </trkpt>
      <trkpt lat="53.3045" lon="-6.28338">
        <ele>41.87</ele>
        <time>2021-03-20T14:39:20Z</time>
      </trkpt>
      <trkpt lat="53.30435" lon="-6.28343">
        <ele>40.96</ele>
        <time>2021-03-20T14:39:28Z</time>
      </trkpt>
      <trkpt lat="53.30357" lon="-6.2838">
        <ele>42.14</ele>
        <time>2021-03-20T14:39:37Z</time>
      </trkpt>
      <trkpt lat="53.30338" lon="-6.28386">
        <ele>42.83</ele>
        <time>2021-03-20T14:39:45Z</time>
      </trkpt>
      <trkpt lat="53.3031" lon="-6.2839">
        <ele>45.54</ele>
        <time>2021-03-20T14:39:53Z</time>
      </trkpt>
      <trkpt lat="53.30089" lon="-6.28393">
        <ele>50.11</ele>
        <time>2021-03-20T14:40:02Z</time>
      </trkpt>
      <trkpt lat="53.30054" lon="-6.28389">
        <ele>48.95</ele>
        <time>2021-03-20T14:40:10Z</time>
      </trkpt>
      <trkpt lat="53.3001" lon="-6.28379">
        <ele>48.63</ele>
        <time>2021-03-20T14:40:18Z</time>
      </trkpt>
      <trkpt lat="53.29998" lon="-6.28373">
        <ele>49.08</ele>
        <time>2021-03-20T14:40:26Z</time>
      </trkpt>
      <trkpt lat="53.29976" lon="-6.2837">
        <ele>49.85</ele>
        <time>2021-03-20T14:40:35Z</time>
      </trkpt>
      <trkpt lat="53.29939" lon="-6.2838">
        <ele>51.04</ele>
        <time>2021-03-20T14:40:43Z</time>
      </trkpt>
      <trkpt lat="53.29895" lon="-6.28403">
        <ele>53.89</ele>
        <time>2021-03-20T14:40:51Z</time>
      </trkpt>
      <trkpt lat="53.29838" lon="-6.2845">
        <ele>54.12</ele>
        <time>2021-03-20T14:41:00Z</time>
      </trkpt>
      <trkpt lat="53.29807" lon="-6.2847">
        <ele>54</ele>
        <time>2021-03-20T14:41:08Z</time>
      </trkpt>
      <trkpt lat="53.2977" lon="-6.28486">
        <ele>51.37</ele>
        <time>2021-03-20T14:41:16Z</time>
      </trkpt>
      <trkpt lat="53.29762" lon="-6.28488">
        <ele>51.12</ele>
        <time>2021-03-20T14:41:25Z</time>
      </trkpt>
      <trkpt lat="53.29708" lon="-6.28484">
        <ele>51.88</ele>
        <time>2021-03-20T14:41:33Z</time>
      </trkpt>
      <trkpt lat="53.29668" lon="-6.28461">
        <ele>50.54</ele>
        <time>2021-03-20T14:41:41Z</time>
      </trkpt>
      <trkpt lat="53.29663" lon="-6.2847">
        <ele>50.07</ele>
        <time>2021-03-20T14:41:48Z</time>
      </trkpt>
      <trkpt lat="53.29606" lon="-6.28537">
        <ele>47.4</ele>
        <time>2021-03-20T14:41:56Z</time>
      </trkpt>
      <trkpt lat="53.29596" lon="-6.28554">
        <ele>48.12</ele>
        <time>2021-03-20T14:42:03Z</time>
      </trkpt>
      <trkpt lat="53.29567" lon="-6.2862">
        <ele>50.28</ele>
        <time>2021-03-20T14:42:10Z</time>
      </trkpt>
      <trkpt lat="53.29551" lon="-6.28652">
        <ele>51</ele>
        <time>2021-03-20T14:42:18Z</time>
      </trkpt>
      <trkpt lat="53.29536" lon="-6.28672">
        <ele>51.06</ele>
        <time>2021-03-20T14:42:25Z</time>
      </trkpt>
      <trkpt lat="53.29522" lon="-6.28687">
        <ele>50.94</ele>
        <time>2021-03-20T14:42:32Z</time>
      </trkpt>
      <trkpt lat="53.29491" lon="-6.2871">
        <ele>51.34</ele>
        <time>2021-03-20T14:42:40Z</time>
      </trkpt>
      <trkpt lat="53.29399" lon="-6.28742">
        <ele>52.31</ele>
        <time>2021-03-20T14:42:47Z</time>
      </trkpt>
      <trkpt lat="53.29345" lon="-6.28756">
        <ele>52.58</ele>
        <time>2021-03-20T14:42:54Z</time>
      </trkpt>
      <trkpt lat="53.29318" lon="-6.28772">
        <ele>53</ele>
        <time>2021-03-20T14:43:02Z</time>
      </trkpt>
      <trkpt lat="53.29304" lon="-6.28786">
        <ele>53.21</ele>
        <time>2021-03-20T14:43:09Z</time>
      </trkpt>
      <trkpt lat="53.29232" lon="-6.2888">
        <ele>54.33</ele>
        <time>2021-03-20T14:43:16Z</time>
      </trkpt>
      <trkpt lat="53.29185" lon="-6.28917">
        <ele>54.68</ele>
        <time>2021-03-20T14:43:24Z</time>
      </trkpt>
      <trkpt lat="53.29031" lon="-6.29008">
        <ele>58</ele>
        <time>2021-03-20T14:43:31Z</time>
      </trkpt>
      <trkpt lat="53.28885" lon="-6.29071">
        <ele>60.93</ele>
        <time>2021-03-20T14:43:38Z</time>
      </trkpt>
      <trkpt lat="53.28778" lon="-6.29133">
        <ele>66.23</ele>
        <time>2021-03-20T14:43:46Z</time>
      </trkpt>
      <trkpt lat="53.28753" lon="-6.29152">
        <ele>67.81</ele>
        <time>2021-03-20T14:43:53Z</time>
      </trkpt>
      <trkpt lat="53.28729" lon="-6.29178">
        <ele>67.96</ele>
        <time>2021-03-20T14:44:00Z</time>
      </trkpt>
      <trkpt lat="53.28703" lon="-6.29217">
        <ele>66.9</ele>
        <time>2021-03-20T14:44:08Z</time>
      </trkpt>
      <trkpt lat="53.28633" lon="-6.29333">
        <ele>66.22</ele>
        <time>2021-03-20T14:44:15Z</time>
      </trkpt>
      <trkpt lat="53.28564" lon="-6.29432">
        <ele>70</ele>
        <time>2021-03-20T14:44:22Z</time>
      </trkpt>
      <trkpt lat="53.28528" lon="-6.29479">
        <ele>69</ele>
        <time>2021-03-20T14:44:30Z</time>
      </trkpt>
      <trkpt lat="53.28498" lon="-6.2951">
        <ele>67.76</ele>
        <time>2021-03-20T14:44:37Z</time>
      </trkpt>
      <trkpt lat="53.28477" lon="-6.29525">
        <ele>68.67</ele>
        <time>2021-03-20T14:44:44Z</time>
      </trkpt>
      <trkpt lat="53.28388" lon="-6.29577">
        <ele>71.82</ele>
        <time>2021-03-20T14:44:51Z</time>
      </trkpt>
      <trkpt lat="53.28332" lon="-6.29627">
        <ele>73.58</ele>
        <time>2021-03-20T14:44:59Z</time>
      </trkpt>
      <trkpt lat="53.28252" lon="-6.29711">
        <ele>74.93</ele>
        <time>2021-03-20T14:45:06Z</time>
      </trkpt>
      <trkpt lat="53.2823" lon="-6.29731">
        <ele>75.41</ele>
        <time>2021-03-20T14:45:13Z</time>
      </trkpt>
      <trkpt lat="53.28222" lon="-6.29734">
        <ele>75.57</ele>
        <time>2021-03-20T14:45:21Z</time>
      </trkpt>
      <trkpt lat="53.28217" lon="-6.29723">
        <ele>75.78</ele>
        <time>2021-03-20T14:45:24Z</time>
      </trkpt>
      <trkpt lat="53.28209" lon="-6.29721">
        <ele>75.51</ele>
        <time>2021-03-20T14:45:27Z</time>
      </trkpt>
      <trkpt lat="53.28203" lon="-6.29729">
        <ele>75.22</ele>
        <time>2021-03-20T14:45:30Z</time>
      </trkpt>
      <trkpt lat="53.28201" lon="-6.29742">
        <ele>75.07</ele>
        <time>2021-03-20T14:45:33Z</time>
      </trkpt>
      <trkpt lat="53.2816" lon="-6.29746">
        <ele>76.65</ele>
        <time>2021-03-20T14:45:36Z</time>
      </trkpt>
      <trkpt lat="53.28093" lon="-6.29743">
        <ele>79.93</ele>
        <time>2021-03-20T14:45:39Z</time>
      </trkpt>
      <trkpt lat="53.28086" lon="-6.29772">
        <ele>79.91</ele>
        <time>2021-03-20T14:45:49Z</time>
      </trkpt>
      <trkpt lat="53.28036" lon="-6.29946">
        <ele>80.07</ele>
        <time>2021-03-20T14:46:00Z</time>
      </trkpt>
      <trkpt lat="53.27989" lon="-6.30085">
        <ele>85.14</ele>
        <time>2021-03-20T14:46:10Z</time>
      </trkpt>
      <trkpt lat="53.27965" lon="-6.30088">
        <ele>87.33</ele>
        <time>2021-03-20T14:46:18Z</time>
      </trkpt>
      <trkpt lat="53.27947" lon="-6.30094">
        <ele>88.12</ele>
        <time>2021-03-20T14:46:27Z</time>
      </trkpt>
      <trkpt lat="53.27844" lon="-6.30146">
        <ele>90.22</ele>
        <time>2021-03-20T14:46:36Z</time>
      </trkpt>
      <trkpt lat="53.27528" lon="-6.30265">
        <ele>106</ele>
        <time>2021-03-20T14:46:44Z</time>
      </trkpt>
      <trkpt lat="53.27512" lon="-6.30273">
        <ele>106.57</ele>
        <time>2021-03-20T14:46:53Z</time>
      </trkpt>
      <trkpt lat="53.27499" lon="-6.30284">
        <ele>107.4</ele>
        <time>2021-03-20T14:47:02Z</time>
      </trkpt>
      <trkpt lat="53.27475" lon="-6.30319">
        <ele>110.76</ele>
        <time>2021-03-20T14:47:11Z</time>
      </trkpt>
      <trkpt lat="53.27332" lon="-6.30557">
        <ele>125.22</ele>
        <time>2021-03-20T14:47:19Z</time>
      </trkpt>
      <trkpt lat="53.27322" lon="-6.30578">
        <ele>126.9</ele>
        <time>2021-03-20T14:47:28Z</time>
      </trkpt>
      <trkpt lat="53.27304" lon="-6.30627">
        <ele>129.54</ele>
        <time>2021-03-20T14:47:37Z</time>
      </trkpt>
      <trkpt lat="53.27301" lon="-6.30631">
        <ele>129.64</ele>
        <time>2021-03-20T14:47:45Z</time>
      </trkpt>
      <trkpt lat="53.27289" lon="-6.30659">
        <ele>129.65</ele>
        <time>2021-03-20T14:47:54Z</time>
      </trkpt>
      <trkpt lat="53.27282" lon="-6.30664">
        <ele>131.04</ele>
        <time>2021-03-20T14:47:56Z</time>
      </trkpt>
      <trkpt lat="53.27276" lon="-6.3068">
        <ele>131.67</ele>
        <time>2021-03-20T14:47:58Z</time>
      </trkpt>
      <trkpt lat="53.27264" lon="-6.30696">
        <ele>131.93</ele>
        <time>2021-03-20T14:48:01Z</time>
      </trkpt>
      <trkpt lat="53.27253" lon="-6.30706">
        <ele>132.37</ele>
        <time>2021-03-20T14:48:03Z</time>
      </trkpt>
      <trkpt lat="53.27211" lon="-6.30758">
        <ele>134.83</ele>
        <time>2021-03-20T14:48:05Z</time>
      </trkpt>
      <trkpt lat="53.27189" lon="-6.30793">
        <ele>135.3</ele>
        <time>2021-03-20T14:48:07Z</time>
      </trkpt>
      <trkpt lat="53.27117" lon="-6.30919">
        <ele>134.79</ele>
        <time>2021-03-20T14:48:09Z</time>
      </trkpt>
      <trkpt lat="53.2709" lon="-6.3099">
        <ele>132.68</ele>
        <time>2021-03-20T14:48:12Z</time>
      </trkpt>
      <trkpt lat="53.27063" lon="-6.31056">
        <ele>133.44</ele>
        <time>2021-03-20T14:48:14Z</time>
      </trkpt>
      <trkpt lat="53.27052" lon="-6.31096">
        <ele>132.81</ele>
        <time>2021-03-20T14:48:16Z</time>
      </trkpt>
      <trkpt lat="53.27045" lon="-6.31131">
        <ele>132.66</ele>
        <time>2021-03-20T14:48:18Z</time>
      </trkpt>
      <trkpt lat="53.27039" lon="-6.31153">
        <ele>133.26</ele>
        <time>2021-03-20T14:48:20Z</time>
      </trkpt>
      <trkpt lat="53.27006" lon="-6.31198">
        <ele>136.26</ele>
        <time>2021-03-20T14:48:22Z</time>
      </trkpt>
      <trkpt lat="53.26988" lon="-6.31219">
        <ele>137</ele>
        <time>2021-03-20T14:48:25Z</time>
      </trkpt>
      <trkpt lat="53.2697" lon="-6.31234">
        <ele>136.91</ele>
        <time>2021-03-20T14:48:27Z</time>
      </trkpt>
      <trkpt lat="53.26937" lon="-6.31247">
        <ele>138.12</ele>
        <time>2021-03-20T14:48:29Z</time>
      </trkpt>
      <trkpt lat="53.26853" lon="-6.31273">
        <ele>143.47</ele>
        <time>2021-03-20T14:48:31Z</time>
      </trkpt>
      <trkpt lat="53.26746" lon="-6.31295">
        <ele>152.01</ele>
        <time>2021-03-20T14:48:33Z</time>
      </trkpt>
      <trkpt lat="53.26709" lon="-6.31301">
        <ele>153.7</ele>
        <time>2021-03-20T14:48:36Z</time>
      </trkpt>
      <trkpt lat="53.26696" lon="-6.31301">
        <ele>154.11</ele>
        <time>2021-03-20T14:48:38Z</time>
      </trkpt>
      <trkpt lat="53.26606" lon="-6.31281">
        <ele>160.62</ele>
        <time>2021-03-20T14:48:40Z</time>
      </trkpt>
      <trkpt lat="53.26596" lon="-6.31285">
        <ele>161.85</ele>
        <time>2021-03-20T14:48:42Z</time>
      </trkpt>
      <trkpt lat="53.26589" lon="-6.31297">
        <ele>162.57</ele>
        <time>2021-03-20T14:48:44Z</time>
      </trkpt>
      <trkpt lat="53.26535" lon="-6.31446">
        <ele>169.44</ele>
        <time>2021-03-20T14:48:47Z</time>
      </trkpt>
      <trkpt lat="53.26525" lon="-6.3149">
        <ele>172.33</ele>
        <time>2021-03-20T14:48:49Z</time>
      </trkpt>
      <trkpt lat="53.26518" lon="-6.31515">
        <ele>173.46</ele>
        <time>2021-03-20T14:48:51Z</time>
      </trkpt>
      <trkpt lat="53.26497" lon="-6.31559">
        <ele>176.56</ele>
        <time>2021-03-20T14:48:53Z</time>
      </trkpt>
      <trkpt lat="53.26478" lon="-6.31615">
        <ele>179.28</ele>
        <time>2021-03-20T14:48:55Z</time>
      </trkpt>
      <trkpt lat="53.2639" lon="-6.31773">
        <ele>186.06</ele>
        <time>2021-03-20T14:48:58Z</time>
      </trkpt>
      <trkpt lat="53.26369" lon="-6.31799">
        <ele>186.64</ele>
        <time>2021-03-20T14:49:00Z</time>
      </trkpt>
      <trkpt lat="53.26349" lon="-6.31814">
        <ele>188.33</ele>
        <time>2021-03-20T14:49:02Z</time>
      </trkpt>
      <trkpt lat="53.26327" lon="-6.31828">
        <ele>189.65</ele>
        <time>2021-03-20T14:49:04Z</time>
      </trkpt>
      <trkpt lat="53.26242" lon="-6.31865">
        <ele>191.96</ele>
        <time>2021-03-20T14:49:06Z</time>
      </trkpt>
      <trkpt lat="53.26171" lon="-6.319">
        <ele>191.83</ele>
        <time>2021-03-20T14:49:08Z</time>
      </trkpt>
      <trkpt lat="53.26094" lon="-6.31931">
        <ele>191.76</ele>
        <time>2021-03-20T14:49:11Z</time>
      </trkpt>
      <trkpt lat="53.26079" lon="-6.3194">
        <ele>192.42</ele>
        <time>2021-03-20T14:49:13Z</time>
      </trkpt>
      <trkpt lat="53.26055" lon="-6.31966">
        <ele>192.52</ele>
        <time>2021-03-20T14:49:15Z</time>
      </trkpt>
      <trkpt lat="53.26004" lon="-6.32031">
        <ele>196.46</ele>
        <time>2021-03-20T14:49:17Z</time>
      </trkpt>
      <trkpt lat="53.25978" lon="-6.32052">
        <ele>199.35</ele>
        <time>2021-03-20T14:49:19Z</time>
      </trkpt>
      <trkpt lat="53.25897" lon="-6.32063">
        <ele>213.54</ele>
        <time>2021-03-20T14:49:22Z</time>
      </trkpt>
      <trkpt lat="53.25829" lon="-6.32067">
        <ele>222.06</ele>
        <time>2021-03-20T14:49:24Z</time>
      </trkpt>
      <trkpt lat="53.25815" lon="-6.32071">
        <ele>223.13</ele>
        <time>2021-03-20T14:49:26Z</time>
      </trkpt>
      <trkpt lat="53.25726" lon="-6.32121">
        <ele>233.74</ele>
        <time>2021-03-20T14:49:28Z</time>
      </trkpt>
      <trkpt lat="53.25688" lon="-6.32132">
        <ele>239.24</ele>
        <time>2021-03-20T14:49:30Z</time>
      </trkpt>
      <trkpt lat="53.25638" lon="-6.32141">
        <ele>243.16</ele>
        <time>2021-03-20T14:49:33Z</time>
      </trkpt>
      <trkpt lat="53.25581" lon="-6.32139">
        <ele>247.1</ele>
        <time>2021-03-20T14:49:35Z</time>
      </trkpt>
      <trkpt lat="53.25548" lon="-6.32135">
        <ele>247.58</ele>
        <time>2021-03-20T14:49:37Z</time>
      </trkpt>
      <trkpt lat="53.25481" lon="-6.3212">
        <ele>248.26</ele>
        <time>2021-03-20T14:49:39Z</time>
      </trkpt>
      <trkpt lat="53.25364" lon="-6.32109">
        <ele>260.53</ele>
        <time>2021-03-20T14:49:41Z</time>
      </trkpt>
      <trkpt lat="53.25212" lon="-6.32073">
        <ele>275.57</ele>
        <time>2021-03-20T14:49:44Z</time>
      </trkpt>
      <trkpt lat="53.25157" lon="-6.32051">
        <ele>279.51</ele>
        <time>2021-03-20T14:49:46Z</time>
      </trkpt>
      <trkpt lat="53.25125" lon="-6.32041">
        <ele>280.93</ele>
        <time>2021-03-20T14:49:48Z</time>
      </trkpt>
      <trkpt lat="53.25037" lon="-6.32022">
        <ele>281.88</ele>
        <time>2021-03-20T14:49:50Z</time>
      </trkpt>
      <trkpt lat="53.25009" lon="-6.32027">
        <ele>281.27</ele>
        <time>2021-03-20T14:49:52Z</time>
      </trkpt>
      <trkpt lat="53.24978" lon="-6.32039">
        <ele>285.37</ele>
        <time>2021-03-20T14:49:54Z</time>
      </trkpt>
      <trkpt lat="53.24956" lon="-6.32052">
        <ele>289.69</ele>
        <time>2021-03-20T14:49:57Z</time>
      </trkpt>
      <trkpt lat="53.24929" lon="-6.32076">
        <ele>292.56</ele>
        <time>2021-03-20T14:49:59Z</time>
      </trkpt>
      <trkpt lat="53.24913" lon="-6.32109">
        <ele>293.13</ele>
        <time>2021-03-20T14:50:01Z</time>
      </trkpt>
      <trkpt lat="53.24911" lon="-6.32125">
        <ele>293.11</ele>
        <time>2021-03-20T14:50:03Z</time>
      </trkpt>
      <trkpt lat="53.24898" lon="-6.32167">
        <ele>293.02</ele>
        <time>2021-03-20T14:50:05Z</time>
      </trkpt>
      <trkpt lat="53.24891" lon="-6.32183">
        <ele>293.64</ele>
        <time>2021-03-20T14:50:08Z</time>
      </trkpt>
      <trkpt lat="53.24882" lon="-6.32197">
        <ele>294.3</ele>
        <time>2021-03-20T14:50:10Z</time>
      </trkpt>
      <trkpt lat="53.24877" lon="-6.322">
        <ele>294.55</ele>
        <time>2021-03-20T14:50:12Z</time>
      </trkpt>
      <trkpt lat="53.24871" lon="-6.32201">
        <ele>294.72</ele>
        <time>2021-03-20T14:50:14Z</time>
      </trkpt>
      <trkpt lat="53.24865" lon="-6.32197">
        <ele>294.88</ele>
        <time>2021-03-20T14:50:16Z</time>
      </trkpt>
      <trkpt lat="53.24837" lon="-6.32146">
        <ele>297.58</ele>
        <time>2021-03-20T14:50:19Z</time>
      </trkpt>
      <trkpt lat="53.24816" lon="-6.32116">
        <ele>300.11</ele>
        <time>2021-03-20T14:50:21Z</time>
      </trkpt>
      <trkpt lat="53.24806" lon="-6.32097">
        <ele>301.49</ele>
        <time>2021-03-20T14:50:23Z</time>
      </trkpt>
      <trkpt lat="53.24781" lon="-6.32073">
        <ele>303.24</ele>
        <time>2021-03-20T14:50:25Z</time>
      </trkpt>
      <trkpt lat="53.24723" lon="-6.32032">
        <ele>311.6</ele>
        <time>2021-03-20T14:50:27Z</time>
      </trkpt>
      <trkpt lat="53.24709" lon="-6.32026">
        <ele>312.58</ele>
        <time>2021-03-20T14:50:30Z</time>
      </trkpt>
      <trkpt lat="53.24693" lon="-6.32026">
        <ele>313.13</ele>
        <time>2021-03-20T14:50:32Z</time>
      </trkpt>
      <trkpt lat="53.24646" lon="-6.32034">
        <ele>315.46</ele>
        <time>2021-03-20T14:50:34Z</time>
      </trkpt>
      <trkpt lat="53.24579" lon="-6.32022">
        <ele>323.1</ele>
        <time>2021-03-20T14:50:36Z</time>
      </trkpt>
      <trkpt lat="53.24509" lon="-6.32015">
        <ele>331.56</ele>
        <time>2021-03-20T14:50:38Z</time>
      </trkpt>
      <trkpt lat="53.24464" lon="-6.32001">
        <ele>333.69</ele>
        <time>2021-03-20T14:50:40Z</time>
      </trkpt>
      <trkpt lat="53.24407" lon="-6.31975">
        <ele>338.24</ele>
        <time>2021-03-20T14:50:43Z</time>
      </trkpt>
      <trkpt lat="53.24392" lon="-6.31971">
        <ele>339.58</ele>
        <time>2021-03-20T14:50:45Z</time>
      </trkpt>
      <trkpt lat="53.24363" lon="-6.31969">
        <ele>340.83</ele>
        <time>2021-03-20T14:50:47Z</time>
      </trkpt>
      <trkpt lat="53.24321" lon="-6.3198">
        <ele>345.58</ele>
        <time>2021-03-20T14:50:49Z</time>
      </trkpt>
      <trkpt lat="53.24298" lon="-6.31981">
        <ele>348.31</ele>
        <time>2021-03-20T14:50:51Z</time>
      </trkpt>
      <trkpt lat="53.24238" lon="-6.31967">
        <ele>355.31</ele>
        <time>2021-03-20T14:50:54Z</time>
      </trkpt>
      <trkpt lat="53.24219" lon="-6.31967">
        <ele>356.45</ele>
        <time>2021-03-20T14:50:56Z</time>
      </trkpt>
      <trkpt lat="53.24179" lon="-6.31992">
        <ele>357.55</ele>
        <time>2021-03-20T14:50:58Z</time>
      </trkpt>
      <trkpt lat="53.24152" lon="-6.32027">
        <ele>361.48</ele>
        <time>2021-03-20T14:51:00Z</time>
      </trkpt>
      <trkpt lat="53.24129" lon="-6.32077">
        <ele>366.86</ele>
        <time>2021-03-20T14:51:02Z</time>
      </trkpt>
      <trkpt lat="53.24123" lon="-6.32086">
        <ele>367.7</ele>
        <time>2021-03-20T14:51:05Z</time>
      </trkpt>
      <trkpt lat="53.24117" lon="-6.32091">
        <ele>368.09</ele>
        <time>2021-03-20T14:51:07Z</time>
      </trkpt>
      <trkpt lat="53.24109" lon="-6.32092">
        <ele>368.57</ele>
        <time>2021-03-20T14:51:09Z</time>
      </trkpt>
      <trkpt lat="53.24083" lon="-6.32083">
        <ele>371.02</ele>
        <time>2021-03-20T14:51:11Z</time>
      </trkpt>
      <trkpt lat="53.2404" lon="-6.32075">
        <ele>376.86</ele>
        <time>2021-03-20T14:51:13Z</time>
      </trkpt>
      <trkpt lat="53.24" lon="-6.32043">
        <ele>381.03</ele>
        <time>2021-03-20T14:51:15Z</time>
      </trkpt>
      <trkpt lat="53.23988" lon="-6.32038">
        <ele>381.39</ele>
        <time>2021-03-20T14:51:18Z</time>
      </trkpt>
      <trkpt lat="53.23947" lon="-6.32031">
        <ele>383.14</ele>
        <time>2021-03-20T14:51:20Z</time>
      </trkpt>
      <trkpt lat="53.23941" lon="-6.32035">
        <ele>383.39</ele>
        <time>2021-03-20T14:51:22Z</time>
      </trkpt>
      <trkpt lat="53.23938" lon="-6.32043">
        <ele>383.82</ele>
        <time>2021-03-20T14:51:24Z</time>
      </trkpt>
      <trkpt lat="53.23935" lon="-6.32054">
        <ele>384.58</ele>
        <time>2021-03-20T14:51:26Z</time>
      </trkpt>
      <trkpt lat="53.23938" lon="-6.32087">
        <ele>385</ele>
        <time>2021-03-20T14:51:29Z</time>
      </trkpt>
      <trkpt lat="53.23936" lon="-6.32157">
        <ele>386</ele>
        <time>2021-03-20T14:51:31Z</time>
      </trkpt>
      <trkpt lat="53.23933" lon="-6.3218">
        <ele>386.49</ele>
        <time>2021-03-20T14:51:33Z</time>
      </trkpt>
      <trkpt lat="53.23921" lon="-6.3222">
        <ele>387.92</ele>
        <time>2021-03-20T14:51:35Z</time>
      </trkpt>
      <trkpt lat="53.23911" lon="-6.32239">
        <ele>388.61</ele>
        <time>2021-03-20T14:51:37Z</time>
      </trkpt>
      <trkpt lat="53.23899" lon="-6.32257">
        <ele>389</ele>
        <time>2021-03-20T14:51:40Z</time>
      </trkpt>
      <trkpt lat="53.23876" lon="-6.32283">
        <ele>388.63</ele>
        <time>2021-03-20T14:51:42Z</time>
      </trkpt>
      <trkpt lat="53.23866" lon="-6.32292">
        <ele>388.58</ele>
        <time>2021-03-20T14:51:44Z</time>
      </trkpt>
      <trkpt lat="53.23845" lon="-6.32301">
        <ele>390.52</ele>
        <time>2021-03-20T14:51:46Z</time>
      </trkpt>
      <trkpt lat="53.23789" lon="-6.32309">
        <ele>395.33</ele>
        <time>2021-03-20T14:51:48Z</time>
      </trkpt>
      <trkpt lat="53.23775" lon="-6.32304">
        <ele>396</ele>
        <time>2021-03-20T14:51:51Z</time>
      </trkpt>
      <trkpt lat="53.23655" lon="-6.32202">
        <ele>406.88</ele>
        <time>2021-03-20T14:51:53Z</time>
      </trkpt>
      <trkpt lat="53.23634" lon="-6.32193">
        <ele>408.32</ele>
        <time>2021-03-20T14:51:55Z</time>
      </trkpt>
      <trkpt lat="53.23443" lon="-6.32213">
        <ele>421.01</ele>
        <time>2021-03-20T14:51:57Z</time>
      </trkpt>
      <trkpt lat="53.23419" lon="-6.32221">
        <ele>421.05</ele>
        <time>2021-03-20T14:51:59Z</time>
      </trkpt>
      <trkpt lat="53.23386" lon="-6.32239">
        <ele>425.12</ele>
        <time>2021-03-20T14:52:01Z</time>
      </trkpt>
      <trkpt lat="53.23367" lon="-6.32246">
        <ele>426.64</ele>
        <time>2021-03-20T14:52:04Z</time>
      </trkpt>
      <trkpt lat="53.2321" lon="-6.32265">
        <ele>434.2</ele>
        <time>2021-03-20T14:52:06Z</time>
      </trkpt>
      <trkpt lat="53.23195" lon="-6.32266">
        <ele>435.3</ele>
        <time>2021-03-20T14:52:08Z</time>
      </trkpt>
      <trkpt lat="53.23143" lon="-6.32253">
        <ele>438.53</ele>
        <time>2021-03-20T14:52:10Z</time>
      </trkpt>
      <trkpt lat="53.23113" lon="-6.32253">
        <ele>439.7</ele>
        <time>2021-03-20T14:52:12Z</time>
      </trkpt>
      <trkpt lat="53.23099" lon="-6.32251">
        <ele>440.8</ele>
        <time>2021-03-20T14:52:15Z</time>
      </trkpt>
      <trkpt lat="53.23073" lon="-6.32239">
        <ele>442.92</ele>
        <time>2021-03-20T14:52:17Z</time>
      </trkpt>
      <trkpt lat="53.23036" lon="-6.32211">
        <ele>444.99</ele>
        <time>2021-03-20T14:52:19Z</time>
      </trkpt>
      <trkpt lat="53.23005" lon="-6.32183">
        <ele>444.76</ele>
        <time>2021-03-20T14:52:21Z</time>
      </trkpt>
      <trkpt lat="53.22988" lon="-6.32164">
        <ele>444.4</ele>
        <time>2021-03-20T14:52:23Z</time>
      </trkpt>
      <trkpt lat="53.22977" lon="-6.32147">
        <ele>444.15</ele>
        <time>2021-03-20T14:52:26Z</time>
      </trkpt>
      <trkpt lat="53.22947" lon="-6.32087">
        <ele>445</ele>
        <time>2021-03-20T14:52:28Z</time>
      </trkpt>
      <trkpt lat="53.22884" lon="-6.31976">
        <ele>452.33</ele>
        <time>2021-03-20T14:52:30Z</time>
      </trkpt>
      <trkpt lat="53.22856" lon="-6.31936">
        <ele>454.19</ele>
        <time>2021-03-20T14:52:32Z</time>
      </trkpt>
      <trkpt lat="53.22834" lon="-6.31916">
        <ele>455.05</ele>
        <time>2021-03-20T14:52:34Z</time>
      </trkpt>
      <trkpt lat="53.22796" lon="-6.31898">
        <ele>456.11</ele>
        <time>2021-03-20T14:52:37Z</time>
      </trkpt>
      <trkpt lat="53.22724" lon="-6.31891">
        <ele>458.71</ele>
        <time>2021-03-20T14:52:39Z</time>
      </trkpt>
      <trkpt lat="53.22663" lon="-6.3187">
        <ele>463.52</ele>
        <time>2021-03-20T14:52:41Z</time>
      </trkpt>
      <trkpt lat="53.2254" lon="-6.31837">
        <ele>471.02</ele>
        <time>2021-03-20T14:52:43Z</time>
      </trkpt>
      <trkpt lat="53.22517" lon="-6.31823">
        <ele>472.12</ele>
        <time>2021-03-20T14:52:45Z</time>
      </trkpt>
      <trkpt lat="53.22486" lon="-6.31798">
        <ele>472.47</ele>
        <time>2021-03-20T14:52:47Z</time>
      </trkpt>
      <trkpt lat="53.22467" lon="-6.31775">
        <ele>473.52</ele>
        <time>2021-03-20T14:52:50Z</time>
      </trkpt>
      <trkpt lat="53.2245" lon="-6.31745">
        <ele>473.01</ele>
        <time>2021-03-20T14:52:52Z</time>
      </trkpt>
      <trkpt lat="53.22435" lon="-6.31712">
        <ele>474.79</ele>
        <time>2021-03-20T14:52:54Z</time>
      </trkpt>
      <trkpt lat="53.22417" lon="-6.31683">
        <ele>477.29</ele>
        <time>2021-03-20T14:52:56Z</time>
      </trkpt>
      <trkpt lat="53.22395" lon="-6.3166">
        <ele>478.71</ele>
        <time>2021-03-20T14:52:58Z</time>
      </trkpt>
      <trkpt lat="53.22344" lon="-6.31622">
        <ele>477.77</ele>
        <time>2021-03-20T14:53:01Z</time>
      </trkpt>
      <trkpt lat="53.22325" lon="-6.316">
        <ele>477.88</ele>
        <time>2021-03-20T14:53:03Z</time>
      </trkpt>
      <trkpt lat="53.22268" lon="-6.31509">
        <ele>481.99</ele>
        <time>2021-03-20T14:53:05Z</time>
      </trkpt>
      <trkpt lat="53.22236" lon="-6.31431">
        <ele>485.94</ele>
        <time>2021-03-20T14:53:07Z</time>
      </trkpt>
      <trkpt lat="53.2223" lon="-6.31417">
        <ele>486.76</ele>
        <time>2021-03-20T14:53:09Z</time>
      </trkpt>
      <trkpt lat="53.22223" lon="-6.31407">
        <ele>487.08</ele>
        <time>2021-03-20T14:53:12Z</time>
      </trkpt>
      <trkpt lat="53.22214" lon="-6.314">
        <ele>486.67</ele>
        <time>2021-03-20T14:53:14Z</time>
      </trkpt>
      <trkpt lat="53.22205" lon="-6.31396">
        <ele>485.64</ele>
        <time>2021-03-20T14:53:16Z</time>
      </trkpt>
      <trkpt lat="53.22161" lon="-6.31392">
        <ele>483.05</ele>
        <time>2021-03-20T14:53:18Z</time>
      </trkpt>
      <trkpt lat="53.22137" lon="-6.31384">
        <ele>485.24</ele>
        <time>2021-03-20T14:53:20Z</time>
      </trkpt>
      <trkpt lat="53.22117" lon="-6.31373">
        <ele>485.03</ele>
        <time>2021-03-20T14:53:23Z</time>
      </trkpt>
      <trkpt lat="53.22102" lon="-6.31362">
        <ele>484.6</ele>
        <time>2021-03-20T14:53:25Z</time>
      </trkpt>
      <trkpt lat="53.22085" lon="-6.31343">
        <ele>484.16</ele>
        <time>2021-03-20T14:53:27Z</time>
      </trkpt>
      <trkpt lat="53.22066" lon="-6.3131">
        <ele>485.44</ele>
        <time>2021-03-20T14:53:29Z</time>
      </trkpt>
      <trkpt lat="53.22032" lon="-6.31235">
        <ele>485.28</ele>
        <time>2021-03-20T14:53:31Z</time>
      </trkpt>
      <trkpt lat="53.22026" lon="-6.31216">
        <ele>485.2</ele>
        <time>2021-03-20T14:53:33Z</time>
      </trkpt>
      <trkpt lat="53.22021" lon="-6.31178">
        <ele>486.83</ele>
        <time>2021-03-20T14:53:36Z</time>
      </trkpt>
      <trkpt lat="53.22021" lon="-6.31124">
        <ele>490.41</ele>
        <time>2021-03-20T14:53:38Z</time>
      </trkpt>
      <trkpt lat="53.22019" lon="-6.31106">
        <ele>491.29</ele>
        <time>2021-03-20T14:53:40Z</time>
      </trkpt>
      <trkpt lat="53.22008" lon="-6.31076">
        <ele>491.67</ele>
        <time>2021-03-20T14:53:42Z</time>
      </trkpt>
      <trkpt lat="53.21956" lon="-6.31002">
        <ele>490.31</ele>
        <time>2021-03-20T14:53:44Z</time>
      </trkpt>
      <trkpt lat="53.21924" lon="-6.30972">
        <ele>489.86</ele>
        <time>2021-03-20T14:53:47Z</time>
      </trkpt>
      <trkpt lat="53.21905" lon="-6.30963">
        <ele>489.26</ele>
        <time>2021-03-20T14:53:49Z</time>
      </trkpt>
      <trkpt lat="53.21888" lon="-6.30961">
        <ele>488.79</ele>
        <time>2021-03-20T14:53:51Z</time>
      </trkpt>
      <trkpt lat="53.2185" lon="-6.30981">
        <ele>485.68</ele>
        <time>2021-03-20T14:53:53Z</time>
      </trkpt>
      <trkpt lat="53.21834" lon="-6.30986">
        <ele>484.53</ele>
        <time>2021-03-20T14:53:55Z</time>
      </trkpt>
      <trkpt lat="53.21803" lon="-6.30987">
        <ele>483.43</ele>
        <time>2021-03-20T14:53:58Z</time>
      </trkpt>
      <trkpt lat="53.21772" lon="-6.30977">
        <ele>483.46</ele>
        <time>2021-03-20T14:54:00Z</time>
      </trkpt>
      <trkpt lat="53.21732" lon="-6.30956">
        <ele>482.17</ele>
        <time>2021-03-20T14:54:02Z</time>
      </trkpt>
      <trkpt lat="53.217" lon="-6.30935">
        <ele>481.1</ele>
        <time>2021-03-20T14:54:04Z</time>
      </trkpt>
      <trkpt lat="53.21673" lon="-6.3091">
        <ele>483.15</ele>
        <time>2021-03-20T14:54:06Z</time>
      </trkpt>
      <trkpt lat="53.21605" lon="-6.30837">
        <ele>483.61</ele>
        <time>2021-03-20T14:54:09Z</time>
      </trkpt>
      <trkpt lat="53.21572" lon="-6.30799">
        <ele>483.41</ele>
        <time>2021-03-20T14:54:11Z</time>
      </trkpt>
      <trkpt lat="53.21538" lon="-6.30751">
        <ele>483.34</ele>
        <time>2021-03-20T14:54:13Z</time>
      </trkpt>
      <trkpt lat="53.21514" lon="-6.3073">
        <ele>483.25</ele>
        <time>2021-03-20T14:54:15Z</time>
      </trkpt>
      <trkpt lat="53.21459" lon="-6.30696">
        <ele>482.51</ele>
        <time>2021-03-20T14:54:17Z</time>
      </trkpt>
      <trkpt lat="53.21438" lon="-6.30679">
        <ele>481.77</ele>
        <time>2021-03-20T14:54:19Z</time>
      </trkpt>
      <trkpt lat="53.21407" lon="-6.3065">
        <ele>481</ele>
        <time>2021-03-20T14:54:22Z</time>
      </trkpt>
      <trkpt lat="53.21337" lon="-6.3057">
        <ele>478.6</ele>
        <time>2021-03-20T14:54:24Z</time>
      </trkpt>
      <trkpt lat="53.21317" lon="-6.30542">
        <ele>478.29</ele>
        <time>2021-03-20T14:54:26Z</time>
      </trkpt>
      <trkpt lat="53.21237" lon="-6.30385">
        <ele>474</ele>
        <time>2021-03-20T14:54:28Z</time>
      </trkpt>
      <trkpt lat="53.20941" lon="-6.29791">
        <ele>460.42</ele>
        <time>2021-03-20T14:54:30Z</time>
      </trkpt>
      <trkpt lat="53.20832" lon="-6.29577">
        <ele>452.71</ele>
        <time>2021-03-20T14:54:33Z</time>
      </trkpt>
      <trkpt lat="53.20818" lon="-6.29555">
        <ele>451.42</ele>
        <time>2021-03-20T14:54:35Z</time>
      </trkpt>
      <trkpt lat="53.20789" lon="-6.29527">
        <ele>448.77</ele>
        <time>2021-03-20T14:54:37Z</time>
      </trkpt>
      <trkpt lat="53.20764" lon="-6.29495">
        <ele>446.41</ele>
        <time>2021-03-20T14:54:39Z</time>
      </trkpt>
      <trkpt lat="53.20749" lon="-6.29465">
        <ele>444.72</ele>
        <time>2021-03-20T14:54:41Z</time>
      </trkpt>
      <trkpt lat="53.20734" lon="-6.29425">
        <ele>442.75</ele>
        <time>2021-03-20T14:54:44Z</time>
      </trkpt>
      <trkpt lat="53.2072" lon="-6.29397">
        <ele>440.47</ele>
        <time>2021-03-20T14:54:46Z</time>
      </trkpt>
      <trkpt lat="53.20706" lon="-6.29379">
        <ele>438.67</ele>
        <time>2021-03-20T14:54:48Z</time>
      </trkpt>
      <trkpt lat="53.20673" lon="-6.29348">
        <ele>437.22</ele>
        <time>2021-03-20T14:54:50Z</time>
      </trkpt>
      <trkpt lat="53.20649" lon="-6.2932">
        <ele>436.51</ele>
        <time>2021-03-20T14:54:52Z</time>
      </trkpt>
      <trkpt lat="53.20618" lon="-6.29269">
        <ele>431.85</ele>
        <time>2021-03-20T14:54:54Z</time>
      </trkpt>
      <trkpt lat="53.20609" lon="-6.29258">
        <ele>430.37</ele>
        <time>2021-03-20T14:54:57Z</time>
      </trkpt>
      <trkpt lat="53.20588" lon="-6.29241">
        <ele>427.11</ele>
        <time>2021-03-20T14:54:59Z</time>
      </trkpt>
      <trkpt lat="53.20571" lon="-6.29232">
        <ele>425.93</ele>
        <time>2021-03-20T14:55:01Z</time>
      </trkpt>
      <trkpt lat="53.20558" lon="-6.2923">
        <ele>425.37</ele>
        <time>2021-03-20T14:55:03Z</time>
      </trkpt>
      <trkpt lat="53.20538" lon="-6.29237">
        <ele>425.49</ele>
        <time>2021-03-20T14:55:05Z</time>
      </trkpt>
      <trkpt lat="53.20509" lon="-6.29263">
        <ele>425</ele>
        <time>2021-03-20T14:55:08Z</time>
      </trkpt>
      <trkpt lat="53.205" lon="-6.29273">
        <ele>425</ele>
        <time>2021-03-20T14:55:10Z</time>
      </trkpt>
      <trkpt lat="53.20485" lon="-6.29298">
        <ele>424.26</ele>
        <time>2021-03-20T14:55:12Z</time>
      </trkpt>
      <trkpt lat="53.20449" lon="-6.29386">
        <ele>420.93</ele>
        <time>2021-03-20T14:55:14Z</time>
      </trkpt>
      <trkpt lat="53.2043" lon="-6.29423">
        <ele>419.77</ele>
        <time>2021-03-20T14:55:16Z</time>
      </trkpt>
      <trkpt lat="53.20404" lon="-6.29459">
        <ele>417.54</ele>
        <time>2021-03-20T14:55:19Z</time>
      </trkpt>
      <trkpt lat="53.20351" lon="-6.29517">
        <ele>415.62</ele>
        <time>2021-03-20T14:55:21Z</time>
      </trkpt>
      <trkpt lat="53.20334" lon="-6.29531">
        <ele>416</ele>
        <time>2021-03-20T14:55:23Z</time>
      </trkpt>
      <trkpt lat="53.20288" lon="-6.29561">
        <ele>411.45</ele>
        <time>2021-03-20T14:55:25Z</time>
      </trkpt>
      <trkpt lat="53.20242" lon="-6.29573">
        <ele>408.67</ele>
        <time>2021-03-20T14:55:27Z</time>
      </trkpt>
      <trkpt lat="53.20226" lon="-6.2958">
        <ele>407.25</ele>
        <time>2021-03-20T14:55:30Z</time>
      </trkpt>
      <trkpt lat="53.20215" lon="-6.29589">
        <ele>406.44</ele>
        <time>2021-03-20T14:55:32Z</time>
      </trkpt>
      <trkpt lat="53.20207" lon="-6.29598">
        <ele>405.89</ele>
        <time>2021-03-20T14:55:34Z</time>
      </trkpt>
      <trkpt lat="53.202" lon="-6.29612">
        <ele>405.68</ele>
        <time>2021-03-20T14:55:36Z</time>
      </trkpt>
      <trkpt lat="53.20179" lon="-6.29675">
        <ele>407.82</ele>
        <time>2021-03-20T14:55:38Z</time>
      </trkpt>
      <trkpt lat="53.2017" lon="-6.29688">
        <ele>408.56</ele>
        <time>2021-03-20T14:55:40Z</time>
      </trkpt>
      <trkpt lat="53.20163" lon="-6.29692">
        <ele>408.86</ele>
        <time>2021-03-20T14:55:43Z</time>
      </trkpt>
      <trkpt lat="53.20154" lon="-6.2969">
        <ele>409.01</ele>
        <time>2021-03-20T14:55:45Z</time>
      </trkpt>
      <trkpt lat="53.20147" lon="-6.29683">
        <ele>408.51</ele>
        <time>2021-03-20T14:55:47Z</time>
      </trkpt>
      <trkpt lat="53.20128" lon="-6.29647">
        <ele>404.91</ele>
        <time>2021-03-20T14:55:49Z</time>
      </trkpt>
      <trkpt lat="53.20118" lon="-6.2963">
        <ele>402.89</ele>
        <time>2021-03-20T14:55:51Z</time>
      </trkpt>
      <trkpt lat="53.201" lon="-6.29606">
        <ele>400.5</ele>
        <time>2021-03-20T14:55:54Z</time>
      </trkpt>
      <trkpt lat="53.20046" lon="-6.29559">
        <ele>396.94</ele>
        <time>2021-03-20T14:55:56Z</time>
      </trkpt>
      <trkpt lat="53.19894" lon="-6.2944">
        <ele>384.68</ele>
        <time>2021-03-20T14:55:58Z</time>
      </trkpt>
      <trkpt lat="53.19862" lon="-6.29421">
        <ele>381.01</ele>
        <time>2021-03-20T14:56:00Z</time>
      </trkpt>
      <trkpt lat="53.19831" lon="-6.29411">
        <ele>378.74</ele>
        <time>2021-03-20T14:56:02Z</time>
      </trkpt>
      <trkpt lat="53.19819" lon="-6.29412">
        <ele>378.26</ele>
        <time>2021-03-20T14:56:05Z</time>
      </trkpt>
      <trkpt lat="53.19703" lon="-6.29446">
        <ele>372.59</ele>
        <time>2021-03-20T14:56:07Z</time>
      </trkpt>
      <trkpt lat="53.19641" lon="-6.29457">
        <ele>369.32</ele>
        <time>2021-03-20T14:56:09Z</time>
      </trkpt>
      <trkpt lat="53.19612" lon="-6.29466">
        <ele>368.17</ele>
        <time>2021-03-20T14:56:11Z</time>
      </trkpt>
      <trkpt lat="53.19581" lon="-6.2948">
        <ele>367.81</ele>
        <time>2021-03-20T14:56:13Z</time>
      </trkpt>
      <trkpt lat="53.19552" lon="-6.29487">
        <ele>365.36</ele>
        <time>2021-03-20T14:56:16Z</time>
      </trkpt>
      <trkpt lat="53.19486" lon="-6.29514">
        <ele>368.03</ele>
        <time>2021-03-20T14:56:18Z</time>
      </trkpt>
      <trkpt lat="53.19449" lon="-6.29515">
        <ele>368.21</ele>
        <time>2021-03-20T14:56:20Z</time>
      </trkpt>
      <trkpt lat="53.19421" lon="-6.29511">
        <ele>368.24</ele>
        <time>2021-03-20T14:56:22Z</time>
      </trkpt>
      <trkpt lat="53.19389" lon="-6.29497">
        <ele>367.32</ele>
        <time>2021-03-20T14:56:24Z</time>
      </trkpt>
      <trkpt lat="53.1936" lon="-6.29491">
        <ele>366.42</ele>
        <time>2021-03-20T14:56:26Z</time>
      </trkpt>
      <trkpt lat="53.19352" lon="-6.29487">
        <ele>366.27</ele>
        <time>2021-03-20T14:56:29Z</time>
      </trkpt>
      <trkpt lat="53.19343" lon="-6.29481">
        <ele>365.81</ele>
        <time>2021-03-20T14:56:31Z</time>
      </trkpt>
      <trkpt lat="53.19314" lon="-6.29452">
        <ele>364.17</ele>
        <time>2021-03-20T14:56:33Z</time>
      </trkpt>
      <trkpt lat="53.19245" lon="-6.29406">
        <ele>364.8</ele>
        <time>2021-03-20T14:56:35Z</time>
      </trkpt>
      <trkpt lat="53.19214" lon="-6.29378">
        <ele>363.66</ele>
        <time>2021-03-20T14:56:37Z</time>
      </trkpt>
      <trkpt lat="53.19192" lon="-6.29363">
        <ele>362.45</ele>
        <time>2021-03-20T14:56:40Z</time>
      </trkpt>
      <trkpt lat="53.19168" lon="-6.29352">
        <ele>360.95</ele>
        <time>2021-03-20T14:56:42Z</time>
      </trkpt>
      <trkpt lat="53.19138" lon="-6.29346">
        <ele>362.93</ele>
        <time>2021-03-20T14:56:44Z</time>
      </trkpt>
      <trkpt lat="53.19069" lon="-6.29296">
        <ele>360.64</ele>
        <time>2021-03-20T14:56:46Z</time>
      </trkpt>
      <trkpt lat="53.19031" lon="-6.29261">
        <ele>359.44</ele>
        <time>2021-03-20T14:56:48Z</time>
      </trkpt>
      <trkpt lat="53.18988" lon="-6.2923">
        <ele>359.69</ele>
        <time>2021-03-20T14:56:51Z</time>
      </trkpt>
      <trkpt lat="53.18944" lon="-6.29192">
        <ele>359.75</ele>
        <time>2021-03-20T14:56:53Z</time>
      </trkpt>
      <trkpt lat="53.18874" lon="-6.29179">
        <ele>359.88</ele>
        <time>2021-03-20T14:56:55Z</time>
      </trkpt>
      <trkpt lat="53.18848" lon="-6.29178">
        <ele>360.24</ele>
        <time>2021-03-20T14:56:57Z</time>
      </trkpt>
      <trkpt lat="53.18803" lon="-6.29167">
        <ele>357.96</ele>
        <time>2021-03-20T14:56:59Z</time>
      </trkpt>
      <trkpt lat="53.18791" lon="-6.29169">
        <ele>357.78</ele>
        <time>2021-03-20T14:57:02Z</time>
      </trkpt>
      <trkpt lat="53.1877" lon="-6.29181">
        <ele>357.73</ele>
        <time>2021-03-20T14:57:04Z</time>
      </trkpt>
      <trkpt lat="53.18762" lon="-6.29191">
        <ele>357.64</ele>
        <time>2021-03-20T14:57:06Z</time>
      </trkpt>
      <trkpt lat="53.18726" lon="-6.29259">
        <ele>362.43</ele>
        <time>2021-03-20T14:57:08Z</time>
      </trkpt>
      <trkpt lat="53.18688" lon="-6.29315">
        <ele>364.59</ele>
        <time>2021-03-20T14:57:10Z</time>
      </trkpt>
      <trkpt lat="53.18674" lon="-6.29327">
        <ele>364.78</ele>
        <time>2021-03-20T14:57:12Z</time>
      </trkpt>
      <trkpt lat="53.18663" lon="-6.2933">
        <ele>365</ele>
        <time>2021-03-20T14:57:15Z</time>
      </trkpt>
      <trkpt lat="53.18654" lon="-6.29326">
        <ele>365.61</ele>
        <time>2021-03-20T14:57:17Z</time>
      </trkpt>
      <trkpt lat="53.18635" lon="-6.2931">
        <ele>365.86</ele>
        <time>2021-03-20T14:57:19Z</time>
      </trkpt>
      <trkpt lat="53.18601" lon="-6.29294">
        <ele>367.45</ele>
        <time>2021-03-20T14:57:21Z</time>
      </trkpt>
      <trkpt lat="53.18592" lon="-6.29285">
        <ele>367.14</ele>
        <time>2021-03-20T14:57:23Z</time>
      </trkpt>
      <trkpt lat="53.18579" lon="-6.29255">
        <ele>366.83</ele>
        <time>2021-03-20T14:57:26Z</time>
      </trkpt>
      <trkpt lat="53.18566" lon="-6.29212">
        <ele>367.14</ele>
        <time>2021-03-20T14:57:28Z</time>
      </trkpt>
      <trkpt lat="53.18562" lon="-6.29169">
        <ele>367.34</ele>
        <time>2021-03-20T14:57:30Z</time>
      </trkpt>
      <trkpt lat="53.18559" lon="-6.2907">
        <ele>367.74</ele>
        <time>2021-03-20T14:57:32Z</time>
      </trkpt>
      <trkpt lat="53.18555" lon="-6.29046">
        <ele>368.11</ele>
        <time>2021-03-20T14:57:34Z</time>
      </trkpt>
      <trkpt lat="53.18548" lon="-6.29027">
        <ele>368.82</ele>
        <time>2021-03-20T14:57:37Z</time>
      </trkpt>
      <trkpt lat="53.18538" lon="-6.29016">
        <ele>369.58</ele>
        <time>2021-03-20T14:57:39Z</time>
      </trkpt>
      <trkpt lat="53.18525" lon="-6.29009">
        <ele>370.44</ele>
        <time>2021-03-20T14:57:41Z</time>
      </trkpt>
      <trkpt lat="53.18509" lon="-6.29005">
        <ele>370.98</ele>
        <time>2021-03-20T14:57:43Z</time>
      </trkpt>
      <trkpt lat="53.18493" lon="-6.29003">
        <ele>371.27</ele>
        <time>2021-03-20T14:57:45Z</time>
      </trkpt>
      <trkpt lat="53.18478" lon="-6.29006">
        <ele>371.56</ele>
        <time>2021-03-20T14:57:48Z</time>
      </trkpt>
      <trkpt lat="53.18452" lon="-6.2902">
        <ele>372.39</ele>
        <time>2021-03-20T14:57:50Z</time>
      </trkpt>
      <trkpt lat="53.18419" lon="-6.29043">
        <ele>376.47</ele>
        <time>2021-03-20T14:57:52Z</time>
      </trkpt>
      <trkpt lat="53.18354" lon="-6.29075">
        <ele>383.66</ele>
        <time>2021-03-20T14:57:54Z</time>
      </trkpt>
      <trkpt lat="53.1833" lon="-6.29091">
        <ele>386.79</ele>
        <time>2021-03-20T14:57:56Z</time>
      </trkpt>
      <trkpt lat="53.18295" lon="-6.2912">
        <ele>390.04</ele>
        <time>2021-03-20T14:57:58Z</time>
      </trkpt>
      <trkpt lat="53.18281" lon="-6.29124">
        <ele>390.83</ele>
        <time>2021-03-20T14:58:01Z</time>
      </trkpt>
      <trkpt lat="53.18266" lon="-6.29121">
        <ele>391.14</ele>
        <time>2021-03-20T14:58:03Z</time>
      </trkpt>
      <trkpt lat="53.18256" lon="-6.29113">
        <ele>390.93</ele>
        <time>2021-03-20T14:58:05Z</time>
      </trkpt>
      <trkpt lat="53.18205" lon="-6.29052">
        <ele>392.49</ele>
        <time>2021-03-20T14:58:07Z</time>
      </trkpt>
      <trkpt lat="53.18179" lon="-6.29029">
        <ele>393.15</ele>
        <time>2021-03-20T14:58:09Z</time>
      </trkpt>
      <trkpt lat="53.18161" lon="-6.29019">
        <ele>394.28</ele>
        <time>2021-03-20T14:58:12Z</time>
      </trkpt>
      <trkpt lat="53.18098" lon="-6.29007">
        <ele>401.24</ele>
        <time>2021-03-20T14:58:14Z</time>
      </trkpt>
      <trkpt lat="53.18078" lon="-6.29006">
        <ele>402.6</ele>
        <time>2021-03-20T14:58:16Z</time>
      </trkpt>
      <trkpt lat="53.18068" lon="-6.29009">
        <ele>403.43</ele>
        <time>2021-03-20T14:58:18Z</time>
      </trkpt>
      <trkpt lat="53.17999" lon="-6.29051">
        <ele>410.14</ele>
        <time>2021-03-20T14:58:20Z</time>
      </trkpt>
      <trkpt lat="53.17984" lon="-6.29053">
        <ele>412.34</ele>
        <time>2021-03-20T14:58:23Z</time>
      </trkpt>
      <trkpt lat="53.17954" lon="-6.29049">
        <ele>416.22</ele>
        <time>2021-03-20T14:58:25Z</time>
      </trkpt>
      <trkpt lat="53.17897" lon="-6.29074">
        <ele>422.1</ele>
        <time>2021-03-20T14:58:27Z</time>
      </trkpt>
      <trkpt lat="53.17878" lon="-6.29088">
        <ele>424.21</ele>
        <time>2021-03-20T14:58:29Z</time>
      </trkpt>
      <trkpt lat="53.1784" lon="-6.29135">
        <ele>428.49</ele>
        <time>2021-03-20T14:58:31Z</time>
      </trkpt>
      <trkpt lat="53.17825" lon="-6.29146">
        <ele>429.54</ele>
        <time>2021-03-20T14:58:33Z</time>
      </trkpt>
      <trkpt lat="53.17814" lon="-6.29149">
        <ele>430.13</ele>
        <time>2021-03-20T14:58:36Z</time>
      </trkpt>
      <trkpt lat="53.17799" lon="-6.29142">
        <ele>431.16</ele>
        <time>2021-03-20T14:58:38Z</time>
      </trkpt>
      <trkpt lat="53.1777" lon="-6.29108">
        <ele>434.1</ele>
        <time>2021-03-20T14:58:40Z</time>
      </trkpt>
      <trkpt lat="53.17757" lon="-6.29096">
        <ele>435.89</ele>
        <time>2021-03-20T14:58:42Z</time>
      </trkpt>
      <trkpt lat="53.17735" lon="-6.29083">
        <ele>438.64</ele>
        <time>2021-03-20T14:58:44Z</time>
      </trkpt>
      <trkpt lat="53.17721" lon="-6.29081">
        <ele>440.25</ele>
        <time>2021-03-20T14:58:47Z</time>
      </trkpt>
      <trkpt lat="53.17665" lon="-6.29085">
        <ele>446.92</ele>
        <time>2021-03-20T14:58:49Z</time>
      </trkpt>
      <trkpt lat="53.17614" lon="-6.29078">
        <ele>451.96</ele>
        <time>2021-03-20T14:58:51Z</time>
      </trkpt>
      <trkpt lat="53.17591" lon="-6.29081">
        <ele>455.16</ele>
        <time>2021-03-20T14:58:53Z</time>
      </trkpt>
      <trkpt lat="53.17575" lon="-6.2909">
        <ele>456.48</ele>
        <time>2021-03-20T14:58:55Z</time>
      </trkpt>
      <trkpt lat="53.17545" lon="-6.29113">
        <ele>459.5</ele>
        <time>2021-03-20T14:58:58Z</time>
      </trkpt>
      <trkpt lat="53.17504" lon="-6.29149">
        <ele>463.9</ele>
        <time>2021-03-20T14:59:00Z</time>
      </trkpt>
      <trkpt lat="53.17491" lon="-6.29163">
        <ele>465.94</ele>
        <time>2021-03-20T14:59:02Z</time>
      </trkpt>
      <trkpt lat="53.17465" lon="-6.29211">
        <ele>466.42</ele>
        <time>2021-03-20T14:59:04Z</time>
      </trkpt>
      <trkpt lat="53.17456" lon="-6.29219">
        <ele>467.71</ele>
        <time>2021-03-20T14:59:06Z</time>
      </trkpt>
      <trkpt lat="53.17444" lon="-6.29225">
        <ele>470.69</ele>
        <time>2021-03-20T14:59:09Z</time>
      </trkpt>
      <trkpt lat="53.1743" lon="-6.29226">
        <ele>473.17</ele>
        <time>2021-03-20T14:59:11Z</time>
      </trkpt>
      <trkpt lat="53.17409" lon="-6.2922">
        <ele>477.05</ele>
        <time>2021-03-20T14:59:13Z</time>
      </trkpt>
      <trkpt lat="53.17401" lon="-6.29212">
        <ele>478.56</ele>
        <time>2021-03-20T14:59:15Z</time>
      </trkpt>
      <trkpt lat="53.17392" lon="-6.29201">
        <ele>479.66</ele>
        <time>2021-03-20T14:59:17Z</time>
      </trkpt>
      <trkpt lat="53.17373" lon="-6.29169">
        <ele>481.4</ele>
        <time>2021-03-20T14:59:19Z</time>
      </trkpt>
      <trkpt lat="53.17343" lon="-6.29132">
        <ele>483.62</ele>
        <time>2021-03-20T14:59:22Z</time>
      </trkpt>
      <trkpt lat="53.17339" lon="-6.29125">
        <ele>484.14</ele>
        <time>2021-03-20T14:59:24Z</time>
      </trkpt>
      <trkpt lat="53.17332" lon="-6.29101">
        <ele>485.43</ele>
        <time>2021-03-20T14:59:26Z</time>
      </trkpt>
      <trkpt lat="53.17322" lon="-6.29059">
        <ele>487.82</ele>
        <time>2021-03-20T14:59:28Z</time>
      </trkpt>
      <trkpt lat="53.17311" lon="-6.29044">
        <ele>488.83</ele>
        <time>2021-03-20T14:59:30Z</time>
      </trkpt>
      <trkpt lat="53.17298" lon="-6.29035">
        <ele>490.01</ele>
        <time>2021-03-20T14:59:33Z</time>
      </trkpt>
      <trkpt lat="53.17259" lon="-6.29029">
        <ele>493.95</ele>
        <time>2021-03-20T14:59:35Z</time>
      </trkpt>
      <trkpt lat="53.17249" lon="-6.29024">
        <ele>495.13</ele>
        <time>2021-03-20T14:59:37Z</time>
      </trkpt>
      <trkpt lat="53.1723" lon="-6.29009">
        <ele>495.69</ele>
        <time>2021-03-20T14:59:39Z</time>
      </trkpt>
      <trkpt lat="53.17213" lon="-6.28988">
        <ele>496.44</ele>
        <time>2021-03-20T14:59:41Z</time>
      </trkpt>
      <trkpt lat="53.17201" lon="-6.28976">
        <ele>496.87</ele>
        <time>2021-03-20T14:59:44Z</time>
      </trkpt>
      <trkpt lat="53.17157" lon="-6.28949">
        <ele>498.4</ele>
        <time>2021-03-20T14:59:46Z</time>
      </trkpt>
      <trkpt lat="53.17132" lon="-6.28941">
        <ele>499.6</ele>
        <time>2021-03-20T14:59:48Z</time>
      </trkpt>
      <trkpt lat="53.17123" lon="-6.28942">
        <ele>500.25</ele>
        <time>2021-03-20T14:59:50Z</time>
      </trkpt>
      <trkpt lat="53.17108" lon="-6.28947">
        <ele>501.35</ele>
        <time>2021-03-20T14:59:52Z</time>
      </trkpt>
      <trkpt lat="53.17078" lon="-6.28971">
        <ele>503.87</ele>
        <time>2021-03-20T14:59:55Z</time>
      </trkpt>
      <trkpt lat="53.17046" lon="-6.29006">
        <ele>506.49</ele>
        <time>2021-03-20T14:59:57Z</time>
      </trkpt>
      <trkpt lat="53.16886" lon="-6.29217">
        <ele>514.18</ele>
        <time>2021-03-20T14:59:59Z</time>
      </trkpt>
      <trkpt lat="53.16866" lon="-6.29239">
        <ele>515.63</ele>
        <time>2021-03-20T15:00:01Z</time>
      </trkpt>
      <trkpt lat="53.16843" lon="-6.29253">
        <ele>516.66</ele>
        <time>2021-03-20T15:00:03Z</time>
      </trkpt>
      <trkpt lat="53.1683" lon="-6.29259">
        <ele>517.12</ele>
        <time>2021-03-20T15:00:05Z</time>
      </trkpt>
      <trkpt lat="53.16687" lon="-6.293">
        <ele>520.42</ele>
        <time>2021-03-20T15:00:08Z</time>
      </trkpt>
      <trkpt lat="53.16666" lon="-6.29311">
        <ele>521</ele>
        <time>2021-03-20T15:00:10Z</time>
      </trkpt>
      <trkpt lat="53.16641" lon="-6.29331">
        <ele>521</ele>
        <time>2021-03-20T15:00:12Z</time>
      </trkpt>
      <trkpt lat="53.16634" lon="-6.2934">
        <ele>521.14</ele>
        <time>2021-03-20T15:00:14Z</time>
      </trkpt>
      <trkpt lat="53.16606" lon="-6.29397">
        <ele>520.18</ele>
        <time>2021-03-20T15:00:16Z</time>
      </trkpt>
      <trkpt lat="53.16599" lon="-6.29417">
        <ele>520.44</ele>
        <time>2021-03-20T15:00:19Z</time>
      </trkpt>
      <trkpt lat="53.16585" lon="-6.29445">
        <ele>520.94</ele>
        <time>2021-03-20T15:00:21Z</time>
      </trkpt>
      <trkpt lat="53.16574" lon="-6.29459">
        <ele>521.52</ele>
        <time>2021-03-20T15:00:23Z</time>
      </trkpt>
      <trkpt lat="53.16563" lon="-6.29466">
        <ele>521.9</ele>
        <time>2021-03-20T15:00:25Z</time>
      </trkpt>
      <trkpt lat="53.16513" lon="-6.29476">
        <ele>522.33</ele>
        <time>2021-03-20T15:00:27Z</time>
      </trkpt>
      <trkpt lat="53.16415" lon="-6.2949">
        <ele>524.02</ele>
        <time>2021-03-20T15:00:30Z</time>
      </trkpt>
      <trkpt lat="53.16395" lon="-6.295">
        <ele>523.99</ele>
        <time>2021-03-20T15:00:32Z</time>
      </trkpt>
      <trkpt lat="53.16387" lon="-6.29509">
        <ele>523.6</ele>
        <time>2021-03-20T15:00:34Z</time>
      </trkpt>
      <trkpt lat="53.16372" lon="-6.29535">
        <ele>522.28</ele>
        <time>2021-03-20T15:00:36Z</time>
      </trkpt>
      <trkpt lat="53.16358" lon="-6.29567">
        <ele>521.58</ele>
        <time>2021-03-20T15:00:38Z</time>
      </trkpt>
      <trkpt lat="53.16227" lon="-6.29934">
        <ele>515.5</ele>
        <time>2021-03-20T15:00:41Z</time>
      </trkpt>
      <trkpt lat="53.16058" lon="-6.30398">
        <ele>520.97</ele>
        <time>2021-03-20T15:00:43Z</time>
      </trkpt>
      <trkpt lat="53.16048" lon="-6.30438">
        <ele>521</ele>
        <time>2021-03-20T15:00:45Z</time>
      </trkpt>
      <trkpt lat="53.16044" lon="-6.30518">
        <ele>521.56</ele>
        <time>2021-03-20T15:00:47Z</time>
      </trkpt>
      <trkpt lat="53.16054" lon="-6.30798">
        <ele>522.31</ele>
        <time>2021-03-20T15:00:49Z</time>
      </trkpt>
      <trkpt lat="53.16052" lon="-6.30827">
        <ele>522.12</ele>
        <time>2021-03-20T15:00:51Z</time>
      </trkpt>
      <trkpt lat="53.16049" lon="-6.30848">
        <ele>521.73</ele>
        <time>2021-03-20T15:00:54Z</time>
      </trkpt>
      <trkpt lat="53.16017" lon="-6.30952">
        <ele>520.12</ele>
        <time>2021-03-20T15:00:56Z</time>
      </trkpt>
      <trkpt lat="53.15997" lon="-6.31006">
        <ele>519</ele>
        <time>2021-03-20T15:00:58Z</time>
      </trkpt>
      <trkpt lat="53.15965" lon="-6.31065">
        <ele>518.93</ele>
        <time>2021-03-20T15:01:00Z</time>
      </trkpt>
      <trkpt lat="53.15948" lon="-6.3109">
        <ele>518.68</ele>
        <time>2021-03-20T15:01:02Z</time>
      </trkpt>
      <trkpt lat="53.15892" lon="-6.31126">
        <ele>516.58</ele>
        <time>2021-03-20T15:01:05Z</time>
      </trkpt>
      <trkpt lat="53.15863" lon="-6.31138">
        <ele>516.04</ele>
        <time>2021-03-20T15:01:07Z</time>
      </trkpt>
      <trkpt lat="53.15842" lon="-6.31138">
        <ele>516.04</ele>
        <time>2021-03-20T15:01:09Z</time>
      </trkpt>
      <trkpt lat="53.15806" lon="-6.31127">
        <ele>515.91</ele>
        <time>2021-03-20T15:01:11Z</time>
      </trkpt>
      <trkpt lat="53.15748" lon="-6.31084">
        <ele>514.91</ele>
        <time>2021-03-20T15:01:13Z</time>
      </trkpt>
      <trkpt lat="53.15734" lon="-6.31076">
        <ele>514.98</ele>
        <time>2021-03-20T15:01:16Z</time>
      </trkpt>
      <trkpt lat="53.15717" lon="-6.3107">
        <ele>514.74</ele>
        <time>2021-03-20T15:01:18Z</time>
      </trkpt>
      <trkpt lat="53.15698" lon="-6.31074">
        <ele>513.8</ele>
        <time>2021-03-20T15:01:20Z</time>
      </trkpt>
      <trkpt lat="53.15676" lon="-6.31084">
        <ele>512.32</ele>
        <time>2021-03-20T15:01:22Z</time>
      </trkpt>
      <trkpt lat="53.15655" lon="-6.31086">
        <ele>511.08</ele>
        <time>2021-03-20T15:01:24Z</time>
      </trkpt>
      <trkpt lat="53.15598" lon="-6.31083">
        <ele>509.51</ele>
        <time>2021-03-20T15:01:27Z</time>
      </trkpt>
      <trkpt lat="53.15574" lon="-6.31078">
        <ele>510.4</ele>
        <time>2021-03-20T15:01:29Z</time>
      </trkpt>
      <trkpt lat="53.15529" lon="-6.31063">
        <ele>509.52</ele>
        <time>2021-03-20T15:01:31Z</time>
      </trkpt>
      <trkpt lat="53.15517" lon="-6.31062">
        <ele>508.78</ele>
        <time>2021-03-20T15:01:33Z</time>
      </trkpt>
      <trkpt lat="53.15465" lon="-6.31062">
        <ele>508.75</ele>
        <time>2021-03-20T15:01:35Z</time>
      </trkpt>
      <trkpt lat="53.15416" lon="-6.31068">
        <ele>507.6</ele>
        <time>2021-03-20T15:01:37Z</time>
      </trkpt>
      <trkpt lat="53.15371" lon="-6.31069">
        <ele>504.04</ele>
        <time>2021-03-20T15:01:40Z</time>
      </trkpt>
      <trkpt lat="53.15348" lon="-6.31064">
        <ele>504.08</ele>
        <time>2021-03-20T15:01:42Z</time>
      </trkpt>
      <trkpt lat="53.15322" lon="-6.31064">
        <ele>503.83</ele>
        <time>2021-03-20T15:01:44Z</time>
      </trkpt>
      <trkpt lat="53.15293" lon="-6.31057">
        <ele>504.36</ele>
        <time>2021-03-20T15:01:46Z</time>
      </trkpt>
      <trkpt lat="53.15254" lon="-6.31041">
        <ele>505.69</ele>
        <time>2021-03-20T15:01:48Z</time>
      </trkpt>
      <trkpt lat="53.15239" lon="-6.31037">
        <ele>506.05</ele>
        <time>2021-03-20T15:01:51Z</time>
      </trkpt>
      <trkpt lat="53.15229" lon="-6.31038">
        <ele>505.92</ele>
        <time>2021-03-20T15:01:53Z</time>
      </trkpt>
      <trkpt lat="53.15197" lon="-6.31051">
        <ele>504.51</ele>
        <time>2021-03-20T15:01:55Z</time>
      </trkpt>
      <trkpt lat="53.15178" lon="-6.31062">
        <ele>504.11</ele>
        <time>2021-03-20T15:01:57Z</time>
      </trkpt>
      <trkpt lat="53.15129" lon="-6.31098">
        <ele>504.09</ele>
        <time>2021-03-20T15:01:59Z</time>
      </trkpt>
      <trkpt lat="53.15118" lon="-6.31103">
        <ele>503.85</ele>
        <time>2021-03-20T15:02:02Z</time>
      </trkpt>
      <trkpt lat="53.1508" lon="-6.31109">
        <ele>503.23</ele>
        <time>2021-03-20T15:02:04Z</time>
      </trkpt>
      <trkpt lat="53.15022" lon="-6.31107">
        <ele>503.27</ele>
        <time>2021-03-20T15:02:06Z</time>
      </trkpt>
      <trkpt lat="53.14998" lon="-6.31109">
        <ele>502.2</ele>
        <time>2021-03-20T15:02:08Z</time>
      </trkpt>
      <trkpt lat="53.14933" lon="-6.31125">
        <ele>499.94</ele>
        <time>2021-03-20T15:02:10Z</time>
      </trkpt>
      <trkpt lat="53.14921" lon="-6.3113">
        <ele>499.83</ele>
        <time>2021-03-20T15:02:12Z</time>
      </trkpt>
      <trkpt lat="53.14901" lon="-6.31145">
        <ele>499.48</ele>
        <time>2021-03-20T15:02:15Z</time>
      </trkpt>
      <trkpt lat="53.14874" lon="-6.31179">
        <ele>497.72</ele>
        <time>2021-03-20T15:02:17Z</time>
      </trkpt>
      <trkpt lat="53.1485" lon="-6.31201">
        <ele>496.32</ele>
        <time>2021-03-20T15:02:19Z</time>
      </trkpt>
      <trkpt lat="53.14802" lon="-6.31232">
        <ele>494.5</ele>
        <time>2021-03-20T15:02:21Z</time>
      </trkpt>
      <trkpt lat="53.14756" lon="-6.31267">
        <ele>495.43</ele>
        <time>2021-03-20T15:02:23Z</time>
      </trkpt>
      <trkpt lat="53.1474" lon="-6.31273">
        <ele>495.5</ele>
        <time>2021-03-20T15:02:26Z</time>
      </trkpt>
      <trkpt lat="53.14677" lon="-6.31287">
        <ele>495.6</ele>
        <time>2021-03-20T15:02:28Z</time>
      </trkpt>
      <trkpt lat="53.14636" lon="-6.31272">
        <ele>495.55</ele>
        <time>2021-03-20T15:02:30Z</time>
      </trkpt>
      <trkpt lat="53.14624" lon="-6.3127">
        <ele>495.41</ele>
        <time>2021-03-20T15:02:32Z</time>
      </trkpt>
      <trkpt lat="53.14578" lon="-6.31278">
        <ele>494.17</ele>
        <time>2021-03-20T15:02:34Z</time>
      </trkpt>
      <trkpt lat="53.14459" lon="-6.31282">
        <ele>494.37</ele>
        <time>2021-03-20T15:02:37Z</time>
      </trkpt>
      <trkpt lat="53.14373" lon="-6.31302">
        <ele>492.39</ele>
        <time>2021-03-20T15:02:39Z</time>
      </trkpt>
      <trkpt lat="53.1433" lon="-6.31321">
        <ele>490.56</ele>
        <time>2021-03-20T15:02:41Z</time>
      </trkpt>
      <trkpt lat="53.14238" lon="-6.31336">
        <ele>490.68</ele>
        <time>2021-03-20T15:02:43Z</time>
      </trkpt>
      <trkpt lat="53.14179" lon="-6.31349">
        <ele>490.58</ele>
        <time>2021-03-20T15:02:45Z</time>
      </trkpt>
      <trkpt lat="53.14163" lon="-6.31348">
        <ele>490.89</ele>
        <time>2021-03-20T15:02:48Z</time>
      </trkpt>
      <trkpt lat="53.14141" lon="-6.31342">
        <ele>492.03</ele>
        <time>2021-03-20T15:02:50Z</time>
      </trkpt>
      <trkpt lat="53.14041" lon="-6.31294">
        <ele>492.85</ele>
        <time>2021-03-20T15:02:52Z</time>
      </trkpt>
      <trkpt lat="53.14032" lon="-6.31292">
        <ele>493</ele>
        <time>2021-03-20T15:02:54Z</time>
      </trkpt>
      <trkpt lat="53.13997" lon="-6.31294">
        <ele>493.43</ele>
        <time>2021-03-20T15:02:56Z</time>
      </trkpt>
      <trkpt lat="53.13986" lon="-6.31291">
        <ele>493.53</ele>
        <time>2021-03-20T15:02:58Z</time>
      </trkpt>
      <trkpt lat="53.13809" lon="-6.31207">
        <ele>494</ele>
        <time>2021-03-20T15:03:01Z</time>
      </trkpt>
      <trkpt lat="53.13787" lon="-6.31198">
        <ele>494.67</ele>
        <time>2021-03-20T15:03:03Z</time>
      </trkpt>
      <trkpt lat="53.13774" lon="-6.31197">
        <ele>495.32</ele>
        <time>2021-03-20T15:03:05Z</time>
      </trkpt>
      <trkpt lat="53.13743" lon="-6.31205">
        <ele>497.65</ele>
        <time>2021-03-20T15:03:07Z</time>
      </trkpt>
      <trkpt lat="53.13737" lon="-6.31204">
        <ele>497.82</ele>
        <time>2021-03-20T15:03:09Z</time>
      </trkpt>
      <trkpt lat="53.13728" lon="-6.31196">
        <ele>497.86</ele>
        <time>2021-03-20T15:03:12Z</time>
      </trkpt>
      <trkpt lat="53.13699" lon="-6.31157">
        <ele>497.86</ele>
        <time>2021-03-20T15:03:14Z</time>
      </trkpt>
      <trkpt lat="53.13669" lon="-6.31124">
        <ele>498.7</ele>
        <time>2021-03-20T15:03:16Z</time>
      </trkpt>
      <trkpt lat="53.13655" lon="-6.31106">
        <ele>498.46</ele>
        <time>2021-03-20T15:03:18Z</time>
      </trkpt>
      <trkpt lat="53.13629" lon="-6.31059">
        <ele>497.03</ele>
        <time>2021-03-20T15:03:20Z</time>
      </trkpt>
      <trkpt lat="53.13615" lon="-6.31044">
        <ele>496.57</ele>
        <time>2021-03-20T15:03:23Z</time>
      </trkpt>
      <trkpt lat="53.13586" lon="-6.31034">
        <ele>497.51</ele>
        <time>2021-03-20T15:03:25Z</time>
      </trkpt>
      <trkpt lat="53.13565" lon="-6.31021">
        <ele>497.08</ele>
        <time>2021-03-20T15:03:27Z</time>
      </trkpt>
      <trkpt lat="53.13542" lon="-6.30989">
        <ele>496.07</ele>
        <time>2021-03-20T15:03:29Z</time>
      </trkpt>
      <trkpt lat="53.13535" lon="-6.30982">
        <ele>496.09</ele>
        <time>2021-03-20T15:03:31Z</time>
      </trkpt>
      <trkpt lat="53.13527" lon="-6.30979">
        <ele>496.27</ele>
        <time>2021-03-20T15:03:34Z</time>
      </trkpt>
      <trkpt lat="53.13498" lon="-6.3098">
        <ele>497.38</ele>
        <time>2021-03-20T15:03:36Z</time>
      </trkpt>
      <trkpt lat="53.13488" lon="-6.30978">
        <ele>497.73</ele>
        <time>2021-03-20T15:03:38Z</time>
      </trkpt>
      <trkpt lat="53.1347" lon="-6.30962">
        <ele>496.89</ele>
        <time>2021-03-20T15:03:40Z</time>
      </trkpt>
      <trkpt lat="53.1345" lon="-6.30936">
        <ele>494.68</ele>
        <time>2021-03-20T15:03:42Z</time>
      </trkpt>
      <trkpt lat="53.13433" lon="-6.30922">
        <ele>494.62</ele>
        <time>2021-03-20T15:03:44Z</time>
      </trkpt>
      <trkpt lat="53.13373" lon="-6.30909">
        <ele>496.86</ele>
        <time>2021-03-20T15:03:47Z</time>
      </trkpt>
      <trkpt lat="53.13354" lon="-6.30898">
        <ele>496.23</ele>
        <time>2021-03-20T15:03:49Z</time>
      </trkpt>
      <trkpt lat="53.13332" lon="-6.30872">
        <ele>494.98</ele>
        <time>2021-03-20T15:03:51Z</time>
      </trkpt>
      <trkpt lat="53.13297" lon="-6.30822">
        <ele>494.18</ele>
        <time>2021-03-20T15:03:53Z</time>
      </trkpt>
      <trkpt lat="53.13267" lon="-6.30756">
        <ele>492.21</ele>
        <time>2021-03-20T15:03:55Z</time>
      </trkpt>
      <trkpt lat="53.13247" lon="-6.30727">
        <ele>491.54</ele>
        <time>2021-03-20T15:03:58Z</time>
      </trkpt>
      <trkpt lat="53.13233" lon="-6.30712">
        <ele>491.07</ele>
        <time>2021-03-20T15:04:00Z</time>
      </trkpt>
      <trkpt lat="53.13208" lon="-6.30698">
        <ele>489.4</ele>
        <time>2021-03-20T15:04:02Z</time>
      </trkpt>
      <trkpt lat="53.1319" lon="-6.30693">
        <ele>488.75</ele>
        <time>2021-03-20T15:04:04Z</time>
      </trkpt>
      <trkpt lat="53.13182" lon="-6.30694">
        <ele>488.89</ele>
        <time>2021-03-20T15:04:06Z</time>
      </trkpt>
      <trkpt lat="53.13173" lon="-6.30699">
        <ele>489.44</ele>
        <time>2021-03-20T15:04:09Z</time>
      </trkpt>
      <trkpt lat="53.13156" lon="-6.30719">
        <ele>490.92</ele>
        <time>2021-03-20T15:04:11Z</time>
      </trkpt>
      <trkpt lat="53.13131" lon="-6.30758">
        <ele>493.32</ele>
        <time>2021-03-20T15:04:13Z</time>
      </trkpt>
      <trkpt lat="53.13117" lon="-6.30776">
        <ele>494.11</ele>
        <time>2021-03-20T15:04:15Z</time>
      </trkpt>
      <trkpt lat="53.131" lon="-6.3079">
        <ele>495.14</ele>
        <time>2021-03-20T15:04:17Z</time>
      </trkpt>
      <trkpt lat="53.13074" lon="-6.30802">
        <ele>496.11</ele>
        <time>2021-03-20T15:04:20Z</time>
      </trkpt>
      <trkpt lat="53.13041" lon="-6.30813">
        <ele>495.42</ele>
        <time>2021-03-20T15:04:22Z</time>
      </trkpt>
      <trkpt lat="53.13006" lon="-6.30842">
        <ele>496.92</ele>
        <time>2021-03-20T15:04:24Z</time>
      </trkpt>
      <trkpt lat="53.12971" lon="-6.30854">
        <ele>498.92</ele>
        <time>2021-03-20T15:04:26Z</time>
      </trkpt>
      <trkpt lat="53.12963" lon="-6.30854">
        <ele>499.69</ele>
        <time>2021-03-20T15:04:28Z</time>
      </trkpt>
      <trkpt lat="53.12952" lon="-6.30847">
        <ele>499.66</ele>
        <time>2021-03-20T15:04:30Z</time>
      </trkpt>
      <trkpt lat="53.12944" lon="-6.30833">
        <ele>498.07</ele>
        <time>2021-03-20T15:04:33Z</time>
      </trkpt>
      <trkpt lat="53.12932" lon="-6.30799">
        <ele>496.61</ele>
        <time>2021-03-20T15:04:35Z</time>
      </trkpt>
      <trkpt lat="53.12931" lon="-6.30786">
        <ele>495.25</ele>
        <time>2021-03-20T15:04:37Z</time>
      </trkpt>
      <trkpt lat="53.12934" lon="-6.30772">
        <ele>494.1</ele>
        <time>2021-03-20T15:04:39Z</time>
      </trkpt>
      <trkpt lat="53.12943" lon="-6.3075">
        <ele>493.17</ele>
        <time>2021-03-20T15:04:41Z</time>
      </trkpt>
      <trkpt lat="53.12946" lon="-6.30738">
        <ele>492.84</ele>
        <time>2021-03-20T15:04:44Z</time>
      </trkpt>
      <trkpt lat="53.12944" lon="-6.30712">
        <ele>493.05</ele>
        <time>2021-03-20T15:04:46Z</time>
      </trkpt>
      <trkpt lat="53.12934" lon="-6.30688">
        <ele>493.67</ele>
        <time>2021-03-20T15:04:48Z</time>
      </trkpt>
      <trkpt lat="53.12903" lon="-6.3066">
        <ele>494.02</ele>
        <time>2021-03-20T15:04:50Z</time>
      </trkpt>
      <trkpt lat="53.1289" lon="-6.30631">
        <ele>492.42</ele>
        <time>2021-03-20T15:04:52Z</time>
      </trkpt>
      <trkpt lat="53.12876" lon="-6.30609">
        <ele>490.87</ele>
        <time>2021-03-20T15:04:55Z</time>
      </trkpt>
      <trkpt lat="53.1282" lon="-6.30561">
        <ele>490.62</ele>
        <time>2021-03-20T15:04:57Z</time>
      </trkpt>
      <trkpt lat="53.12765" lon="-6.3051">
        <ele>490.87</ele>
        <time>2021-03-20T15:04:59Z</time>
      </trkpt>
      <trkpt lat="53.12744" lon="-6.3048">
        <ele>490.56</ele>
        <time>2021-03-20T15:05:01Z</time>
      </trkpt>
      <trkpt lat="53.12721" lon="-6.30437">
        <ele>487.78</ele>
        <time>2021-03-20T15:05:03Z</time>
      </trkpt>
      <trkpt lat="53.12714" lon="-6.30429">
        <ele>487.57</ele>
        <time>2021-03-20T15:05:06Z</time>
      </trkpt>
      <trkpt lat="53.12704" lon="-6.30422">
        <ele>487.3</ele>
        <time>2021-03-20T15:05:08Z</time>
      </trkpt>
      <trkpt lat="53.1268" lon="-6.30417">
        <ele>488.05</ele>
        <time>2021-03-20T15:05:10Z</time>
      </trkpt>
      <trkpt lat="53.12664" lon="-6.30418">
        <ele>489.05</ele>
        <time>2021-03-20T15:05:12Z</time>
      </trkpt>
      <trkpt lat="53.12638" lon="-6.30426">
        <ele>489.26</ele>
        <time>2021-03-20T15:05:14Z</time>
      </trkpt>
      <trkpt lat="53.12571" lon="-6.30467">
        <ele>490.92</ele>
        <time>2021-03-20T15:05:16Z</time>
      </trkpt>
      <trkpt lat="53.12539" lon="-6.30476">
        <ele>492.41</ele>
        <time>2021-03-20T15:05:19Z</time>
      </trkpt>
      <trkpt lat="53.12518" lon="-6.30472">
        <ele>492.29</ele>
        <time>2021-03-20T15:05:21Z</time>
      </trkpt>
      <trkpt lat="53.12413" lon="-6.30417">
        <ele>493.2</ele>
        <time>2021-03-20T15:05:23Z</time>
      </trkpt>
      <trkpt lat="53.12363" lon="-6.30408">
        <ele>495.56</ele>
        <time>2021-03-20T15:05:25Z</time>
      </trkpt>
      <trkpt lat="53.12346" lon="-6.30402">
        <ele>496.28</ele>
        <time>2021-03-20T15:05:27Z</time>
      </trkpt>
      <trkpt lat="53.12307" lon="-6.30382">
        <ele>495.04</ele>
        <time>2021-03-20T15:05:30Z</time>
      </trkpt>
      <trkpt lat="53.12262" lon="-6.30354">
        <ele>494.3</ele>
        <time>2021-03-20T15:05:32Z</time>
      </trkpt>
      <trkpt lat="53.12197" lon="-6.30327">
        <ele>494.47</ele>
        <time>2021-03-20T15:05:34Z</time>
      </trkpt>
      <trkpt lat="53.12183" lon="-6.30318">
        <ele>494.92</ele>
        <time>2021-03-20T15:05:36Z</time>
      </trkpt>
      <trkpt lat="53.12167" lon="-6.303">
        <ele>494.46</ele>
        <time>2021-03-20T15:05:38Z</time>
      </trkpt>
      <trkpt lat="53.12136" lon="-6.30262">
        <ele>497.04</ele>
        <time>2021-03-20T15:05:41Z</time>
      </trkpt>
      <trkpt lat="53.12094" lon="-6.30216">
        <ele>495.8</ele>
        <time>2021-03-20T15:05:43Z</time>
      </trkpt>
      <trkpt lat="53.12046" lon="-6.30172">
        <ele>495.75</ele>
        <time>2021-03-20T15:05:45Z</time>
      </trkpt>
      <trkpt lat="53.1198" lon="-6.30123">
        <ele>495.59</ele>
        <time>2021-03-20T15:05:47Z</time>
      </trkpt>
      <trkpt lat="53.11911" lon="-6.3008">
        <ele>495.08</ele>
        <time>2021-03-20T15:05:49Z</time>
      </trkpt>
      <trkpt lat="53.11901" lon="-6.30076">
        <ele>495.29</ele>
        <time>2021-03-20T15:05:51Z</time>
      </trkpt>
      <trkpt lat="53.11872" lon="-6.30072">
        <ele>495.6</ele>
        <time>2021-03-20T15:05:54Z</time>
      </trkpt>
      <trkpt lat="53.11853" lon="-6.30075">
        <ele>495.11</ele>
        <time>2021-03-20T15:05:56Z</time>
      </trkpt>
      <trkpt lat="53.11843" lon="-6.30079">
        <ele>494.58</ele>
        <time>2021-03-20T15:05:58Z</time>
      </trkpt>
      <trkpt lat="53.11816" lon="-6.30098">
        <ele>493.58</ele>
        <time>2021-03-20T15:06:00Z</time>
      </trkpt>
      <trkpt lat="53.11767" lon="-6.3015">
        <ele>491.6</ele>
        <time>2021-03-20T15:06:02Z</time>
      </trkpt>
      <trkpt lat="53.11734" lon="-6.30173">
        <ele>490.72</ele>
        <time>2021-03-20T15:06:05Z</time>
      </trkpt>
      <trkpt lat="53.11723" lon="-6.30182">
        <ele>490.62</ele>
        <time>2021-03-20T15:06:07Z</time>
      </trkpt>
      <trkpt lat="53.11684" lon="-6.30231">
        <ele>487.71</ele>
        <time>2021-03-20T15:06:09Z</time>
      </trkpt>
      <trkpt lat="53.11669" lon="-6.30253">
        <ele>487.31</ele>
        <time>2021-03-20T15:06:11Z</time>
      </trkpt>
      <trkpt lat="53.11656" lon="-6.30277">
        <ele>486.79</ele>
        <time>2021-03-20T15:06:13Z</time>
      </trkpt>
      <trkpt lat="53.11646" lon="-6.30298">
        <ele>485.05</ele>
        <time>2021-03-20T15:06:16Z</time>
      </trkpt>
      <trkpt lat="53.11639" lon="-6.30321">
        <ele>484.01</ele>
        <time>2021-03-20T15:06:18Z</time>
      </trkpt>
      <trkpt lat="53.11636" lon="-6.30345">
        <ele>483.48</ele>
        <time>2021-03-20T15:06:20Z</time>
      </trkpt>
      <trkpt lat="53.11636" lon="-6.3037">
        <ele>482.88</ele>
        <time>2021-03-20T15:06:22Z</time>
      </trkpt>
      <trkpt lat="53.11639" lon="-6.30394">
        <ele>482.67</ele>
        <time>2021-03-20T15:06:24Z</time>
      </trkpt>
      <trkpt lat="53.11654" lon="-6.30465">
        <ele>480.83</ele>
        <time>2021-03-20T15:06:27Z</time>
      </trkpt>
      <trkpt lat="53.11672" lon="-6.30536">
        <ele>480.9</ele>
        <time>2021-03-20T15:06:29Z</time>
      </trkpt>
      <trkpt lat="53.11683" lon="-6.30615">
        <ele>478.01</ele>
        <time>2021-03-20T15:06:31Z</time>
      </trkpt>
      <trkpt lat="53.11702" lon="-6.30689">
        <ele>476.7</ele>
        <time>2021-03-20T15:06:33Z</time>
      </trkpt>
      <trkpt lat="53.11705" lon="-6.30715">
        <ele>476.02</ele>
        <time>2021-03-20T15:06:35Z</time>
      </trkpt>
      <trkpt lat="53.11709" lon="-6.30773">
        <ele>474.65</ele>
        <time>2021-03-20T15:06:37Z</time>
      </trkpt>
      <trkpt lat="53.11715" lon="-6.30809">
        <ele>473.05</ele>
        <time>2021-03-20T15:06:40Z</time>
      </trkpt>
      <trkpt lat="53.11729" lon="-6.3087">
        <ele>471.4</ele>
        <time>2021-03-20T15:06:42Z</time>
      </trkpt>
      <trkpt lat="53.11734" lon="-6.30884">
        <ele>471.4</ele>
        <time>2021-03-20T15:06:44Z</time>
      </trkpt>
      <trkpt lat="53.11747" lon="-6.3091">
        <ele>471.19</ele>
        <time>2021-03-20T15:06:46Z</time>
      </trkpt>
      <trkpt lat="53.11753" lon="-6.30925">
        <ele>470.82</ele>
        <time>2021-03-20T15:06:48Z</time>
      </trkpt>
      <trkpt lat="53.11756" lon="-6.30942">
        <ele>470.28</ele>
        <time>2021-03-20T15:06:51Z</time>
      </trkpt>
      <trkpt lat="53.11759" lon="-6.30991">
        <ele>470.63</ele>
        <time>2021-03-20T15:06:53Z</time>
      </trkpt>
      <trkpt lat="53.11758" lon="-6.31009">
        <ele>470.72</ele>
        <time>2021-03-20T15:06:55Z</time>
      </trkpt>
      <trkpt lat="53.11752" lon="-6.31033">
        <ele>470.52</ele>
        <time>2021-03-20T15:06:57Z</time>
      </trkpt>
      <trkpt lat="53.11734" lon="-6.31075">
        <ele>469.42</ele>
        <time>2021-03-20T15:06:59Z</time>
      </trkpt>
      <trkpt lat="53.11725" lon="-6.311">
        <ele>468.98</ele>
        <time>2021-03-20T15:07:02Z</time>
      </trkpt>
      <trkpt lat="53.11721" lon="-6.3112">
        <ele>469.44</ele>
        <time>2021-03-20T15:07:04Z</time>
      </trkpt>
      <trkpt lat="53.11712" lon="-6.31174">
        <ele>471.1</ele>
        <time>2021-03-20T15:07:06Z</time>
      </trkpt>
      <trkpt lat="53.11707" lon="-6.31188">
        <ele>471.11</ele>
        <time>2021-03-20T15:07:08Z</time>
      </trkpt>
      <trkpt lat="53.11701" lon="-6.31201">
        <ele>470.87</ele>
        <time>2021-03-20T15:07:10Z</time>
      </trkpt>
      <trkpt lat="53.11694" lon="-6.31211">
        <ele>470.5</ele>
        <time>2021-03-20T15:07:13Z</time>
      </trkpt>
      <trkpt lat="53.11661" lon="-6.31234">
        <ele>467.58</ele>
        <time>2021-03-20T15:07:15Z</time>
      </trkpt>
      <trkpt lat="53.11648" lon="-6.31247">
        <ele>466.14</ele>
        <time>2021-03-20T15:07:17Z</time>
      </trkpt>
      <trkpt lat="53.11634" lon="-6.31267">
        <ele>465.35</ele>
        <time>2021-03-20T15:07:19Z</time>
      </trkpt>
      <trkpt lat="53.1163" lon="-6.3128">
        <ele>465.4</ele>
        <time>2021-03-20T15:07:21Z</time>
      </trkpt>
      <trkpt lat="53.11617" lon="-6.31338">
        <ele>465.15</ele>
        <time>2021-03-20T15:07:23Z</time>
      </trkpt>
      <trkpt lat="53.11608" lon="-6.31362">
        <ele>465.8</ele>
        <time>2021-03-20T15:07:26Z</time>
      </trkpt>
      <trkpt lat="53.11575" lon="-6.31414">
        <ele>465.6</ele>
        <time>2021-03-20T15:07:28Z</time>
      </trkpt>
      <trkpt lat="53.11563" lon="-6.31437">
        <ele>465.27</ele>
        <time>2021-03-20T15:07:30Z</time>
      </trkpt>
      <trkpt lat="53.11558" lon="-6.3145">
        <ele>464.92</ele>
        <time>2021-03-20T15:07:32Z</time>
      </trkpt>
      <trkpt lat="53.11551" lon="-6.31479">
        <ele>463.66</ele>
        <time>2021-03-20T15:07:34Z</time>
      </trkpt>
      <trkpt lat="53.11547" lon="-6.3151">
        <ele>463.06</ele>
        <time>2021-03-20T15:07:37Z</time>
      </trkpt>
      <trkpt lat="53.11542" lon="-6.31589">
        <ele>463.58</ele>
        <time>2021-03-20T15:07:39Z</time>
      </trkpt>
      <trkpt lat="53.11542" lon="-6.31622">
        <ele>463.7</ele>
        <time>2021-03-20T15:07:41Z</time>
      </trkpt>
      <trkpt lat="53.11552" lon="-6.31741">
        <ele>462.66</ele>
        <time>2021-03-20T15:07:43Z</time>
      </trkpt>
      <trkpt lat="53.11555" lon="-6.31772">
        <ele>462.92</ele>
        <time>2021-03-20T15:07:45Z</time>
      </trkpt>
      <trkpt lat="53.1156" lon="-6.31805">
        <ele>462.61</ele>
        <time>2021-03-20T15:07:48Z</time>
      </trkpt>
      <trkpt lat="53.11584" lon="-6.31898">
        <ele>463.8</ele>
        <time>2021-03-20T15:07:50Z</time>
      </trkpt>
      <trkpt lat="53.11588" lon="-6.3194">
        <ele>463.69</ele>
        <time>2021-03-20T15:07:52Z</time>
      </trkpt>
      <trkpt lat="53.11581" lon="-6.31986">
        <ele>462.69</ele>
        <time>2021-03-20T15:07:54Z</time>
      </trkpt>
      <trkpt lat="53.11573" lon="-6.32012">
        <ele>461.64</ele>
        <time>2021-03-20T15:07:56Z</time>
      </trkpt>
      <trkpt lat="53.11567" lon="-6.32024">
        <ele>461.18</ele>
        <time>2021-03-20T15:07:59Z</time>
      </trkpt>
      <trkpt lat="53.11524" lon="-6.32063">
        <ele>456.02</ele>
        <time>2021-03-20T15:08:01Z</time>
      </trkpt>
      <trkpt lat="53.11517" lon="-6.32072">
        <ele>455.79</ele>
        <time>2021-03-20T15:08:03Z</time>
      </trkpt>
      <trkpt lat="53.11502" lon="-6.32095">
        <ele>455.14</ele>
        <time>2021-03-20T15:08:05Z</time>
      </trkpt>
      <trkpt lat="53.1149" lon="-6.32121">
        <ele>454.24</ele>
        <time>2021-03-20T15:08:07Z</time>
      </trkpt>
      <trkpt lat="53.11471" lon="-6.32174">
        <ele>453.05</ele>
        <time>2021-03-20T15:08:09Z</time>
      </trkpt>
      <trkpt lat="53.11458" lon="-6.32194">
        <ele>452.39</ele>
        <time>2021-03-20T15:08:12Z</time>
      </trkpt>
      <trkpt lat="53.11434" lon="-6.32218">
        <ele>451.58</ele>
        <time>2021-03-20T15:08:14Z</time>
      </trkpt>
      <trkpt lat="53.1142" lon="-6.32238">
        <ele>450.91</ele>
        <time>2021-03-20T15:08:16Z</time>
      </trkpt>
      <trkpt lat="53.11408" lon="-6.32273">
        <ele>450.57</ele>
        <time>2021-03-20T15:08:18Z</time>
      </trkpt>
      <trkpt lat="53.11406" lon="-6.32288">
        <ele>450.48</ele>
        <time>2021-03-20T15:08:20Z</time>
      </trkpt>
      <trkpt lat="53.11408" lon="-6.32302">
        <ele>450.74</ele>
        <time>2021-03-20T15:08:23Z</time>
      </trkpt>
      <trkpt lat="53.11412" lon="-6.32316">
        <ele>451.31</ele>
        <time>2021-03-20T15:08:25Z</time>
      </trkpt>
      <trkpt lat="53.11422" lon="-6.32341">
        <ele>451.91</ele>
        <time>2021-03-20T15:08:27Z</time>
      </trkpt>
      <trkpt lat="53.11429" lon="-6.32369">
        <ele>451.03</ele>
        <time>2021-03-20T15:08:29Z</time>
      </trkpt>
      <trkpt lat="53.11436" lon="-6.32451">
        <ele>448.75</ele>
        <time>2021-03-20T15:08:31Z</time>
      </trkpt>
      <trkpt lat="53.11439" lon="-6.32469">
        <ele>449.19</ele>
        <time>2021-03-20T15:08:34Z</time>
      </trkpt>
      <trkpt lat="53.11443" lon="-6.32482">
        <ele>449.83</ele>
        <time>2021-03-20T15:08:36Z</time>
      </trkpt>
      <trkpt lat="53.11461" lon="-6.32517">
        <ele>451.22</ele>
        <time>2021-03-20T15:08:38Z</time>
      </trkpt>
      <trkpt lat="53.11468" lon="-6.32539">
        <ele>451.67</ele>
        <time>2021-03-20T15:08:40Z</time>
      </trkpt>
      <trkpt lat="53.11469" lon="-6.32554">
        <ele>451.79</ele>
        <time>2021-03-20T15:08:42Z</time>
      </trkpt>
      <trkpt lat="53.11466" lon="-6.32585">
        <ele>452.57</ele>
        <time>2021-03-20T15:08:45Z</time>
      </trkpt>
      <trkpt lat="53.11445" lon="-6.32643">
        <ele>453.04</ele>
        <time>2021-03-20T15:08:47Z</time>
      </trkpt>
      <trkpt lat="53.11439" lon="-6.32653">
        <ele>452.37</ele>
        <time>2021-03-20T15:08:49Z</time>
      </trkpt>
      <trkpt lat="53.11391" lon="-6.32717">
        <ele>451.73</ele>
        <time>2021-03-20T15:08:51Z</time>
      </trkpt>
      <trkpt lat="53.11373" lon="-6.32735">
        <ele>451.55</ele>
        <time>2021-03-20T15:08:53Z</time>
      </trkpt>
      <trkpt lat="53.11358" lon="-6.32741">
        <ele>451.25</ele>
        <time>2021-03-20T15:08:55Z</time>
      </trkpt>
      <trkpt lat="53.11313" lon="-6.32751">
        <ele>450.3</ele>
        <time>2021-03-20T15:08:58Z</time>
      </trkpt>
      <trkpt lat="53.11278" lon="-6.32769">
        <ele>450.68</ele>
        <time>2021-03-20T15:09:00Z</time>
      </trkpt>
      <trkpt lat="53.11259" lon="-6.32775">
        <ele>451.53</ele>
        <time>2021-03-20T15:09:02Z</time>
      </trkpt>
      <trkpt lat="53.11229" lon="-6.32777">
        <ele>451.92</ele>
        <time>2021-03-20T15:09:04Z</time>
      </trkpt>
      <trkpt lat="53.11203" lon="-6.32774">
        <ele>451.7</ele>
        <time>2021-03-20T15:09:06Z</time>
      </trkpt>
      <trkpt lat="53.11182" lon="-6.32777">
        <ele>451.48</ele>
        <time>2021-03-20T15:09:09Z</time>
      </trkpt>
      <trkpt lat="53.11151" lon="-6.32795">
        <ele>450.77</ele>
        <time>2021-03-20T15:09:11Z</time>
      </trkpt>
      <trkpt lat="53.11128" lon="-6.32802">
        <ele>449.88</ele>
        <time>2021-03-20T15:09:13Z</time>
      </trkpt>
      <trkpt lat="53.11055" lon="-6.32805">
        <ele>449.96</ele>
        <time>2021-03-20T15:09:15Z</time>
      </trkpt>
      <trkpt lat="53.10962" lon="-6.32814">
        <ele>450.23</ele>
        <time>2021-03-20T15:09:17Z</time>
      </trkpt>
      <trkpt lat="53.10939" lon="-6.32812">
        <ele>449.44</ele>
        <time>2021-03-20T15:09:20Z</time>
      </trkpt>
      <trkpt lat="53.10904" lon="-6.32804">
        <ele>449.33</ele>
        <time>2021-03-20T15:09:22Z</time>
      </trkpt>
      <trkpt lat="53.10814" lon="-6.32767">
        <ele>452.3</ele>
        <time>2021-03-20T15:09:24Z</time>
      </trkpt>
      <trkpt lat="53.10792" lon="-6.3276">
        <ele>451.89</ele>
        <time>2021-03-20T15:09:26Z</time>
      </trkpt>
      <trkpt lat="53.10771" lon="-6.32758">
        <ele>450.75</ele>
        <time>2021-03-20T15:09:28Z</time>
      </trkpt>
      <trkpt lat="53.10728" lon="-6.32766">
        <ele>449.58</ele>
        <time>2021-03-20T15:09:30Z</time>
      </trkpt>
      <trkpt lat="53.10717" lon="-6.32766">
        <ele>449.95</ele>
        <time>2021-03-20T15:09:33Z</time>
      </trkpt>
      <trkpt lat="53.10695" lon="-6.32761">
        <ele>451.38</ele>
        <time>2021-03-20T15:09:35Z</time>
      </trkpt>
      <trkpt lat="53.1065" lon="-6.32741">
        <ele>451.32</ele>
        <time>2021-03-20T15:09:37Z</time>
      </trkpt>
      <trkpt lat="53.10619" lon="-6.32732">
        <ele>450.46</ele>
        <time>2021-03-20T15:09:39Z</time>
      </trkpt>
      <trkpt lat="53.10601" lon="-6.32731">
        <ele>450.32</ele>
        <time>2021-03-20T15:09:41Z</time>
      </trkpt>
      <trkpt lat="53.10584" lon="-6.32733">
        <ele>450.4</ele>
        <time>2021-03-20T15:09:44Z</time>
      </trkpt>
      <trkpt lat="53.10568" lon="-6.3274">
        <ele>450.08</ele>
        <time>2021-03-20T15:09:46Z</time>
      </trkpt>
      <trkpt lat="53.10554" lon="-6.32757">
        <ele>449.94</ele>
        <time>2021-03-20T15:09:48Z</time>
      </trkpt>
      <trkpt lat="53.10542" lon="-6.32782">
        <ele>449.68</ele>
        <time>2021-03-20T15:09:50Z</time>
      </trkpt>
      <trkpt lat="53.10476" lon="-6.32996">
        <ele>451.3</ele>
        <time>2021-03-20T15:09:52Z</time>
      </trkpt>
      <trkpt lat="53.10466" lon="-6.33023">
        <ele>450.74</ele>
        <time>2021-03-20T15:09:55Z</time>
      </trkpt>
      <trkpt lat="53.10423" lon="-6.33114">
        <ele>450.24</ele>
        <time>2021-03-20T15:09:57Z</time>
      </trkpt>
      <trkpt lat="53.10408" lon="-6.33158">
        <ele>449.7</ele>
        <time>2021-03-20T15:09:59Z</time>
      </trkpt>
      <trkpt lat="53.10396" lon="-6.33204">
        <ele>449</ele>
        <time>2021-03-20T15:10:01Z</time>
      </trkpt>
      <trkpt lat="53.10375" lon="-6.33315">
        <ele>446.34</ele>
        <time>2021-03-20T15:10:03Z</time>
      </trkpt>
      <trkpt lat="53.10368" lon="-6.33381">
        <ele>445.25</ele>
        <time>2021-03-20T15:10:06Z</time>
      </trkpt>
      <trkpt lat="53.10367" lon="-6.33415">
        <ele>444.47</ele>
        <time>2021-03-20T15:10:08Z</time>
      </trkpt>
      <trkpt lat="53.10373" lon="-6.33454">
        <ele>443.71</ele>
        <time>2021-03-20T15:10:10Z</time>
      </trkpt>
      <trkpt lat="53.10385" lon="-6.335">
        <ele>443.21</ele>
        <time>2021-03-20T15:10:12Z</time>
      </trkpt>
      <trkpt lat="53.10401" lon="-6.33554">
        <ele>442.36</ele>
        <time>2021-03-20T15:10:14Z</time>
      </trkpt>
      <trkpt lat="53.10414" lon="-6.33585">
        <ele>441.6</ele>
        <time>2021-03-20T15:10:16Z</time>
      </trkpt>
      <trkpt lat="53.10445" lon="-6.33646">
        <ele>441.52</ele>
        <time>2021-03-20T15:10:19Z</time>
      </trkpt>
      <trkpt lat="53.10469" lon="-6.33711">
        <ele>440.73</ele>
        <time>2021-03-20T15:10:21Z</time>
      </trkpt>
      <trkpt lat="53.10483" lon="-6.33742">
        <ele>440.76</ele>
        <time>2021-03-20T15:10:23Z</time>
      </trkpt>
      <trkpt lat="53.10496" lon="-6.33766">
        <ele>440.54</ele>
        <time>2021-03-20T15:10:25Z</time>
      </trkpt>
      <trkpt lat="53.10529" lon="-6.3381">
        <ele>439.66</ele>
        <time>2021-03-20T15:10:27Z</time>
      </trkpt>
      <trkpt lat="53.1055" lon="-6.33843">
        <ele>438.66</ele>
        <time>2021-03-20T15:10:30Z</time>
      </trkpt>
      <trkpt lat="53.10553" lon="-6.33854">
        <ele>438.22</ele>
        <time>2021-03-20T15:10:32Z</time>
      </trkpt>
      <trkpt lat="53.10555" lon="-6.33869">
        <ele>437.66</ele>
        <time>2021-03-20T15:10:34Z</time>
      </trkpt>
      <trkpt lat="53.10558" lon="-6.33931">
        <ele>438.11</ele>
        <time>2021-03-20T15:10:36Z</time>
      </trkpt>
      <trkpt lat="53.10557" lon="-6.33946">
        <ele>438.23</ele>
        <time>2021-03-20T15:10:38Z</time>
      </trkpt>
      <trkpt lat="53.10551" lon="-6.33964">
        <ele>440.26</ele>
        <time>2021-03-20T15:10:41Z</time>
      </trkpt>
      <trkpt lat="53.10541" lon="-6.33971">
        <ele>441.33</ele>
        <time>2021-03-20T15:10:43Z</time>
      </trkpt>
      <trkpt lat="53.10536" lon="-6.3397">
        <ele>441.44</ele>
        <time>2021-03-20T15:10:45Z</time>
      </trkpt>
      <trkpt lat="53.10508" lon="-6.33957">
        <ele>439.73</ele>
        <time>2021-03-20T15:10:47Z</time>
      </trkpt>
      <trkpt lat="53.1045" lon="-6.33975">
        <ele>443.94</ele>
        <time>2021-03-20T15:10:49Z</time>
      </trkpt>
      <trkpt lat="53.10419" lon="-6.33978">
        <ele>442.32</ele>
        <time>2021-03-20T15:10:52Z</time>
      </trkpt>
      <trkpt lat="53.1039" lon="-6.33983">
        <ele>440.46</ele>
        <time>2021-03-20T15:10:54Z</time>
      </trkpt>
      <trkpt lat="53.10381" lon="-6.33988">
        <ele>440.01</ele>
        <time>2021-03-20T15:10:56Z</time>
      </trkpt>
      <trkpt lat="53.10364" lon="-6.34006">
        <ele>439.65</ele>
        <time>2021-03-20T15:10:58Z</time>
      </trkpt>
      <trkpt lat="53.10349" lon="-6.3403">
        <ele>439.73</ele>
        <time>2021-03-20T15:11:00Z</time>
      </trkpt>
      <trkpt lat="53.10322" lon="-6.34097">
        <ele>439.22</ele>
        <time>2021-03-20T15:11:02Z</time>
      </trkpt>
      <trkpt lat="53.10314" lon="-6.34108">
        <ele>438.82</ele>
        <time>2021-03-20T15:11:05Z</time>
      </trkpt>
      <trkpt lat="53.10288" lon="-6.34134">
        <ele>436.86</ele>
        <time>2021-03-20T15:11:07Z</time>
      </trkpt>
      <trkpt lat="53.1027" lon="-6.34154">
        <ele>434.89</ele>
        <time>2021-03-20T15:11:09Z</time>
      </trkpt>
      <trkpt lat="53.1024" lon="-6.34202">
        <ele>431.07</ele>
        <time>2021-03-20T15:11:11Z</time>
      </trkpt>
      <trkpt lat="53.10225" lon="-6.34242">
        <ele>429.75</ele>
        <time>2021-03-20T15:11:13Z</time>
      </trkpt>
      <trkpt lat="53.1021" lon="-6.34298">
        <ele>432.22</ele>
        <time>2021-03-20T15:11:16Z</time>
      </trkpt>
      <trkpt lat="53.102" lon="-6.34324">
        <ele>432.29</ele>
        <time>2021-03-20T15:11:18Z</time>
      </trkpt>
      <trkpt lat="53.10164" lon="-6.34394">
        <ele>430.75</ele>
        <time>2021-03-20T15:11:20Z</time>
      </trkpt>
      <trkpt lat="53.10144" lon="-6.34446">
        <ele>428.95</ele>
        <time>2021-03-20T15:11:22Z</time>
      </trkpt>
      <trkpt lat="53.10133" lon="-6.34469">
        <ele>429.35</ele>
        <time>2021-03-20T15:11:24Z</time>
      </trkpt>
      <trkpt lat="53.10126" lon="-6.3448">
        <ele>429.52</ele>
        <time>2021-03-20T15:11:27Z</time>
      </trkpt>
      <trkpt lat="53.1011" lon="-6.34496">
        <ele>428.81</ele>
        <time>2021-03-20T15:11:29Z</time>
      </trkpt>
      <trkpt lat="53.10082" lon="-6.34511">
        <ele>429.19</ele>
        <time>2021-03-20T15:11:31Z</time>
      </trkpt>
      <trkpt lat="53.10062" lon="-6.34516">
        <ele>429.68</ele>
        <time>2021-03-20T15:11:33Z</time>
      </trkpt>
      <trkpt lat="53.10032" lon="-6.34517">
        <ele>428.98</ele>
        <time>2021-03-20T15:11:35Z</time>
      </trkpt>
      <trkpt lat="53.10013" lon="-6.34517">
        <ele>427.91</ele>
        <time>2021-03-20T15:11:38Z</time>
      </trkpt>
      <trkpt lat="53.09973" lon="-6.34509">
        <ele>424.67</ele>
        <time>2021-03-20T15:11:40Z</time>
      </trkpt>
      <trkpt lat="53.09911" lon="-6.34479">
        <ele>421.26</ele>
        <time>2021-03-20T15:11:42Z</time>
      </trkpt>
      <trkpt lat="53.09896" lon="-6.3448">
        <ele>421.27</ele>
        <time>2021-03-20T15:11:44Z</time>
      </trkpt>
      <trkpt lat="53.09883" lon="-6.34487">
        <ele>420.87</ele>
        <time>2021-03-20T15:11:46Z</time>
      </trkpt>
      <trkpt lat="53.0987" lon="-6.34499">
        <ele>419.88</ele>
        <time>2021-03-20T15:11:48Z</time>
      </trkpt>
      <trkpt lat="53.09855" lon="-6.34516">
        <ele>418.52</ele>
        <time>2021-03-20T15:11:51Z</time>
      </trkpt>
      <trkpt lat="53.0984" lon="-6.34536">
        <ele>417.22</ele>
        <time>2021-03-20T15:11:53Z</time>
      </trkpt>
      <trkpt lat="53.09829" lon="-6.3456">
        <ele>416.37</ele>
        <time>2021-03-20T15:11:55Z</time>
      </trkpt>
      <trkpt lat="53.09824" lon="-6.34574">
        <ele>415.88</ele>
        <time>2021-03-20T15:11:57Z</time>
      </trkpt>
      <trkpt lat="53.09817" lon="-6.34603">
        <ele>415.23</ele>
        <time>2021-03-20T15:11:59Z</time>
      </trkpt>
      <trkpt lat="53.09803" lon="-6.34677">
        <ele>415.38</ele>
        <time>2021-03-20T15:12:02Z</time>
      </trkpt>
      <trkpt lat="53.09795" lon="-6.34705">
        <ele>414.25</ele>
        <time>2021-03-20T15:12:04Z</time>
      </trkpt>
      <trkpt lat="53.0979" lon="-6.34717">
        <ele>413.86</ele>
        <time>2021-03-20T15:12:06Z</time>
      </trkpt>
      <trkpt lat="53.0977" lon="-6.34751">
        <ele>411.72</ele>
        <time>2021-03-20T15:12:08Z</time>
      </trkpt>
      <trkpt lat="53.09731" lon="-6.34794">
        <ele>410.7</ele>
        <time>2021-03-20T15:12:10Z</time>
      </trkpt>
      <trkpt lat="53.09718" lon="-6.34811">
        <ele>409.69</ele>
        <time>2021-03-20T15:12:13Z</time>
      </trkpt>
      <trkpt lat="53.09709" lon="-6.34832">
        <ele>409.02</ele>
        <time>2021-03-20T15:12:15Z</time>
      </trkpt>
      <trkpt lat="53.09702" lon="-6.34857">
        <ele>407.33</ele>
        <time>2021-03-20T15:12:17Z</time>
      </trkpt>
      <trkpt lat="53.09694" lon="-6.34877">
        <ele>405.83</ele>
        <time>2021-03-20T15:12:19Z</time>
      </trkpt>
      <trkpt lat="53.09681" lon="-6.34889">
        <ele>404.02</ele>
        <time>2021-03-20T15:12:21Z</time>
      </trkpt>
      <trkpt lat="53.09655" lon="-6.34893">
        <ele>401.66</ele>
        <time>2021-03-20T15:12:24Z</time>
      </trkpt>
      <trkpt lat="53.09582" lon="-6.34883">
        <ele>398.54</ele>
        <time>2021-03-20T15:12:26Z</time>
      </trkpt>
      <trkpt lat="53.09574" lon="-6.34886">
        <ele>397.63</ele>
        <time>2021-03-20T15:12:28Z</time>
      </trkpt>
      <trkpt lat="53.09564" lon="-6.34895">
        <ele>396.41</ele>
        <time>2021-03-20T15:12:30Z</time>
      </trkpt>
      <trkpt lat="53.09553" lon="-6.34911">
        <ele>395.09</ele>
        <time>2021-03-20T15:12:32Z</time>
      </trkpt>
      <trkpt lat="53.09536" lon="-6.3493">
        <ele>393.83</ele>
        <time>2021-03-20T15:12:34Z</time>
      </trkpt>
      <trkpt lat="53.09521" lon="-6.34941">
        <ele>393.59</ele>
        <time>2021-03-20T15:12:37Z</time>
      </trkpt>
      <trkpt lat="53.09489" lon="-6.34958">
        <ele>396.33</ele>
        <time>2021-03-20T15:12:39Z</time>
      </trkpt>
      <trkpt lat="53.09474" lon="-6.34957">
        <ele>396.85</ele>
        <time>2021-03-20T15:12:41Z</time>
      </trkpt>
      <trkpt lat="53.09461" lon="-6.34947">
        <ele>396.59</ele>
        <time>2021-03-20T15:12:43Z</time>
      </trkpt>
      <trkpt lat="53.09413" lon="-6.34899">
        <ele>396.36</ele>
        <time>2021-03-20T15:12:45Z</time>
      </trkpt>
      <trkpt lat="53.09372" lon="-6.34874">
        <ele>396.61</ele>
        <time>2021-03-20T15:12:48Z</time>
      </trkpt>
      <trkpt lat="53.0934" lon="-6.34844">
        <ele>397.29</ele>
        <time>2021-03-20T15:12:50Z</time>
      </trkpt>
      <trkpt lat="53.09314" lon="-6.34834">
        <ele>395.59</ele>
        <time>2021-03-20T15:12:52Z</time>
      </trkpt>
      <trkpt lat="53.09154" lon="-6.34798">
        <ele>393.48</ele>
        <time>2021-03-20T15:12:54Z</time>
      </trkpt>
      <trkpt lat="53.09117" lon="-6.34797">
        <ele>393.36</ele>
        <time>2021-03-20T15:12:56Z</time>
      </trkpt>
      <trkpt lat="53.09108" lon="-6.34799">
        <ele>393.31</ele>
        <time>2021-03-20T15:12:59Z</time>
      </trkpt>
      <trkpt lat="53.09088" lon="-6.34809">
        <ele>392.49</ele>
        <time>2021-03-20T15:13:01Z</time>
      </trkpt>
      <trkpt lat="53.0904" lon="-6.34842">
        <ele>392.61</ele>
        <time>2021-03-20T15:13:03Z</time>
      </trkpt>
      <trkpt lat="53.09021" lon="-6.34858">
        <ele>394.05</ele>
        <time>2021-03-20T15:13:05Z</time>
      </trkpt>
      <trkpt lat="53.08995" lon="-6.34888">
        <ele>396.95</ele>
        <time>2021-03-20T15:13:07Z</time>
      </trkpt>
      <trkpt lat="53.08981" lon="-6.34912">
        <ele>398.95</ele>
        <time>2021-03-20T15:13:09Z</time>
      </trkpt>
      <trkpt lat="53.08958" lon="-6.34958">
        <ele>399.47</ele>
        <time>2021-03-20T15:13:12Z</time>
      </trkpt>
      <trkpt lat="53.08927" lon="-6.35043">
        <ele>402.08</ele>
        <time>2021-03-20T15:13:14Z</time>
      </trkpt>
      <trkpt lat="53.08913" lon="-6.35085">
        <ele>402.53</ele>
        <time>2021-03-20T15:13:16Z</time>
      </trkpt>
      <trkpt lat="53.08905" lon="-6.35129">
        <ele>402.61</ele>
        <time>2021-03-20T15:13:18Z</time>
      </trkpt>
      <trkpt lat="53.08901" lon="-6.35176">
        <ele>404.4</ele>
        <time>2021-03-20T15:13:20Z</time>
      </trkpt>
      <trkpt lat="53.08894" lon="-6.35207">
        <ele>405.19</ele>
        <time>2021-03-20T15:13:23Z</time>
      </trkpt>
      <trkpt lat="53.08877" lon="-6.35247">
        <ele>404.23</ele>
        <time>2021-03-20T15:13:25Z</time>
      </trkpt>
      <trkpt lat="53.08871" lon="-6.35259">
        <ele>403.79</ele>
        <time>2021-03-20T15:13:27Z</time>
      </trkpt>
      <trkpt lat="53.08862" lon="-6.35272">
        <ele>402.91</ele>
        <time>2021-03-20T15:13:29Z</time>
      </trkpt>
      <trkpt lat="53.08847" lon="-6.35288">
        <ele>402.88</ele>
        <time>2021-03-20T15:13:31Z</time>
      </trkpt>
      <trkpt lat="53.0878" lon="-6.35334">
        <ele>405.16</ele>
        <time>2021-03-20T15:13:34Z</time>
      </trkpt>
      <trkpt lat="53.08754" lon="-6.35362">
        <ele>407.21</ele>
        <time>2021-03-20T15:13:36Z</time>
      </trkpt>
      <trkpt lat="53.08687" lon="-6.35454">
        <ele>410.17</ele>
        <time>2021-03-20T15:13:38Z</time>
      </trkpt>
      <trkpt lat="53.08673" lon="-6.35479">
        <ele>411.34</ele>
        <time>2021-03-20T15:13:40Z</time>
      </trkpt>
      <trkpt lat="53.0863" lon="-6.35573">
        <ele>415.15</ele>
        <time>2021-03-20T15:13:42Z</time>
      </trkpt>
      <trkpt lat="53.08615" lon="-6.35595">
        <ele>416.53</ele>
        <time>2021-03-20T15:13:45Z</time>
      </trkpt>
      <trkpt lat="53.08598" lon="-6.35613">
        <ele>418.27</ele>
        <time>2021-03-20T15:13:47Z</time>
      </trkpt>
      <trkpt lat="53.08582" lon="-6.35627">
        <ele>419.71</ele>
        <time>2021-03-20T15:13:49Z</time>
      </trkpt>
      <trkpt lat="53.08569" lon="-6.35643">
        <ele>420.85</ele>
        <time>2021-03-20T15:13:51Z</time>
      </trkpt>
      <trkpt lat="53.08557" lon="-6.35664">
        <ele>421.89</ele>
        <time>2021-03-20T15:13:53Z</time>
      </trkpt>
      <trkpt lat="53.08547" lon="-6.35688">
        <ele>423.36</ele>
        <time>2021-03-20T15:13:55Z</time>
      </trkpt>
      <trkpt lat="53.08535" lon="-6.35707">
        <ele>424.45</ele>
        <time>2021-03-20T15:13:58Z</time>
      </trkpt>
      <trkpt lat="53.08519" lon="-6.3572">
        <ele>425.36</ele>
        <time>2021-03-20T15:14:00Z</time>
      </trkpt>
      <trkpt lat="53.08501" lon="-6.35728">
        <ele>425.88</ele>
        <time>2021-03-20T15:14:02Z</time>
      </trkpt>
      <trkpt lat="53.08457" lon="-6.35735">
        <ele>428.64</ele>
        <time>2021-03-20T15:14:04Z</time>
      </trkpt>
      <trkpt lat="53.08392" lon="-6.35739">
        <ele>425.85</ele>
        <time>2021-03-20T15:14:06Z</time>
      </trkpt>
      <trkpt lat="53.0837" lon="-6.35733">
        <ele>426.98</ele>
        <time>2021-03-20T15:14:09Z</time>
      </trkpt>
      <trkpt lat="53.08349" lon="-6.35721">
        <ele>427.42</ele>
        <time>2021-03-20T15:14:11Z</time>
      </trkpt>
      <trkpt lat="53.08321" lon="-6.35696">
        <ele>428.45</ele>
        <time>2021-03-20T15:14:13Z</time>
      </trkpt>
      <trkpt lat="53.08304" lon="-6.35683">
        <ele>428.55</ele>
        <time>2021-03-20T15:14:15Z</time>
      </trkpt>
      <trkpt lat="53.08211" lon="-6.35654">
        <ele>428.39</ele>
        <time>2021-03-20T15:14:17Z</time>
      </trkpt>
      <trkpt lat="53.08157" lon="-6.35629">
        <ele>430.03</ele>
        <time>2021-03-20T15:14:20Z</time>
      </trkpt>
      <trkpt lat="53.08127" lon="-6.35613">
        <ele>430.96</ele>
        <time>2021-03-20T15:14:22Z</time>
      </trkpt>
      <trkpt lat="53.08098" lon="-6.35587">
        <ele>431.69</ele>
        <time>2021-03-20T15:14:24Z</time>
      </trkpt>
      <trkpt lat="53.08054" lon="-6.35541">
        <ele>433.52</ele>
        <time>2021-03-20T15:14:26Z</time>
      </trkpt>
      <trkpt lat="53.08005" lon="-6.35474">
        <ele>433.67</ele>
        <time>2021-03-20T15:14:28Z</time>
      </trkpt>
      <trkpt lat="53.0799" lon="-6.35461">
        <ele>433.93</ele>
        <time>2021-03-20T15:14:31Z</time>
      </trkpt>
      <trkpt lat="53.07975" lon="-6.35453">
        <ele>434.21</ele>
        <time>2021-03-20T15:14:33Z</time>
      </trkpt>
      <trkpt lat="53.07958" lon="-6.35451">
        <ele>434.23</ele>
        <time>2021-03-20T15:14:35Z</time>
      </trkpt>
      <trkpt lat="53.07931" lon="-6.35451">
        <ele>434.25</ele>
        <time>2021-03-20T15:14:37Z</time>
      </trkpt>
      <trkpt lat="53.07897" lon="-6.35456">
        <ele>434.11</ele>
        <time>2021-03-20T15:14:39Z</time>
      </trkpt>
      <trkpt lat="53.07852" lon="-6.35467">
        <ele>433.13</ele>
        <time>2021-03-20T15:14:41Z</time>
      </trkpt>
      <trkpt lat="53.07802" lon="-6.35472">
        <ele>431.87</ele>
        <time>2021-03-20T15:14:44Z</time>
      </trkpt>
      <trkpt lat="53.07772" lon="-6.35472">
        <ele>430.8</ele>
        <time>2021-03-20T15:14:46Z</time>
      </trkpt>
      <trkpt lat="53.07753" lon="-6.35468">
        <ele>429.98</ele>
        <time>2021-03-20T15:14:48Z</time>
      </trkpt>
      <trkpt lat="53.07735" lon="-6.35458">
        <ele>428.95</ele>
        <time>2021-03-20T15:14:50Z</time>
      </trkpt>
      <trkpt lat="53.0769" lon="-6.35424">
        <ele>427.7</ele>
        <time>2021-03-20T15:14:52Z</time>
      </trkpt>
      <trkpt lat="53.07636" lon="-6.35404">
        <ele>425.34</ele>
        <time>2021-03-20T15:14:55Z</time>
      </trkpt>
      <trkpt lat="53.07594" lon="-6.35374">
        <ele>423.74</ele>
        <time>2021-03-20T15:14:57Z</time>
      </trkpt>
      <trkpt lat="53.07548" lon="-6.35357">
        <ele>420.85</ele>
        <time>2021-03-20T15:14:59Z</time>
      </trkpt>
      <trkpt lat="53.07502" lon="-6.35324">
        <ele>420.06</ele>
        <time>2021-03-20T15:15:01Z</time>
      </trkpt>
      <trkpt lat="53.07422" lon="-6.35285">
        <ele>414.72</ele>
        <time>2021-03-20T15:15:03Z</time>
      </trkpt>
      <trkpt lat="53.07354" lon="-6.35241">
        <ele>410.94</ele>
        <time>2021-03-20T15:15:06Z</time>
      </trkpt>
      <trkpt lat="53.07299" lon="-6.3522">
        <ele>407.61</ele>
        <time>2021-03-20T15:15:08Z</time>
      </trkpt>
      <trkpt lat="53.07265" lon="-6.35184">
        <ele>405.98</ele>
        <time>2021-03-20T15:15:10Z</time>
      </trkpt>
      <trkpt lat="53.07239" lon="-6.35147">
        <ele>404.19</ele>
        <time>2021-03-20T15:15:12Z</time>
      </trkpt>
      <trkpt lat="53.07227" lon="-6.35126">
        <ele>402.8</ele>
        <time>2021-03-20T15:15:14Z</time>
      </trkpt>
      <trkpt lat="53.07199" lon="-6.35062">
        <ele>401.43</ele>
        <time>2021-03-20T15:15:17Z</time>
      </trkpt>
      <trkpt lat="53.07155" lon="-6.34977">
        <ele>397.51</ele>
        <time>2021-03-20T15:15:19Z</time>
      </trkpt>
      <trkpt lat="53.07125" lon="-6.34909">
        <ele>394.47</ele>
        <time>2021-03-20T15:15:21Z</time>
      </trkpt>
      <trkpt lat="53.07112" lon="-6.34884">
        <ele>393.58</ele>
        <time>2021-03-20T15:15:23Z</time>
      </trkpt>
      <trkpt lat="53.07076" lon="-6.34828">
        <ele>390.57</ele>
        <time>2021-03-20T15:15:25Z</time>
      </trkpt>
      <trkpt lat="53.07015" lon="-6.34697">
        <ele>386.57</ele>
        <time>2021-03-20T15:15:27Z</time>
      </trkpt>
      <trkpt lat="53.07008" lon="-6.34686">
        <ele>386.3</ele>
        <time>2021-03-20T15:15:30Z</time>
      </trkpt>
      <trkpt lat="53.06985" lon="-6.34663">
        <ele>385.49</ele>
        <time>2021-03-20T15:15:32Z</time>
      </trkpt>
      <trkpt lat="53.06976" lon="-6.3465">
        <ele>384.5</ele>
        <time>2021-03-20T15:15:34Z</time>
      </trkpt>
      <trkpt lat="53.06953" lon="-6.34586">
        <ele>382.88</ele>
        <time>2021-03-20T15:15:36Z</time>
      </trkpt>
      <trkpt lat="53.06931" lon="-6.34537">
        <ele>379.76</ele>
        <time>2021-03-20T15:15:38Z</time>
      </trkpt>
      <trkpt lat="53.06918" lon="-6.34486">
        <ele>380.64</ele>
        <time>2021-03-20T15:15:41Z</time>
      </trkpt>
      <trkpt lat="53.06893" lon="-6.34448">
        <ele>379.21</ele>
        <time>2021-03-20T15:15:43Z</time>
      </trkpt>
      <trkpt lat="53.06882" lon="-6.34424">
        <ele>378.53</ele>
        <time>2021-03-20T15:15:45Z</time>
      </trkpt>
      <trkpt lat="53.06861" lon="-6.34372">
        <ele>376.02</ele>
        <time>2021-03-20T15:15:47Z</time>
      </trkpt>
      <trkpt lat="53.06801" lon="-6.34261">
        <ele>372.11</ele>
        <time>2021-03-20T15:15:49Z</time>
      </trkpt>
      <trkpt lat="53.06785" lon="-6.34212">
        <ele>371.78</ele>
        <time>2021-03-20T15:15:52Z</time>
      </trkpt>
      <trkpt lat="53.06736" lon="-6.34095">
        <ele>365.72</ele>
        <time>2021-03-20T15:15:54Z</time>
      </trkpt>
      <trkpt lat="53.06711" lon="-6.34022">
        <ele>365.62</ele>
        <time>2021-03-20T15:15:56Z</time>
      </trkpt>
      <trkpt lat="53.06668" lon="-6.33938">
        <ele>363.78</ele>
        <time>2021-03-20T15:15:58Z</time>
      </trkpt>
      <trkpt lat="53.06651" lon="-6.33888">
        <ele>364.26</ele>
        <time>2021-03-20T15:16:00Z</time>
      </trkpt>
      <trkpt lat="53.06638" lon="-6.33863">
        <ele>363.87</ele>
        <time>2021-03-20T15:16:03Z</time>
      </trkpt>
      <trkpt lat="53.0662" lon="-6.33839">
        <ele>363.95</ele>
        <time>2021-03-20T15:16:05Z</time>
      </trkpt>
      <trkpt lat="53.06599" lon="-6.3382">
        <ele>363.73</ele>
        <time>2021-03-20T15:16:07Z</time>
      </trkpt>
      <trkpt lat="53.06581" lon="-6.33806">
        <ele>362.92</ele>
        <time>2021-03-20T15:16:09Z</time>
      </trkpt>
      <trkpt lat="53.06533" lon="-6.33778">
        <ele>357.75</ele>
        <time>2021-03-20T15:16:11Z</time>
      </trkpt>
      <trkpt lat="53.06521" lon="-6.33767">
        <ele>355.17</ele>
        <time>2021-03-20T15:16:13Z</time>
      </trkpt>
      <trkpt lat="53.06512" lon="-6.33753">
        <ele>351.89</ele>
        <time>2021-03-20T15:16:16Z</time>
      </trkpt>
      <trkpt lat="53.06502" lon="-6.33733">
        <ele>347.47</ele>
        <time>2021-03-20T15:16:18Z</time>
      </trkpt>
      <trkpt lat="53.06492" lon="-6.33692">
        <ele>342.51</ele>
        <time>2021-03-20T15:16:20Z</time>
      </trkpt>
      <trkpt lat="53.06491" lon="-6.33672">
        <ele>342.09</ele>
        <time>2021-03-20T15:16:22Z</time>
      </trkpt>
      <trkpt lat="53.06496" lon="-6.33613">
        <ele>342.64</ele>
        <time>2021-03-20T15:16:24Z</time>
      </trkpt>
      <trkpt lat="53.06491" lon="-6.33536">
        <ele>340.73</ele>
        <time>2021-03-20T15:16:27Z</time>
      </trkpt>
      <trkpt lat="53.06487" lon="-6.33507">
        <ele>340.49</ele>
        <time>2021-03-20T15:16:29Z</time>
      </trkpt>
      <trkpt lat="53.0648" lon="-6.3348">
        <ele>340.35</ele>
        <time>2021-03-20T15:16:31Z</time>
      </trkpt>
      <trkpt lat="53.06463" lon="-6.33441">
        <ele>338.39</ele>
        <time>2021-03-20T15:16:33Z</time>
      </trkpt>
      <trkpt lat="53.06431" lon="-6.33385">
        <ele>337.42</ele>
        <time>2021-03-20T15:16:35Z</time>
      </trkpt>
      <trkpt lat="53.06421" lon="-6.33371">
        <ele>336.51</ele>
        <time>2021-03-20T15:16:38Z</time>
      </trkpt>
      <trkpt lat="53.06382" lon="-6.33331">
        <ele>330.36</ele>
        <time>2021-03-20T15:16:40Z</time>
      </trkpt>
      <trkpt lat="53.06318" lon="-6.33281">
        <ele>323.24</ele>
        <time>2021-03-20T15:16:42Z</time>
      </trkpt>
      <trkpt lat="53.06283" lon="-6.33258">
        <ele>321.7</ele>
        <time>2021-03-20T15:16:44Z</time>
      </trkpt>
      <trkpt lat="53.06241" lon="-6.33254">
        <ele>316.83</ele>
        <time>2021-03-20T15:16:46Z</time>
      </trkpt>
      <trkpt lat="53.06098" lon="-6.33225">
        <ele>304.25</ele>
        <time>2021-03-20T15:16:48Z</time>
      </trkpt>
      <trkpt lat="53.06056" lon="-6.33208">
        <ele>303.15</ele>
        <time>2021-03-20T15:16:51Z</time>
      </trkpt>
      <trkpt lat="53.06039" lon="-6.33204">
        <ele>300.61</ele>
        <time>2021-03-20T15:16:53Z</time>
      </trkpt>
      <trkpt lat="53.05951" lon="-6.33187">
        <ele>292.1</ele>
        <time>2021-03-20T15:16:55Z</time>
      </trkpt>
      <trkpt lat="53.05835" lon="-6.33156">
        <ele>289.38</ele>
        <time>2021-03-20T15:16:57Z</time>
      </trkpt>
      <trkpt lat="53.058" lon="-6.33152">
        <ele>283.45</ele>
        <time>2021-03-20T15:16:59Z</time>
      </trkpt>
      <trkpt lat="53.05761" lon="-6.33138">
        <ele>284.75</ele>
        <time>2021-03-20T15:17:02Z</time>
      </trkpt>
      <trkpt lat="53.05721" lon="-6.33127">
        <ele>280.7</ele>
        <time>2021-03-20T15:17:04Z</time>
      </trkpt>
      <trkpt lat="53.05686" lon="-6.33122">
        <ele>281.39</ele>
        <time>2021-03-20T15:17:06Z</time>
      </trkpt>
      <trkpt lat="53.05617" lon="-6.33102">
        <ele>277.06</ele>
        <time>2021-03-20T15:17:08Z</time>
      </trkpt>
      <trkpt lat="53.05558" lon="-6.33106">
        <ele>265.56</ele>
        <time>2021-03-20T15:17:10Z</time>
      </trkpt>
      <trkpt lat="53.05548" lon="-6.33105">
        <ele>264.4</ele>
        <time>2021-03-20T15:17:13Z</time>
      </trkpt>
      <trkpt lat="53.05503" lon="-6.33087">
        <ele>261.88</ele>
        <time>2021-03-20T15:17:15Z</time>
      </trkpt>
      <trkpt lat="53.05481" lon="-6.3308">
        <ele>259.75</ele>
        <time>2021-03-20T15:17:17Z</time>
      </trkpt>
      <trkpt lat="53.05431" lon="-6.33078">
        <ele>256.36</ele>
        <time>2021-03-20T15:17:19Z</time>
      </trkpt>
      <trkpt lat="53.05425" lon="-6.33076">
        <ele>256.46</ele>
        <time>2021-03-20T15:17:21Z</time>
      </trkpt>
      <trkpt lat="53.0539" lon="-6.33051">
        <ele>259.29</ele>
        <time>2021-03-20T15:17:24Z</time>
      </trkpt>
      <trkpt lat="53.05351" lon="-6.3304">
        <ele>256.54</ele>
        <time>2021-03-20T15:17:26Z</time>
      </trkpt>
      <trkpt lat="53.05323" lon="-6.33029">
        <ele>256.32</ele>
        <time>2021-03-20T15:17:28Z</time>
      </trkpt>
      <trkpt lat="53.0531" lon="-6.33036">
        <ele>254.91</ele>
        <time>2021-03-20T15:17:30Z</time>
      </trkpt>
      <trkpt lat="53.05279" lon="-6.33072">
        <ele>253.34</ele>
        <time>2021-03-20T15:17:32Z</time>
      </trkpt>
      <trkpt lat="53.05271" lon="-6.33077">
        <ele>253.86</ele>
        <time>2021-03-20T15:17:34Z</time>
      </trkpt>
      <trkpt lat="53.05263" lon="-6.33079">
        <ele>253.85</ele>
        <time>2021-03-20T15:17:37Z</time>
      </trkpt>
      <trkpt lat="53.05242" lon="-6.33076">
        <ele>252.5</ele>
        <time>2021-03-20T15:17:39Z</time>
      </trkpt>
      <trkpt lat="53.05233" lon="-6.33071">
        <ele>251.56</ele>
        <time>2021-03-20T15:17:41Z</time>
      </trkpt>
      <trkpt lat="53.05213" lon="-6.33057">
        <ele>249.73</ele>
        <time>2021-03-20T15:17:43Z</time>
      </trkpt>
      <trkpt lat="53.05178" lon="-6.33038">
        <ele>249.26</ele>
        <time>2021-03-20T15:17:45Z</time>
      </trkpt>
      <trkpt lat="53.05133" lon="-6.33021">
        <ele>247.54</ele>
        <time>2021-03-20T15:17:48Z</time>
      </trkpt>
      <trkpt lat="53.05086" lon="-6.33012">
        <ele>244.15</ele>
        <time>2021-03-20T15:17:50Z</time>
      </trkpt>
      <trkpt lat="53.05036" lon="-6.32998">
        <ele>241.69</ele>
        <time>2021-03-20T15:17:52Z</time>
      </trkpt>
      <trkpt lat="53.05014" lon="-6.32987">
        <ele>241.23</ele>
        <time>2021-03-20T15:17:54Z</time>
      </trkpt>
      <trkpt lat="53.04922" lon="-6.32933">
        <ele>239.17</ele>
        <time>2021-03-20T15:17:56Z</time>
      </trkpt>
      <trkpt lat="53.0489" lon="-6.32911">
        <ele>238.29</ele>
        <time>2021-03-20T15:17:59Z</time>
      </trkpt>
      <trkpt lat="53.04845" lon="-6.32872">
        <ele>238.56</ele>
        <time>2021-03-20T15:18:01Z</time>
      </trkpt>
      <trkpt lat="53.04816" lon="-6.32854">
        <ele>239.73</ele>
        <time>2021-03-20T15:18:03Z</time>
      </trkpt>
      <trkpt lat="53.048" lon="-6.32849">
        <ele>239.57</ele>
        <time>2021-03-20T15:18:05Z</time>
      </trkpt>
      <trkpt lat="53.04727" lon="-6.32841">
        <ele>235.68</ele>
        <time>2021-03-20T15:18:07Z</time>
      </trkpt>
      <trkpt lat="53.04704" lon="-6.32831">
        <ele>234.82</ele>
        <time>2021-03-20T15:18:10Z</time>
      </trkpt>
      <trkpt lat="53.04634" lon="-6.3279">
        <ele>233.83</ele>
        <time>2021-03-20T15:18:12Z</time>
      </trkpt>
      <trkpt lat="53.04621" lon="-6.3278">
        <ele>233.04</ele>
        <time>2021-03-20T15:18:14Z</time>
      </trkpt>
      <trkpt lat="53.04598" lon="-6.32755">
        <ele>233.59</ele>
        <time>2021-03-20T15:18:16Z</time>
      </trkpt>
      <trkpt lat="53.04587" lon="-6.32746">
        <ele>233.56</ele>
        <time>2021-03-20T15:18:18Z</time>
      </trkpt>
      <trkpt lat="53.04577" lon="-6.32742">
        <ele>233.18</ele>
        <time>2021-03-20T15:18:20Z</time>
      </trkpt>
      <trkpt lat="53.04544" lon="-6.32733">
        <ele>233.04</ele>
        <time>2021-03-20T15:18:23Z</time>
      </trkpt>
      <trkpt lat="53.04525" lon="-6.32724">
        <ele>234.84</ele>
        <time>2021-03-20T15:18:25Z</time>
      </trkpt>
      <trkpt lat="53.04505" lon="-6.32709">
        <ele>236.86</ele>
        <time>2021-03-20T15:18:27Z</time>
      </trkpt>
      <trkpt lat="53.04461" lon="-6.32663">
        <ele>238.5</ele>
        <time>2021-03-20T15:18:29Z</time>
      </trkpt>
      <trkpt lat="53.0445" lon="-6.32655">
        <ele>238.39</ele>
        <time>2021-03-20T15:18:31Z</time>
      </trkpt>
      <trkpt lat="53.04428" lon="-6.32646">
        <ele>237.92</ele>
        <time>2021-03-20T15:18:34Z</time>
      </trkpt>
      <trkpt lat="53.04396" lon="-6.32639">
        <ele>235.7</ele>
        <time>2021-03-20T15:18:36Z</time>
      </trkpt>
      <trkpt lat="53.04378" lon="-6.32632">
        <ele>235.19</ele>
        <time>2021-03-20T15:18:38Z</time>
      </trkpt>
      <trkpt lat="53.04358" lon="-6.3262">
        <ele>235.63</ele>
        <time>2021-03-20T15:18:40Z</time>
      </trkpt>
      <trkpt lat="53.04333" lon="-6.32613">
        <ele>235.79</ele>
        <time>2021-03-20T15:18:42Z</time>
      </trkpt>
      <trkpt lat="53.04297" lon="-6.32609">
        <ele>231.47</ele>
        <time>2021-03-20T15:18:45Z</time>
      </trkpt>
      <trkpt lat="53.0425" lon="-6.32596">
        <ele>230.08</ele>
        <time>2021-03-20T15:18:47Z</time>
      </trkpt>
      <trkpt lat="53.0419" lon="-6.32591">
        <ele>229.73</ele>
        <time>2021-03-20T15:18:49Z</time>
      </trkpt>
      <trkpt lat="53.04178" lon="-6.32587">
        <ele>229.87</ele>
        <time>2021-03-20T15:18:51Z</time>
      </trkpt>
      <trkpt lat="53.04155" lon="-6.32574">
        <ele>230.54</ele>
        <time>2021-03-20T15:18:53Z</time>
      </trkpt>
      <trkpt lat="53.04132" lon="-6.32564">
        <ele>231.09</ele>
        <time>2021-03-20T15:18:56Z</time>
      </trkpt>
      <trkpt lat="53.04033" lon="-6.32538">
        <ele>231.85</ele>
        <time>2021-03-20T15:18:58Z</time>
      </trkpt>
      <trkpt lat="53.04012" lon="-6.32525">
        <ele>232.02</ele>
        <time>2021-03-20T15:19:00Z</time>
      </trkpt>
      <trkpt lat="53.03964" lon="-6.32476">
        <ele>229.67</ele>
        <time>2021-03-20T15:19:02Z</time>
      </trkpt>
      <trkpt lat="53.03898" lon="-6.32429">
        <ele>229.81</ele>
        <time>2021-03-20T15:19:04Z</time>
      </trkpt>
      <trkpt lat="53.03839" lon="-6.32381">
        <ele>226.45</ele>
        <time>2021-03-20T15:19:06Z</time>
      </trkpt>
      <trkpt lat="53.03781" lon="-6.32319">
        <ele>222.05</ele>
        <time>2021-03-20T15:19:09Z</time>
      </trkpt>
      <trkpt lat="53.03735" lon="-6.32277">
        <ele>219.49</ele>
        <time>2021-03-20T15:19:11Z</time>
      </trkpt>
      <trkpt lat="53.03655" lon="-6.32193">
        <ele>218.12</ele>
        <time>2021-03-20T15:19:13Z</time>
      </trkpt>
      <trkpt lat="53.03627" lon="-6.32164">
        <ele>222.68</ele>
        <time>2021-03-20T15:19:15Z</time>
      </trkpt>
      <trkpt lat="53.03599" lon="-6.32129">
        <ele>226.91</ele>
        <time>2021-03-20T15:19:17Z</time>
      </trkpt>
      <trkpt lat="53.03591" lon="-6.32115">
        <ele>227.94</ele>
        <time>2021-03-20T15:19:20Z</time>
      </trkpt>
      <trkpt lat="53.03554" lon="-6.32023">
        <ele>227.8</ele>
        <time>2021-03-20T15:19:22Z</time>
      </trkpt>
      <trkpt lat="53.03535" lon="-6.31987">
        <ele>227.74</ele>
        <time>2021-03-20T15:19:24Z</time>
      </trkpt>
      <trkpt lat="53.0349" lon="-6.31924">
        <ele>227.25</ele>
        <time>2021-03-20T15:19:26Z</time>
      </trkpt>
      <trkpt lat="53.03471" lon="-6.31889">
        <ele>223.77</ele>
        <time>2021-03-20T15:19:28Z</time>
      </trkpt>
      <trkpt lat="53.03434" lon="-6.31813">
        <ele>224.47</ele>
        <time>2021-03-20T15:19:31Z</time>
      </trkpt>
      <trkpt lat="53.03388" lon="-6.31734">
        <ele>221.36</ele>
        <time>2021-03-20T15:19:33Z</time>
      </trkpt>
      <trkpt lat="53.0337" lon="-6.31696">
        <ele>218.28</ele>
        <time>2021-03-20T15:19:35Z</time>
      </trkpt>
      <trkpt lat="53.03358" lon="-6.31661">
        <ele>214.66</ele>
        <time>2021-03-20T15:19:37Z</time>
      </trkpt>
      <trkpt lat="53.03343" lon="-6.31624">
        <ele>213.01</ele>
        <time>2021-03-20T15:19:39Z</time>
      </trkpt>
      <trkpt lat="53.03308" lon="-6.31552">
        <ele>214.41</ele>
        <time>2021-03-20T15:19:42Z</time>
      </trkpt>
      <trkpt lat="53.03293" lon="-6.31517">
        <ele>214.32</ele>
        <time>2021-03-20T15:19:44Z</time>
      </trkpt>
      <trkpt lat="53.03276" lon="-6.31459">
        <ele>214.38</ele>
        <time>2021-03-20T15:19:46Z</time>
      </trkpt>
      <trkpt lat="53.03262" lon="-6.314">
        <ele>215.2</ele>
        <time>2021-03-20T15:19:48Z</time>
      </trkpt>
      <trkpt lat="53.03257" lon="-6.31382">
        <ele>215.24</ele>
        <time>2021-03-20T15:19:50Z</time>
      </trkpt>
      <trkpt lat="53.03242" lon="-6.31349">
        <ele>215.78</ele>
        <time>2021-03-20T15:19:52Z</time>
      </trkpt>
      <trkpt lat="53.03226" lon="-6.31321">
        <ele>215.88</ele>
        <time>2021-03-20T15:19:55Z</time>
      </trkpt>
      <trkpt lat="53.03208" lon="-6.31296">
        <ele>215.68</ele>
        <time>2021-03-20T15:19:57Z</time>
      </trkpt>
      <trkpt lat="53.03102" lon="-6.31167">
        <ele>212</ele>
        <time>2021-03-20T15:19:59Z</time>
      </trkpt>
      <trkpt lat="53.0299" lon="-6.31001">
        <ele>210.4</ele>
        <time>2021-03-20T15:20:01Z</time>
      </trkpt>
      <trkpt lat="53.02944" lon="-6.30917">
        <ele>211.01</ele>
        <time>2021-03-20T15:20:03Z</time>
      </trkpt>
      <trkpt lat="53.02899" lon="-6.30818">
        <ele>211.54</ele>
        <time>2021-03-20T15:20:06Z</time>
      </trkpt>
      <trkpt lat="53.02881" lon="-6.30792">
        <ele>213.14</ele>
        <time>2021-03-20T15:20:08Z</time>
      </trkpt>
      <trkpt lat="53.02871" lon="-6.30781">
        <ele>213.82</ele>
        <time>2021-03-20T15:20:10Z</time>
      </trkpt>
      <trkpt lat="53.02851" lon="-6.30767">
        <ele>214.79</ele>
        <time>2021-03-20T15:20:12Z</time>
      </trkpt>
      <trkpt lat="53.02786" lon="-6.30739">
        <ele>214.76</ele>
        <time>2021-03-20T15:20:14Z</time>
      </trkpt>
      <trkpt lat="53.02754" lon="-6.30742">
        <ele>215.45</ele>
        <time>2021-03-20T15:20:17Z</time>
      </trkpt>
      <trkpt lat="53.02712" lon="-6.30757">
        <ele>216.75</ele>
        <time>2021-03-20T15:20:19Z</time>
      </trkpt>
      <trkpt lat="53.02689" lon="-6.30769">
        <ele>216.12</ele>
        <time>2021-03-20T15:20:21Z</time>
      </trkpt>
      <trkpt lat="53.02664" lon="-6.30776">
        <ele>215.05</ele>
        <time>2021-03-20T15:20:23Z</time>
      </trkpt>
      <trkpt lat="53.02624" lon="-6.30782">
        <ele>215.29</ele>
        <time>2021-03-20T15:20:25Z</time>
      </trkpt>
      <trkpt lat="53.02584" lon="-6.30781">
        <ele>214.91</ele>
        <time>2021-03-20T15:20:27Z</time>
      </trkpt>
      <trkpt lat="53.0256" lon="-6.30783">
        <ele>213.97</ele>
        <time>2021-03-20T15:20:30Z</time>
      </trkpt>
      <trkpt lat="53.02545" lon="-6.30787">
        <ele>214.43</ele>
        <time>2021-03-20T15:20:32Z</time>
      </trkpt>
      <trkpt lat="53.02526" lon="-6.30796">
        <ele>215.38</ele>
        <time>2021-03-20T15:20:34Z</time>
      </trkpt>
      <trkpt lat="53.02484" lon="-6.30835">
        <ele>213.95</ele>
        <time>2021-03-20T15:20:36Z</time>
      </trkpt>
      <trkpt lat="53.02471" lon="-6.30841">
        <ele>213.75</ele>
        <time>2021-03-20T15:20:38Z</time>
      </trkpt>
      <trkpt lat="53.02442" lon="-6.30842">
        <ele>214.4</ele>
        <time>2021-03-20T15:20:41Z</time>
      </trkpt>
      <trkpt lat="53.02375" lon="-6.30836">
        <ele>212.31</ele>
        <time>2021-03-20T15:20:43Z</time>
      </trkpt>
      <trkpt lat="53.02358" lon="-6.30829">
        <ele>211.92</ele>
        <time>2021-03-20T15:20:45Z</time>
      </trkpt>
      <trkpt lat="53.02323" lon="-6.3081">
        <ele>211.48</ele>
        <time>2021-03-20T15:20:47Z</time>
      </trkpt>
      <trkpt lat="53.02312" lon="-6.30802">
        <ele>211.38</ele>
        <time>2021-03-20T15:20:49Z</time>
      </trkpt>
      <trkpt lat="53.02265" lon="-6.30743">
        <ele>210.06</ele>
        <time>2021-03-20T15:20:52Z</time>
      </trkpt>
      <trkpt lat="53.02236" lon="-6.30694">
        <ele>208.54</ele>
        <time>2021-03-20T15:20:54Z</time>
      </trkpt>
      <trkpt lat="53.02207" lon="-6.30652">
        <ele>207.35</ele>
        <time>2021-03-20T15:20:56Z</time>
      </trkpt>
      <trkpt lat="53.02151" lon="-6.30606">
        <ele>206.07</ele>
        <time>2021-03-20T15:20:58Z</time>
      </trkpt>
      <trkpt lat="53.02128" lon="-6.30584">
        <ele>205.59</ele>
        <time>2021-03-20T15:21:00Z</time>
      </trkpt>
      <trkpt lat="53.02107" lon="-6.3056">
        <ele>205.67</ele>
        <time>2021-03-20T15:21:03Z</time>
      </trkpt>
      <trkpt lat="53.02049" lon="-6.30478">
        <ele>204.1</ele>
        <time>2021-03-20T15:21:05Z</time>
      </trkpt>
      <trkpt lat="53.01979" lon="-6.30432">
        <ele>200.95</ele>
        <time>2021-03-20T15:21:07Z</time>
      </trkpt>
      <trkpt lat="53.01955" lon="-6.30411">
        <ele>200.08</ele>
        <time>2021-03-20T15:21:09Z</time>
      </trkpt>
      <trkpt lat="53.01944" lon="-6.30399">
        <ele>200.21</ele>
        <time>2021-03-20T15:21:11Z</time>
      </trkpt>
      <trkpt lat="53.01898" lon="-6.30336">
        <ele>198.75</ele>
        <time>2021-03-20T15:21:13Z</time>
      </trkpt>
      <trkpt lat="53.01855" lon="-6.30299">
        <ele>198.23</ele>
        <time>2021-03-20T15:21:16Z</time>
      </trkpt>
      <trkpt lat="53.01829" lon="-6.30283">
        <ele>198.57</ele>
        <time>2021-03-20T15:21:18Z</time>
      </trkpt>
      <trkpt lat="53.01802" lon="-6.30274">
        <ele>197.1</ele>
        <time>2021-03-20T15:21:20Z</time>
      </trkpt>
      <trkpt lat="53.0176" lon="-6.30266">
        <ele>198.24</ele>
        <time>2021-03-20T15:21:22Z</time>
      </trkpt>
      <trkpt lat="53.01734" lon="-6.30257">
        <ele>198.98</ele>
        <time>2021-03-20T15:21:24Z</time>
      </trkpt>
      <trkpt lat="53.01709" lon="-6.3024">
        <ele>197.63</ele>
        <time>2021-03-20T15:21:27Z</time>
      </trkpt>
      <trkpt lat="53.01685" lon="-6.30215">
        <ele>194.74</ele>
        <time>2021-03-20T15:21:29Z</time>
      </trkpt>
      <trkpt lat="53.01598" lon="-6.30099">
        <ele>188.74</ele>
        <time>2021-03-20T15:21:31Z</time>
      </trkpt>
      <trkpt lat="53.01567" lon="-6.3005">
        <ele>187.13</ele>
        <time>2021-03-20T15:21:33Z</time>
      </trkpt>
      <trkpt lat="53.01479" lon="-6.29946">
        <ele>182.71</ele>
        <time>2021-03-20T15:21:35Z</time>
      </trkpt>
      <trkpt lat="53.01437" lon="-6.29904">
        <ele>177.9</ele>
        <time>2021-03-20T15:21:38Z</time>
      </trkpt>
      <trkpt lat="53.01402" lon="-6.29872">
        <ele>175.56</ele>
        <time>2021-03-20T15:21:40Z</time>
      </trkpt>
      <trkpt lat="53.01372" lon="-6.2984">
        <ele>173.68</ele>
        <time>2021-03-20T15:21:42Z</time>
      </trkpt>
      <trkpt lat="53.01305" lon="-6.29758">
        <ele>169.04</ele>
        <time>2021-03-20T15:21:44Z</time>
      </trkpt>
      <trkpt lat="53.01251" lon="-6.29683">
        <ele>169.29</ele>
        <time>2021-03-20T15:21:46Z</time>
      </trkpt>
      <trkpt lat="53.01156" lon="-6.29629">
        <ele>164.52</ele>
        <time>2021-03-20T15:21:49Z</time>
      </trkpt>
      <trkpt lat="53.01115" lon="-6.29602">
        <ele>161.78</ele>
        <time>2021-03-20T15:21:51Z</time>
      </trkpt>
      <trkpt lat="53.01054" lon="-6.29561">
        <ele>160.17</ele>
        <time>2021-03-20T15:21:53Z</time>
      </trkpt>
      <trkpt lat="53.01029" lon="-6.29557">
        <ele>158.01</ele>
        <time>2021-03-20T15:21:55Z</time>
      </trkpt>
      <trkpt lat="53.00949" lon="-6.29562">
        <ele>149.13</ele>
        <time>2021-03-20T15:21:57Z</time>
      </trkpt>
      <trkpt lat="53.00921" lon="-6.29563">
        <ele>145.96</ele>
        <time>2021-03-20T15:21:59Z</time>
      </trkpt>
      <trkpt lat="53.00912" lon="-6.29559">
        <ele>145.77</ele>
        <time>2021-03-20T15:22:02Z</time>
      </trkpt>
      <trkpt lat="53.00888" lon="-6.29591">
        <ele>143.43</ele>
        <time>2021-03-20T15:22:04Z</time>
      </trkpt>
      <trkpt lat="53.00874" lon="-6.29615">
        <ele>141.32</ele>
        <time>2021-03-20T15:22:06Z</time>
      </trkpt>
      <trkpt lat="53.00869" lon="-6.29639">
        <ele>140.28</ele>
        <time>2021-03-20T15:22:08Z</time>
      </trkpt>
      <trkpt lat="53.00857" lon="-6.29675">
        <ele>139.39</ele>
        <time>2021-03-20T15:22:10Z</time>
      </trkpt>
      <trkpt lat="53.00846" lon="-6.29726">
        <ele>140.58</ele>
        <time>2021-03-20T15:22:12Z</time>
      </trkpt>
      <trkpt lat="53.00844" lon="-6.29738">
        <ele>140.96</ele>
        <time>2021-03-20T15:22:14Z</time>
      </trkpt>
      <trkpt lat="53.00845" lon="-6.29751">
        <ele>141.43</ele>
        <time>2021-03-20T15:22:16Z</time>
      </trkpt>
      <trkpt lat="53.00811" lon="-6.29756">
        <ele>141.04</ele>
        <time>2021-03-20T15:22:21Z</time>
      </trkpt>
      <trkpt lat="53.00797" lon="-6.29764">
        <ele>140.7</ele>
        <time>2021-03-20T15:22:26Z</time>
      </trkpt>
      <trkpt lat="53.00645" lon="-6.29879">
        <ele>131.59</ele>
        <time>2021-03-20T15:22:31Z</time>
      </trkpt>
      <trkpt lat="53.00604" lon="-6.29903">
        <ele>128.11</ele>
        <time>2021-03-20T15:22:35Z</time>
      </trkpt>
      <trkpt lat="53.00536" lon="-6.29933">
        <ele>126.29</ele>
        <time>2021-03-20T15:22:40Z</time>
      </trkpt>
      <trkpt lat="53.00516" lon="-6.29937">
        <ele>126.58</ele>
        <time>2021-03-20T15:22:45Z</time>
      </trkpt>
      <trkpt lat="53.0043" lon="-6.29913">
        <ele>126.72</ele>
        <time>2021-03-20T15:22:50Z</time>
      </trkpt>
      <trkpt lat="53.00407" lon="-6.29911">
        <ele>127.18</ele>
        <time>2021-03-20T15:22:55Z</time>
      </trkpt>
      <trkpt lat="53.00315" lon="-6.29911">
        <ele>128.24</ele>
        <time>2021-03-20T15:22:59Z</time>
      </trkpt>
      <trkpt lat="53.00252" lon="-6.29895">
        <ele>125.52</ele>
        <time>2021-03-20T15:23:04Z</time>
      </trkpt>
      <trkpt lat="53.00197" lon="-6.29884">
        <ele>123.73</ele>
        <time>2021-03-20T15:23:09Z</time>
      </trkpt>
      <trkpt lat="53.00184" lon="-6.29894">
        <ele>125.28</ele>
        <time>2021-03-20T15:23:14Z</time>
      </trkpt>
      <trkpt lat="53.00172" lon="-6.29919">
        <ele>127.46</ele>
        <time>2021-03-20T15:23:18Z</time>
      </trkpt>
      <trkpt lat="53.00148" lon="-6.29955">
        <ele>127.88</ele>
        <time>2021-03-20T15:23:23Z</time>
      </trkpt>
      <trkpt lat="53.00132" lon="-6.2997">
        <ele>127.97</ele>
        <time>2021-03-20T15:23:28Z</time>
      </trkpt>
      <trkpt lat="53.00118" lon="-6.29977">
        <ele>128</ele>
        <time>2021-03-20T15:23:33Z</time>
      </trkpt>
      <trkpt lat="53.00071" lon="-6.29991">
        <ele>130.69</ele>
        <time>2021-03-20T15:23:38Z</time>
      </trkpt>
      <trkpt lat="53.00016" lon="-6.30002">
        <ele>130.19</ele>
        <time>2021-03-20T15:23:42Z</time>
      </trkpt>
      <trkpt lat="52.99963" lon="-6.30029">
        <ele>130.77</ele>
        <time>2021-03-20T15:23:47Z</time>
      </trkpt>
      <trkpt lat="52.99926" lon="-6.30059">
        <ele>130.86</ele>
        <time>2021-03-20T15:23:52Z</time>
      </trkpt>
      <trkpt lat="52.99905" lon="-6.30069">
        <ele>131.36</ele>
        <time>2021-03-20T15:23:57Z</time>
      </trkpt>
      <trkpt lat="52.99706" lon="-6.30226">
        <ele>151.27</ele>
        <time>2021-03-20T15:24:01Z</time>
      </trkpt>
      <trkpt lat="52.99691" lon="-6.30228">
        <ele>152.89</ele>
        <time>2021-03-20T15:24:06Z</time>
      </trkpt>
      <trkpt lat="52.99692" lon="-6.30245">
        <ele>155.35</ele>
        <time>2021-03-20T15:24:09Z</time>
      </trkpt>
      <trkpt lat="52.99685" lon="-6.30265">
        <ele>158.01</ele>
        <time>2021-03-20T15:24:12Z</time>
      </trkpt>
      <trkpt lat="52.99674" lon="-6.30284">
        <ele>161.51</ele>
        <time>2021-03-20T15:24:15Z</time>
      </trkpt>
      <trkpt lat="52.99627" lon="-6.30299">
        <ele>168</ele>
        <time>2021-03-20T15:24:18Z</time>
      </trkpt>
      <trkpt lat="52.99524" lon="-6.30321">
        <ele>177.33</ele>
        <time>2021-03-20T15:24:21Z</time>
      </trkpt>
      <trkpt lat="52.99468" lon="-6.3034">
        <ele>181.41</ele>
        <time>2021-03-20T15:24:24Z</time>
      </trkpt>
      <trkpt lat="52.99403" lon="-6.30365">
        <ele>186.61</ele>
        <time>2021-03-20T15:24:27Z</time>
      </trkpt>
      <trkpt lat="52.99271" lon="-6.30402">
        <ele>190.52</ele>
        <time>2021-03-20T15:24:29Z</time>
      </trkpt>
      <trkpt lat="52.99239" lon="-6.30423">
        <ele>191.28</ele>
        <time>2021-03-20T15:24:32Z</time>
      </trkpt>
      <trkpt lat="52.99219" lon="-6.30445">
        <ele>192.71</ele>
        <time>2021-03-20T15:24:35Z</time>
      </trkpt>
      <trkpt lat="52.99203" lon="-6.30469">
        <ele>193.59</ele>
        <time>2021-03-20T15:24:38Z</time>
      </trkpt>
      <trkpt lat="52.9917" lon="-6.30539">
        <ele>195.21</ele>
        <time>2021-03-20T15:24:41Z</time>
      </trkpt>
      <trkpt lat="52.9914" lon="-6.30637">
        <ele>196.96</ele>
        <time>2021-03-20T15:24:44Z</time>
      </trkpt>
      <trkpt lat="52.99127" lon="-6.30688">
        <ele>197.93</ele>
        <time>2021-03-20T15:24:47Z</time>
      </trkpt>
      <trkpt lat="52.9912" lon="-6.30731">
        <ele>197.93</ele>
        <time>2021-03-20T15:24:50Z</time>
      </trkpt>
      <trkpt lat="52.99134" lon="-6.30827">
        <ele>204.39</ele>
        <time>2021-03-20T15:24:53Z</time>
      </trkpt>
      <trkpt lat="52.99126" lon="-6.30894">
        <ele>208.18</ele>
        <time>2021-03-20T15:24:56Z</time>
      </trkpt>
      <trkpt lat="52.99123" lon="-6.30933">
        <ele>209.11</ele>
        <time>2021-03-20T15:24:58Z</time>
      </trkpt>
      <trkpt lat="52.99125" lon="-6.30976">
        <ele>211.12</ele>
        <time>2021-03-20T15:25:01Z</time>
      </trkpt>
      <trkpt lat="52.99128" lon="-6.31006">
        <ele>212.56</ele>
        <time>2021-03-20T15:25:04Z</time>
      </trkpt>
      <trkpt lat="52.99134" lon="-6.31033">
        <ele>214.11</ele>
        <time>2021-03-20T15:25:07Z</time>
      </trkpt>
      <trkpt lat="52.99138" lon="-6.31118">
        <ele>216.41</ele>
        <time>2021-03-20T15:25:10Z</time>
      </trkpt>
      <trkpt lat="52.99124" lon="-6.31198">
        <ele>218.97</ele>
        <time>2021-03-20T15:25:13Z</time>
      </trkpt>
      <trkpt lat="52.99111" lon="-6.31296">
        <ele>218.69</ele>
        <time>2021-03-20T15:25:16Z</time>
      </trkpt>
      <trkpt lat="52.99105" lon="-6.31359">
        <ele>219.47</ele>
        <time>2021-03-20T15:25:19Z</time>
      </trkpt>
      <trkpt lat="52.99101" lon="-6.31382">
        <ele>220</ele>
        <time>2021-03-20T15:25:22Z</time>
      </trkpt>
      <trkpt lat="52.99098" lon="-6.3139">
        <ele>220.07</ele>
        <time>2021-03-20T15:25:25Z</time>
      </trkpt>
      <trkpt lat="52.99092" lon="-6.31398">
        <ele>219.83</ele>
        <time>2021-03-20T15:25:27Z</time>
      </trkpt>
      <trkpt lat="52.99081" lon="-6.31397">
        <ele>219.49</ele>
        <time>2021-03-20T15:25:30Z</time>
      </trkpt>
      <trkpt lat="52.99076" lon="-6.31392">
        <ele>219.63</ele>
        <time>2021-03-20T15:25:33Z</time>
      </trkpt>
      <trkpt lat="52.99064" lon="-6.31368">
        <ele>219.64</ele>
        <time>2021-03-20T15:25:36Z</time>
      </trkpt>
      <trkpt lat="52.99053" lon="-6.31354">
        <ele>219.62</ele>
        <time>2021-03-20T15:25:39Z</time>
      </trkpt>
      <trkpt lat="52.98999" lon="-6.31298">
        <ele>220.58</ele>
        <time>2021-03-20T15:25:42Z</time>
      </trkpt>
      <trkpt lat="52.98969" lon="-6.3126">
        <ele>221.36</ele>
        <time>2021-03-20T15:25:45Z</time>
      </trkpt>
      <trkpt lat="52.98938" lon="-6.3121">
        <ele>225.17</ele>
        <time>2021-03-20T15:25:48Z</time>
      </trkpt>
      <trkpt lat="52.98894" lon="-6.31152">
        <ele>230.21</ele>
        <time>2021-03-20T15:25:51Z</time>
      </trkpt>
      <trkpt lat="52.98821" lon="-6.31029">
        <ele>233.17</ele>
        <time>2021-03-20T15:25:54Z</time>
      </trkpt>
      <trkpt lat="52.98804" lon="-6.30994">
        <ele>235.24</ele>
        <time>2021-03-20T15:25:56Z</time>
      </trkpt>
      <trkpt lat="52.98777" lon="-6.30932">
        <ele>237.6</ele>
        <time>2021-03-20T15:25:59Z</time>
      </trkpt>
      <trkpt lat="52.98752" lon="-6.30878">
        <ele>238.26</ele>
        <time>2021-03-20T15:26:02Z</time>
      </trkpt>
      <trkpt lat="52.98702" lon="-6.30734">
        <ele>242.65</ele>
        <time>2021-03-20T15:26:05Z</time>
      </trkpt>
      <trkpt lat="52.98636" lon="-6.30577">
        <ele>247.89</ele>
        <time>2021-03-20T15:26:08Z</time>
      </trkpt>
      <trkpt lat="52.98584" lon="-6.30523">
        <ele>250.59</ele>
        <time>2021-03-20T15:26:11Z</time>
      </trkpt>
      <trkpt lat="52.98568" lon="-6.30511">
        <ele>251.08</ele>
        <time>2021-03-20T15:26:14Z</time>
      </trkpt>
      <trkpt lat="52.98508" lon="-6.3049">
        <ele>255.02</ele>
        <time>2021-03-20T15:26:17Z</time>
      </trkpt>
      <trkpt lat="52.98487" lon="-6.30488">
        <ele>257.15</ele>
        <time>2021-03-20T15:26:20Z</time>
      </trkpt>
      <trkpt lat="52.98384" lon="-6.30494">
        <ele>262.3</ele>
        <time>2021-03-20T15:26:23Z</time>
      </trkpt>
      <trkpt lat="52.98363" lon="-6.30501">
        <ele>264.02</ele>
        <time>2021-03-20T15:26:25Z</time>
      </trkpt>
      <trkpt lat="52.98338" lon="-6.30516">
        <ele>265.03</ele>
        <time>2021-03-20T15:26:28Z</time>
      </trkpt>
      <trkpt lat="52.98326" lon="-6.30529">
        <ele>265.51</ele>
        <time>2021-03-20T15:26:31Z</time>
      </trkpt>
      <trkpt lat="52.98252" lon="-6.30632">
        <ele>273.43</ele>
        <time>2021-03-20T15:26:34Z</time>
      </trkpt>
      <trkpt lat="52.98234" lon="-6.30653">
        <ele>274.19</ele>
        <time>2021-03-20T15:26:37Z</time>
      </trkpt>
      <trkpt lat="52.98218" lon="-6.30667">
        <ele>274.74</ele>
        <time>2021-03-20T15:26:40Z</time>
      </trkpt>
      <trkpt lat="52.98185" lon="-6.30686">
        <ele>274.8</ele>
        <time>2021-03-20T15:26:43Z</time>
      </trkpt>
      <trkpt lat="52.98169" lon="-6.30705">
        <ele>275.76</ele>
        <time>2021-03-20T15:26:46Z</time>
      </trkpt>
      <trkpt lat="52.98145" lon="-6.30745">
        <ele>276.6</ele>
        <time>2021-03-20T15:26:49Z</time>
      </trkpt>
      <trkpt lat="52.98127" lon="-6.30782">
        <ele>277.66</ele>
        <time>2021-03-20T15:26:52Z</time>
      </trkpt>
      <trkpt lat="52.98111" lon="-6.30837">
        <ele>282.33</ele>
        <time>2021-03-20T15:26:54Z</time>
      </trkpt>
      <trkpt lat="52.98106" lon="-6.30861">
        <ele>283.98</ele>
        <time>2021-03-20T15:26:57Z</time>
      </trkpt>
      <trkpt lat="52.98091" lon="-6.30922">
        <ele>285.7</ele>
        <time>2021-03-20T15:27:00Z</time>
      </trkpt>
      <trkpt lat="52.98087" lon="-6.30932">
        <ele>285.64</ele>
        <time>2021-03-20T15:27:03Z</time>
      </trkpt>
      <trkpt lat="52.98077" lon="-6.30947">
        <ele>285.27</ele>
        <time>2021-03-20T15:27:06Z</time>
      </trkpt>
      <trkpt lat="52.98071" lon="-6.30967">
        <ele>285.46</ele>
        <time>2021-03-20T15:27:09Z</time>
      </trkpt>
      <trkpt lat="52.98047" lon="-6.3116">
        <ele>291.17</ele>
        <time>2021-03-20T15:27:12Z</time>
      </trkpt>
      <trkpt lat="52.98043" lon="-6.31201">
        <ele>293.15</ele>
        <time>2021-03-20T15:27:15Z</time>
      </trkpt>
      <trkpt lat="52.98043" lon="-6.31275">
        <ele>296.13</ele>
        <time>2021-03-20T15:27:18Z</time>
      </trkpt>
      <trkpt lat="52.9804" lon="-6.31294">
        <ele>296.61</ele>
        <time>2021-03-20T15:27:21Z</time>
      </trkpt>
      <trkpt lat="52.98037" lon="-6.31395">
        <ele>300.59</ele>
        <time>2021-03-20T15:27:23Z</time>
      </trkpt>
      <trkpt lat="52.98041" lon="-6.3147">
        <ele>304.78</ele>
        <time>2021-03-20T15:27:26Z</time>
      </trkpt>
      <trkpt lat="52.98038" lon="-6.31494">
        <ele>305.08</ele>
        <time>2021-03-20T15:27:29Z</time>
      </trkpt>
      <trkpt lat="52.98034" lon="-6.3151">
        <ele>305.06</ele>
        <time>2021-03-20T15:27:32Z</time>
      </trkpt>
      <trkpt lat="52.98016" lon="-6.31557">
        <ele>305.4</ele>
        <time>2021-03-20T15:27:35Z</time>
      </trkpt>
      <trkpt lat="52.98" lon="-6.31612">
        <ele>306.03</ele>
        <time>2021-03-20T15:27:38Z</time>
      </trkpt>
      <trkpt lat="52.97998" lon="-6.31624">
        <ele>306.63</ele>
        <time>2021-03-20T15:27:41Z</time>
      </trkpt>
      <trkpt lat="52.98" lon="-6.31666">
        <ele>309.02</ele>
        <time>2021-03-20T15:27:44Z</time>
      </trkpt>
      <trkpt lat="52.98" lon="-6.31708">
        <ele>310.46</ele>
        <time>2021-03-20T15:27:47Z</time>
      </trkpt>
      <trkpt lat="52.97995" lon="-6.31747">
        <ele>312.54</ele>
        <time>2021-03-20T15:27:50Z</time>
      </trkpt>
      <trkpt lat="52.9799" lon="-6.31762">
        <ele>313.46</ele>
        <time>2021-03-20T15:27:52Z</time>
      </trkpt>
      <trkpt lat="52.97983" lon="-6.31773">
        <ele>314.05</ele>
        <time>2021-03-20T15:27:55Z</time>
      </trkpt>
      <trkpt lat="52.97961" lon="-6.31795">
        <ele>316.48</ele>
        <time>2021-03-20T15:27:58Z</time>
      </trkpt>
      <trkpt lat="52.9789" lon="-6.31837">
        <ele>323.43</ele>
        <time>2021-03-20T15:28:01Z</time>
      </trkpt>
      <trkpt lat="52.97882" lon="-6.3184">
        <ele>324.9</ele>
        <time>2021-03-20T15:28:04Z</time>
      </trkpt>
      <trkpt lat="52.97872" lon="-6.31839">
        <ele>326.01</ele>
        <time>2021-03-20T15:28:07Z</time>
      </trkpt>
      <trkpt lat="52.97821" lon="-6.31802">
        <ele>330.73</ele>
        <time>2021-03-20T15:28:10Z</time>
      </trkpt>
      <trkpt lat="52.97768" lon="-6.31786">
        <ele>331.43</ele>
        <time>2021-03-20T15:28:13Z</time>
      </trkpt>
      <trkpt lat="52.97731" lon="-6.31769">
        <ele>330.56</ele>
        <time>2021-03-20T15:28:16Z</time>
      </trkpt>
      <trkpt lat="52.97707" lon="-6.31767">
        <ele>331.21</ele>
        <time>2021-03-20T15:28:19Z</time>
      </trkpt>
      <trkpt lat="52.97653" lon="-6.31777">
        <ele>335.28</ele>
        <time>2021-03-20T15:28:22Z</time>
      </trkpt>
      <trkpt lat="52.97618" lon="-6.31778">
        <ele>339.27</ele>
        <time>2021-03-20T15:28:24Z</time>
      </trkpt>
      <trkpt lat="52.97587" lon="-6.31771">
        <ele>340.78</ele>
        <time>2021-03-20T15:28:27Z</time>
      </trkpt>
      <trkpt lat="52.97535" lon="-6.31751">
        <ele>341.27</ele>
        <time>2021-03-20T15:28:30Z</time>
      </trkpt>
      <trkpt lat="52.97507" lon="-6.31731">
        <ele>343.63</ele>
        <time>2021-03-20T15:28:33Z</time>
      </trkpt>
      <trkpt lat="52.97488" lon="-6.31707">
        <ele>345.39</ele>
        <time>2021-03-20T15:28:36Z</time>
      </trkpt>
      <trkpt lat="52.97433" lon="-6.31625">
        <ele>346.05</ele>
        <time>2021-03-20T15:28:39Z</time>
      </trkpt>
      <trkpt lat="52.97404" lon="-6.31591">
        <ele>344.96</ele>
        <time>2021-03-20T15:28:42Z</time>
      </trkpt>
      <trkpt lat="52.97377" lon="-6.31561">
        <ele>345.42</ele>
        <time>2021-03-20T15:28:45Z</time>
      </trkpt>
      <trkpt lat="52.97335" lon="-6.31522">
        <ele>346.85</ele>
        <time>2021-03-20T15:28:48Z</time>
      </trkpt>
      <trkpt lat="52.97296" lon="-6.31495">
        <ele>349.44</ele>
        <time>2021-03-20T15:28:51Z</time>
      </trkpt>
      <trkpt lat="52.97266" lon="-6.31478">
        <ele>352.26</ele>
        <time>2021-03-20T15:28:53Z</time>
      </trkpt>
      <trkpt lat="52.97253" lon="-6.31473">
        <ele>353.76</ele>
        <time>2021-03-20T15:28:56Z</time>
      </trkpt>
      <trkpt lat="52.97173" lon="-6.31463">
        <ele>357.34</ele>
        <time>2021-03-20T15:28:59Z</time>
      </trkpt>
      <trkpt lat="52.9715" lon="-6.31462">
        <ele>357.59</ele>
        <time>2021-03-20T15:29:02Z</time>
      </trkpt>
      <trkpt lat="52.97119" lon="-6.31465">
        <ele>358.42</ele>
        <time>2021-03-20T15:29:05Z</time>
      </trkpt>
      <trkpt lat="52.97105" lon="-6.3147">
        <ele>359.11</ele>
        <time>2021-03-20T15:29:08Z</time>
      </trkpt>
      <trkpt lat="52.97077" lon="-6.31496">
        <ele>360.54</ele>
        <time>2021-03-20T15:29:11Z</time>
      </trkpt>
      <trkpt lat="52.97054" lon="-6.31521">
        <ele>362.33</ele>
        <time>2021-03-20T15:29:14Z</time>
      </trkpt>
      <trkpt lat="52.96983" lon="-6.3164">
        <ele>379.13</ele>
        <time>2021-03-20T15:29:17Z</time>
      </trkpt>
      <trkpt lat="52.9697" lon="-6.31665">
        <ele>381.66</ele>
        <time>2021-03-20T15:29:20Z</time>
      </trkpt>
      <trkpt lat="52.96959" lon="-6.317">
        <ele>382.73</ele>
        <time>2021-03-20T15:29:22Z</time>
      </trkpt>
      <trkpt lat="52.96945" lon="-6.31759">
        <ele>382.02</ele>
        <time>2021-03-20T15:29:25Z</time>
      </trkpt>
      <trkpt lat="52.96928" lon="-6.31807">
        <ele>381.77</ele>
        <time>2021-03-20T15:29:28Z</time>
      </trkpt>
      <trkpt lat="52.9691" lon="-6.31851">
        <ele>380.62</ele>
        <time>2021-03-20T15:29:31Z</time>
      </trkpt>
      <trkpt lat="52.96889" lon="-6.31894">
        <ele>378.8</ele>
        <time>2021-03-20T15:29:34Z</time>
      </trkpt>
      <trkpt lat="52.96856" lon="-6.3195">
        <ele>374.09</ele>
        <time>2021-03-20T15:29:37Z</time>
      </trkpt>
      <trkpt lat="52.96818" lon="-6.3201">
        <ele>365.78</ele>
        <time>2021-03-20T15:29:40Z</time>
      </trkpt>
      <trkpt lat="52.968" lon="-6.32045">
        <ele>361.82</ele>
        <time>2021-03-20T15:29:43Z</time>
      </trkpt>
      <trkpt lat="52.9675" lon="-6.32152">
        <ele>354.54</ele>
        <time>2021-03-20T15:29:46Z</time>
      </trkpt>
      <trkpt lat="52.96719" lon="-6.32228">
        <ele>349.87</ele>
        <time>2021-03-20T15:29:49Z</time>
      </trkpt>
      <trkpt lat="52.9671" lon="-6.32255">
        <ele>348.24</ele>
        <time>2021-03-20T15:29:51Z</time>
      </trkpt>
      <trkpt lat="52.96703" lon="-6.32285">
        <ele>345.57</ele>
        <time>2021-03-20T15:29:54Z</time>
      </trkpt>
      <trkpt lat="52.96678" lon="-6.32428">
        <ele>337.92</ele>
        <time>2021-03-20T15:29:57Z</time>
      </trkpt>
      <trkpt lat="52.96648" lon="-6.3258">
        <ele>330.21</ele>
        <time>2021-03-20T15:30:00Z</time>
      </trkpt>
      <trkpt lat="52.96635" lon="-6.32689">
        <ele>324.41</ele>
        <time>2021-03-20T15:30:03Z</time>
      </trkpt>
      <trkpt lat="52.96627" lon="-6.32771">
        <ele>319.35</ele>
        <time>2021-03-20T15:30:06Z</time>
      </trkpt>
      <trkpt lat="52.96625" lon="-6.3291">
        <ele>313.87</ele>
        <time>2021-03-20T15:30:09Z</time>
      </trkpt>
      <trkpt lat="52.9662" lon="-6.32968">
        <ele>311.23</ele>
        <time>2021-03-20T15:30:12Z</time>
      </trkpt>
      <trkpt lat="52.96599" lon="-6.33079">
        <ele>304.24</ele>
        <time>2021-03-20T15:30:15Z</time>
      </trkpt>
      <trkpt lat="52.96579" lon="-6.33304">
        <ele>289.64</ele>
        <time>2021-03-20T15:30:18Z</time>
      </trkpt>
      <trkpt lat="52.96571" lon="-6.33442">
        <ele>282.64</ele>
        <time>2021-03-20T15:30:20Z</time>
      </trkpt>
      <trkpt lat="52.96579" lon="-6.33544">
        <ele>280.32</ele>
        <time>2021-03-20T15:30:23Z</time>
      </trkpt>
      <trkpt lat="52.96596" lon="-6.33628">
        <ele>271.68</ele>
        <time>2021-03-20T15:30:26Z</time>
      </trkpt>
      <trkpt lat="52.966" lon="-6.3367">
        <ele>267.84</ele>
        <time>2021-03-20T15:30:29Z</time>
      </trkpt>
      <trkpt lat="52.966" lon="-6.33827">
        <ele>256.85</ele>
        <time>2021-03-20T15:30:32Z</time>
      </trkpt>
      <trkpt lat="52.96587" lon="-6.33961">
        <ele>251.04</ele>
        <time>2021-03-20T15:30:35Z</time>
      </trkpt>
      <trkpt lat="52.9658" lon="-6.34">
        <ele>248.56</ele>
        <time>2021-03-20T15:30:38Z</time>
      </trkpt>
      <trkpt lat="52.96572" lon="-6.34037">
        <ele>246.59</ele>
        <time>2021-03-20T15:30:41Z</time>
      </trkpt>
      <trkpt lat="52.96551" lon="-6.34118">
        <ele>242.01</ele>
        <time>2021-03-20T15:30:44Z</time>
      </trkpt>
      <trkpt lat="52.96443" lon="-6.34377">
        <ele>233.87</ele>
        <time>2021-03-20T15:30:47Z</time>
      </trkpt>
      <trkpt lat="52.96339" lon="-6.34656">
        <ele>220.66</ele>
        <time>2021-03-20T15:30:49Z</time>
      </trkpt>
      <trkpt lat="52.96316" lon="-6.34705">
        <ele>217.57</ele>
        <time>2021-03-20T15:30:52Z</time>
      </trkpt>
      <trkpt lat="52.96251" lon="-6.34809">
        <ele>213.49</ele>
        <time>2021-03-20T15:30:55Z</time>
      </trkpt>
      <trkpt lat="52.9624" lon="-6.34838">
        <ele>212.22</ele>
        <time>2021-03-20T15:30:58Z</time>
      </trkpt>
      <trkpt lat="52.96224" lon="-6.34888">
        <ele>206.96</ele>
        <time>2021-03-20T15:31:01Z</time>
      </trkpt>
      <trkpt lat="52.962" lon="-6.3494">
        <ele>205.61</ele>
        <time>2021-03-20T15:31:04Z</time>
      </trkpt>
      <trkpt lat="52.96172" lon="-6.34989">
        <ele>201.13</ele>
        <time>2021-03-20T15:31:07Z</time>
      </trkpt>
      <trkpt lat="52.96095" lon="-6.35081">
        <ele>192.58</ele>
        <time>2021-03-20T15:31:10Z</time>
      </trkpt>
      <trkpt lat="52.96035" lon="-6.35159">
        <ele>182.26</ele>
        <time>2021-03-20T15:31:13Z</time>
      </trkpt>
      <trkpt lat="52.9598" lon="-6.35207">
        <ele>173.41</ele>
        <time>2021-03-20T15:31:16Z</time>
      </trkpt>
      <trkpt lat="52.95979" lon="-6.35208">
        <ele>173.27</ele>
        <time>2021-03-20T15:31:18Z</time>
      </trkpt>
      <trkpt lat="52.9583" lon="-6.35309">
        <ele>153.29</ele>
        <time>2021-03-20T15:31:21Z</time>
      </trkpt>
      <trkpt lat="52.95817" lon="-6.35321">
        <ele>150.2</ele>
        <time>2021-03-20T15:31:24Z</time>
      </trkpt>
      <trkpt lat="52.95803" lon="-6.3534">
        <ele>146.55</ele>
        <time>2021-03-20T15:31:27Z</time>
      </trkpt>
      <trkpt lat="52.95796" lon="-6.35354">
        <ele>145.39</ele>
        <time>2021-03-20T15:31:30Z</time>
      </trkpt>
      <trkpt lat="52.95785" lon="-6.35398">
        <ele>142.71</ele>
        <time>2021-03-20T15:31:33Z</time>
      </trkpt>
      <trkpt lat="52.95774" lon="-6.35433">
        <ele>140.31</ele>
        <time>2021-03-20T15:31:36Z</time>
      </trkpt>
      <trkpt lat="52.95767" lon="-6.35469">
        <ele>138.18</ele>
        <time>2021-03-20T15:31:39Z</time>
      </trkpt>
      <trkpt lat="52.95754" lon="-6.35516">
        <ele>134.22</ele>
        <time>2021-03-20T15:31:42Z</time>
      </trkpt>
      <trkpt lat="52.95745" lon="-6.35534">
        <ele>132.46</ele>
        <time>2021-03-20T15:31:45Z</time>
      </trkpt>
      <trkpt lat="52.95698" lon="-6.35575">
        <ele>126.57</ele>
        <time>2021-03-20T15:31:47Z</time>
      </trkpt>
      <trkpt lat="52.95685" lon="-6.3559">
        <ele>125.52</ele>
        <time>2021-03-20T15:31:50Z</time>
      </trkpt>
      <trkpt lat="52.95672" lon="-6.35612">
        <ele>125</ele>
        <time>2021-03-20T15:31:53Z</time>
      </trkpt>
      <trkpt lat="52.9566" lon="-6.35641">
        <ele>125.24</ele>
        <time>2021-03-20T15:31:56Z</time>
      </trkpt>
      <trkpt lat="52.95624" lon="-6.35712">
        <ele>127.52</ele>
        <time>2021-03-20T15:31:59Z</time>
      </trkpt>
      <trkpt lat="52.95593" lon="-6.35757">
        <ele>129.29</ele>
        <time>2021-03-20T15:32:02Z</time>
      </trkpt>
      <trkpt lat="52.95584" lon="-6.35766">
        <ele>129.96</ele>
        <time>2021-03-20T15:32:05Z</time>
      </trkpt>
      <trkpt lat="52.95557" lon="-6.35782">
        <ele>132.69</ele>
        <time>2021-03-20T15:32:08Z</time>
      </trkpt>
      <trkpt lat="52.95478" lon="-6.35814">
        <ele>131.2</ele>
        <time>2021-03-20T15:32:11Z</time>
      </trkpt>
      <trkpt lat="52.95379" lon="-6.35882">
        <ele>137.57</ele>
        <time>2021-03-20T15:32:14Z</time>
      </trkpt>
      <trkpt lat="52.95354" lon="-6.35887">
        <ele>140.21</ele>
        <time>2021-03-20T15:32:16Z</time>
      </trkpt>
      <trkpt lat="52.95345" lon="-6.35887">
        <ele>142.9</ele>
        <time>2021-03-20T15:32:19Z</time>
      </trkpt>
      <trkpt lat="52.95338" lon="-6.35883">
        <ele>144.69</ele>
        <time>2021-03-20T15:32:22Z</time>
      </trkpt>
      <trkpt lat="52.95329" lon="-6.35871">
        <ele>146.64</ele>
        <time>2021-03-20T15:32:25Z</time>
      </trkpt>
      <trkpt lat="52.95247" lon="-6.35718">
        <ele>157.56</ele>
        <time>2021-03-20T15:32:28Z</time>
      </trkpt>
      <trkpt lat="52.95208" lon="-6.35629">
        <ele>153.77</ele>
        <time>2021-03-20T15:32:31Z</time>
      </trkpt>
      <trkpt lat="52.95194" lon="-6.35621">
        <ele>157.09</ele>
        <time>2021-03-20T15:32:34Z</time>
      </trkpt>
      <trkpt lat="52.95175" lon="-6.35614">
        <ele>166.35</ele>
        <time>2021-03-20T15:32:37Z</time>
      </trkpt>
      <trkpt lat="52.95156" lon="-6.35589">
        <ele>169.31</ele>
        <time>2021-03-20T15:32:40Z</time>
      </trkpt>
      <trkpt lat="52.95139" lon="-6.35562">
        <ele>168.31</ele>
        <time>2021-03-20T15:32:43Z</time>
      </trkpt>
      <trkpt lat="52.95122" lon="-6.35551">
        <ele>169.74</ele>
        <time>2021-03-20T15:32:45Z</time>
      </trkpt>
      <trkpt lat="52.95096" lon="-6.35549">
        <ele>177.19</ele>
        <time>2021-03-20T15:32:48Z</time>
      </trkpt>
      <trkpt lat="52.95076" lon="-6.35542">
        <ele>181.17</ele>
        <time>2021-03-20T15:32:51Z</time>
      </trkpt>
      <trkpt lat="52.95017" lon="-6.35495">
        <ele>186.27</ele>
        <time>2021-03-20T15:32:54Z</time>
      </trkpt>
      <trkpt lat="52.94988" lon="-6.35467">
        <ele>191.94</ele>
        <time>2021-03-20T15:32:57Z</time>
      </trkpt>
      <trkpt lat="52.94968" lon="-6.35441">
        <ele>194.87</ele>
        <time>2021-03-20T15:33:00Z</time>
      </trkpt>
      <trkpt lat="52.94948" lon="-6.3541">
        <ele>194.67</ele>
        <time>2021-03-20T15:33:03Z</time>
      </trkpt>
      <trkpt lat="52.9492" lon="-6.35379">
        <ele>200.3</ele>
        <time>2021-03-20T15:33:06Z</time>
      </trkpt>
      <trkpt lat="52.94882" lon="-6.35358">
        <ele>204.15</ele>
        <time>2021-03-20T15:33:09Z</time>
      </trkpt>
      <trkpt lat="52.9483" lon="-6.35338">
        <ele>204.9</ele>
        <time>2021-03-20T15:33:12Z</time>
      </trkpt>
      <trkpt lat="52.9482" lon="-6.35338">
        <ele>205.22</ele>
        <time>2021-03-20T15:33:15Z</time>
      </trkpt>
      <trkpt lat="52.94809" lon="-6.35345">
        <ele>206.68</ele>
        <time>2021-03-20T15:33:17Z</time>
      </trkpt>
      <trkpt lat="52.94764" lon="-6.35389">
        <ele>211.02</ele>
        <time>2021-03-20T15:33:20Z</time>
      </trkpt>
      <trkpt lat="52.94722" lon="-6.35435">
        <ele>214.58</ele>
        <time>2021-03-20T15:33:23Z</time>
      </trkpt>
      <trkpt lat="52.94716" lon="-6.35445">
        <ele>215.81</ele>
        <time>2021-03-20T15:33:26Z</time>
      </trkpt>
      <trkpt lat="52.94661" lon="-6.35602">
        <ele>228.15</ele>
        <time>2021-03-20T15:33:29Z</time>
      </trkpt>
      <trkpt lat="52.94647" lon="-6.3564">
        <ele>230.26</ele>
        <time>2021-03-20T15:33:32Z</time>
      </trkpt>
      <trkpt lat="52.9463" lon="-6.3568">
        <ele>233.06</ele>
        <time>2021-03-20T15:33:35Z</time>
      </trkpt>
      <trkpt lat="52.94609" lon="-6.35721">
        <ele>237.56</ele>
        <time>2021-03-20T15:33:38Z</time>
      </trkpt>
      <trkpt lat="52.9458" lon="-6.35758">
        <ele>242.17</ele>
        <time>2021-03-20T15:33:41Z</time>
      </trkpt>
      <trkpt lat="52.9455" lon="-6.3581">
        <ele>247.05</ele>
        <time>2021-03-20T15:33:44Z</time>
      </trkpt>
      <trkpt lat="52.94541" lon="-6.35838">
        <ele>249.67</ele>
        <time>2021-03-20T15:33:46Z</time>
      </trkpt>
      <trkpt lat="52.9453" lon="-6.35879">
        <ele>254</ele>
        <time>2021-03-20T15:33:49Z</time>
      </trkpt>
      <trkpt lat="52.94515" lon="-6.35921">
        <ele>258.02</ele>
        <time>2021-03-20T15:33:52Z</time>
      </trkpt>
      <trkpt lat="52.94488" lon="-6.35985">
        <ele>261.81</ele>
        <time>2021-03-20T15:33:55Z</time>
      </trkpt>
      <trkpt lat="52.94472" lon="-6.36016">
        <ele>261.67</ele>
        <time>2021-03-20T15:33:58Z</time>
      </trkpt>
      <trkpt lat="52.94457" lon="-6.36037">
        <ele>261.9</ele>
        <time>2021-03-20T15:34:01Z</time>
      </trkpt>
      <trkpt lat="52.94406" lon="-6.36074">
        <ele>265.74</ele>
        <time>2021-03-20T15:34:04Z</time>
      </trkpt>
      <trkpt lat="52.94386" lon="-6.36091">
        <ele>267.74</ele>
        <time>2021-03-20T15:34:07Z</time>
      </trkpt>
      <trkpt lat="52.94371" lon="-6.36108">
        <ele>269.03</ele>
        <time>2021-03-20T15:34:10Z</time>
      </trkpt>
      <trkpt lat="52.94345" lon="-6.36144">
        <ele>272.43</ele>
        <time>2021-03-20T15:34:13Z</time>
      </trkpt>
      <trkpt lat="52.94327" lon="-6.36174">
        <ele>274.48</ele>
        <time>2021-03-20T15:34:15Z</time>
      </trkpt>
      <trkpt lat="52.94287" lon="-6.36252">
        <ele>279.45</ele>
        <time>2021-03-20T15:34:18Z</time>
      </trkpt>
      <trkpt lat="52.94266" lon="-6.36297">
        <ele>282.83</ele>
        <time>2021-03-20T15:34:21Z</time>
      </trkpt>
      <trkpt lat="52.94234" lon="-6.36353">
        <ele>286.3</ele>
        <time>2021-03-20T15:34:24Z</time>
      </trkpt>
      <trkpt lat="52.94223" lon="-6.36377">
        <ele>287.82</ele>
        <time>2021-03-20T15:34:27Z</time>
      </trkpt>
      <trkpt lat="52.94189" lon="-6.36464">
        <ele>294.51</ele>
        <time>2021-03-20T15:34:30Z</time>
      </trkpt>
      <trkpt lat="52.94171" lon="-6.36512">
        <ele>295.95</ele>
        <time>2021-03-20T15:34:33Z</time>
      </trkpt>
      <trkpt lat="52.94157" lon="-6.36582">
        <ele>299.57</ele>
        <time>2021-03-20T15:34:36Z</time>
      </trkpt>
      <trkpt lat="52.94125" lon="-6.36706">
        <ele>304.27</ele>
        <time>2021-03-20T15:34:39Z</time>
      </trkpt>
      <trkpt lat="52.9412" lon="-6.36731">
        <ele>305.35</ele>
        <time>2021-03-20T15:34:42Z</time>
      </trkpt>
      <trkpt lat="52.9412" lon="-6.3679">
        <ele>310.44</ele>
        <time>2021-03-20T15:34:44Z</time>
      </trkpt>
      <trkpt lat="52.94109" lon="-6.36885">
        <ele>318.26</ele>
        <time>2021-03-20T15:34:47Z</time>
      </trkpt>
      <trkpt lat="52.94094" lon="-6.36974">
        <ele>322.55</ele>
        <time>2021-03-20T15:34:50Z</time>
      </trkpt>
      <trkpt lat="52.94087" lon="-6.37036">
        <ele>327.25</ele>
        <time>2021-03-20T15:34:53Z</time>
      </trkpt>
      <trkpt lat="52.94082" lon="-6.37062">
        <ele>328.43</ele>
        <time>2021-03-20T15:34:56Z</time>
      </trkpt>
      <trkpt lat="52.94076" lon="-6.37091">
        <ele>329.44</ele>
        <time>2021-03-20T15:34:59Z</time>
      </trkpt>
      <trkpt lat="52.94055" lon="-6.37162">
        <ele>329.32</ele>
        <time>2021-03-20T15:35:02Z</time>
      </trkpt>
      <trkpt lat="52.94042" lon="-6.37222">
        <ele>333.15</ele>
        <time>2021-03-20T15:35:05Z</time>
      </trkpt>
      <trkpt lat="52.94021" lon="-6.37296">
        <ele>335.76</ele>
        <time>2021-03-20T15:35:08Z</time>
      </trkpt>
      <trkpt lat="52.94" lon="-6.37398">
        <ele>342.59</ele>
        <time>2021-03-20T15:35:11Z</time>
      </trkpt>
      <trkpt lat="52.93974" lon="-6.37496">
        <ele>349.15</ele>
        <time>2021-03-20T15:35:13Z</time>
      </trkpt>
      <trkpt lat="52.93964" lon="-6.3752">
        <ele>351.52</ele>
        <time>2021-03-20T15:35:16Z</time>
      </trkpt>
      <trkpt lat="52.9392" lon="-6.3761">
        <ele>352.33</ele>
        <time>2021-03-20T15:35:19Z</time>
      </trkpt>
      <trkpt lat="52.93888" lon="-6.37698">
        <ele>362.43</ele>
        <time>2021-03-20T15:35:22Z</time>
      </trkpt>
      <trkpt lat="52.93875" lon="-6.37723">
        <ele>363.56</ele>
        <time>2021-03-20T15:35:25Z</time>
      </trkpt>
      <trkpt lat="52.93849" lon="-6.37765">
        <ele>364.98</ele>
        <time>2021-03-20T15:35:28Z</time>
      </trkpt>
      <trkpt lat="52.93798" lon="-6.37826">
        <ele>370.17</ele>
        <time>2021-03-20T15:35:31Z</time>
      </trkpt>
      <trkpt lat="52.93735" lon="-6.37907">
        <ele>378.54</ele>
        <time>2021-03-20T15:35:34Z</time>
      </trkpt>
      <trkpt lat="52.93697" lon="-6.37943">
        <ele>380.1</ele>
        <time>2021-03-20T15:35:37Z</time>
      </trkpt>
      <trkpt lat="52.93676" lon="-6.37956">
        <ele>380.22</ele>
        <time>2021-03-20T15:35:40Z</time>
      </trkpt>
      <trkpt lat="52.93653" lon="-6.3796">
        <ele>380.25</ele>
        <time>2021-03-20T15:35:42Z</time>
      </trkpt>
      <trkpt lat="52.93621" lon="-6.3797">
        <ele>383.41</ele>
        <time>2021-03-20T15:35:45Z</time>
      </trkpt>
      <trkpt lat="52.93593" lon="-6.37982">
        <ele>385.94</ele>
        <time>2021-03-20T15:35:48Z</time>
      </trkpt>
      <trkpt lat="52.93577" lon="-6.37994">
        <ele>387.29</ele>
        <time>2021-03-20T15:35:51Z</time>
      </trkpt>
      <trkpt lat="52.93549" lon="-6.3802">
        <ele>389.58</ele>
        <time>2021-03-20T15:35:54Z</time>
      </trkpt>
      <trkpt lat="52.93507" lon="-6.38064">
        <ele>395.49</ele>
        <time>2021-03-20T15:35:57Z</time>
      </trkpt>
      <trkpt lat="52.93432" lon="-6.38163">
        <ele>406.12</ele>
        <time>2021-03-20T15:36:00Z</time>
      </trkpt>
      <trkpt lat="52.93394" lon="-6.38209">
        <ele>411.38</ele>
        <time>2021-03-20T15:36:03Z</time>
      </trkpt>
      <trkpt lat="52.93369" lon="-6.38242">
        <ele>415.94</ele>
        <time>2021-03-20T15:36:06Z</time>
      </trkpt>
      <trkpt lat="52.93352" lon="-6.3827">
        <ele>420.45</ele>
        <time>2021-03-20T15:36:09Z</time>
      </trkpt>
      <trkpt lat="52.93341" lon="-6.3828">
        <ele>421.51</ele>
        <time>2021-03-20T15:36:11Z</time>
      </trkpt>
      <trkpt lat="52.93299" lon="-6.38294">
        <ele>425.02</ele>
        <time>2021-03-20T15:36:14Z</time>
      </trkpt>
      <trkpt lat="52.93266" lon="-6.38297">
        <ele>426.73</ele>
        <time>2021-03-20T15:36:17Z</time>
      </trkpt>
      <trkpt lat="52.93175" lon="-6.3831">
        <ele>435.24</ele>
        <time>2021-03-20T15:36:20Z</time>
      </trkpt>
      <trkpt lat="52.93031" lon="-6.38311">
        <ele>445.39</ele>
        <time>2021-03-20T15:36:23Z</time>
      </trkpt>
      <trkpt lat="52.92962" lon="-6.38308">
        <ele>452.89</ele>
        <time>2021-03-20T15:36:26Z</time>
      </trkpt>
      <trkpt lat="52.92928" lon="-6.38302">
        <ele>453.82</ele>
        <time>2021-03-20T15:36:29Z</time>
      </trkpt>
      <trkpt lat="52.92906" lon="-6.38306">
        <ele>454.78</ele>
        <time>2021-03-20T15:36:32Z</time>
      </trkpt>
      <trkpt lat="52.92894" lon="-6.38312">
        <ele>455.7</ele>
        <time>2021-03-20T15:36:35Z</time>
      </trkpt>
      <trkpt lat="52.92832" lon="-6.38368">
        <ele>454.54</ele>
        <time>2021-03-20T15:36:38Z</time>
      </trkpt>
      <trkpt lat="52.92815" lon="-6.3839">
        <ele>452.96</ele>
        <time>2021-03-20T15:36:40Z</time>
      </trkpt>
      <trkpt lat="52.92808" lon="-6.38403">
        <ele>452.16</ele>
        <time>2021-03-20T15:36:43Z</time>
      </trkpt>
      <trkpt lat="52.9279" lon="-6.38445">
        <ele>449.41</ele>
        <time>2021-03-20T15:36:46Z</time>
      </trkpt>
      <trkpt lat="52.92781" lon="-6.38462">
        <ele>447.93</ele>
        <time>2021-03-20T15:36:49Z</time>
      </trkpt>
      <trkpt lat="52.92749" lon="-6.38497">
        <ele>444.02</ele>
        <time>2021-03-20T15:36:52Z</time>
      </trkpt>
      <trkpt lat="52.92706" lon="-6.38529">
        <ele>438.67</ele>
        <time>2021-03-20T15:36:55Z</time>
      </trkpt>
      <trkpt lat="52.92683" lon="-6.38535">
        <ele>436.4</ele>
        <time>2021-03-20T15:36:58Z</time>
      </trkpt>
      <trkpt lat="52.92595" lon="-6.38544">
        <ele>428.51</ele>
        <time>2021-03-20T15:37:01Z</time>
      </trkpt>
      <trkpt lat="52.92556" lon="-6.38544">
        <ele>425.86</ele>
        <time>2021-03-20T15:37:04Z</time>
      </trkpt>
      <trkpt lat="52.92528" lon="-6.38538">
        <ele>424.25</ele>
        <time>2021-03-20T15:37:07Z</time>
      </trkpt>
      <trkpt lat="52.92466" lon="-6.38517">
        <ele>422.43</ele>
        <time>2021-03-20T15:37:09Z</time>
      </trkpt>
      <trkpt lat="52.92388" lon="-6.38499">
        <ele>417.02</ele>
        <time>2021-03-20T15:37:12Z</time>
      </trkpt>
      <trkpt lat="52.92282" lon="-6.38502">
        <ele>406.26</ele>
        <time>2021-03-20T15:37:15Z</time>
      </trkpt>
      <trkpt lat="52.92258" lon="-6.38506">
        <ele>408.05</ele>
        <time>2021-03-20T15:37:18Z</time>
      </trkpt>
      <trkpt lat="52.92231" lon="-6.38516">
        <ele>410.45</ele>
        <time>2021-03-20T15:37:21Z</time>
      </trkpt>
      <trkpt lat="52.9221" lon="-6.38536">
        <ele>411.38</ele>
        <time>2021-03-20T15:37:24Z</time>
      </trkpt>
      <trkpt lat="52.92176" lon="-6.38578">
        <ele>411.27</ele>
        <time>2021-03-20T15:37:27Z</time>
      </trkpt>
      <trkpt lat="52.92151" lon="-6.38614">
        <ele>408.17</ele>
        <time>2021-03-20T15:37:30Z</time>
      </trkpt>
      <trkpt lat="52.92061" lon="-6.38763">
        <ele>397.89</ele>
        <time>2021-03-20T15:37:33Z</time>
      </trkpt>
      <trkpt lat="52.92043" lon="-6.38799">
        <ele>397.4</ele>
        <time>2021-03-20T15:37:36Z</time>
      </trkpt>
      <trkpt lat="52.92016" lon="-6.38866">
        <ele>396.47</ele>
        <time>2021-03-20T15:37:38Z</time>
      </trkpt>
      <trkpt lat="52.91986" lon="-6.38959">
        <ele>392.13</ele>
        <time>2021-03-20T15:37:41Z</time>
      </trkpt>
      <trkpt lat="52.91969" lon="-6.39029">
        <ele>384.33</ele>
        <time>2021-03-20T15:37:44Z</time>
      </trkpt>
      <trkpt lat="52.91944" lon="-6.39161">
        <ele>379.04</ele>
        <time>2021-03-20T15:37:47Z</time>
      </trkpt>
      <trkpt lat="52.91935" lon="-6.39226">
        <ele>375.95</ele>
        <time>2021-03-20T15:37:50Z</time>
      </trkpt>
      <trkpt lat="52.91934" lon="-6.39259">
        <ele>372.44</ele>
        <time>2021-03-20T15:37:53Z</time>
      </trkpt>
      <trkpt lat="52.91931" lon="-6.39299">
        <ele>370.71</ele>
        <time>2021-03-20T15:37:56Z</time>
      </trkpt>
      <trkpt lat="52.91917" lon="-6.39396">
        <ele>370.33</ele>
        <time>2021-03-20T15:37:59Z</time>
      </trkpt>
      <trkpt lat="52.91902" lon="-6.39608">
        <ele>358.41</ele>
        <time>2021-03-20T15:38:02Z</time>
      </trkpt>
      <trkpt lat="52.91889" lon="-6.39746">
        <ele>351.63</ele>
        <time>2021-03-20T15:38:05Z</time>
      </trkpt>
      <trkpt lat="52.91886" lon="-6.39794">
        <ele>347.92</ele>
        <time>2021-03-20T15:38:08Z</time>
      </trkpt>
      <trkpt lat="52.91886" lon="-6.39833">
        <ele>344.92</ele>
        <time>2021-03-20T15:38:10Z</time>
      </trkpt>
      <trkpt lat="52.91888" lon="-6.39932">
        <ele>340.89</ele>
        <time>2021-03-20T15:38:13Z</time>
      </trkpt>
      <trkpt lat="52.91899" lon="-6.40117">
        <ele>328.08</ele>
        <time>2021-03-20T15:38:16Z</time>
      </trkpt>
      <trkpt lat="52.91916" lon="-6.40245">
        <ele>320</ele>
        <time>2021-03-20T15:38:19Z</time>
      </trkpt>
      <trkpt lat="52.91943" lon="-6.40377">
        <ele>312.13</ele>
        <time>2021-03-20T15:38:22Z</time>
      </trkpt>
      <trkpt lat="52.91972" lon="-6.40487">
        <ele>300.92</ele>
        <time>2021-03-20T15:38:25Z</time>
      </trkpt>
      <trkpt lat="52.91979" lon="-6.40523">
        <ele>297.4</ele>
        <time>2021-03-20T15:38:28Z</time>
      </trkpt>
      <trkpt lat="52.91983" lon="-6.40562">
        <ele>294.81</ele>
        <time>2021-03-20T15:38:31Z</time>
      </trkpt>
      <trkpt lat="52.91982" lon="-6.40638">
        <ele>287.1</ele>
        <time>2021-03-20T15:38:34Z</time>
      </trkpt>
      <trkpt lat="52.91975" lon="-6.40701">
        <ele>279.04</ele>
        <time>2021-03-20T15:38:37Z</time>
      </trkpt>
      <trkpt lat="52.91946" lon="-6.40823">
        <ele>267.81</ele>
        <time>2021-03-20T15:38:39Z</time>
      </trkpt>
      <trkpt lat="52.91932" lon="-6.40868">
        <ele>264.58</ele>
        <time>2021-03-20T15:38:42Z</time>
      </trkpt>
      <trkpt lat="52.91887" lon="-6.40988">
        <ele>255.46</ele>
        <time>2021-03-20T15:38:45Z</time>
      </trkpt>
      <trkpt lat="52.91869" lon="-6.4105">
        <ele>250.62</ele>
        <time>2021-03-20T15:38:48Z</time>
      </trkpt>
      <trkpt lat="52.91853" lon="-6.41086">
        <ele>248.27</ele>
        <time>2021-03-20T15:38:51Z</time>
      </trkpt>
      <trkpt lat="52.91825" lon="-6.41143">
        <ele>244.9</ele>
        <time>2021-03-20T15:38:54Z</time>
      </trkpt>
      <trkpt lat="52.91768" lon="-6.41326">
        <ele>234.23</ele>
        <time>2021-03-20T15:38:57Z</time>
      </trkpt>
      <trkpt lat="52.91755" lon="-6.41365">
        <ele>230.01</ele>
        <time>2021-03-20T15:39:00Z</time>
      </trkpt>
      <trkpt lat="52.91716" lon="-6.41459">
        <ele>220.51</ele>
        <time>2021-03-20T15:39:03Z</time>
      </trkpt>
      <trkpt lat="52.91693" lon="-6.41505">
        <ele>218.32</ele>
        <time>2021-03-20T15:39:06Z</time>
      </trkpt>
      <trkpt lat="52.91654" lon="-6.41591">
        <ele>211.35</ele>
        <time>2021-03-20T15:39:08Z</time>
      </trkpt>
      <trkpt lat="52.91628" lon="-6.41635">
        <ele>208.53</ele>
        <time>2021-03-20T15:39:11Z</time>
      </trkpt>
      <trkpt lat="52.9161" lon="-6.41679">
        <ele>204.16</ele>
        <time>2021-03-20T15:39:14Z</time>
      </trkpt>
      <trkpt lat="52.91598" lon="-6.41704">
        <ele>203.61</ele>
        <time>2021-03-20T15:39:17Z</time>
      </trkpt>
      <trkpt lat="52.91588" lon="-6.417">
        <ele>204.49</ele>
        <time>2021-03-20T15:39:21Z</time>
      </trkpt>
      <trkpt lat="52.91552" lon="-6.41702">
        <ele>206.54</ele>
        <time>2021-03-20T15:39:24Z</time>
      </trkpt>
      <trkpt lat="52.91501" lon="-6.41716">
        <ele>206.99</ele>
        <time>2021-03-20T15:39:28Z</time>
      </trkpt>
      <trkpt lat="52.91475" lon="-6.41716">
        <ele>208.7</ele>
        <time>2021-03-20T15:39:31Z</time>
      </trkpt>
      <trkpt lat="52.91398" lon="-6.41707">
        <ele>210.35</ele>
        <time>2021-03-20T15:39:35Z</time>
      </trkpt>
      <trkpt lat="52.91382" lon="-6.41702">
        <ele>210.46</ele>
        <time>2021-03-20T15:39:39Z</time>
      </trkpt>
      <trkpt lat="52.91376" lon="-6.41698">
        <ele>210.6</ele>
        <time>2021-03-20T15:39:42Z</time>
      </trkpt>
      <trkpt lat="52.91365" lon="-6.41686">
        <ele>211.5</ele>
        <time>2021-03-20T15:39:46Z</time>
      </trkpt>
      <trkpt lat="52.91299" lon="-6.41588">
        <ele>217.15</ele>
        <time>2021-03-20T15:39:49Z</time>
      </trkpt>
      <trkpt lat="52.91228" lon="-6.41491">
        <ele>221.27</ele>
        <time>2021-03-20T15:39:53Z</time>
      </trkpt>
      <trkpt lat="52.91186" lon="-6.41439">
        <ele>222.95</ele>
        <time>2021-03-20T15:39:56Z</time>
      </trkpt>
      <trkpt lat="52.91076" lon="-6.41321">
        <ele>230.02</ele>
        <time>2021-03-20T15:40:00Z</time>
      </trkpt>
      <trkpt lat="52.91002" lon="-6.41248">
        <ele>230.57</ele>
        <time>2021-03-20T15:40:03Z</time>
      </trkpt>
      <trkpt lat="52.90958" lon="-6.41211">
        <ele>230.92</ele>
        <time>2021-03-20T15:40:07Z</time>
      </trkpt>
      <trkpt lat="52.90946" lon="-6.41205">
        <ele>230.31</ele>
        <time>2021-03-20T15:40:11Z</time>
      </trkpt>
      <trkpt lat="52.90873" lon="-6.4115">
        <ele>224.72</ele>
        <time>2021-03-20T15:40:14Z</time>
      </trkpt>
      <trkpt lat="52.90836" lon="-6.41115">
        <ele>219.09</ele>
        <time>2021-03-20T15:40:18Z</time>
      </trkpt>
      <trkpt lat="52.90738" lon="-6.41022">
        <ele>210.82</ele>
        <time>2021-03-20T15:40:21Z</time>
      </trkpt>
      <trkpt lat="52.9067" lon="-6.40942">
        <ele>200.25</ele>
        <time>2021-03-20T15:40:25Z</time>
      </trkpt>
      <trkpt lat="52.90646" lon="-6.40917">
        <ele>197.02</ele>
        <time>2021-03-20T15:40:28Z</time>
      </trkpt>
      <trkpt lat="52.90572" lon="-6.40858">
        <ele>187.65</ele>
        <time>2021-03-20T15:40:32Z</time>
      </trkpt>
      <trkpt lat="52.90544" lon="-6.40832">
        <ele>184.22</ele>
        <time>2021-03-20T15:40:35Z</time>
      </trkpt>
      <trkpt lat="52.90522" lon="-6.40806">
        <ele>183.52</ele>
        <time>2021-03-20T15:40:39Z</time>
      </trkpt>
      <trkpt lat="52.90452" lon="-6.40734">
        <ele>177.09</ele>
        <time>2021-03-20T15:40:43Z</time>
      </trkpt>
      <trkpt lat="52.90398" lon="-6.40682">
        <ele>172.38</ele>
        <time>2021-03-20T15:40:46Z</time>
      </trkpt>
      <trkpt lat="52.90379" lon="-6.40666">
        <ele>171.32</ele>
        <time>2021-03-20T15:40:50Z</time>
      </trkpt>
      <trkpt lat="52.90368" lon="-6.40685">
        <ele>170.17</ele>
        <time>2021-03-20T15:40:52Z</time>
      </trkpt>
      <trkpt lat="52.90349" lon="-6.40712">
        <ele>170.73</ele>
        <time>2021-03-20T15:40:54Z</time>
      </trkpt>
      <trkpt lat="52.90348" lon="-6.40718">
        <ele>170.91</ele>
        <time>2021-03-20T15:40:56Z</time>
      </trkpt>
      <trkpt lat="52.90376" lon="-6.40843">
        <ele>171.22</ele>
        <time>2021-03-20T15:40:59Z</time>
      </trkpt>
      <trkpt lat="52.90395" lon="-6.40947">
        <ele>177.13</ele>
        <time>2021-03-20T15:41:01Z</time>
      </trkpt>
      <trkpt lat="52.90396" lon="-6.40966">
        <ele>178.31</ele>
        <time>2021-03-20T15:41:03Z</time>
      </trkpt>
      <trkpt lat="52.90385" lon="-6.40948">
        <ele>178.9</ele>
        <time>2021-03-20T15:41:06Z</time>
      </trkpt>
      <trkpt lat="52.90302" lon="-6.40758">
        <ele>177.83</ele>
        <time>2021-03-20T15:41:09Z</time>
      </trkpt>
      <trkpt lat="52.90269" lon="-6.40692">
        <ele>175.65</ele>
        <time>2021-03-20T15:41:12Z</time>
      </trkpt>
      <trkpt lat="52.90247" lon="-6.40654">
        <ele>174.51</ele>
        <time>2021-03-20T15:41:15Z</time>
      </trkpt>
      <trkpt lat="52.90209" lon="-6.40604">
        <ele>175.2</ele>
        <time>2021-03-20T15:41:19Z</time>
      </trkpt>
      <trkpt lat="52.90183" lon="-6.40577">
        <ele>175.02</ele>
        <time>2021-03-20T15:41:22Z</time>
      </trkpt>
      <trkpt lat="52.90141" lon="-6.40548">
        <ele>175.98</ele>
        <time>2021-03-20T15:41:25Z</time>
      </trkpt>
      <trkpt lat="52.90042" lon="-6.40502">
        <ele>172.84</ele>
        <time>2021-03-20T15:41:28Z</time>
      </trkpt>
      <trkpt lat="52.89976" lon="-6.40466">
        <ele>176.16</ele>
        <time>2021-03-20T15:41:31Z</time>
      </trkpt>
      <trkpt lat="52.89943" lon="-6.40444">
        <ele>172.09</ele>
        <time>2021-03-20T15:41:34Z</time>
      </trkpt>
      <trkpt lat="52.89887" lon="-6.40395">
        <ele>173.46</ele>
        <time>2021-03-20T15:41:37Z</time>
      </trkpt>
      <trkpt lat="52.898" lon="-6.40341">
        <ele>169.84</ele>
        <time>2021-03-20T15:41:40Z</time>
      </trkpt>
      <trkpt lat="52.89741" lon="-6.40286">
        <ele>169.01</ele>
        <time>2021-03-20T15:41:43Z</time>
      </trkpt>
      <trkpt lat="52.89661" lon="-6.40225">
        <ele>167.22</ele>
        <time>2021-03-20T15:41:46Z</time>
      </trkpt>
      <trkpt lat="52.89637" lon="-6.40212">
        <ele>166.33</ele>
        <time>2021-03-20T15:41:49Z</time>
      </trkpt>
      <trkpt lat="52.89611" lon="-6.40191">
        <ele>164.43</ele>
        <time>2021-03-20T15:41:53Z</time>
      </trkpt>
      <trkpt lat="52.89582" lon="-6.40174">
        <ele>160.39</ele>
        <time>2021-03-20T15:41:56Z</time>
      </trkpt>
      <trkpt lat="52.89524" lon="-6.40146">
        <ele>156.44</ele>
        <time>2021-03-20T15:41:59Z</time>
      </trkpt>
      <trkpt lat="52.89486" lon="-6.40132">
        <ele>159.65</ele>
        <time>2021-03-20T15:42:02Z</time>
      </trkpt>
      <trkpt lat="52.89474" lon="-6.40131">
        <ele>160.56</ele>
        <time>2021-03-20T15:42:05Z</time>
      </trkpt>
      <trkpt lat="52.89462" lon="-6.40133">
        <ele>160.41</ele>
        <time>2021-03-20T15:42:08Z</time>
      </trkpt>
      <trkpt lat="52.89416" lon="-6.4015">
        <ele>160.36</ele>
        <time>2021-03-20T15:42:11Z</time>
      </trkpt>
      <trkpt lat="52.89395" lon="-6.40153">
        <ele>158.95</ele>
        <time>2021-03-20T15:42:14Z</time>
      </trkpt>
      <trkpt lat="52.89386" lon="-6.40152">
        <ele>158.47</ele>
        <time>2021-03-20T15:42:17Z</time>
      </trkpt>
      <trkpt lat="52.89376" lon="-6.40148">
        <ele>158.31</ele>
        <time>2021-03-20T15:42:20Z</time>
      </trkpt>
      <trkpt lat="52.8936" lon="-6.40135">
        <ele>157.71</ele>
        <time>2021-03-20T15:42:23Z</time>
      </trkpt>
      <trkpt lat="52.89346" lon="-6.40101">
        <ele>156.17</ele>
        <time>2021-03-20T15:42:27Z</time>
      </trkpt>
      <trkpt lat="52.89315" lon="-6.40063">
        <ele>153.5</ele>
        <time>2021-03-20T15:42:30Z</time>
      </trkpt>
      <trkpt lat="52.89144" lon="-6.3992">
        <ele>151</ele>
        <time>2021-03-20T15:42:33Z</time>
      </trkpt>
      <trkpt lat="52.89103" lon="-6.3988">
        <ele>151.05</ele>
        <time>2021-03-20T15:42:36Z</time>
      </trkpt>
      <trkpt lat="52.89066" lon="-6.39851">
        <ele>151.24</ele>
        <time>2021-03-20T15:42:39Z</time>
      </trkpt>
      <trkpt lat="52.89028" lon="-6.39827">
        <ele>148.76</ele>
        <time>2021-03-20T15:42:42Z</time>
      </trkpt>
      <trkpt lat="52.88975" lon="-6.39805">
        <ele>146.3</ele>
        <time>2021-03-20T15:42:45Z</time>
      </trkpt>
      <trkpt lat="52.88927" lon="-6.39799">
        <ele>145.24</ele>
        <time>2021-03-20T15:42:48Z</time>
      </trkpt>
      <trkpt lat="52.88882" lon="-6.39806">
        <ele>145.01</ele>
        <time>2021-03-20T15:42:51Z</time>
      </trkpt>
      <trkpt lat="52.88857" lon="-6.39806">
        <ele>144.8</ele>
        <time>2021-03-20T15:42:54Z</time>
      </trkpt>
      <trkpt lat="52.88837" lon="-6.39796">
        <ele>144.86</ele>
        <time>2021-03-20T15:42:58Z</time>
      </trkpt>
      <trkpt lat="52.88814" lon="-6.3977">
        <ele>145.48</ele>
        <time>2021-03-20T15:43:01Z</time>
      </trkpt>
      <trkpt lat="52.88784" lon="-6.39729">
        <ele>146.56</ele>
        <time>2021-03-20T15:43:04Z</time>
      </trkpt>
      <trkpt lat="52.88716" lon="-6.3962">
        <ele>143.3</ele>
        <time>2021-03-20T15:43:07Z</time>
      </trkpt>
      <trkpt lat="52.88686" lon="-6.3959">
        <ele>139.19</ele>
        <time>2021-03-20T15:43:10Z</time>
      </trkpt>
      <trkpt lat="52.88621" lon="-6.3955">
        <ele>136.84</ele>
        <time>2021-03-20T15:43:13Z</time>
      </trkpt>
      <trkpt lat="52.8853" lon="-6.39488">
        <ele>134.08</ele>
        <time>2021-03-20T15:43:16Z</time>
      </trkpt>
      <trkpt lat="52.88512" lon="-6.39478">
        <ele>134.13</ele>
        <time>2021-03-20T15:43:19Z</time>
      </trkpt>
      <trkpt lat="52.88267" lon="-6.39405">
        <ele>133.43</ele>
        <time>2021-03-20T15:43:22Z</time>
      </trkpt>
      <trkpt lat="52.88217" lon="-6.394">
        <ele>133.85</ele>
        <time>2021-03-20T15:43:25Z</time>
      </trkpt>
      <trkpt lat="52.88188" lon="-6.39411">
        <ele>133.06</ele>
        <time>2021-03-20T15:43:28Z</time>
      </trkpt>
      <trkpt lat="52.88145" lon="-6.39443">
        <ele>132.85</ele>
        <time>2021-03-20T15:43:32Z</time>
      </trkpt>
      <trkpt lat="52.88116" lon="-6.39454">
        <ele>133.33</ele>
        <time>2021-03-20T15:43:35Z</time>
      </trkpt>
      <trkpt lat="52.88084" lon="-6.39457">
        <ele>133.01</ele>
        <time>2021-03-20T15:43:38Z</time>
      </trkpt>
      <trkpt lat="52.87962" lon="-6.39449">
        <ele>127.44</ele>
        <time>2021-03-20T15:43:41Z</time>
      </trkpt>
      <trkpt lat="52.87948" lon="-6.39447">
        <ele>126.35</ele>
        <time>2021-03-20T15:43:44Z</time>
      </trkpt>
      <trkpt lat="52.87938" lon="-6.39439">
        <ele>125.77</ele>
        <time>2021-03-20T15:43:47Z</time>
      </trkpt>
      <trkpt lat="52.87929" lon="-6.39427">
        <ele>125.44</ele>
        <time>2021-03-20T15:43:50Z</time>
      </trkpt>
      <trkpt lat="52.87913" lon="-6.39395">
        <ele>124.22</ele>
        <time>2021-03-20T15:43:53Z</time>
      </trkpt>
      <trkpt lat="52.87906" lon="-6.39377">
        <ele>124</ele>
        <time>2021-03-20T15:43:56Z</time>
      </trkpt>
      <trkpt lat="52.87899" lon="-6.39338">
        <ele>124.29</ele>
        <time>2021-03-20T15:43:59Z</time>
      </trkpt>
      <trkpt lat="52.87898" lon="-6.39317">
        <ele>124.72</ele>
        <time>2021-03-20T15:44:02Z</time>
      </trkpt>
      <trkpt lat="52.87898" lon="-6.39295">
        <ele>125.39</ele>
        <time>2021-03-20T15:44:06Z</time>
      </trkpt>
      <trkpt lat="52.87905" lon="-6.39197">
        <ele>126.82</ele>
        <time>2021-03-20T15:44:09Z</time>
      </trkpt>
      <trkpt lat="52.87905" lon="-6.39171">
        <ele>126.34</ele>
        <time>2021-03-20T15:44:12Z</time>
      </trkpt>
      <trkpt lat="52.87894" lon="-6.39066">
        <ele>122.71</ele>
        <time>2021-03-20T15:44:15Z</time>
      </trkpt>
      <trkpt lat="52.87885" lon="-6.39015">
        <ele>121.46</ele>
        <time>2021-03-20T15:44:18Z</time>
      </trkpt>
      <trkpt lat="52.87874" lon="-6.38964">
        <ele>121</ele>
        <time>2021-03-20T15:44:21Z</time>
      </trkpt>
      <trkpt lat="52.87697" lon="-6.38322">
        <ele>115.29</ele>
        <time>2021-03-20T15:44:24Z</time>
      </trkpt>
      <trkpt lat="52.8768" lon="-6.38272">
        <ele>115.8</ele>
        <time>2021-03-20T15:44:27Z</time>
      </trkpt>
      <trkpt lat="52.8767" lon="-6.38249">
        <ele>116.29</ele>
        <time>2021-03-20T15:44:30Z</time>
      </trkpt>
      <trkpt lat="52.87648" lon="-6.38206">
        <ele>117.12</ele>
        <time>2021-03-20T15:44:33Z</time>
      </trkpt>
      <trkpt lat="52.87623" lon="-6.38167">
        <ele>117.86</ele>
        <time>2021-03-20T15:44:37Z</time>
      </trkpt>
      <trkpt lat="52.87596" lon="-6.38133">
        <ele>116.92</ele>
        <time>2021-03-20T15:44:40Z</time>
      </trkpt>
      <trkpt lat="52.87554" lon="-6.38088">
        <ele>114.69</ele>
        <time>2021-03-20T15:44:43Z</time>
      </trkpt>
      <trkpt lat="52.87541" lon="-6.38072">
        <ele>114.33</ele>
        <time>2021-03-20T15:44:46Z</time>
      </trkpt>
      <trkpt lat="52.87528" lon="-6.38055">
        <ele>114.11</ele>
        <time>2021-03-20T15:44:49Z</time>
      </trkpt>
      <trkpt lat="52.87502" lon="-6.3801">
        <ele>114.51</ele>
        <time>2021-03-20T15:44:52Z</time>
      </trkpt>
      <trkpt lat="52.87474" lon="-6.37967">
        <ele>113.6</ele>
        <time>2021-03-20T15:44:55Z</time>
      </trkpt>
      <trkpt lat="52.87459" lon="-6.37928">
        <ele>113.59</ele>
        <time>2021-03-20T15:44:58Z</time>
      </trkpt>
      <trkpt lat="52.8745" lon="-6.37892">
        <ele>112.55</ele>
        <time>2021-03-20T15:45:01Z</time>
      </trkpt>
      <trkpt lat="52.87425" lon="-6.37753">
        <ele>113.52</ele>
        <time>2021-03-20T15:45:04Z</time>
      </trkpt>
      <trkpt lat="52.87413" lon="-6.37717">
        <ele>113.44</ele>
        <time>2021-03-20T15:45:07Z</time>
      </trkpt>
      <trkpt lat="52.87408" lon="-6.37653">
        <ele>113.37</ele>
        <time>2021-03-20T15:45:11Z</time>
      </trkpt>
      <trkpt lat="52.87399" lon="-6.37573">
        <ele>110.12</ele>
        <time>2021-03-20T15:45:14Z</time>
      </trkpt>
      <trkpt lat="52.87398" lon="-6.37525">
        <ele>106.83</ele>
        <time>2021-03-20T15:45:17Z</time>
      </trkpt>
      <trkpt lat="52.87394" lon="-6.37491">
        <ele>105.4</ele>
        <time>2021-03-20T15:45:20Z</time>
      </trkpt>
      <trkpt lat="52.87384" lon="-6.37373">
        <ele>106.22</ele>
        <time>2021-03-20T15:45:23Z</time>
      </trkpt>
      <trkpt lat="52.87378" lon="-6.37327">
        <ele>107.32</ele>
        <time>2021-03-20T15:45:26Z</time>
      </trkpt>
      <trkpt lat="52.87373" lon="-6.37304">
        <ele>107.33</ele>
        <time>2021-03-20T15:45:29Z</time>
      </trkpt>
      <trkpt lat="52.87357" lon="-6.37254">
        <ele>106.57</ele>
        <time>2021-03-20T15:45:32Z</time>
      </trkpt>
      <trkpt lat="52.87331" lon="-6.37152">
        <ele>108.57</ele>
        <time>2021-03-20T15:45:35Z</time>
      </trkpt>
      <trkpt lat="52.87326" lon="-6.37123">
        <ele>107.26</ele>
        <time>2021-03-20T15:45:38Z</time>
      </trkpt>
      <trkpt lat="52.87316" lon="-6.37019">
        <ele>107.38</ele>
        <time>2021-03-20T15:45:42Z</time>
      </trkpt>
      <trkpt lat="52.8731" lon="-6.36992">
        <ele>107.79</ele>
        <time>2021-03-20T15:45:45Z</time>
      </trkpt>
      <trkpt lat="52.873" lon="-6.36952">
        <ele>108.25</ele>
        <time>2021-03-20T15:45:48Z</time>
      </trkpt>
      <trkpt lat="52.87278" lon="-6.36895">
        <ele>107.79</ele>
        <time>2021-03-20T15:45:51Z</time>
      </trkpt>
      <trkpt lat="52.87271" lon="-6.36874">
        <ele>107.95</ele>
        <time>2021-03-20T15:45:54Z</time>
      </trkpt>
      <trkpt lat="52.87264" lon="-6.3684">
        <ele>108.25</ele>
        <time>2021-03-20T15:45:57Z</time>
      </trkpt>
      <trkpt lat="52.8725" lon="-6.36756">
        <ele>106.01</ele>
        <time>2021-03-20T15:46:00Z</time>
      </trkpt>
      <trkpt lat="52.87243" lon="-6.3673">
        <ele>106.46</ele>
        <time>2021-03-20T15:46:03Z</time>
      </trkpt>
      <trkpt lat="52.87234" lon="-6.36709">
        <ele>106.69</ele>
        <time>2021-03-20T15:46:06Z</time>
      </trkpt>
      <trkpt lat="52.87225" lon="-6.36701">
        <ele>106.8</ele>
        <time>2021-03-20T15:46:09Z</time>
      </trkpt>
      <trkpt lat="52.87184" lon="-6.36677">
        <ele>108.17</ele>
        <time>2021-03-20T15:46:12Z</time>
      </trkpt>
      <trkpt lat="52.87172" lon="-6.36665">
        <ele>108.4</ele>
        <time>2021-03-20T15:46:16Z</time>
      </trkpt>
      <trkpt lat="52.87107" lon="-6.36589">
        <ele>108.4</ele>
        <time>2021-03-20T15:46:19Z</time>
      </trkpt>
      <trkpt lat="52.87067" lon="-6.36537">
        <ele>110.68</ele>
        <time>2021-03-20T15:46:22Z</time>
      </trkpt>
      <trkpt lat="52.87053" lon="-6.36522">
        <ele>110.57</ele>
        <time>2021-03-20T15:46:25Z</time>
      </trkpt>
      <trkpt lat="52.86977" lon="-6.36458">
        <ele>109.28</ele>
        <time>2021-03-20T15:46:28Z</time>
      </trkpt>
      <trkpt lat="52.86918" lon="-6.36402">
        <ele>106.76</ele>
        <time>2021-03-20T15:46:31Z</time>
      </trkpt>
      <trkpt lat="52.86886" lon="-6.3638">
        <ele>107.46</ele>
        <time>2021-03-20T15:46:34Z</time>
      </trkpt>
      <trkpt lat="52.86837" lon="-6.36353">
        <ele>105.94</ele>
        <time>2021-03-20T15:46:37Z</time>
      </trkpt>
      <trkpt lat="52.86806" lon="-6.36329">
        <ele>104.14</ele>
        <time>2021-03-20T15:46:40Z</time>
      </trkpt>
      <trkpt lat="52.86723" lon="-6.36252">
        <ele>98.04</ele>
        <time>2021-03-20T15:46:43Z</time>
      </trkpt>
      <trkpt lat="52.86691" lon="-6.36218">
        <ele>98.02</ele>
        <time>2021-03-20T15:46:46Z</time>
      </trkpt>
      <trkpt lat="52.86674" lon="-6.36196">
        <ele>97.68</ele>
        <time>2021-03-20T15:46:50Z</time>
      </trkpt>
      <trkpt lat="52.86632" lon="-6.36133">
        <ele>98.04</ele>
        <time>2021-03-20T15:46:53Z</time>
      </trkpt>
      <trkpt lat="52.86584" lon="-6.36078">
        <ele>97.43</ele>
        <time>2021-03-20T15:46:56Z</time>
      </trkpt>
      <trkpt lat="52.8657" lon="-6.3606">
        <ele>96.89</ele>
        <time>2021-03-20T15:46:59Z</time>
      </trkpt>
      <trkpt lat="52.86489" lon="-6.35916">
        <ele>94.86</ele>
        <time>2021-03-20T15:47:02Z</time>
      </trkpt>
      <trkpt lat="52.86458" lon="-6.3588">
        <ele>94.15</ele>
        <time>2021-03-20T15:47:05Z</time>
      </trkpt>
      <trkpt lat="52.86428" lon="-6.35838">
        <ele>93.22</ele>
        <time>2021-03-20T15:47:08Z</time>
      </trkpt>
      <trkpt lat="52.86371" lon="-6.35746">
        <ele>93.5</ele>
        <time>2021-03-20T15:47:11Z</time>
      </trkpt>
      <trkpt lat="52.86356" lon="-6.35725">
        <ele>93.54</ele>
        <time>2021-03-20T15:47:14Z</time>
      </trkpt>
      <trkpt lat="52.86265" lon="-6.35613">
        <ele>94.39</ele>
        <time>2021-03-20T15:47:17Z</time>
      </trkpt>
      <trkpt lat="52.86252" lon="-6.35593">
        <ele>94.14</ele>
        <time>2021-03-20T15:47:21Z</time>
      </trkpt>
      <trkpt lat="52.86153" lon="-6.35378">
        <ele>93.27</ele>
        <time>2021-03-20T15:47:24Z</time>
      </trkpt>
      <trkpt lat="52.8614" lon="-6.35355">
        <ele>94.51</ele>
        <time>2021-03-20T15:47:27Z</time>
      </trkpt>
      <trkpt lat="52.86047" lon="-6.35203">
        <ele>97.96</ele>
        <time>2021-03-20T15:47:30Z</time>
      </trkpt>
      <trkpt lat="52.8602" lon="-6.35165">
        <ele>98.83</ele>
        <time>2021-03-20T15:47:33Z</time>
      </trkpt>
      <trkpt lat="52.85908" lon="-6.3504">
        <ele>100.82</ele>
        <time>2021-03-20T15:47:36Z</time>
      </trkpt>
      <trkpt lat="52.85779" lon="-6.34939">
        <ele>97.31</ele>
        <time>2021-03-20T15:47:39Z</time>
      </trkpt>
      <trkpt lat="52.85749" lon="-6.34911">
        <ele>96.31</ele>
        <time>2021-03-20T15:47:42Z</time>
      </trkpt>
      <trkpt lat="52.85719" lon="-6.34877">
        <ele>96.19</ele>
        <time>2021-03-20T15:47:45Z</time>
      </trkpt>
      <trkpt lat="52.85493" lon="-6.34594">
        <ele>89.99</ele>
        <time>2021-03-20T15:47:48Z</time>
      </trkpt>
      <trkpt lat="52.85467" lon="-6.34559">
        <ele>90.86</ele>
        <time>2021-03-20T15:47:51Z</time>
      </trkpt>
      <trkpt lat="52.8544" lon="-6.34531">
        <ele>89.19</ele>
        <time>2021-03-20T15:47:55Z</time>
      </trkpt>
      <trkpt lat="52.85385" lon="-6.34481">
        <ele>85.45</ele>
        <time>2021-03-20T15:47:58Z</time>
      </trkpt>
      <trkpt lat="52.85357" lon="-6.34453">
        <ele>84.31</ele>
        <time>2021-03-20T15:48:01Z</time>
      </trkpt>
      <trkpt lat="52.85331" lon="-6.34419">
        <ele>82.78</ele>
        <time>2021-03-20T15:48:04Z</time>
      </trkpt>
      <trkpt lat="52.85294" lon="-6.3436">
        <ele>81.83</ele>
        <time>2021-03-20T15:48:07Z</time>
      </trkpt>
      <trkpt lat="52.85267" lon="-6.34309">
        <ele>80.77</ele>
        <time>2021-03-20T15:48:10Z</time>
      </trkpt>
      <trkpt lat="52.85201" lon="-6.34135">
        <ele>76.87</ele>
        <time>2021-03-20T15:48:13Z</time>
      </trkpt>
      <trkpt lat="52.85163" lon="-6.34028">
        <ele>75.62</ele>
        <time>2021-03-20T15:48:16Z</time>
      </trkpt>
      <trkpt lat="52.85157" lon="-6.3406">
        <ele>74.91</ele>
        <time>2021-03-20T15:48:22Z</time>
      </trkpt>
      <trkpt lat="52.85164" lon="-6.34149">
        <ele>74</ele>
        <time>2021-03-20T15:48:28Z</time>
      </trkpt>
      <trkpt lat="52.85163" lon="-6.34164">
        <ele>74</ele>
        <time>2021-03-20T15:48:33Z</time>
      </trkpt>
      <trkpt lat="52.85143" lon="-6.34196">
        <ele>75</ele>
        <time>2021-03-20T15:48:39Z</time>
      </trkpt>
      <trkpt lat="52.85141" lon="-6.3421">
        <ele>75</ele>
        <time>2021-03-20T15:48:45Z</time>
      </trkpt>
      <trkpt lat="52.8515" lon="-6.34279">
        <ele>77.64</ele>
        <time>2021-03-20T15:48:51Z</time>
      </trkpt>
      <trkpt lat="52.85142" lon="-6.34432">
        <ele>85.46</ele>
        <time>2021-03-20T15:48:56Z</time>
      </trkpt>
      <trkpt lat="52.85139" lon="-6.34499">
        <ele>87.95</ele>
        <time>2021-03-20T15:49:02Z</time>
      </trkpt>
      <trkpt lat="52.85142" lon="-6.34544">
        <ele>91.03</ele>
        <time>2021-03-20T15:49:08Z</time>
      </trkpt>
      <trkpt lat="52.85134" lon="-6.34616">
        <ele>98.14</ele>
        <time>2021-03-20T15:49:13Z</time>
      </trkpt>
      <trkpt lat="52.85086" lon="-6.34901">
        <ele>119.06</ele>
        <time>2021-03-20T15:49:19Z</time>
      </trkpt>
      <trkpt lat="52.8505" lon="-6.35053">
        <ele>128.86</ele>
        <time>2021-03-20T15:49:25Z</time>
      </trkpt>
      <trkpt lat="52.85013" lon="-6.35245">
        <ele>137.15</ele>
        <time>2021-03-20T15:49:30Z</time>
      </trkpt>
      <trkpt lat="52.84859" lon="-6.35999">
        <ele>153.82</ele>
        <time>2021-03-20T15:49:36Z</time>
      </trkpt>
      <trkpt lat="52.84777" lon="-6.36386">
        <ele>161.69</ele>
        <time>2021-03-20T15:49:42Z</time>
      </trkpt>
      <trkpt lat="52.84743" lon="-6.36463">
        <ele>164.01</ele>
        <time>2021-03-20T15:49:48Z</time>
      </trkpt>
      <trkpt lat="52.84669" lon="-6.36606">
        <ele>161.09</ele>
        <time>2021-03-20T15:49:53Z</time>
      </trkpt>
      <trkpt lat="52.84597" lon="-6.36755">
        <ele>166.81</ele>
        <time>2021-03-20T15:49:59Z</time>
      </trkpt>
      <trkpt lat="52.84592" lon="-6.36745">
        <ele>165.96</ele>
        <time>2021-03-20T15:50:03Z</time>
      </trkpt>
      <trkpt lat="52.84567" lon="-6.36638">
        <ele>156.95</ele>
        <time>2021-03-20T15:50:07Z</time>
      </trkpt>
      <trkpt lat="52.84556" lon="-6.36601">
        <ele>154.62</ele>
        <time>2021-03-20T15:50:11Z</time>
      </trkpt>
      <trkpt lat="52.84546" lon="-6.36584">
        <ele>153.04</ele>
        <time>2021-03-20T15:50:15Z</time>
      </trkpt>
      <trkpt lat="52.84523" lon="-6.36567">
        <ele>148.81</ele>
        <time>2021-03-20T15:50:18Z</time>
      </trkpt>
      <trkpt lat="52.84486" lon="-6.36545">
        <ele>144.45</ele>
        <time>2021-03-20T15:50:22Z</time>
      </trkpt>
      <trkpt lat="52.84469" lon="-6.36529">
        <ele>143.43</ele>
        <time>2021-03-20T15:50:26Z</time>
      </trkpt>
      <trkpt lat="52.84457" lon="-6.36507">
        <ele>143.2</ele>
        <time>2021-03-20T15:50:30Z</time>
      </trkpt>
      <trkpt lat="52.84451" lon="-6.36483">
        <ele>142.84</ele>
        <time>2021-03-20T15:50:34Z</time>
      </trkpt>
      <trkpt lat="52.84452" lon="-6.36436">
        <ele>140.43</ele>
        <time>2021-03-20T15:50:38Z</time>
      </trkpt>
      <trkpt lat="52.84449" lon="-6.36414">
        <ele>139.72</ele>
        <time>2021-03-20T15:50:42Z</time>
      </trkpt>
      <trkpt lat="52.84442" lon="-6.36396">
        <ele>139.19</ele>
        <time>2021-03-20T15:50:45Z</time>
      </trkpt>
      <trkpt lat="52.8442" lon="-6.36359">
        <ele>136.84</ele>
        <time>2021-03-20T15:50:49Z</time>
      </trkpt>
      <trkpt lat="52.84311" lon="-6.3611">
        <ele>128.95</ele>
        <time>2021-03-20T15:50:53Z</time>
      </trkpt>
      <trkpt lat="52.84304" lon="-6.36095">
        <ele>127.98</ele>
        <time>2021-03-20T15:50:57Z</time>
      </trkpt>
      <trkpt lat="52.84293" lon="-6.36083">
        <ele>125.34</ele>
        <time>2021-03-20T15:51:01Z</time>
      </trkpt>
      <trkpt lat="52.84256" lon="-6.36065">
        <ele>116.67</ele>
        <time>2021-03-20T15:51:05Z</time>
      </trkpt>
      <trkpt lat="52.84256" lon="-6.36039">
        <ele>114.7</ele>
        <time>2021-03-20T15:51:10Z</time>
      </trkpt>
      <trkpt lat="52.84229" lon="-6.35916">
        <ele>101.65</ele>
        <time>2021-03-20T15:51:15Z</time>
      </trkpt>
      <trkpt lat="52.84204" lon="-6.35812">
        <ele>93.13</ele>
        <time>2021-03-20T15:51:20Z</time>
      </trkpt>
      <trkpt lat="52.84198" lon="-6.35793">
        <ele>91.32</ele>
        <time>2021-03-20T15:51:25Z</time>
      </trkpt>
      <trkpt lat="52.84151" lon="-6.35678">
        <ele>82.25</ele>
        <time>2021-03-20T15:51:30Z</time>
      </trkpt>
      <trkpt lat="52.8414" lon="-6.35655">
        <ele>81.01</ele>
        <time>2021-03-20T15:51:36Z</time>
      </trkpt>
      <trkpt lat="52.84108" lon="-6.35604">
        <ele>79</ele>
        <time>2021-03-20T15:51:41Z</time>
      </trkpt>
      <trkpt lat="52.84084" lon="-6.35573">
        <ele>78.61</ele>
        <time>2021-03-20T15:51:46Z</time>
      </trkpt>
      <trkpt lat="52.8406" lon="-6.35547">
        <ele>77.1</ele>
        <time>2021-03-20T15:51:51Z</time>
      </trkpt>
      <trkpt lat="52.84035" lon="-6.35526">
        <ele>76.25</ele>
        <time>2021-03-20T15:51:56Z</time>
      </trkpt>
      <trkpt lat="52.84007" lon="-6.35489">
        <ele>76.29</ele>
        <time>2021-03-20T15:52:01Z</time>
      </trkpt>
      <trkpt lat="52.83934" lon="-6.35383">
        <ele>79.45</ele>
        <time>2021-03-20T15:52:06Z</time>
      </trkpt>
      <trkpt lat="52.83918" lon="-6.35334">
        <ele>82.84</ele>
        <time>2021-03-20T15:52:11Z</time>
      </trkpt>
      <trkpt lat="52.83842" lon="-6.35363">
        <ele>84.56</ele>
        <time>2021-03-20T15:52:15Z</time>
      </trkpt>
      <trkpt lat="52.83788" lon="-6.3539">
        <ele>82.53</ele>
        <time>2021-03-20T15:52:19Z</time>
      </trkpt>
      <trkpt lat="52.83202" lon="-6.35653">
        <ele>80.27</ele>
        <time>2021-03-20T15:52:23Z</time>
      </trkpt>
      <trkpt lat="52.83164" lon="-6.35691">
        <ele>81.32</ele>
        <time>2021-03-20T15:52:27Z</time>
      </trkpt>
      <trkpt lat="52.82781" lon="-6.36281">
        <ele>84.58</ele>
        <time>2021-03-20T15:52:31Z</time>
      </trkpt>
      <trkpt lat="52.82632" lon="-6.36514">
        <ele>83.48</ele>
        <time>2021-03-20T15:52:34Z</time>
      </trkpt>
      <trkpt lat="52.82609" lon="-6.36544">
        <ele>83.61</ele>
        <time>2021-03-20T15:52:38Z</time>
      </trkpt>
      <trkpt lat="52.82562" lon="-6.36589">
        <ele>84.38</ele>
        <time>2021-03-20T15:52:42Z</time>
      </trkpt>
      <trkpt lat="52.8255" lon="-6.3661">
        <ele>84.4</ele>
        <time>2021-03-20T15:52:46Z</time>
      </trkpt>
      <trkpt lat="52.8253" lon="-6.36704">
        <ele>84.5</ele>
        <time>2021-03-20T15:52:50Z</time>
      </trkpt>
      <trkpt lat="52.82515" lon="-6.36819">
        <ele>82.46</ele>
        <time>2021-03-20T15:52:54Z</time>
      </trkpt>
      <trkpt lat="52.82492" lon="-6.36931">
        <ele>78.06</ele>
        <time>2021-03-20T15:52:58Z</time>
      </trkpt>
      <trkpt lat="52.82426" lon="-6.37133">
        <ele>85.73</ele>
        <time>2021-03-20T15:53:02Z</time>
      </trkpt>
      <trkpt lat="52.8241" lon="-6.37232">
        <ele>80.85</ele>
        <time>2021-03-20T15:53:05Z</time>
      </trkpt>
      <trkpt lat="52.82382" lon="-6.3744">
        <ele>80.55</ele>
        <time>2021-03-20T15:53:09Z</time>
      </trkpt>
      <trkpt lat="52.82361" lon="-6.37531">
        <ele>82.05</ele>
        <time>2021-03-20T15:53:13Z</time>
      </trkpt>
      <trkpt lat="52.82315" lon="-6.37675">
        <ele>82.11</ele>
        <time>2021-03-20T15:53:17Z</time>
      </trkpt>
      <trkpt lat="52.82256" lon="-6.37827">
        <ele>80.22</ele>
        <time>2021-03-20T15:53:21Z</time>
      </trkpt>
      <trkpt lat="52.82189" lon="-6.37991">
        <ele>82</ele>
        <time>2021-03-20T15:53:25Z</time>
      </trkpt>
      <trkpt lat="52.82172" lon="-6.38071">
        <ele>81.34</ele>
        <time>2021-03-20T15:53:29Z</time>
      </trkpt>
      <trkpt lat="52.82163" lon="-6.38194">
        <ele>81.36</ele>
        <time>2021-03-20T15:53:33Z</time>
      </trkpt>
      <trkpt lat="52.82159" lon="-6.38221">
        <ele>81.86</ele>
        <time>2021-03-20T15:53:36Z</time>
      </trkpt>
      <trkpt lat="52.82141" lon="-6.38262">
        <ele>82.36</ele>
        <time>2021-03-20T15:53:40Z</time>
      </trkpt>
      <trkpt lat="52.82017" lon="-6.38491">
        <ele>88.32</ele>
        <time>2021-03-20T15:53:44Z</time>
      </trkpt>
      <trkpt lat="52.81935" lon="-6.38662">
        <ele>90.54</ele>
        <time>2021-03-20T15:53:48Z</time>
      </trkpt>
      <trkpt lat="52.81853" lon="-6.38862">
        <ele>89.87</ele>
        <time>2021-03-20T15:53:52Z</time>
      </trkpt>
      <trkpt lat="52.81718" lon="-6.39198">
        <ele>90.28</ele>
        <time>2021-03-20T15:53:56Z</time>
      </trkpt>
      <trkpt lat="52.81357" lon="-6.40108">
        <ele>100.17</ele>
        <time>2021-03-20T15:54:00Z</time>
      </trkpt>
      <trkpt lat="52.81283" lon="-6.40286">
        <ele>99.09</ele>
        <time>2021-03-20T15:54:03Z</time>
      </trkpt>
      <trkpt lat="52.81261" lon="-6.40327">
        <ele>98.46</ele>
        <time>2021-03-20T15:54:07Z</time>
      </trkpt>
      <trkpt lat="52.81242" lon="-6.40353">
        <ele>97.11</ele>
        <time>2021-03-20T15:54:11Z</time>
      </trkpt>
      <trkpt lat="52.81214" lon="-6.40413">
        <ele>94.84</ele>
        <time>2021-03-20T15:54:15Z</time>
      </trkpt>
      <trkpt lat="52.81199" lon="-6.40481">
        <ele>93.51</ele>
        <time>2021-03-20T15:54:19Z</time>
      </trkpt>
      <trkpt lat="52.8115" lon="-6.40675">
        <ele>89.51</ele>
        <time>2021-03-20T15:54:23Z</time>
      </trkpt>
      <trkpt lat="52.8113" lon="-6.40765">
        <ele>90.62</ele>
        <time>2021-03-20T15:54:27Z</time>
      </trkpt>
      <trkpt lat="52.81074" lon="-6.41087">
        <ele>88.55</ele>
        <time>2021-03-20T15:54:31Z</time>
      </trkpt>
      <trkpt lat="52.81027" lon="-6.41323">
        <ele>87.45</ele>
        <time>2021-03-20T15:54:34Z</time>
      </trkpt>
      <trkpt lat="52.81011" lon="-6.41383">
        <ele>86.42</ele>
        <time>2021-03-20T15:54:38Z</time>
      </trkpt>
      <trkpt lat="52.80983" lon="-6.41462">
        <ele>84.6</ele>
        <time>2021-03-20T15:54:42Z</time>
      </trkpt>
      <trkpt lat="52.80964" lon="-6.41493">
        <ele>83.32</ele>
        <time>2021-03-20T15:54:46Z</time>
      </trkpt>
      <trkpt lat="52.80933" lon="-6.41534">
        <ele>82.96</ele>
        <time>2021-03-20T15:54:50Z</time>
      </trkpt>
      <trkpt lat="52.80894" lon="-6.41575">
        <ele>83.92</ele>
        <time>2021-03-20T15:54:54Z</time>
      </trkpt>
      <trkpt lat="52.80855" lon="-6.41628">
        <ele>85.49</ele>
        <time>2021-03-20T15:54:58Z</time>
      </trkpt>
      <trkpt lat="52.8083" lon="-6.41655">
        <ele>84.63</ele>
        <time>2021-03-20T15:55:01Z</time>
      </trkpt>
      <trkpt lat="52.80788" lon="-6.41756">
        <ele>83.26</ele>
        <time>2021-03-20T15:55:05Z</time>
      </trkpt>
      <trkpt lat="52.80722" lon="-6.41894">
        <ele>85.81</ele>
        <time>2021-03-20T15:55:09Z</time>
      </trkpt>
      <trkpt lat="52.80703" lon="-6.41975">
        <ele>86.41</ele>
        <time>2021-03-20T15:55:13Z</time>
      </trkpt>
      <trkpt lat="52.80695" lon="-6.42059">
        <ele>87.07</ele>
        <time>2021-03-20T15:55:17Z</time>
      </trkpt>
      <trkpt lat="52.80706" lon="-6.42219">
        <ele>85.14</ele>
        <time>2021-03-20T15:55:21Z</time>
      </trkpt>
      <trkpt lat="52.80688" lon="-6.42341">
        <ele>86.02</ele>
        <time>2021-03-20T15:55:25Z</time>
      </trkpt>
      <trkpt lat="52.80668" lon="-6.4242">
        <ele>86.91</ele>
        <time>2021-03-20T15:55:29Z</time>
      </trkpt>
      <trkpt lat="52.80642" lon="-6.42504">
        <ele>87.03</ele>
        <time>2021-03-20T15:55:32Z</time>
      </trkpt>
      <trkpt lat="52.80609" lon="-6.42584">
        <ele>89</ele>
        <time>2021-03-20T15:55:36Z</time>
      </trkpt>
      <trkpt lat="52.80566" lon="-6.42653">
        <ele>88.63</ele>
        <time>2021-03-20T15:55:40Z</time>
      </trkpt>
      <trkpt lat="52.80504" lon="-6.42745">
        <ele>90.67</ele>
        <time>2021-03-20T15:55:44Z</time>
      </trkpt>
      <trkpt lat="52.80468" lon="-6.42792">
        <ele>92.45</ele>
        <time>2021-03-20T15:55:48Z</time>
      </trkpt>
      <trkpt lat="52.80436" lon="-6.42825">
        <ele>92</ele>
        <time>2021-03-20T15:55:52Z</time>
      </trkpt>
      <trkpt lat="52.80356" lon="-6.42873">
        <ele>93.19</ele>
        <time>2021-03-20T15:55:56Z</time>
      </trkpt>
      <trkpt lat="52.80261" lon="-6.4292">
        <ele>95.28</ele>
        <time>2021-03-20T15:55:59Z</time>
      </trkpt>
      <trkpt lat="52.80035" lon="-6.43011">
        <ele>97.96</ele>
        <time>2021-03-20T15:56:03Z</time>
      </trkpt>
      <trkpt lat="52.79966" lon="-6.4303">
        <ele>98.49</ele>
        <time>2021-03-20T15:56:07Z</time>
      </trkpt>
      <trkpt lat="52.79694" lon="-6.43038">
        <ele>93.24</ele>
        <time>2021-03-20T15:56:11Z</time>
      </trkpt>
      <trkpt lat="52.79605" lon="-6.4305">
        <ele>92.44</ele>
        <time>2021-03-20T15:56:15Z</time>
      </trkpt>
      <trkpt lat="52.79521" lon="-6.43049">
        <ele>91.82</ele>
        <time>2021-03-20T15:56:19Z</time>
      </trkpt>
      <trkpt lat="52.79447" lon="-6.43023">
        <ele>91.32</ele>
        <time>2021-03-20T15:56:23Z</time>
      </trkpt>
      <trkpt lat="52.79416" lon="-6.43007">
        <ele>92.16</ele>
        <time>2021-03-20T15:56:27Z</time>
      </trkpt>
      <trkpt lat="52.79375" lon="-6.42977">
        <ele>91.23</ele>
        <time>2021-03-20T15:56:30Z</time>
      </trkpt>
      <trkpt lat="52.79319" lon="-6.42927">
        <ele>90.61</ele>
        <time>2021-03-20T15:56:34Z</time>
      </trkpt>
      <trkpt lat="52.79293" lon="-6.4291">
        <ele>90.81</ele>
        <time>2021-03-20T15:56:38Z</time>
      </trkpt>
      <trkpt lat="52.79266" lon="-6.42902">
        <ele>90.51</ele>
        <time>2021-03-20T15:56:42Z</time>
      </trkpt>
      <trkpt lat="52.79206" lon="-6.42902">
        <ele>91.14</ele>
        <time>2021-03-20T15:56:46Z</time>
      </trkpt>
      <trkpt lat="52.79117" lon="-6.42887">
        <ele>93.07</ele>
        <time>2021-03-20T15:56:50Z</time>
      </trkpt>
      <trkpt lat="52.79074" lon="-6.42883">
        <ele>95.2</ele>
        <time>2021-03-20T15:56:54Z</time>
      </trkpt>
      <trkpt lat="52.79048" lon="-6.42895">
        <ele>97.07</ele>
        <time>2021-03-20T15:56:58Z</time>
      </trkpt>
      <trkpt lat="52.79023" lon="-6.42916">
        <ele>97.03</ele>
        <time>2021-03-20T15:57:01Z</time>
      </trkpt>
      <trkpt lat="52.78829" lon="-6.43141">
        <ele>93.08</ele>
        <time>2021-03-20T15:57:05Z</time>
      </trkpt>
      <trkpt lat="52.78809" lon="-6.43176">
        <ele>92.87</ele>
        <time>2021-03-20T15:57:09Z</time>
      </trkpt>
      <trkpt lat="52.78747" lon="-6.43337">
        <ele>93.1</ele>
        <time>2021-03-20T15:57:13Z</time>
      </trkpt>
      <trkpt lat="52.78676" lon="-6.43503">
        <ele>94.52</ele>
        <time>2021-03-20T15:57:17Z</time>
      </trkpt>
      <trkpt lat="52.78597" lon="-6.43693">
        <ele>94.6</ele>
        <time>2021-03-20T15:57:21Z</time>
      </trkpt>
      <trkpt lat="52.78558" lon="-6.43768">
        <ele>93.19</ele>
        <time>2021-03-20T15:57:25Z</time>
      </trkpt>
      <trkpt lat="52.7848" lon="-6.43867">
        <ele>91.19</ele>
        <time>2021-03-20T15:57:28Z</time>
      </trkpt>
      <trkpt lat="52.78427" lon="-6.43906">
        <ele>91.38</ele>
        <time>2021-03-20T15:57:32Z</time>
      </trkpt>
      <trkpt lat="52.78366" lon="-6.43933">
        <ele>90.43</ele>
        <time>2021-03-20T15:57:36Z</time>
      </trkpt>
      <trkpt lat="52.78306" lon="-6.43945">
        <ele>89.99</ele>
        <time>2021-03-20T15:57:40Z</time>
      </trkpt>
      <trkpt lat="52.7824" lon="-6.4394">
        <ele>88.64</ele>
        <time>2021-03-20T15:57:44Z</time>
      </trkpt>
      <trkpt lat="52.78199" lon="-6.43926">
        <ele>86.89</ele>
        <time>2021-03-20T15:57:48Z</time>
      </trkpt>
      <trkpt lat="52.78152" lon="-6.43889">
        <ele>85.95</ele>
        <time>2021-03-20T15:57:52Z</time>
      </trkpt>
      <trkpt lat="52.78117" lon="-6.4388">
        <ele>84.22</ele>
        <time>2021-03-20T15:57:56Z</time>
      </trkpt>
      <trkpt lat="52.78094" lon="-6.43884">
        <ele>82.89</ele>
        <time>2021-03-20T15:57:59Z</time>
      </trkpt>
      <trkpt lat="52.78071" lon="-6.43893">
        <ele>81.94</ele>
        <time>2021-03-20T15:58:03Z</time>
      </trkpt>
      <trkpt lat="52.77966" lon="-6.43949">
        <ele>85.04</ele>
        <time>2021-03-20T15:58:07Z</time>
      </trkpt>
      <trkpt lat="52.77605" lon="-6.44111">
        <ele>97.45</ele>
        <time>2021-03-20T15:58:11Z</time>
      </trkpt>
      <trkpt lat="52.77511" lon="-6.44147">
        <ele>102.8</ele>
        <time>2021-03-20T15:58:15Z</time>
      </trkpt>
      <trkpt lat="52.77191" lon="-6.44251">
        <ele>105.02</ele>
        <time>2021-03-20T15:58:19Z</time>
      </trkpt>
      <trkpt lat="52.77135" lon="-6.44271">
        <ele>106.49</ele>
        <time>2021-03-20T15:58:23Z</time>
      </trkpt>
      <trkpt lat="52.77099" lon="-6.44296">
        <ele>107.18</ele>
        <time>2021-03-20T15:58:26Z</time>
      </trkpt>
      <trkpt lat="52.77039" lon="-6.44344">
        <ele>102.62</ele>
        <time>2021-03-20T15:58:30Z</time>
      </trkpt>
      <trkpt lat="52.76935" lon="-6.44437">
        <ele>101.74</ele>
        <time>2021-03-20T15:58:34Z</time>
      </trkpt>
      <trkpt lat="52.7684" lon="-6.44511">
        <ele>104.8</ele>
        <time>2021-03-20T15:58:38Z</time>
      </trkpt>
      <trkpt lat="52.76614" lon="-6.44698">
        <ele>108.13</ele>
        <time>2021-03-20T15:58:42Z</time>
      </trkpt>
      <trkpt lat="52.76583" lon="-6.44729">
        <ele>109.22</ele>
        <time>2021-03-20T15:58:46Z</time>
      </trkpt>
      <trkpt lat="52.76518" lon="-6.44798">
        <ele>110.73</ele>
        <time>2021-03-20T15:58:50Z</time>
      </trkpt>
      <trkpt lat="52.76464" lon="-6.44877">
        <ele>108.69</ele>
        <time>2021-03-20T15:58:54Z</time>
      </trkpt>
      <trkpt lat="52.76407" lon="-6.44971">
        <ele>106.61</ele>
        <time>2021-03-20T15:58:57Z</time>
      </trkpt>
      <trkpt lat="52.76374" lon="-6.45016">
        <ele>106.03</ele>
        <time>2021-03-20T15:59:01Z</time>
      </trkpt>
      <trkpt lat="52.76364" lon="-6.45036">
        <ele>106.14</ele>
        <time>2021-03-20T15:59:05Z</time>
      </trkpt>
      <trkpt lat="52.76325" lon="-6.45089">
        <ele>103.51</ele>
        <time>2021-03-20T15:59:09Z</time>
      </trkpt>
      <trkpt lat="52.76276" lon="-6.45139">
        <ele>98.86</ele>
        <time>2021-03-20T15:59:13Z</time>
      </trkpt>
      <trkpt lat="52.76242" lon="-6.45163">
        <ele>96.69</ele>
        <time>2021-03-20T15:59:17Z</time>
      </trkpt>
      <trkpt lat="52.76179" lon="-6.45191">
        <ele>95.14</ele>
        <time>2021-03-20T15:59:21Z</time>
      </trkpt>
      <trkpt lat="52.75877" lon="-6.45268">
        <ele>89.04</ele>
        <time>2021-03-20T15:59:25Z</time>
      </trkpt>
      <trkpt lat="52.75776" lon="-6.45303">
        <ele>87.32</ele>
        <time>2021-03-20T15:59:28Z</time>
      </trkpt>
      <trkpt lat="52.75722" lon="-6.45334">
        <ele>84.97</ele>
        <time>2021-03-20T15:59:32Z</time>
      </trkpt>
      <trkpt lat="52.7562" lon="-6.45403">
        <ele>85.67</ele>
        <time>2021-03-20T15:59:36Z</time>
      </trkpt>
      <trkpt lat="52.75551" lon="-6.45467">
        <ele>85.2</ele>
        <time>2021-03-20T15:59:40Z</time>
      </trkpt>
      <trkpt lat="52.75335" lon="-6.45731">
        <ele>91.33</ele>
        <time>2021-03-20T15:59:44Z</time>
      </trkpt>
      <trkpt lat="52.75272" lon="-6.45806">
        <ele>94</ele>
        <time>2021-03-20T15:59:48Z</time>
      </trkpt>
      <trkpt lat="52.7517" lon="-6.45934">
        <ele>97</ele>
        <time>2021-03-20T15:59:52Z</time>
      </trkpt>
      <trkpt lat="52.75083" lon="-6.46035">
        <ele>98</ele>
        <time>2021-03-20T15:59:55Z</time>
      </trkpt>
      <trkpt lat="52.75044" lon="-6.46057">
        <ele>98.42</ele>
        <time>2021-03-20T15:59:59Z</time>
      </trkpt>
      <trkpt lat="52.74993" lon="-6.46079">
        <ele>100.28</ele>
        <time>2021-03-20T16:00:03Z</time>
      </trkpt>
      <trkpt lat="52.74835" lon="-6.46159">
        <ele>107</ele>
        <time>2021-03-20T16:00:07Z</time>
      </trkpt>
      <trkpt lat="52.74685" lon="-6.46252">
        <ele>118.07</ele>
        <time>2021-03-20T16:00:11Z</time>
      </trkpt>
      <trkpt lat="52.74616" lon="-6.46299">
        <ele>124.88</ele>
        <time>2021-03-20T16:00:15Z</time>
      </trkpt>
      <trkpt lat="52.74573" lon="-6.46334">
        <ele>127.5</ele>
        <time>2021-03-20T16:00:19Z</time>
      </trkpt>
      <trkpt lat="52.74528" lon="-6.46383">
        <ele>131.94</ele>
        <time>2021-03-20T16:00:23Z</time>
      </trkpt>
      <trkpt lat="52.74432" lon="-6.4651">
        <ele>137.71</ele>
        <time>2021-03-20T16:00:26Z</time>
      </trkpt>
      <trkpt lat="52.74401" lon="-6.46543">
        <ele>141.76</ele>
        <time>2021-03-20T16:00:30Z</time>
      </trkpt>
      <trkpt lat="52.74373" lon="-6.46563">
        <ele>142.76</ele>
        <time>2021-03-20T16:00:34Z</time>
      </trkpt>
      <trkpt lat="52.74247" lon="-6.46605">
        <ele>148.91</ele>
        <time>2021-03-20T16:00:38Z</time>
      </trkpt>
      <trkpt lat="52.74172" lon="-6.46635">
        <ele>154.62</ele>
        <time>2021-03-20T16:00:42Z</time>
      </trkpt>
      <trkpt lat="52.74137" lon="-6.46655">
        <ele>158.22</ele>
        <time>2021-03-20T16:00:46Z</time>
      </trkpt>
      <trkpt lat="52.74125" lon="-6.46664">
        <ele>159.56</ele>
        <time>2021-03-20T16:00:50Z</time>
      </trkpt>
      <trkpt lat="52.74107" lon="-6.46682">
        <ele>160.73</ele>
        <time>2021-03-20T16:00:53Z</time>
      </trkpt>
      <trkpt lat="52.74084" lon="-6.46723">
        <ele>161.8</ele>
        <time>2021-03-20T16:00:57Z</time>
      </trkpt>
      <trkpt lat="52.74027" lon="-6.46837">
        <ele>163.95</ele>
        <time>2021-03-20T16:01:01Z</time>
      </trkpt>
      <trkpt lat="52.74002" lon="-6.46891">
        <ele>165.5</ele>
        <time>2021-03-20T16:01:05Z</time>
      </trkpt>
      <trkpt lat="52.73968" lon="-6.46978">
        <ele>167.35</ele>
        <time>2021-03-20T16:01:09Z</time>
      </trkpt>
      <trkpt lat="52.739" lon="-6.47206">
        <ele>173.66</ele>
        <time>2021-03-20T16:01:13Z</time>
      </trkpt>
      <trkpt lat="52.73877" lon="-6.47302">
        <ele>176.68</ele>
        <time>2021-03-20T16:01:17Z</time>
      </trkpt>
      <trkpt lat="52.73865" lon="-6.47338">
        <ele>178.45</ele>
        <time>2021-03-20T16:01:21Z</time>
      </trkpt>
      <trkpt lat="52.73842" lon="-6.47383">
        <ele>181.82</ele>
        <time>2021-03-20T16:01:24Z</time>
      </trkpt>
      <trkpt lat="52.73819" lon="-6.47421">
        <ele>185.48</ele>
        <time>2021-03-20T16:01:28Z</time>
      </trkpt>
      <trkpt lat="52.73804" lon="-6.47431">
        <ele>187.48</ele>
        <time>2021-03-20T16:01:32Z</time>
      </trkpt>
      <trkpt lat="52.73779" lon="-6.47441">
        <ele>187.12</ele>
        <time>2021-03-20T16:01:36Z</time>
      </trkpt>
      <trkpt lat="52.7375" lon="-6.47446">
        <ele>184</ele>
        <time>2021-03-20T16:01:40Z</time>
      </trkpt>
      <trkpt lat="52.73714" lon="-6.47438">
        <ele>181.94</ele>
        <time>2021-03-20T16:01:44Z</time>
      </trkpt>
      <trkpt lat="52.73684" lon="-6.47428">
        <ele>180.41</ele>
        <time>2021-03-20T16:01:48Z</time>
      </trkpt>
      <trkpt lat="52.73648" lon="-6.47412">
        <ele>176.55</ele>
        <time>2021-03-20T16:01:51Z</time>
      </trkpt>
      <trkpt lat="52.73549" lon="-6.47349">
        <ele>172.3</ele>
        <time>2021-03-20T16:01:55Z</time>
      </trkpt>
      <trkpt lat="52.73505" lon="-6.4733">
        <ele>169.75</ele>
        <time>2021-03-20T16:01:59Z</time>
      </trkpt>
      <trkpt lat="52.73466" lon="-6.47321">
        <ele>169.02</ele>
        <time>2021-03-20T16:02:03Z</time>
      </trkpt>
      <trkpt lat="52.73414" lon="-6.47314">
        <ele>165.5</ele>
        <time>2021-03-20T16:02:07Z</time>
      </trkpt>
      <trkpt lat="52.73375" lon="-6.47313">
        <ele>163.22</ele>
        <time>2021-03-20T16:02:11Z</time>
      </trkpt>
      <trkpt lat="52.73333" lon="-6.47321">
        <ele>161.4</ele>
        <time>2021-03-20T16:02:15Z</time>
      </trkpt>
      <trkpt lat="52.733" lon="-6.47336">
        <ele>159.8</ele>
        <time>2021-03-20T16:02:19Z</time>
      </trkpt>
      <trkpt lat="52.73221" lon="-6.4739">
        <ele>157.95</ele>
        <time>2021-03-20T16:02:22Z</time>
      </trkpt>
      <trkpt lat="52.73183" lon="-6.47431">
        <ele>156.08</ele>
        <time>2021-03-20T16:02:26Z</time>
      </trkpt>
      <trkpt lat="52.73071" lon="-6.47538">
        <ele>148.65</ele>
        <time>2021-03-20T16:02:30Z</time>
      </trkpt>
      <trkpt lat="52.7301" lon="-6.47599">
        <ele>145.71</ele>
        <time>2021-03-20T16:02:34Z</time>
      </trkpt>
      <trkpt lat="52.72901" lon="-6.47689">
        <ele>140.86</ele>
        <time>2021-03-20T16:02:38Z</time>
      </trkpt>
      <trkpt lat="52.72874" lon="-6.47704">
        <ele>139.32</ele>
        <time>2021-03-20T16:02:42Z</time>
      </trkpt>
      <trkpt lat="52.72836" lon="-6.47707">
        <ele>139.08</ele>
        <time>2021-03-20T16:02:46Z</time>
      </trkpt>
      <trkpt lat="52.72764" lon="-6.47699">
        <ele>134.67</ele>
        <time>2021-03-20T16:02:50Z</time>
      </trkpt>
      <trkpt lat="52.72703" lon="-6.47678">
        <ele>132.78</ele>
        <time>2021-03-20T16:02:53Z</time>
      </trkpt>
      <trkpt lat="52.72651" lon="-6.47652">
        <ele>129.42</ele>
        <time>2021-03-20T16:02:57Z</time>
      </trkpt>
      <trkpt lat="52.72606" lon="-6.47634">
        <ele>127.94</ele>
        <time>2021-03-20T16:03:01Z</time>
      </trkpt>
      <trkpt lat="52.72583" lon="-6.47637">
        <ele>126.13</ele>
        <time>2021-03-20T16:03:05Z</time>
      </trkpt>
      <trkpt lat="52.72546" lon="-6.47652">
        <ele>125.24</ele>
        <time>2021-03-20T16:03:09Z</time>
      </trkpt>
      <trkpt lat="52.72492" lon="-6.47697">
        <ele>124.08</ele>
        <time>2021-03-20T16:03:13Z</time>
      </trkpt>
      <trkpt lat="52.72466" lon="-6.47726">
        <ele>122.76</ele>
        <time>2021-03-20T16:03:17Z</time>
      </trkpt>
      <trkpt lat="52.72418" lon="-6.47771">
        <ele>121.18</ele>
        <time>2021-03-20T16:03:20Z</time>
      </trkpt>
      <trkpt lat="52.72375" lon="-6.47821">
        <ele>120.22</ele>
        <time>2021-03-20T16:03:24Z</time>
      </trkpt>
      <trkpt lat="52.72342" lon="-6.4785">
        <ele>118.7</ele>
        <time>2021-03-20T16:03:28Z</time>
      </trkpt>
      <trkpt lat="52.72176" lon="-6.47932">
        <ele>111.34</ele>
        <time>2021-03-20T16:03:32Z</time>
      </trkpt>
      <trkpt lat="52.72138" lon="-6.47941">
        <ele>109.96</ele>
        <time>2021-03-20T16:03:36Z</time>
      </trkpt>
      <trkpt lat="52.72085" lon="-6.47948">
        <ele>107.82</ele>
        <time>2021-03-20T16:03:40Z</time>
      </trkpt>
      <trkpt lat="52.72044" lon="-6.47964">
        <ele>106.3</ele>
        <time>2021-03-20T16:03:44Z</time>
      </trkpt>
      <trkpt lat="52.71989" lon="-6.48009">
        <ele>105.07</ele>
        <time>2021-03-20T16:03:48Z</time>
      </trkpt>
      <trkpt lat="52.71941" lon="-6.4807">
        <ele>103.48</ele>
        <time>2021-03-20T16:03:51Z</time>
      </trkpt>
      <trkpt lat="52.71909" lon="-6.48132">
        <ele>102.78</ele>
        <time>2021-03-20T16:03:55Z</time>
      </trkpt>
      <trkpt lat="52.71859" lon="-6.48268">
        <ele>105.09</ele>
        <time>2021-03-20T16:03:59Z</time>
      </trkpt>
      <trkpt lat="52.71828" lon="-6.48326">
        <ele>104.62</ele>
        <time>2021-03-20T16:04:03Z</time>
      </trkpt>
      <trkpt lat="52.71778" lon="-6.48395">
        <ele>103.79</ele>
        <time>2021-03-20T16:04:07Z</time>
      </trkpt>
      <trkpt lat="52.71736" lon="-6.48442">
        <ele>104.04</ele>
        <time>2021-03-20T16:04:11Z</time>
      </trkpt>
      <trkpt lat="52.71682" lon="-6.48497">
        <ele>103.07</ele>
        <time>2021-03-20T16:04:15Z</time>
      </trkpt>
      <trkpt lat="52.71622" lon="-6.48553">
        <ele>102.46</ele>
        <time>2021-03-20T16:04:18Z</time>
      </trkpt>
      <trkpt lat="52.71551" lon="-6.48639">
        <ele>99.14</ele>
        <time>2021-03-20T16:04:22Z</time>
      </trkpt>
      <trkpt lat="52.71531" lon="-6.48679">
        <ele>99.32</ele>
        <time>2021-03-20T16:04:26Z</time>
      </trkpt>
      <trkpt lat="52.71512" lon="-6.48738">
        <ele>98.01</ele>
        <time>2021-03-20T16:04:30Z</time>
      </trkpt>
      <trkpt lat="52.71495" lon="-6.48813">
        <ele>99.5</ele>
        <time>2021-03-20T16:04:34Z</time>
      </trkpt>
      <trkpt lat="52.71483" lon="-6.48906">
        <ele>100.69</ele>
        <time>2021-03-20T16:04:38Z</time>
      </trkpt>
      <trkpt lat="52.71452" lon="-6.49074">
        <ele>102.52</ele>
        <time>2021-03-20T16:04:42Z</time>
      </trkpt>
      <trkpt lat="52.71426" lon="-6.49161">
        <ele>103.33</ele>
        <time>2021-03-20T16:04:46Z</time>
      </trkpt>
      <trkpt lat="52.71398" lon="-6.49193">
        <ele>103.72</ele>
        <time>2021-03-20T16:04:49Z</time>
      </trkpt>
      <trkpt lat="52.71378" lon="-6.49211">
        <ele>104.4</ele>
        <time>2021-03-20T16:04:53Z</time>
      </trkpt>
      <trkpt lat="52.71329" lon="-6.49232">
        <ele>105.8</ele>
        <time>2021-03-20T16:04:57Z</time>
      </trkpt>
      <trkpt lat="52.71152" lon="-6.49266">
        <ele>112.73</ele>
        <time>2021-03-20T16:05:01Z</time>
      </trkpt>
      <trkpt lat="52.71106" lon="-6.49274">
        <ele>113.31</ele>
        <time>2021-03-20T16:05:05Z</time>
      </trkpt>
      <trkpt lat="52.71062" lon="-6.49277">
        <ele>114</ele>
        <time>2021-03-20T16:05:09Z</time>
      </trkpt>
      <trkpt lat="52.71045" lon="-6.49374">
        <ele>111.63</ele>
        <time>2021-03-20T16:05:13Z</time>
      </trkpt>
      <trkpt lat="52.70987" lon="-6.49747">
        <ele>109.58</ele>
        <time>2021-03-20T16:05:18Z</time>
      </trkpt>
      <trkpt lat="52.70974" lon="-6.49845">
        <ele>109.7</ele>
        <time>2021-03-20T16:05:23Z</time>
      </trkpt>
      <trkpt lat="52.70966" lon="-6.49938">
        <ele>108.78</ele>
        <time>2021-03-20T16:05:27Z</time>
      </trkpt>
      <trkpt lat="52.70966" lon="-6.49978">
        <ele>107.84</ele>
        <time>2021-03-20T16:05:32Z</time>
      </trkpt>
      <trkpt lat="52.70977" lon="-6.50017">
        <ele>106.4</ele>
        <time>2021-03-20T16:05:36Z</time>
      </trkpt>
      <trkpt lat="52.71025" lon="-6.50122">
        <ele>102.67</ele>
        <time>2021-03-20T16:05:41Z</time>
      </trkpt>
      <trkpt lat="52.71157" lon="-6.50451">
        <ele>90.76</ele>
        <time>2021-03-20T16:05:45Z</time>
      </trkpt>
      <trkpt lat="52.71193" lon="-6.50535">
        <ele>85.8</ele>
        <time>2021-03-20T16:05:50Z</time>
      </trkpt>
      <trkpt lat="52.71276" lon="-6.5075">
        <ele>82</ele>
        <time>2021-03-20T16:05:54Z</time>
      </trkpt>
      <trkpt lat="52.71304" lon="-6.50809">
        <ele>80.09</ele>
        <time>2021-03-20T16:05:59Z</time>
      </trkpt>
      <trkpt lat="52.71382" lon="-6.50935">
        <ele>75.14</ele>
        <time>2021-03-20T16:06:03Z</time>
      </trkpt>
      <trkpt lat="52.71455" lon="-6.51108">
        <ele>66.26</ele>
        <time>2021-03-20T16:06:08Z</time>
      </trkpt>
      <trkpt lat="52.71494" lon="-6.51209">
        <ele>66.64</ele>
        <time>2021-03-20T16:06:12Z</time>
      </trkpt>
      <trkpt lat="52.71513" lon="-6.51312">
        <ele>68.45</ele>
        <time>2021-03-20T16:06:17Z</time>
      </trkpt>
      <trkpt lat="52.71542" lon="-6.51591">
        <ele>70.56</ele>
        <time>2021-03-20T16:06:21Z</time>
      </trkpt>
      <trkpt lat="52.71551" lon="-6.51648">
        <ele>71.46</ele>
        <time>2021-03-20T16:06:26Z</time>
      </trkpt>
      <trkpt lat="52.71575" lon="-6.51758">
        <ele>73.37</ele>
        <time>2021-03-20T16:06:30Z</time>
      </trkpt>
      <trkpt lat="52.71595" lon="-6.51842">
        <ele>74.41</ele>
        <time>2021-03-20T16:06:35Z</time>
      </trkpt>
      <trkpt lat="52.71597" lon="-6.51886">
        <ele>74.49</ele>
        <time>2021-03-20T16:06:40Z</time>
      </trkpt>
      <trkpt lat="52.71594" lon="-6.51927">
        <ele>74.38</ele>
        <time>2021-03-20T16:06:44Z</time>
      </trkpt>
      <trkpt lat="52.71582" lon="-6.51977">
        <ele>74.94</ele>
        <time>2021-03-20T16:06:49Z</time>
      </trkpt>
      <trkpt lat="52.71539" lon="-6.52089">
        <ele>73.39</ele>
        <time>2021-03-20T16:06:53Z</time>
      </trkpt>
      <trkpt lat="52.71421" lon="-6.5234">
        <ele>70.17</ele>
        <time>2021-03-20T16:06:58Z</time>
      </trkpt>
      <trkpt lat="52.71384" lon="-6.52471">
        <ele>70.82</ele>
        <time>2021-03-20T16:07:02Z</time>
      </trkpt>
      <trkpt lat="52.71375" lon="-6.52493">
        <ele>70.5</ele>
        <time>2021-03-20T16:07:07Z</time>
      </trkpt>
      <trkpt lat="52.71346" lon="-6.52545">
        <ele>68.44</ele>
        <time>2021-03-20T16:07:11Z</time>
      </trkpt>
      <trkpt lat="52.71273" lon="-6.52687">
        <ele>66.08</ele>
        <time>2021-03-20T16:07:16Z</time>
      </trkpt>
      <trkpt lat="52.71261" lon="-6.52722">
        <ele>65.39</ele>
        <time>2021-03-20T16:07:20Z</time>
      </trkpt>
      <trkpt lat="52.71252" lon="-6.52762">
        <ele>64.04</ele>
        <time>2021-03-20T16:07:25Z</time>
      </trkpt>
      <trkpt lat="52.71226" lon="-6.52779">
        <ele>63.97</ele>
        <time>2021-03-20T16:07:28Z</time>
      </trkpt>
      <trkpt lat="52.71204" lon="-6.52797">
        <ele>62.65</ele>
        <time>2021-03-20T16:07:31Z</time>
      </trkpt>
      <trkpt lat="52.71133" lon="-6.52864">
        <ele>57</ele>
        <time>2021-03-20T16:07:35Z</time>
      </trkpt>
      <trkpt lat="52.7107" lon="-6.5294">
        <ele>56.08</ele>
        <time>2021-03-20T16:07:38Z</time>
      </trkpt>
      <trkpt lat="52.71028" lon="-6.52979">
        <ele>56</ele>
        <time>2021-03-20T16:07:41Z</time>
      </trkpt>
      <trkpt lat="52.71014" lon="-6.52987">
        <ele>56</ele>
        <time>2021-03-20T16:07:45Z</time>
      </trkpt>
      <trkpt lat="52.709" lon="-6.5307">
        <ele>55.81</ele>
        <time>2021-03-20T16:07:48Z</time>
      </trkpt>
      <trkpt lat="52.70856" lon="-6.53094">
        <ele>56</ele>
        <time>2021-03-20T16:07:51Z</time>
      </trkpt>
      <trkpt lat="52.7082" lon="-6.53118">
        <ele>56.24</ele>
        <time>2021-03-20T16:07:55Z</time>
      </trkpt>
      <trkpt lat="52.70785" lon="-6.53166">
        <ele>57.48</ele>
        <time>2021-03-20T16:07:58Z</time>
      </trkpt>
      <trkpt lat="52.70737" lon="-6.53241">
        <ele>62.64</ele>
        <time>2021-03-20T16:08:01Z</time>
      </trkpt>
      <trkpt lat="52.70669" lon="-6.53317">
        <ele>66.93</ele>
        <time>2021-03-20T16:08:05Z</time>
      </trkpt>
      <trkpt lat="52.70588" lon="-6.53391">
        <ele>70.69</ele>
        <time>2021-03-20T16:08:08Z</time>
      </trkpt>
      <trkpt lat="52.70528" lon="-6.5343">
        <ele>72.5</ele>
        <time>2021-03-20T16:08:11Z</time>
      </trkpt>
      <trkpt lat="52.70464" lon="-6.5351">
        <ele>78.38</ele>
        <time>2021-03-20T16:08:15Z</time>
      </trkpt>
      <trkpt lat="52.70417" lon="-6.53614">
        <ele>75.8</ele>
        <time>2021-03-20T16:08:18Z</time>
      </trkpt>
      <trkpt lat="52.70388" lon="-6.53666">
        <ele>74.14</ele>
        <time>2021-03-20T16:08:21Z</time>
      </trkpt>
      <trkpt lat="52.70352" lon="-6.53709">
        <ele>73.78</ele>
        <time>2021-03-20T16:08:24Z</time>
      </trkpt>
      <trkpt lat="52.70208" lon="-6.53813">
        <ele>74.64</ele>
        <time>2021-03-20T16:08:28Z</time>
      </trkpt>
      <trkpt lat="52.70136" lon="-6.53887">
        <ele>71.33</ele>
        <time>2021-03-20T16:08:31Z</time>
      </trkpt>
      <trkpt lat="52.70073" lon="-6.53964">
        <ele>64.43</ele>
        <time>2021-03-20T16:08:34Z</time>
      </trkpt>
      <trkpt lat="52.69958" lon="-6.54057">
        <ele>62.46</ele>
        <time>2021-03-20T16:08:38Z</time>
      </trkpt>
      <trkpt lat="52.69897" lon="-6.54127">
        <ele>64.63</ele>
        <time>2021-03-20T16:08:41Z</time>
      </trkpt>
      <trkpt lat="52.698" lon="-6.54277">
        <ele>73.19</ele>
        <time>2021-03-20T16:08:44Z</time>
      </trkpt>
      <trkpt lat="52.69785" lon="-6.54323">
        <ele>73.47</ele>
        <time>2021-03-20T16:08:48Z</time>
      </trkpt>
      <trkpt lat="52.69746" lon="-6.54423">
        <ele>74.16</ele>
        <time>2021-03-20T16:08:51Z</time>
      </trkpt>
      <trkpt lat="52.69699" lon="-6.54536">
        <ele>78.32</ele>
        <time>2021-03-20T16:08:54Z</time>
      </trkpt>
      <trkpt lat="52.69642" lon="-6.5465">
        <ele>81</ele>
        <time>2021-03-20T16:08:58Z</time>
      </trkpt>
      <trkpt lat="52.69576" lon="-6.54657">
        <ele>85.96</ele>
        <time>2021-03-20T16:09:01Z</time>
      </trkpt>
      <trkpt lat="52.6954" lon="-6.5464">
        <ele>89.67</ele>
        <time>2021-03-20T16:09:05Z</time>
      </trkpt>
      <trkpt lat="52.6951" lon="-6.54622">
        <ele>92.92</ele>
        <time>2021-03-20T16:09:09Z</time>
      </trkpt>
      <trkpt lat="52.69461" lon="-6.54584">
        <ele>96.81</ele>
        <time>2021-03-20T16:09:13Z</time>
      </trkpt>
      <trkpt lat="52.69389" lon="-6.54485">
        <ele>102.94</ele>
        <time>2021-03-20T16:09:17Z</time>
      </trkpt>
      <trkpt lat="52.69382" lon="-6.54436">
        <ele>103.27</ele>
        <time>2021-03-20T16:09:21Z</time>
      </trkpt>
      <trkpt lat="52.69386" lon="-6.54361">
        <ele>103.33</ele>
        <time>2021-03-20T16:09:24Z</time>
      </trkpt>
      <trkpt lat="52.69383" lon="-6.54321">
        <ele>102.78</ele>
        <time>2021-03-20T16:09:28Z</time>
      </trkpt>
      <trkpt lat="52.69376" lon="-6.54301">
        <ele>103.31</ele>
        <time>2021-03-20T16:09:32Z</time>
      </trkpt>
      <trkpt lat="52.69357" lon="-6.54274">
        <ele>104.51</ele>
        <time>2021-03-20T16:09:36Z</time>
      </trkpt>
      <trkpt lat="52.69331" lon="-6.54243">
        <ele>108.11</ele>
        <time>2021-03-20T16:09:40Z</time>
      </trkpt>
      <trkpt lat="52.69285" lon="-6.54177">
        <ele>112.71</ele>
        <time>2021-03-20T16:09:43Z</time>
      </trkpt>
      <trkpt lat="52.69259" lon="-6.54147">
        <ele>113.07</ele>
        <time>2021-03-20T16:09:47Z</time>
      </trkpt>
      <trkpt lat="52.69052" lon="-6.54063">
        <ele>125.47</ele>
        <time>2021-03-20T16:09:51Z</time>
      </trkpt>
      <trkpt lat="52.68981" lon="-6.54052">
        <ele>130.79</ele>
        <time>2021-03-20T16:09:55Z</time>
      </trkpt>
      <trkpt lat="52.68926" lon="-6.54048">
        <ele>135.75</ele>
        <time>2021-03-20T16:09:59Z</time>
      </trkpt>
      <trkpt lat="52.68787" lon="-6.54051">
        <ele>142.14</ele>
        <time>2021-03-20T16:10:03Z</time>
      </trkpt>
      <trkpt lat="52.68731" lon="-6.54057">
        <ele>143.08</ele>
        <time>2021-03-20T16:10:06Z</time>
      </trkpt>
      <trkpt lat="52.6869" lon="-6.5407">
        <ele>141.66</ele>
        <time>2021-03-20T16:10:10Z</time>
      </trkpt>
      <trkpt lat="52.68661" lon="-6.54091">
        <ele>140.98</ele>
        <time>2021-03-20T16:10:14Z</time>
      </trkpt>
      <trkpt lat="52.68617" lon="-6.54132">
        <ele>139.98</ele>
        <time>2021-03-20T16:10:18Z</time>
      </trkpt>
      <trkpt lat="52.68552" lon="-6.54178">
        <ele>137.04</ele>
        <time>2021-03-20T16:10:22Z</time>
      </trkpt>
      <trkpt lat="52.68509" lon="-6.54211">
        <ele>133.62</ele>
        <time>2021-03-20T16:10:26Z</time>
      </trkpt>
      <trkpt lat="52.68443" lon="-6.54272">
        <ele>128.21</ele>
        <time>2021-03-20T16:10:29Z</time>
      </trkpt>
      <trkpt lat="52.68295" lon="-6.54426">
        <ele>123.06</ele>
        <time>2021-03-20T16:10:33Z</time>
      </trkpt>
      <trkpt lat="52.68268" lon="-6.54441">
        <ele>124.7</ele>
        <time>2021-03-20T16:10:37Z</time>
      </trkpt>
      <trkpt lat="52.68226" lon="-6.54452">
        <ele>124.99</ele>
        <time>2021-03-20T16:10:41Z</time>
      </trkpt>
      <trkpt lat="52.68187" lon="-6.54455">
        <ele>124.46</ele>
        <time>2021-03-20T16:10:45Z</time>
      </trkpt>
      <trkpt lat="52.68141" lon="-6.54451">
        <ele>125.57</ele>
        <time>2021-03-20T16:10:49Z</time>
      </trkpt>
      <trkpt lat="52.68114" lon="-6.54455">
        <ele>127.05</ele>
        <time>2021-03-20T16:10:52Z</time>
      </trkpt>
      <trkpt lat="52.68065" lon="-6.54469">
        <ele>128.28</ele>
        <time>2021-03-20T16:10:56Z</time>
      </trkpt>
      <trkpt lat="52.68013" lon="-6.54481">
        <ele>127.58</ele>
        <time>2021-03-20T16:11:00Z</time>
      </trkpt>
      <trkpt lat="52.67981" lon="-6.54485">
        <ele>126.22</ele>
        <time>2021-03-20T16:11:04Z</time>
      </trkpt>
      <trkpt lat="52.67951" lon="-6.54494">
        <ele>126.57</ele>
        <time>2021-03-20T16:11:08Z</time>
      </trkpt>
      <trkpt lat="52.67916" lon="-6.54515">
        <ele>126.01</ele>
        <time>2021-03-20T16:11:11Z</time>
      </trkpt>
      <trkpt lat="52.67852" lon="-6.54566">
        <ele>123.71</ele>
        <time>2021-03-20T16:11:15Z</time>
      </trkpt>
      <trkpt lat="52.6782" lon="-6.54583">
        <ele>122.97</ele>
        <time>2021-03-20T16:11:19Z</time>
      </trkpt>
      <trkpt lat="52.67798" lon="-6.54588">
        <ele>123.41</ele>
        <time>2021-03-20T16:11:23Z</time>
      </trkpt>
      <trkpt lat="52.67708" lon="-6.54586">
        <ele>124.6</ele>
        <time>2021-03-20T16:11:27Z</time>
      </trkpt>
      <trkpt lat="52.67682" lon="-6.54592">
        <ele>125.31</ele>
        <time>2021-03-20T16:11:31Z</time>
      </trkpt>
      <trkpt lat="52.67653" lon="-6.54613">
        <ele>126.63</ele>
        <time>2021-03-20T16:11:34Z</time>
      </trkpt>
      <trkpt lat="52.67579" lon="-6.54673">
        <ele>133.39</ele>
        <time>2021-03-20T16:11:38Z</time>
      </trkpt>
      <trkpt lat="52.6752" lon="-6.54702">
        <ele>136.55</ele>
        <time>2021-03-20T16:11:42Z</time>
      </trkpt>
      <trkpt lat="52.67498" lon="-6.54715">
        <ele>137.86</ele>
        <time>2021-03-20T16:11:46Z</time>
      </trkpt>
      <trkpt lat="52.67454" lon="-6.54733">
        <ele>141.7</ele>
        <time>2021-03-20T16:11:50Z</time>
      </trkpt>
      <trkpt lat="52.67374" lon="-6.54771">
        <ele>144.55</ele>
        <time>2021-03-20T16:11:54Z</time>
      </trkpt>
      <trkpt lat="52.6734" lon="-6.54778">
        <ele>145</ele>
        <time>2021-03-20T16:11:57Z</time>
      </trkpt>
      <trkpt lat="52.67304" lon="-6.5479">
        <ele>144.52</ele>
        <time>2021-03-20T16:12:01Z</time>
      </trkpt>
      <trkpt lat="52.67078" lon="-6.54821">
        <ele>132.61</ele>
        <time>2021-03-20T16:12:05Z</time>
      </trkpt>
      <trkpt lat="52.67001" lon="-6.54837">
        <ele>127.25</ele>
        <time>2021-03-20T16:12:09Z</time>
      </trkpt>
      <trkpt lat="52.66876" lon="-6.5487">
        <ele>114.65</ele>
        <time>2021-03-20T16:12:13Z</time>
      </trkpt>
      <trkpt lat="52.66838" lon="-6.54877">
        <ele>111.36</ele>
        <time>2021-03-20T16:12:16Z</time>
      </trkpt>
      <trkpt lat="52.668" lon="-6.54891">
        <ele>108.64</ele>
        <time>2021-03-20T16:12:20Z</time>
      </trkpt>
      <trkpt lat="52.66749" lon="-6.54921">
        <ele>105.96</ele>
        <time>2021-03-20T16:12:24Z</time>
      </trkpt>
      <trkpt lat="52.66712" lon="-6.54933">
        <ele>104.28</ele>
        <time>2021-03-20T16:12:28Z</time>
      </trkpt>
      <trkpt lat="52.66655" lon="-6.54922">
        <ele>101.16</ele>
        <time>2021-03-20T16:12:32Z</time>
      </trkpt>
      <trkpt lat="52.66482" lon="-6.54901">
        <ele>93.93</ele>
        <time>2021-03-20T16:12:36Z</time>
      </trkpt>
      <trkpt lat="52.6646" lon="-6.54905">
        <ele>92.13</ele>
        <time>2021-03-20T16:12:39Z</time>
      </trkpt>
      <trkpt lat="52.66424" lon="-6.54916">
        <ele>90.01</ele>
        <time>2021-03-20T16:12:43Z</time>
      </trkpt>
      <trkpt lat="52.66248" lon="-6.54963">
        <ele>89.32</ele>
        <time>2021-03-20T16:12:47Z</time>
      </trkpt>
      <trkpt lat="52.662" lon="-6.54972">
        <ele>89.97</ele>
        <time>2021-03-20T16:12:51Z</time>
      </trkpt>
      <trkpt lat="52.66181" lon="-6.54978">
        <ele>90.42</ele>
        <time>2021-03-20T16:12:55Z</time>
      </trkpt>
      <trkpt lat="52.6616" lon="-6.54991">
        <ele>91.18</ele>
        <time>2021-03-20T16:12:59Z</time>
      </trkpt>
      <trkpt lat="52.6608" lon="-6.55055">
        <ele>93.97</ele>
        <time>2021-03-20T16:13:02Z</time>
      </trkpt>
      <trkpt lat="52.66049" lon="-6.55075">
        <ele>94.88</ele>
        <time>2021-03-20T16:13:06Z</time>
      </trkpt>
      <trkpt lat="52.65955" lon="-6.55113">
        <ele>98.08</ele>
        <time>2021-03-20T16:13:10Z</time>
      </trkpt>
      <trkpt lat="52.65856" lon="-6.55144">
        <ele>101.18</ele>
        <time>2021-03-20T16:13:14Z</time>
      </trkpt>
      <trkpt lat="52.65718" lon="-6.55229">
        <ele>105.34</ele>
        <time>2021-03-20T16:13:18Z</time>
      </trkpt>
      <trkpt lat="52.65675" lon="-6.55232">
        <ele>106.71</ele>
        <time>2021-03-20T16:13:22Z</time>
      </trkpt>
      <trkpt lat="52.65559" lon="-6.55278">
        <ele>109.99</ele>
        <time>2021-03-20T16:13:25Z</time>
      </trkpt>
      <trkpt lat="52.6554" lon="-6.5528">
        <ele>109.52</ele>
        <time>2021-03-20T16:13:29Z</time>
      </trkpt>
      <trkpt lat="52.65519" lon="-6.55273">
        <ele>108.83</ele>
        <time>2021-03-20T16:13:33Z</time>
      </trkpt>
      <trkpt lat="52.65495" lon="-6.5526">
        <ele>108.29</ele>
        <time>2021-03-20T16:13:37Z</time>
      </trkpt>
      <trkpt lat="52.65478" lon="-6.55258">
        <ele>108.06</ele>
        <time>2021-03-20T16:13:41Z</time>
      </trkpt>
      <trkpt lat="52.65459" lon="-6.55261">
        <ele>107.52</ele>
        <time>2021-03-20T16:13:44Z</time>
      </trkpt>
      <trkpt lat="52.65422" lon="-6.55254">
        <ele>106.18</ele>
        <time>2021-03-20T16:13:48Z</time>
      </trkpt>
      <trkpt lat="52.65333" lon="-6.55242">
        <ele>105.69</ele>
        <time>2021-03-20T16:13:52Z</time>
      </trkpt>
      <trkpt lat="52.65255" lon="-6.55241">
        <ele>103.43</ele>
        <time>2021-03-20T16:13:56Z</time>
      </trkpt>
      <trkpt lat="52.65229" lon="-6.55236">
        <ele>102.37</ele>
        <time>2021-03-20T16:14:00Z</time>
      </trkpt>
      <trkpt lat="52.65203" lon="-6.55225">
        <ele>100.58</ele>
        <time>2021-03-20T16:14:04Z</time>
      </trkpt>
      <trkpt lat="52.65186" lon="-6.5521">
        <ele>99.25</ele>
        <time>2021-03-20T16:14:07Z</time>
      </trkpt>
      <trkpt lat="52.65169" lon="-6.55201">
        <ele>98.32</ele>
        <time>2021-03-20T16:14:11Z</time>
      </trkpt>
      <trkpt lat="52.64902" lon="-6.5514">
        <ele>91</ele>
        <time>2021-03-20T16:14:15Z</time>
      </trkpt>
      <trkpt lat="52.64862" lon="-6.55109">
        <ele>90.97</ele>
        <time>2021-03-20T16:14:19Z</time>
      </trkpt>
      <trkpt lat="52.64842" lon="-6.55096">
        <ele>89.07</ele>
        <time>2021-03-20T16:14:23Z</time>
      </trkpt>
      <trkpt lat="52.64826" lon="-6.55093">
        <ele>87.94</ele>
        <time>2021-03-20T16:14:27Z</time>
      </trkpt>
      <trkpt lat="52.64808" lon="-6.55094">
        <ele>86.88</ele>
        <time>2021-03-20T16:14:30Z</time>
      </trkpt>
      <trkpt lat="52.64737" lon="-6.55125">
        <ele>86.3</ele>
        <time>2021-03-20T16:14:34Z</time>
      </trkpt>
      <trkpt lat="52.64645" lon="-6.55149">
        <ele>78.55</ele>
        <time>2021-03-20T16:14:38Z</time>
      </trkpt>
      <trkpt lat="52.6462" lon="-6.55159">
        <ele>76.67</ele>
        <time>2021-03-20T16:14:42Z</time>
      </trkpt>
      <trkpt lat="52.64607" lon="-6.5517">
        <ele>75.59</ele>
        <time>2021-03-20T16:14:46Z</time>
      </trkpt>
      <trkpt lat="52.64556" lon="-6.55239">
        <ele>74.24</ele>
        <time>2021-03-20T16:14:49Z</time>
      </trkpt>
      <trkpt lat="52.64538" lon="-6.55256">
        <ele>75.23</ele>
        <time>2021-03-20T16:14:53Z</time>
      </trkpt>
      <trkpt lat="52.64508" lon="-6.55276">
        <ele>75.99</ele>
        <time>2021-03-20T16:14:57Z</time>
      </trkpt>
      <trkpt lat="52.64487" lon="-6.55296">
        <ele>76.29</ele>
        <time>2021-03-20T16:15:01Z</time>
      </trkpt>
      <trkpt lat="52.64466" lon="-6.55326">
        <ele>77.18</ele>
        <time>2021-03-20T16:15:05Z</time>
      </trkpt>
      <trkpt lat="52.64425" lon="-6.55389">
        <ele>81.01</ele>
        <time>2021-03-20T16:15:09Z</time>
      </trkpt>
      <trkpt lat="52.64415" lon="-6.55397">
        <ele>81.7</ele>
        <time>2021-03-20T16:15:12Z</time>
      </trkpt>
      <trkpt lat="52.64387" lon="-6.55403">
        <ele>83.57</ele>
        <time>2021-03-20T16:15:16Z</time>
      </trkpt>
      <trkpt lat="52.64363" lon="-6.55402">
        <ele>84.43</ele>
        <time>2021-03-20T16:15:20Z</time>
      </trkpt>
      <trkpt lat="52.64205" lon="-6.55377">
        <ele>82.74</ele>
        <time>2021-03-20T16:15:24Z</time>
      </trkpt>
      <trkpt lat="52.6415" lon="-6.55372">
        <ele>82</ele>
        <time>2021-03-20T16:15:28Z</time>
      </trkpt>
      <trkpt lat="52.64097" lon="-6.55374">
        <ele>79.48</ele>
        <time>2021-03-20T16:15:32Z</time>
      </trkpt>
      <trkpt lat="52.64061" lon="-6.5537">
        <ele>78.2</ele>
        <time>2021-03-20T16:15:35Z</time>
      </trkpt>
      <trkpt lat="52.63983" lon="-6.55345">
        <ele>75.16</ele>
        <time>2021-03-20T16:15:39Z</time>
      </trkpt>
      <trkpt lat="52.63923" lon="-6.55332">
        <ele>72.47</ele>
        <time>2021-03-20T16:15:43Z</time>
      </trkpt>
      <trkpt lat="52.63897" lon="-6.55317">
        <ele>71.59</ele>
        <time>2021-03-20T16:15:47Z</time>
      </trkpt>
      <trkpt lat="52.6387" lon="-6.5529">
        <ele>70.42</ele>
        <time>2021-03-20T16:15:51Z</time>
      </trkpt>
      <trkpt lat="52.63844" lon="-6.55271">
        <ele>69.28</ele>
        <time>2021-03-20T16:15:55Z</time>
      </trkpt>
      <trkpt lat="52.63808" lon="-6.55252">
        <ele>67.09</ele>
        <time>2021-03-20T16:15:58Z</time>
      </trkpt>
      <trkpt lat="52.63706" lon="-6.55214">
        <ele>66.41</ele>
        <time>2021-03-20T16:16:02Z</time>
      </trkpt>
      <trkpt lat="52.63683" lon="-6.55208">
        <ele>66</ele>
        <time>2021-03-20T16:16:06Z</time>
      </trkpt>
      <trkpt lat="52.6355" lon="-6.55214">
        <ele>60.2</ele>
        <time>2021-03-20T16:16:10Z</time>
      </trkpt>
      <trkpt lat="52.63522" lon="-6.552">
        <ele>61</ele>
        <time>2021-03-20T16:16:14Z</time>
      </trkpt>
      <trkpt lat="52.63504" lon="-6.552">
        <ele>61</ele>
        <time>2021-03-20T16:16:17Z</time>
      </trkpt>
      <trkpt lat="52.63487" lon="-6.55207">
        <ele>60.53</ele>
        <time>2021-03-20T16:16:21Z</time>
      </trkpt>
      <trkpt lat="52.63449" lon="-6.55245">
        <ele>59.85</ele>
        <time>2021-03-20T16:16:25Z</time>
      </trkpt>
      <trkpt lat="52.63426" lon="-6.55262">
        <ele>59.63</ele>
        <time>2021-03-20T16:16:29Z</time>
      </trkpt>
      <trkpt lat="52.63358" lon="-6.55298">
        <ele>59.88</ele>
        <time>2021-03-20T16:16:33Z</time>
      </trkpt>
      <trkpt lat="52.63327" lon="-6.55325">
        <ele>58.51</ele>
        <time>2021-03-20T16:16:37Z</time>
      </trkpt>
      <trkpt lat="52.63262" lon="-6.55394">
        <ele>55.8</ele>
        <time>2021-03-20T16:16:40Z</time>
      </trkpt>
      <trkpt lat="52.63227" lon="-6.55439">
        <ele>55.84</ele>
        <time>2021-03-20T16:16:44Z</time>
      </trkpt>
      <trkpt lat="52.6319" lon="-6.55461">
        <ele>56.94</ele>
        <time>2021-03-20T16:16:48Z</time>
      </trkpt>
      <trkpt lat="52.63094" lon="-6.55511">
        <ele>52.79</ele>
        <time>2021-03-20T16:16:52Z</time>
      </trkpt>
      <trkpt lat="52.63085" lon="-6.55519">
        <ele>51.55</ele>
        <time>2021-03-20T16:16:56Z</time>
      </trkpt>
      <trkpt lat="52.63046" lon="-6.55561">
        <ele>47.81</ele>
        <time>2021-03-20T16:17:00Z</time>
      </trkpt>
      <trkpt lat="52.63021" lon="-6.55578">
        <ele>47.45</ele>
        <time>2021-03-20T16:17:03Z</time>
      </trkpt>
      <trkpt lat="52.63004" lon="-6.55583">
        <ele>47.87</ele>
        <time>2021-03-20T16:17:07Z</time>
      </trkpt>
      <trkpt lat="52.62888" lon="-6.55601">
        <ele>54.03</ele>
        <time>2021-03-20T16:17:11Z</time>
      </trkpt>
      <trkpt lat="52.62845" lon="-6.55584">
        <ele>54.99</ele>
        <time>2021-03-20T16:17:15Z</time>
      </trkpt>
      <trkpt lat="52.62794" lon="-6.55538">
        <ele>56.86</ele>
        <time>2021-03-20T16:17:19Z</time>
      </trkpt>
      <trkpt lat="52.62767" lon="-6.55522">
        <ele>58.98</ele>
        <time>2021-03-20T16:17:22Z</time>
      </trkpt>
      <trkpt lat="52.627" lon="-6.55501">
        <ele>64.76</ele>
        <time>2021-03-20T16:17:26Z</time>
      </trkpt>
      <trkpt lat="52.62659" lon="-6.55492">
        <ele>65.64</ele>
        <time>2021-03-20T16:17:30Z</time>
      </trkpt>
      <trkpt lat="52.62597" lon="-6.55486">
        <ele>67</ele>
        <time>2021-03-20T16:17:34Z</time>
      </trkpt>
      <trkpt lat="52.62549" lon="-6.55485">
        <ele>66.08</ele>
        <time>2021-03-20T16:17:38Z</time>
      </trkpt>
      <trkpt lat="52.62485" lon="-6.5549">
        <ele>67.31</ele>
        <time>2021-03-20T16:17:42Z</time>
      </trkpt>
      <trkpt lat="52.62375" lon="-6.55513">
        <ele>60.57</ele>
        <time>2021-03-20T16:17:45Z</time>
      </trkpt>
      <trkpt lat="52.62339" lon="-6.55513">
        <ele>63.47</ele>
        <time>2021-03-20T16:17:49Z</time>
      </trkpt>
      <trkpt lat="52.62244" lon="-6.55476">
        <ele>65.72</ele>
        <time>2021-03-20T16:17:53Z</time>
      </trkpt>
      <trkpt lat="52.62227" lon="-6.55473">
        <ele>65.96</ele>
        <time>2021-03-20T16:17:57Z</time>
      </trkpt>
      <trkpt lat="52.62202" lon="-6.5548">
        <ele>64.69</ele>
        <time>2021-03-20T16:18:01Z</time>
      </trkpt>
      <trkpt lat="52.62091" lon="-6.55537">
        <ele>62.6</ele>
        <time>2021-03-20T16:18:05Z</time>
      </trkpt>
      <trkpt lat="52.62069" lon="-6.55538">
        <ele>63.09</ele>
        <time>2021-03-20T16:18:08Z</time>
      </trkpt>
      <trkpt lat="52.62047" lon="-6.55534">
        <ele>62.67</ele>
        <time>2021-03-20T16:18:12Z</time>
      </trkpt>
      <trkpt lat="52.62026" lon="-6.55527">
        <ele>60.91</ele>
        <time>2021-03-20T16:18:16Z</time>
      </trkpt>
      <trkpt lat="52.61806" lon="-6.55413">
        <ele>59.28</ele>
        <time>2021-03-20T16:18:20Z</time>
      </trkpt>
      <trkpt lat="52.6175" lon="-6.55388">
        <ele>57</ele>
        <time>2021-03-20T16:18:24Z</time>
      </trkpt>
      <trkpt lat="52.61666" lon="-6.55364">
        <ele>54.69</ele>
        <time>2021-03-20T16:18:28Z</time>
      </trkpt>
      <trkpt lat="52.61582" lon="-6.55351">
        <ele>51.31</ele>
        <time>2021-03-20T16:18:31Z</time>
      </trkpt>
      <trkpt lat="52.61542" lon="-6.55336">
        <ele>49.45</ele>
        <time>2021-03-20T16:18:35Z</time>
      </trkpt>
      <trkpt lat="52.61511" lon="-6.55315">
        <ele>49</ele>
        <time>2021-03-20T16:18:39Z</time>
      </trkpt>
      <trkpt lat="52.61442" lon="-6.5524">
        <ele>54.76</ele>
        <time>2021-03-20T16:18:43Z</time>
      </trkpt>
      <trkpt lat="52.61322" lon="-6.55163">
        <ele>52.79</ele>
        <time>2021-03-20T16:18:47Z</time>
      </trkpt>
      <trkpt lat="52.61295" lon="-6.55139">
        <ele>53.02</ele>
        <time>2021-03-20T16:18:50Z</time>
      </trkpt>
      <trkpt lat="52.61215" lon="-6.55073">
        <ele>54.64</ele>
        <time>2021-03-20T16:18:54Z</time>
      </trkpt>
      <trkpt lat="52.6118" lon="-6.55048">
        <ele>55.26</ele>
        <time>2021-03-20T16:18:58Z</time>
      </trkpt>
      <trkpt lat="52.6114" lon="-6.55005">
        <ele>54.88</ele>
        <time>2021-03-20T16:19:02Z</time>
      </trkpt>
      <trkpt lat="52.61108" lon="-6.5499">
        <ele>54.3</ele>
        <time>2021-03-20T16:19:06Z</time>
      </trkpt>
      <trkpt lat="52.61037" lon="-6.54983">
        <ele>52.09</ele>
        <time>2021-03-20T16:19:10Z</time>
      </trkpt>
      <trkpt lat="52.60977" lon="-6.5497">
        <ele>50.25</ele>
        <time>2021-03-20T16:19:13Z</time>
      </trkpt>
      <trkpt lat="52.60809" lon="-6.54896">
        <ele>49.89</ele>
        <time>2021-03-20T16:19:17Z</time>
      </trkpt>
      <trkpt lat="52.60724" lon="-6.54867">
        <ele>47.84</ele>
        <time>2021-03-20T16:19:21Z</time>
      </trkpt>
      <trkpt lat="52.60669" lon="-6.54862">
        <ele>47.91</ele>
        <time>2021-03-20T16:19:25Z</time>
      </trkpt>
      <trkpt lat="52.60566" lon="-6.54861">
        <ele>48.99</ele>
        <time>2021-03-20T16:19:29Z</time>
      </trkpt>
      <trkpt lat="52.60498" lon="-6.54833">
        <ele>52</ele>
        <time>2021-03-20T16:19:33Z</time>
      </trkpt>
      <trkpt lat="52.60465" lon="-6.54825">
        <ele>52</ele>
        <time>2021-03-20T16:19:36Z</time>
      </trkpt>
      <trkpt lat="52.60432" lon="-6.5483">
        <ele>52</ele>
        <time>2021-03-20T16:19:40Z</time>
      </trkpt>
      <trkpt lat="52.60386" lon="-6.54853">
        <ele>50.36</ele>
        <time>2021-03-20T16:19:44Z</time>
      </trkpt>
      <trkpt lat="52.60315" lon="-6.54898">
        <ele>50.69</ele>
        <time>2021-03-20T16:19:48Z</time>
      </trkpt>
      <trkpt lat="52.60302" lon="-6.54884">
        <ele>51.25</ele>
        <time>2021-03-20T16:19:49Z</time>
      </trkpt>
      <trkpt lat="52.60285" lon="-6.54906">
        <ele>51.85</ele>
        <time>2021-03-20T16:19:52Z</time>
      </trkpt>
      <trkpt lat="52.60205" lon="-6.54973">
        <ele>52.62</ele>
        <time>2021-03-20T16:19:55Z</time>
      </trkpt>
      <trkpt lat="52.60178" lon="-6.54992">
        <ele>53.44</ele>
        <time>2021-03-20T16:19:58Z</time>
      </trkpt>
      <trkpt lat="52.60127" lon="-6.55022">
        <ele>55.79</ele>
        <time>2021-03-20T16:20:01Z</time>
      </trkpt>
      <trkpt lat="52.60104" lon="-6.55032">
        <ele>56.15</ele>
        <time>2021-03-20T16:20:04Z</time>
      </trkpt>
      <trkpt lat="52.60081" lon="-6.55051">
        <ele>56.82</ele>
        <time>2021-03-20T16:20:07Z</time>
      </trkpt>
      <trkpt lat="52.60012" lon="-6.55098">
        <ele>57.23</ele>
        <time>2021-03-20T16:20:10Z</time>
      </trkpt>
      <trkpt lat="52.59999" lon="-6.55083">
        <ele>57</ele>
        <time>2021-03-20T16:20:11Z</time>
      </trkpt>
      <trkpt lat="52.59959" lon="-6.55036">
        <ele>55.51</ele>
        <time>2021-03-20T16:20:15Z</time>
      </trkpt>
      <trkpt lat="52.59888" lon="-6.54983">
        <ele>55.97</ele>
        <time>2021-03-20T16:20:19Z</time>
      </trkpt>
      <trkpt lat="52.59845" lon="-6.54933">
        <ele>55.43</ele>
        <time>2021-03-20T16:20:22Z</time>
      </trkpt>
      <trkpt lat="52.59806" lon="-6.54882">
        <ele>55</ele>
        <time>2021-03-20T16:20:26Z</time>
      </trkpt>
      <trkpt lat="52.59798" lon="-6.5488">
        <ele>55</ele>
        <time>2021-03-20T16:20:30Z</time>
      </trkpt>
      <trkpt lat="52.59741" lon="-6.54919">
        <ele>54</ele>
        <time>2021-03-20T16:20:34Z</time>
      </trkpt>
      <trkpt lat="52.59696" lon="-6.54944">
        <ele>53.05</ele>
        <time>2021-03-20T16:20:38Z</time>
      </trkpt>
      <trkpt lat="52.59674" lon="-6.54949">
        <ele>52.15</ele>
        <time>2021-03-20T16:20:42Z</time>
      </trkpt>
      <trkpt lat="52.5965" lon="-6.54942">
        <ele>50.76</ele>
        <time>2021-03-20T16:20:46Z</time>
      </trkpt>
      <trkpt lat="52.59626" lon="-6.5494">
        <ele>49.55</ele>
        <time>2021-03-20T16:20:50Z</time>
      </trkpt>
      <trkpt lat="52.59573" lon="-6.54948">
        <ele>48.55</ele>
        <time>2021-03-20T16:20:53Z</time>
      </trkpt>
      <trkpt lat="52.59511" lon="-6.54946">
        <ele>46.74</ele>
        <time>2021-03-20T16:20:57Z</time>
      </trkpt>
      <trkpt lat="52.59458" lon="-6.54932">
        <ele>40.96</ele>
        <time>2021-03-20T16:21:01Z</time>
      </trkpt>
      <trkpt lat="52.59411" lon="-6.54911">
        <ele>38.95</ele>
        <time>2021-03-20T16:21:05Z</time>
      </trkpt>
      <trkpt lat="52.59391" lon="-6.54904">
        <ele>38.58</ele>
        <time>2021-03-20T16:21:09Z</time>
      </trkpt>
      <trkpt lat="52.59347" lon="-6.54895">
        <ele>38.23</ele>
        <time>2021-03-20T16:21:13Z</time>
      </trkpt>
      <trkpt lat="52.59309" lon="-6.54905">
        <ele>39.46</ele>
        <time>2021-03-20T16:21:17Z</time>
      </trkpt>
      <trkpt lat="52.59272" lon="-6.5491">
        <ele>40.26</ele>
        <time>2021-03-20T16:21:21Z</time>
      </trkpt>
      <trkpt lat="52.59206" lon="-6.54902">
        <ele>41.38</ele>
        <time>2021-03-20T16:21:25Z</time>
      </trkpt>
      <trkpt lat="52.59141" lon="-6.54891">
        <ele>41.87</ele>
        <time>2021-03-20T16:21:29Z</time>
      </trkpt>
      <trkpt lat="52.58958" lon="-6.54825">
        <ele>37.69</ele>
        <time>2021-03-20T16:21:32Z</time>
      </trkpt>
      <trkpt lat="52.58931" lon="-6.54821">
        <ele>36.07</ele>
        <time>2021-03-20T16:21:36Z</time>
      </trkpt>
      <trkpt lat="52.58859" lon="-6.54832">
        <ele>31.08</ele>
        <time>2021-03-20T16:21:40Z</time>
      </trkpt>
      <trkpt lat="52.5883" lon="-6.5484">
        <ele>32.2</ele>
        <time>2021-03-20T16:21:44Z</time>
      </trkpt>
      <trkpt lat="52.5879" lon="-6.54839">
        <ele>35.78</ele>
        <time>2021-03-20T16:21:48Z</time>
      </trkpt>
      <trkpt lat="52.5877" lon="-6.54826">
        <ele>38.9</ele>
        <time>2021-03-20T16:21:52Z</time>
      </trkpt>
      <trkpt lat="52.5871" lon="-6.54742">
        <ele>42.69</ele>
        <time>2021-03-20T16:21:56Z</time>
      </trkpt>
      <trkpt lat="52.5864" lon="-6.54694">
        <ele>46.96</ele>
        <time>2021-03-20T16:22:00Z</time>
      </trkpt>
      <trkpt lat="52.58548" lon="-6.54639">
        <ele>53.51</ele>
        <time>2021-03-20T16:22:04Z</time>
      </trkpt>
      <trkpt lat="52.58456" lon="-6.54577">
        <ele>54.2</ele>
        <time>2021-03-20T16:22:08Z</time>
      </trkpt>
      <trkpt lat="52.58379" lon="-6.54537">
        <ele>54.95</ele>
        <time>2021-03-20T16:22:12Z</time>
      </trkpt>
      <trkpt lat="52.58338" lon="-6.54532">
        <ele>53.2</ele>
        <time>2021-03-20T16:22:15Z</time>
      </trkpt>
      <trkpt lat="52.58302" lon="-6.54552">
        <ele>51</ele>
        <time>2021-03-20T16:22:19Z</time>
      </trkpt>
      <trkpt lat="52.58184" lon="-6.54541">
        <ele>52.64</ele>
        <time>2021-03-20T16:22:23Z</time>
      </trkpt>
      <trkpt lat="52.58119" lon="-6.54541">
        <ele>52.73</ele>
        <time>2021-03-20T16:22:27Z</time>
      </trkpt>
      <trkpt lat="52.58045" lon="-6.54551">
        <ele>52.36</ele>
        <time>2021-03-20T16:22:31Z</time>
      </trkpt>
      <trkpt lat="52.58012" lon="-6.54551">
        <ele>53.48</ele>
        <time>2021-03-20T16:22:35Z</time>
      </trkpt>
      <trkpt lat="52.57952" lon="-6.54539">
        <ele>52.65</ele>
        <time>2021-03-20T16:22:39Z</time>
      </trkpt>
      <trkpt lat="52.57872" lon="-6.54509">
        <ele>53.77</ele>
        <time>2021-03-20T16:22:43Z</time>
      </trkpt>
      <trkpt lat="52.57841" lon="-6.54502">
        <ele>54.92</ele>
        <time>2021-03-20T16:22:47Z</time>
      </trkpt>
      <trkpt lat="52.57816" lon="-6.54506">
        <ele>54.28</ele>
        <time>2021-03-20T16:22:51Z</time>
      </trkpt>
      <trkpt lat="52.57777" lon="-6.54519">
        <ele>53.64</ele>
        <time>2021-03-20T16:22:55Z</time>
      </trkpt>
      <trkpt lat="52.57707" lon="-6.54523">
        <ele>52.84</ele>
        <time>2021-03-20T16:22:58Z</time>
      </trkpt>
      <trkpt lat="52.57643" lon="-6.54518">
        <ele>53.58</ele>
        <time>2021-03-20T16:23:02Z</time>
      </trkpt>
      <trkpt lat="52.57575" lon="-6.54531">
        <ele>53.71</ele>
        <time>2021-03-20T16:23:06Z</time>
      </trkpt>
      <trkpt lat="52.57377" lon="-6.54594">
        <ele>52.75</ele>
        <time>2021-03-20T16:23:10Z</time>
      </trkpt>
      <trkpt lat="52.57286" lon="-6.54619">
        <ele>49.89</ele>
        <time>2021-03-20T16:23:14Z</time>
      </trkpt>
      <trkpt lat="52.57242" lon="-6.54624">
        <ele>50</ele>
        <time>2021-03-20T16:23:18Z</time>
      </trkpt>
      <trkpt lat="52.57208" lon="-6.54613">
        <ele>52.09</ele>
        <time>2021-03-20T16:23:22Z</time>
      </trkpt>
      <trkpt lat="52.57176" lon="-6.54591">
        <ele>52.28</ele>
        <time>2021-03-20T16:23:26Z</time>
      </trkpt>
      <trkpt lat="52.57132" lon="-6.54579">
        <ele>51.84</ele>
        <time>2021-03-20T16:23:30Z</time>
      </trkpt>
      <trkpt lat="52.57088" lon="-6.54572">
        <ele>51.58</ele>
        <time>2021-03-20T16:23:34Z</time>
      </trkpt>
      <trkpt lat="52.57052" lon="-6.54591">
        <ele>52.13</ele>
        <time>2021-03-20T16:23:38Z</time>
      </trkpt>
      <trkpt lat="52.5701" lon="-6.54632">
        <ele>54.07</ele>
        <time>2021-03-20T16:23:41Z</time>
      </trkpt>
      <trkpt lat="52.56987" lon="-6.5465">
        <ele>54.94</ele>
        <time>2021-03-20T16:23:45Z</time>
      </trkpt>
      <trkpt lat="52.56894" lon="-6.54693">
        <ele>60.96</ele>
        <time>2021-03-20T16:23:49Z</time>
      </trkpt>
      <trkpt lat="52.56817" lon="-6.54743">
        <ele>62.15</ele>
        <time>2021-03-20T16:23:53Z</time>
      </trkpt>
      <trkpt lat="52.56791" lon="-6.54752">
        <ele>61.51</ele>
        <time>2021-03-20T16:23:57Z</time>
      </trkpt>
      <trkpt lat="52.56756" lon="-6.54754">
        <ele>59.51</ele>
        <time>2021-03-20T16:24:01Z</time>
      </trkpt>
      <trkpt lat="52.56726" lon="-6.54776">
        <ele>59.08</ele>
        <time>2021-03-20T16:24:05Z</time>
      </trkpt>
      <trkpt lat="52.56657" lon="-6.54864">
        <ele>60</ele>
        <time>2021-03-20T16:24:09Z</time>
      </trkpt>
      <trkpt lat="52.56548" lon="-6.54989">
        <ele>58.11</ele>
        <time>2021-03-20T16:24:13Z</time>
      </trkpt>
      <trkpt lat="52.56514" lon="-6.5504">
        <ele>57.51</ele>
        <time>2021-03-20T16:24:17Z</time>
      </trkpt>
      <trkpt lat="52.565" lon="-6.55053">
        <ele>58</ele>
        <time>2021-03-20T16:24:21Z</time>
      </trkpt>
      <trkpt lat="52.56474" lon="-6.55072">
        <ele>57.44</ele>
        <time>2021-03-20T16:24:24Z</time>
      </trkpt>
      <trkpt lat="52.56441" lon="-6.5509">
        <ele>54.85</ele>
        <time>2021-03-20T16:24:28Z</time>
      </trkpt>
      <trkpt lat="52.56351" lon="-6.55135">
        <ele>52.54</ele>
        <time>2021-03-20T16:24:32Z</time>
      </trkpt>
      <trkpt lat="52.56293" lon="-6.55177">
        <ele>51.48</ele>
        <time>2021-03-20T16:24:36Z</time>
      </trkpt>
      <trkpt lat="52.56216" lon="-6.55315">
        <ele>44.24</ele>
        <time>2021-03-20T16:24:40Z</time>
      </trkpt>
      <trkpt lat="52.56142" lon="-6.55474">
        <ele>41</ele>
        <time>2021-03-20T16:24:44Z</time>
      </trkpt>
      <trkpt lat="52.56116" lon="-6.55549">
        <ele>38.25</ele>
        <time>2021-03-20T16:24:48Z</time>
      </trkpt>
      <trkpt lat="52.56085" lon="-6.55659">
        <ele>31.28</ele>
        <time>2021-03-20T16:24:52Z</time>
      </trkpt>
      <trkpt lat="52.56073" lon="-6.55708">
        <ele>28.11</ele>
        <time>2021-03-20T16:24:56Z</time>
      </trkpt>
      <trkpt lat="52.56049" lon="-6.55832">
        <ele>22.83</ele>
        <time>2021-03-20T16:25:00Z</time>
      </trkpt>
      <trkpt lat="52.56032" lon="-6.55824">
        <ele>22.46</ele>
        <time>2021-03-20T16:25:06Z</time>
      </trkpt>
      <trkpt lat="52.55964" lon="-6.55804">
        <ele>21.08</ele>
        <time>2021-03-20T16:25:12Z</time>
      </trkpt>
      <trkpt lat="52.55914" lon="-6.55784">
        <ele>22.2</ele>
        <time>2021-03-20T16:25:18Z</time>
      </trkpt>
      <trkpt lat="52.55566" lon="-6.55452">
        <ele>21.03</ele>
        <time>2021-03-20T16:25:24Z</time>
      </trkpt>
      <trkpt lat="52.55486" lon="-6.55396">
        <ele>16.48</ele>
        <time>2021-03-20T16:25:30Z</time>
      </trkpt>
      <trkpt lat="52.5537" lon="-6.55305">
        <ele>20.73</ele>
        <time>2021-03-20T16:25:37Z</time>
      </trkpt>
      <trkpt lat="52.55109" lon="-6.55149">
        <ele>11.93</ele>
        <time>2021-03-20T16:25:43Z</time>
      </trkpt>
      <trkpt lat="52.54929" lon="-6.55007">
        <ele>13.17</ele>
        <time>2021-03-20T16:25:49Z</time>
      </trkpt>
      <trkpt lat="52.54852" lon="-6.5495">
        <ele>12</ele>
        <time>2021-03-20T16:25:55Z</time>
      </trkpt>
      <trkpt lat="52.54804" lon="-6.54891">
        <ele>11.8</ele>
        <time>2021-03-20T16:26:01Z</time>
      </trkpt>
      <trkpt lat="52.54783" lon="-6.54858">
        <ele>10.44</ele>
        <time>2021-03-20T16:26:07Z</time>
      </trkpt>
      <trkpt lat="52.54779" lon="-6.54825">
        <ele>11.05</ele>
        <time>2021-03-20T16:26:13Z</time>
      </trkpt>
      <trkpt lat="52.54793" lon="-6.54777">
        <ele>11.56</ele>
        <time>2021-03-20T16:26:20Z</time>
      </trkpt>
      <trkpt lat="52.54797" lon="-6.54759">
        <ele>11.7</ele>
        <time>2021-03-20T16:26:26Z</time>
      </trkpt>
      <trkpt lat="52.54794" lon="-6.54737">
        <ele>12.06</ele>
        <time>2021-03-20T16:26:32Z</time>
      </trkpt>
      <trkpt lat="52.54789" lon="-6.5472">
        <ele>12.4</ele>
        <time>2021-03-20T16:26:38Z</time>
      </trkpt>
      <trkpt lat="52.54743" lon="-6.54759">
        <ele>11</ele>
        <time>2021-03-20T16:26:42Z</time>
      </trkpt>
      <trkpt lat="52.54671" lon="-6.5454">
        <ele>10.51</ele>
        <time>2021-03-20T16:26:47Z</time>
      </trkpt>
      <trkpt lat="52.54657" lon="-6.54507">
        <ele>9.51</ele>
        <time>2021-03-20T16:26:53Z</time>
      </trkpt>
      <trkpt lat="52.54638" lon="-6.54475">
        <ele>10.16</ele>
        <time>2021-03-20T16:26:58Z</time>
      </trkpt>
      <trkpt lat="52.54612" lon="-6.54454">
        <ele>16.92</ele>
        <time>2021-03-20T16:27:04Z</time>
      </trkpt>
      <trkpt lat="52.54592" lon="-6.54448">
        <ele>22.97</ele>
        <time>2021-03-20T16:27:09Z</time>
      </trkpt>
      <trkpt lat="52.54538" lon="-6.54487">
        <ele>24.36</ele>
        <time>2021-03-20T16:27:15Z</time>
      </trkpt>
      <trkpt lat="52.54491" lon="-6.54479">
        <ele>28.82</ele>
        <time>2021-03-20T16:27:20Z</time>
      </trkpt>
      <trkpt lat="52.54445" lon="-6.54446">
        <ele>30.9</ele>
        <time>2021-03-20T16:27:26Z</time>
      </trkpt>
      <trkpt lat="52.54396" lon="-6.544">
        <ele>33.47</ele>
        <time>2021-03-20T16:27:31Z</time>
      </trkpt>
      <trkpt lat="52.54365" lon="-6.54351">
        <ele>34.4</ele>
        <time>2021-03-20T16:27:37Z</time>
      </trkpt>
      <trkpt lat="52.54345" lon="-6.54301">
        <ele>34.27</ele>
        <time>2021-03-20T16:27:43Z</time>
      </trkpt>
      <trkpt lat="52.5432" lon="-6.54225">
        <ele>31.11</ele>
        <time>2021-03-20T16:27:48Z</time>
      </trkpt>
      <trkpt lat="52.54283" lon="-6.54149">
        <ele>31.3</ele>
        <time>2021-03-20T16:27:54Z</time>
      </trkpt>
      <trkpt lat="52.54247" lon="-6.54088">
        <ele>29.9</ele>
        <time>2021-03-20T16:27:59Z</time>
      </trkpt>
      <trkpt lat="52.54167" lon="-6.53936">
        <ele>24.35</ele>
        <time>2021-03-20T16:28:05Z</time>
      </trkpt>
      <trkpt lat="52.54135" lon="-6.5389">
        <ele>24.18</ele>
        <time>2021-03-20T16:28:10Z</time>
      </trkpt>
      <trkpt lat="52.54068" lon="-6.53837">
        <ele>23.23</ele>
        <time>2021-03-20T16:28:16Z</time>
      </trkpt>
      <trkpt lat="52.54061" lon="-6.53778">
        <ele>24.55</ele>
        <time>2021-03-20T16:28:21Z</time>
      </trkpt>
      <trkpt lat="52.54023" lon="-6.53687">
        <ele>23.79</ele>
        <time>2021-03-20T16:28:27Z</time>
      </trkpt>
      <trkpt lat="52.5397" lon="-6.53601">
        <ele>22.86</ele>
        <time>2021-03-20T16:28:32Z</time>
      </trkpt>
      <trkpt lat="52.53933" lon="-6.53517">
        <ele>22.35</ele>
        <time>2021-03-20T16:28:38Z</time>
      </trkpt>
      <trkpt lat="52.53885" lon="-6.53396">
        <ele>18.36</ele>
        <time>2021-03-20T16:28:43Z</time>
      </trkpt>
      <trkpt lat="52.5385" lon="-6.53327">
        <ele>20.8</ele>
        <time>2021-03-20T16:28:49Z</time>
      </trkpt>
      <trkpt lat="52.53775" lon="-6.53224">
        <ele>20.81</ele>
        <time>2021-03-20T16:28:55Z</time>
      </trkpt>
      <trkpt lat="52.53673" lon="-6.53108">
        <ele>19</ele>
        <time>2021-03-20T16:29:00Z</time>
      </trkpt>
      <trkpt lat="52.53601" lon="-6.53029">
        <ele>18.31</ele>
        <time>2021-03-20T16:29:06Z</time>
      </trkpt>
      <trkpt lat="52.53554" lon="-6.52967">
        <ele>16.8</ele>
        <time>2021-03-20T16:29:11Z</time>
      </trkpt>
      <trkpt lat="52.53509" lon="-6.52944">
        <ele>15.28</ele>
        <time>2021-03-20T16:29:17Z</time>
      </trkpt>
      <trkpt lat="52.53437" lon="-6.52943">
        <ele>12.81</ele>
        <time>2021-03-20T16:29:22Z</time>
      </trkpt>
      <trkpt lat="52.53417" lon="-6.52933">
        <ele>12.83</ele>
        <time>2021-03-20T16:29:28Z</time>
      </trkpt>
      <trkpt lat="52.53397" lon="-6.52917">
        <ele>15.42</ele>
        <time>2021-03-20T16:29:33Z</time>
      </trkpt>
      <trkpt lat="52.53346" lon="-6.52886">
        <ele>18.36</ele>
        <time>2021-03-20T16:29:39Z</time>
      </trkpt>
      <trkpt lat="52.53252" lon="-6.52806">
        <ele>24.95</ele>
        <time>2021-03-20T16:29:44Z</time>
      </trkpt>
      <trkpt lat="52.53145" lon="-6.52764">
        <ele>28.72</ele>
        <time>2021-03-20T16:29:50Z</time>
      </trkpt>
      <trkpt lat="52.53065" lon="-6.5275">
        <ele>29.04</ele>
        <time>2021-03-20T16:29:56Z</time>
      </trkpt>
      <trkpt lat="52.52983" lon="-6.52743">
        <ele>28.4</ele>
        <time>2021-03-20T16:30:01Z</time>
      </trkpt>
      <trkpt lat="52.5284" lon="-6.52727">
        <ele>26.68</ele>
        <time>2021-03-20T16:30:07Z</time>
      </trkpt>
      <trkpt lat="52.52688" lon="-6.52756">
        <ele>21.73</ele>
        <time>2021-03-20T16:30:12Z</time>
      </trkpt>
      <trkpt lat="52.52622" lon="-6.52774">
        <ele>18.5</ele>
        <time>2021-03-20T16:30:18Z</time>
      </trkpt>
      <trkpt lat="52.5256" lon="-6.52841">
        <ele>14.32</ele>
        <time>2021-03-20T16:30:23Z</time>
      </trkpt>
      <trkpt lat="52.52508" lon="-6.52912">
        <ele>11.42</ele>
        <time>2021-03-20T16:30:29Z</time>
      </trkpt>
      <trkpt lat="52.5248" lon="-6.52977">
        <ele>12.22</ele>
        <time>2021-03-20T16:30:34Z</time>
      </trkpt>
      <trkpt lat="52.52454" lon="-6.53018">
        <ele>11.71</ele>
        <time>2021-03-20T16:30:40Z</time>
      </trkpt>
      <trkpt lat="52.52431" lon="-6.53025">
        <ele>10.69</ele>
        <time>2021-03-20T16:30:45Z</time>
      </trkpt>
      <trkpt lat="52.52278" lon="-6.53155">
        <ele>6.45</ele>
        <time>2021-03-20T16:30:51Z</time>
      </trkpt>
      <trkpt lat="52.52176" lon="-6.53232">
        <ele>8.27</ele>
        <time>2021-03-20T16:30:57Z</time>
      </trkpt>
      <trkpt lat="52.52001" lon="-6.53345">
        <ele>10.2</ele>
        <time>2021-03-20T16:31:02Z</time>
      </trkpt>
      <trkpt lat="52.51978" lon="-6.53353">
        <ele>8.57</ele>
        <time>2021-03-20T16:31:08Z</time>
      </trkpt>
      <trkpt lat="52.51928" lon="-6.53356">
        <ele>9.78</ele>
        <time>2021-03-20T16:31:13Z</time>
      </trkpt>
      <trkpt lat="52.51869" lon="-6.53387">
        <ele>8.74</ele>
        <time>2021-03-20T16:31:19Z</time>
      </trkpt>
      <trkpt lat="52.51804" lon="-6.53414">
        <ele>10.85</ele>
        <time>2021-03-20T16:31:24Z</time>
      </trkpt>
      <trkpt lat="52.51674" lon="-6.5348">
        <ele>20.53</ele>
        <time>2021-03-20T16:31:30Z</time>
      </trkpt>
      <trkpt lat="52.5162" lon="-6.53505">
        <ele>24.23</ele>
        <time>2021-03-20T16:31:35Z</time>
      </trkpt>
      <trkpt lat="52.51576" lon="-6.53533">
        <ele>29.26</ele>
        <time>2021-03-20T16:31:41Z</time>
      </trkpt>
      <trkpt lat="52.51533" lon="-6.53565">
        <ele>33.58</ele>
        <time>2021-03-20T16:31:46Z</time>
      </trkpt>
      <trkpt lat="52.5149" lon="-6.53602">
        <ele>38.44</ele>
        <time>2021-03-20T16:31:52Z</time>
      </trkpt>
      <trkpt lat="52.51434" lon="-6.53671">
        <ele>40.34</ele>
        <time>2021-03-20T16:31:57Z</time>
      </trkpt>
      <trkpt lat="52.51358" lon="-6.53774">
        <ele>46.52</ele>
        <time>2021-03-20T16:32:03Z</time>
      </trkpt>
      <trkpt lat="52.51317" lon="-6.53835">
        <ele>47.46</ele>
        <time>2021-03-20T16:32:09Z</time>
      </trkpt>
      <trkpt lat="52.51302" lon="-6.53879">
        <ele>48.36</ele>
        <time>2021-03-20T16:32:14Z</time>
      </trkpt>
      <trkpt lat="52.51135" lon="-6.54507">
        <ele>50.22</ele>
        <time>2021-03-20T16:32:20Z</time>
      </trkpt>
      <trkpt lat="52.51092" lon="-6.54656">
        <ele>50.77</ele>
        <time>2021-03-20T16:32:25Z</time>
      </trkpt>
      <trkpt lat="52.51029" lon="-6.54888">
        <ele>40.9</ele>
        <time>2021-03-20T16:32:31Z</time>
      </trkpt>
      <trkpt lat="52.50812" lon="-6.55713">
        <ele>33.03</ele>
        <time>2021-03-20T16:32:36Z</time>
      </trkpt>
      <trkpt lat="52.50822" lon="-6.55825">
        <ele>29.42</ele>
        <time>2021-03-20T16:32:43Z</time>
      </trkpt>
      <trkpt lat="52.50823" lon="-6.55876">
        <ele>27.36</ele>
        <time>2021-03-20T16:32:50Z</time>
      </trkpt>
      <trkpt lat="52.50822" lon="-6.55961">
        <ele>22.38</ele>
        <time>2021-03-20T16:32:58Z</time>
      </trkpt>
      <trkpt lat="52.50816" lon="-6.56025">
        <ele>20.02</ele>
        <time>2021-03-20T16:33:05Z</time>
      </trkpt>
      <trkpt lat="52.50796" lon="-6.56089">
        <ele>19.32</ele>
        <time>2021-03-20T16:33:12Z</time>
      </trkpt>
      <trkpt lat="52.50788" lon="-6.56109">
        <ele>19.31</ele>
        <time>2021-03-20T16:33:19Z</time>
      </trkpt>
      <trkpt lat="52.50753" lon="-6.56171">
        <ele>20.16</ele>
        <time>2021-03-20T16:33:26Z</time>
      </trkpt>
      <trkpt lat="52.50693" lon="-6.56242">
        <ele>20.66</ele>
        <time>2021-03-20T16:33:33Z</time>
      </trkpt>
      <trkpt lat="52.50577" lon="-6.56351">
        <ele>19.09</ele>
        <time>2021-03-20T16:33:40Z</time>
      </trkpt>
      <trkpt lat="52.50491" lon="-6.56442">
        <ele>14.44</ele>
        <time>2021-03-20T16:33:47Z</time>
      </trkpt>
      <trkpt lat="52.50459" lon="-6.56478">
        <ele>13.7</ele>
        <time>2021-03-20T16:33:54Z</time>
      </trkpt>
      <trkpt lat="52.50444" lon="-6.56504">
        <ele>11.81</ele>
        <time>2021-03-20T16:34:01Z</time>
      </trkpt>
      <trkpt lat="52.50431" lon="-6.56515">
        <ele>10.94</ele>
        <time>2021-03-20T16:34:08Z</time>
      </trkpt>
      <trkpt lat="52.50371" lon="-6.56506">
        <ele>10.43</ele>
        <time>2021-03-20T16:34:15Z</time>
      </trkpt>
      <trkpt lat="52.50353" lon="-6.56507">
        <ele>10.66</ele>
        <time>2021-03-20T16:34:22Z</time>
      </trkpt>
      <trkpt lat="52.50323" lon="-6.56529">
        <ele>8.55</ele>
        <time>2021-03-20T16:34:30Z</time>
      </trkpt>
      <trkpt lat="52.50263" lon="-6.56555">
        <ele>6.96</ele>
        <time>2021-03-20T16:34:37Z</time>
      </trkpt>
      <trkpt lat="52.5024" lon="-6.56552">
        <ele>5.78</ele>
        <time>2021-03-20T16:34:44Z</time>
      </trkpt>
      <trkpt lat="52.50203" lon="-6.56511">
        <ele>5.91</ele>
        <time>2021-03-20T16:34:51Z</time>
      </trkpt>
      <trkpt lat="52.50127" lon="-6.56416">
        <ele>7.72</ele>
        <time>2021-03-20T16:34:58Z</time>
      </trkpt>
      <trkpt lat="52.50097" lon="-6.56395">
        <ele>6.64</ele>
        <time>2021-03-20T16:35:05Z</time>
      </trkpt>
      <trkpt lat="52.50082" lon="-6.56395">
        <ele>5.9</ele>
        <time>2021-03-20T16:35:12Z</time>
      </trkpt>
      <trkpt lat="52.50053" lon="-6.56388">
        <ele>8.32</ele>
        <time>2021-03-20T16:35:19Z</time>
      </trkpt>
      <trkpt lat="52.50014" lon="-6.56388">
        <ele>14.96</ele>
        <time>2021-03-20T16:35:26Z</time>
      </trkpt>
      <trkpt lat="52.49988" lon="-6.56393">
        <ele>19.39</ele>
        <time>2021-03-20T16:35:33Z</time>
      </trkpt>
      <trkpt lat="52.49928" lon="-6.5643">
        <ele>18.3</ele>
        <time>2021-03-20T16:35:40Z</time>
      </trkpt>
      <trkpt lat="52.49875" lon="-6.56451">
        <ele>19.49</ele>
        <time>2021-03-20T16:35:47Z</time>
      </trkpt>
      <trkpt lat="52.49819" lon="-6.56487">
        <ele>17.49</ele>
        <time>2021-03-20T16:35:54Z</time>
      </trkpt>
      <trkpt lat="52.49736" lon="-6.56536">
        <ele>14.8</ele>
        <time>2021-03-20T16:36:02Z</time>
      </trkpt>
      <trkpt lat="52.4969" lon="-6.56554">
        <ele>12.85</ele>
        <time>2021-03-20T16:36:09Z</time>
      </trkpt>
      <trkpt lat="52.49642" lon="-6.56567">
        <ele>14.31</ele>
        <time>2021-03-20T16:36:16Z</time>
      </trkpt>
      <trkpt lat="52.4955" lon="-6.56569">
        <ele>8.39</ele>
        <time>2021-03-20T16:36:23Z</time>
      </trkpt>
      <trkpt lat="52.49505" lon="-6.56567">
        <ele>7.8</ele>
        <time>2021-03-20T16:36:30Z</time>
      </trkpt>
      <trkpt lat="52.49381" lon="-6.56537">
        <ele>10.76</ele>
        <time>2021-03-20T16:36:37Z</time>
      </trkpt>
      <trkpt lat="52.49255" lon="-6.56527">
        <ele>9.12</ele>
        <time>2021-03-20T16:36:44Z</time>
      </trkpt>
      <trkpt lat="52.492" lon="-6.56533">
        <ele>9.31</ele>
        <time>2021-03-20T16:36:51Z</time>
      </trkpt>
      <trkpt lat="52.49164" lon="-6.5654">
        <ele>11.34</ele>
        <time>2021-03-20T16:36:58Z</time>
      </trkpt>
      <trkpt lat="52.49021" lon="-6.56593">
        <ele>15.91</ele>
        <time>2021-03-20T16:37:05Z</time>
      </trkpt>
      <trkpt lat="52.48942" lon="-6.56604">
        <ele>17.51</ele>
        <time>2021-03-20T16:37:12Z</time>
      </trkpt>
      <trkpt lat="52.48843" lon="-6.56597">
        <ele>17.15</ele>
        <time>2021-03-20T16:37:19Z</time>
      </trkpt>
      <trkpt lat="52.48633" lon="-6.56532">
        <ele>15.73</ele>
        <time>2021-03-20T16:37:26Z</time>
      </trkpt>
      <trkpt lat="52.4815" lon="-6.56452">
        <ele>6.35</ele>
        <time>2021-03-20T16:37:34Z</time>
      </trkpt>
      <trkpt lat="52.48052" lon="-6.5643">
        <ele>8.44</ele>
        <time>2021-03-20T16:37:41Z</time>
      </trkpt>
      <trkpt lat="52.4796" lon="-6.56405">
        <ele>4.42</ele>
        <time>2021-03-20T16:37:48Z</time>
      </trkpt>
      <trkpt lat="52.47894" lon="-6.56383">
        <ele>5.43</ele>
        <time>2021-03-20T16:37:55Z</time>
      </trkpt>
      <trkpt lat="52.47826" lon="-6.56355">
        <ele>6.18</ele>
        <time>2021-03-20T16:38:02Z</time>
      </trkpt>
      <trkpt lat="52.47524" lon="-6.5625">
        <ele>2.88</ele>
        <time>2021-03-20T16:38:09Z</time>
      </trkpt>
      <trkpt lat="52.47322" lon="-6.56193">
        <ele>2.52</ele>
        <time>2021-03-20T16:38:16Z</time>
      </trkpt>
      <trkpt lat="52.46929" lon="-6.56128">
        <ele>9.52</ele>
        <time>2021-03-20T16:38:23Z</time>
      </trkpt>
      <trkpt lat="52.46583" lon="-6.56065">
        <ele>5.33</ele>
        <time>2021-03-20T16:38:30Z</time>
      </trkpt>
      <trkpt lat="52.46473" lon="-6.56048">
        <ele>4.58</ele>
        <time>2021-03-20T16:38:37Z</time>
      </trkpt>
      <trkpt lat="52.4637" lon="-6.56023">
        <ele>7.06</ele>
        <time>2021-03-20T16:38:44Z</time>
      </trkpt>
      <trkpt lat="52.46282" lon="-6.55996">
        <ele>6.29</ele>
        <time>2021-03-20T16:38:51Z</time>
      </trkpt>
      <trkpt lat="52.4619" lon="-6.55961">
        <ele>6.41</ele>
        <time>2021-03-20T16:38:58Z</time>
      </trkpt>
      <trkpt lat="52.46116" lon="-6.55929">
        <ele>9.65</ele>
        <time>2021-03-20T16:39:06Z</time>
      </trkpt>
      <trkpt lat="52.46042" lon="-6.55891">
        <ele>9.46</ele>
        <time>2021-03-20T16:39:13Z</time>
      </trkpt>
      <trkpt lat="52.4577" lon="-6.55739">
        <ele>9.12</ele>
        <time>2021-03-20T16:39:20Z</time>
      </trkpt>
      <trkpt lat="52.45626" lon="-6.55666">
        <ele>9.02</ele>
        <time>2021-03-20T16:39:27Z</time>
      </trkpt>
      <trkpt lat="52.45552" lon="-6.55625">
        <ele>10.94</ele>
        <time>2021-03-20T16:39:34Z</time>
      </trkpt>
      <trkpt lat="52.45486" lon="-6.5558">
        <ele>8.49</ele>
        <time>2021-03-20T16:39:41Z</time>
      </trkpt>
      <trkpt lat="52.45476" lon="-6.55625">
        <ele>8.51</ele>
        <time>2021-03-20T16:39:46Z</time>
      </trkpt>
      <trkpt lat="52.45464" lon="-6.55941">
        <ele>3</ele>
        <time>2021-03-20T16:39:52Z</time>
      </trkpt>
      <trkpt lat="52.45454" lon="-6.56012">
        <ele>2.56</ele>
        <time>2021-03-20T16:39:57Z</time>
      </trkpt>
      <trkpt lat="52.45434" lon="-6.56135">
        <ele>-0.47</ele>
        <time>2021-03-20T16:40:03Z</time>
      </trkpt>
      <trkpt lat="52.45416" lon="-6.56265">
        <ele>-1</ele>
        <time>2021-03-20T16:40:08Z</time>
      </trkpt>
      <trkpt lat="52.45403" lon="-6.56399">
        <ele>4.85</ele>
        <time>2021-03-20T16:40:13Z</time>
      </trkpt>
      <trkpt lat="52.45343" lon="-6.56667">
        <ele>9.06</ele>
        <time>2021-03-20T16:40:19Z</time>
      </trkpt>
      <trkpt lat="52.45335" lon="-6.56739">
        <ele>8.59</ele>
        <time>2021-03-20T16:40:24Z</time>
      </trkpt>
      <trkpt lat="52.45346" lon="-6.568">
        <ele>8.21</ele>
        <time>2021-03-20T16:40:30Z</time>
      </trkpt>
      <trkpt lat="52.4536" lon="-6.56861">
        <ele>6.96</ele>
        <time>2021-03-20T16:40:35Z</time>
      </trkpt>
      <trkpt lat="52.45376" lon="-6.56961">
        <ele>5.06</ele>
        <time>2021-03-20T16:40:40Z</time>
      </trkpt>
      <trkpt lat="52.45378" lon="-6.57071">
        <ele>2.38</ele>
        <time>2021-03-20T16:40:46Z</time>
      </trkpt>
      <trkpt lat="52.45386" lon="-6.57188">
        <ele>3.08</ele>
        <time>2021-03-20T16:40:51Z</time>
      </trkpt>
      <trkpt lat="52.45384" lon="-6.57248">
        <ele>4.31</ele>
        <time>2021-03-20T16:40:57Z</time>
      </trkpt>
      <trkpt lat="52.45372" lon="-6.5736">
        <ele>7.2</ele>
        <time>2021-03-20T16:41:02Z</time>
      </trkpt>
      <trkpt lat="52.45425" lon="-6.57663">
        <ele>7.72</ele>
        <time>2021-03-20T16:41:07Z</time>
      </trkpt>
      <trkpt lat="52.45447" lon="-6.57808">
        <ele>12.91</ele>
        <time>2021-03-20T16:41:13Z</time>
      </trkpt>
      <trkpt lat="52.45289" lon="-6.57793">
        <ele>21.68</ele>
        <time>2021-03-20T16:41:16Z</time>
      </trkpt>
      <trkpt lat="52.45213" lon="-6.57778">
        <ele>25.36</ele>
        <time>2021-03-20T16:41:20Z</time>
      </trkpt>
      <trkpt lat="52.45045" lon="-6.57759">
        <ele>36.59</ele>
        <time>2021-03-20T16:41:24Z</time>
      </trkpt>
      <trkpt lat="52.45024" lon="-6.57752">
        <ele>39.43</ele>
        <time>2021-03-20T16:41:27Z</time>
      </trkpt>
      <trkpt lat="52.45003" lon="-6.57742">
        <ele>41.69</ele>
        <time>2021-03-20T16:41:31Z</time>
      </trkpt>
      <trkpt lat="52.44964" lon="-6.57706">
        <ele>43.46</ele>
        <time>2021-03-20T16:41:35Z</time>
      </trkpt>
      <trkpt lat="52.44933" lon="-6.57683">
        <ele>46.67</ele>
        <time>2021-03-20T16:41:38Z</time>
      </trkpt>
      <trkpt lat="52.44904" lon="-6.57665">
        <ele>49.04</ele>
        <time>2021-03-20T16:41:42Z</time>
      </trkpt>
      <trkpt lat="52.44809" lon="-6.57619">
        <ele>48.42</ele>
        <time>2021-03-20T16:41:46Z</time>
      </trkpt>
      <trkpt lat="52.44784" lon="-6.57609">
        <ele>49.07</ele>
        <time>2021-03-20T16:41:49Z</time>
      </trkpt>
      <trkpt lat="52.4476" lon="-6.57604">
        <ele>49.26</ele>
        <time>2021-03-20T16:41:53Z</time>
      </trkpt>
      <trkpt lat="52.44729" lon="-6.57587">
        <ele>49.22</ele>
        <time>2021-03-20T16:41:57Z</time>
      </trkpt>
      <trkpt lat="52.44699" lon="-6.57564">
        <ele>48.3</ele>
        <time>2021-03-20T16:42:00Z</time>
      </trkpt>
      <trkpt lat="52.44675" lon="-6.57554">
        <ele>48.72</ele>
        <time>2021-03-20T16:42:04Z</time>
      </trkpt>
      <trkpt lat="52.44623" lon="-6.5755">
        <ele>46.92</ele>
        <time>2021-03-20T16:42:08Z</time>
      </trkpt>
      <trkpt lat="52.44581" lon="-6.5756">
        <ele>43.2</ele>
        <time>2021-03-20T16:42:11Z</time>
      </trkpt>
      <trkpt lat="52.4448" lon="-6.57589">
        <ele>41.92</ele>
        <time>2021-03-20T16:42:15Z</time>
      </trkpt>
      <trkpt lat="52.44309" lon="-6.57608">
        <ele>31.71</ele>
        <time>2021-03-20T16:42:19Z</time>
      </trkpt>
      <trkpt lat="52.44204" lon="-6.57635">
        <ele>28.5</ele>
        <time>2021-03-20T16:42:22Z</time>
      </trkpt>
      <trkpt lat="52.44111" lon="-6.57667">
        <ele>23.04</ele>
        <time>2021-03-20T16:42:26Z</time>
      </trkpt>
      <trkpt lat="52.44052" lon="-6.5768">
        <ele>23.93</ele>
        <time>2021-03-20T16:42:30Z</time>
      </trkpt>
      <trkpt lat="52.43992" lon="-6.57684">
        <ele>23.7</ele>
        <time>2021-03-20T16:42:33Z</time>
      </trkpt>
      <trkpt lat="52.43926" lon="-6.57683">
        <ele>22.61</ele>
        <time>2021-03-20T16:42:37Z</time>
      </trkpt>
      <trkpt lat="52.43859" lon="-6.57687">
        <ele>17.98</ele>
        <time>2021-03-20T16:42:41Z</time>
      </trkpt>
      <trkpt lat="52.43805" lon="-6.57695">
        <ele>12</ele>
        <time>2021-03-20T16:42:44Z</time>
      </trkpt>
      <trkpt lat="52.43768" lon="-6.57704">
        <ele>12.73</ele>
        <time>2021-03-20T16:42:48Z</time>
      </trkpt>
      <trkpt lat="52.43743" lon="-6.57722">
        <ele>14.48</ele>
        <time>2021-03-20T16:42:52Z</time>
      </trkpt>
      <trkpt lat="52.43728" lon="-6.57739">
        <ele>16.23</ele>
        <time>2021-03-20T16:42:55Z</time>
      </trkpt>
      <trkpt lat="52.43711" lon="-6.57767">
        <ele>18.58</ele>
        <time>2021-03-20T16:42:59Z</time>
      </trkpt>
      <trkpt lat="52.43676" lon="-6.57838">
        <ele>23.72</ele>
        <time>2021-03-20T16:43:02Z</time>
      </trkpt>
      <trkpt lat="52.43665" lon="-6.57864">
        <ele>24</ele>
        <time>2021-03-20T16:43:06Z</time>
      </trkpt>
      <trkpt lat="52.43648" lon="-6.57889">
        <ele>24</ele>
        <time>2021-03-20T16:43:10Z</time>
      </trkpt>
      <trkpt lat="52.43633" lon="-6.57905">
        <ele>24.13</ele>
        <time>2021-03-20T16:43:13Z</time>
      </trkpt>
      <trkpt lat="52.43611" lon="-6.57917">
        <ele>25.05</ele>
        <time>2021-03-20T16:43:17Z</time>
      </trkpt>
      <trkpt lat="52.43589" lon="-6.57915">
        <ele>26.51</ele>
        <time>2021-03-20T16:43:21Z</time>
      </trkpt>
      <trkpt lat="52.43545" lon="-6.57899">
        <ele>27.74</ele>
        <time>2021-03-20T16:43:24Z</time>
      </trkpt>
      <trkpt lat="52.43405" lon="-6.57853">
        <ele>33.94</ele>
        <time>2021-03-20T16:43:28Z</time>
      </trkpt>
      <trkpt lat="52.43353" lon="-6.57833">
        <ele>35.25</ele>
        <time>2021-03-20T16:43:32Z</time>
      </trkpt>
      <trkpt lat="52.43295" lon="-6.57805">
        <ele>33.99</ele>
        <time>2021-03-20T16:43:35Z</time>
      </trkpt>
      <trkpt lat="52.43259" lon="-6.57796">
        <ele>33.65</ele>
        <time>2021-03-20T16:43:39Z</time>
      </trkpt>
      <trkpt lat="52.43162" lon="-6.57792">
        <ele>34.67</ele>
        <time>2021-03-20T16:43:43Z</time>
      </trkpt>
      <trkpt lat="52.43132" lon="-6.57796">
        <ele>35.9</ele>
        <time>2021-03-20T16:43:46Z</time>
      </trkpt>
      <trkpt lat="52.43094" lon="-6.57801">
        <ele>36.94</ele>
        <time>2021-03-20T16:43:50Z</time>
      </trkpt>
      <trkpt lat="52.4301" lon="-6.57822">
        <ele>37.6</ele>
        <time>2021-03-20T16:43:54Z</time>
      </trkpt>
      <trkpt lat="52.42951" lon="-6.5784">
        <ele>38</ele>
        <time>2021-03-20T16:43:57Z</time>
      </trkpt>
      <trkpt lat="52.42923" lon="-6.57855">
        <ele>37.22</ele>
        <time>2021-03-20T16:44:01Z</time>
      </trkpt>
      <trkpt lat="52.42908" lon="-6.57866">
        <ele>36.68</ele>
        <time>2021-03-20T16:44:05Z</time>
      </trkpt>
      <trkpt lat="52.42858" lon="-6.57915">
        <ele>34.92</ele>
        <time>2021-03-20T16:44:08Z</time>
      </trkpt>
      <trkpt lat="52.42789" lon="-6.57961">
        <ele>29.64</ele>
        <time>2021-03-20T16:44:12Z</time>
      </trkpt>
      <trkpt lat="52.42713" lon="-6.5804">
        <ele>21.03</ele>
        <time>2021-03-20T16:44:16Z</time>
      </trkpt>
      <trkpt lat="52.42695" lon="-6.58086">
        <ele>21.09</ele>
        <time>2021-03-20T16:44:19Z</time>
      </trkpt>
      <trkpt lat="52.42684" lon="-6.58099">
        <ele>20.81</ele>
        <time>2021-03-20T16:44:23Z</time>
      </trkpt>
      <trkpt lat="52.42636" lon="-6.58129">
        <ele>19.02</ele>
        <time>2021-03-20T16:44:27Z</time>
      </trkpt>
      <trkpt lat="52.42598" lon="-6.58167">
        <ele>15.59</ele>
        <time>2021-03-20T16:44:30Z</time>
      </trkpt>
      <trkpt lat="52.42559" lon="-6.58213">
        <ele>13.82</ele>
        <time>2021-03-20T16:44:34Z</time>
      </trkpt>
      <trkpt lat="52.4255" lon="-6.58221">
        <ele>13.74</ele>
        <time>2021-03-20T16:44:38Z</time>
      </trkpt>
      <trkpt lat="52.42533" lon="-6.58229">
        <ele>13.43</ele>
        <time>2021-03-20T16:44:41Z</time>
      </trkpt>
      <trkpt lat="52.42471" lon="-6.58229">
        <ele>5.2</ele>
        <time>2021-03-20T16:44:45Z</time>
      </trkpt>
      <trkpt lat="52.42451" lon="-6.58223">
        <ele>4.27</ele>
        <time>2021-03-20T16:44:48Z</time>
      </trkpt>
      <trkpt lat="52.42435" lon="-6.58215">
        <ele>4.35</ele>
        <time>2021-03-20T16:44:52Z</time>
      </trkpt>
      <trkpt lat="52.42401" lon="-6.58193">
        <ele>5</ele>
        <time>2021-03-20T16:44:56Z</time>
      </trkpt>
      <trkpt lat="52.42392" lon="-6.58182">
        <ele>5.34</ele>
        <time>2021-03-20T16:44:59Z</time>
      </trkpt>
      <trkpt lat="52.4233" lon="-6.58042">
        <ele>7.36</ele>
        <time>2021-03-20T16:45:03Z</time>
      </trkpt>
      <trkpt lat="52.4232" lon="-6.58024">
        <ele>8.4</ele>
        <time>2021-03-20T16:45:07Z</time>
      </trkpt>
      <trkpt lat="52.42309" lon="-6.58013">
        <ele>9.14</ele>
        <time>2021-03-20T16:45:10Z</time>
      </trkpt>
      <trkpt lat="52.42274" lon="-6.57995">
        <ele>10.95</ele>
        <time>2021-03-20T16:45:14Z</time>
      </trkpt>
      <trkpt lat="52.42105" lon="-6.57923">
        <ele>17.22</ele>
        <time>2021-03-20T16:45:18Z</time>
      </trkpt>
      <trkpt lat="52.42052" lon="-6.57897">
        <ele>18.53</ele>
        <time>2021-03-20T16:45:21Z</time>
      </trkpt>
      <trkpt lat="52.41946" lon="-6.57855">
        <ele>29.08</ele>
        <time>2021-03-20T16:45:25Z</time>
      </trkpt>
      <trkpt lat="52.41882" lon="-6.57827">
        <ele>33.73</ele>
        <time>2021-03-20T16:45:29Z</time>
      </trkpt>
      <trkpt lat="52.41669" lon="-6.5771">
        <ele>50.15</ele>
        <time>2021-03-20T16:45:32Z</time>
      </trkpt>
      <trkpt lat="52.41623" lon="-6.57679">
        <ele>52.97</ele>
        <time>2021-03-20T16:45:36Z</time>
      </trkpt>
      <trkpt lat="52.41569" lon="-6.57643">
        <ele>52.84</ele>
        <time>2021-03-20T16:45:40Z</time>
      </trkpt>
      <trkpt lat="52.41519" lon="-6.57608">
        <ele>53.82</ele>
        <time>2021-03-20T16:45:43Z</time>
      </trkpt>
      <trkpt lat="52.41446" lon="-6.57549">
        <ele>51.17</ele>
        <time>2021-03-20T16:45:47Z</time>
      </trkpt>
      <trkpt lat="52.41436" lon="-6.57537">
        <ele>50.71</ele>
        <time>2021-03-20T16:45:51Z</time>
      </trkpt>
      <trkpt lat="52.41423" lon="-6.57511">
        <ele>50.24</ele>
        <time>2021-03-20T16:45:54Z</time>
      </trkpt>
      <trkpt lat="52.41415" lon="-6.57499">
        <ele>50</ele>
        <time>2021-03-20T16:45:58Z</time>
      </trkpt>
      <trkpt lat="52.41394" lon="-6.57479">
        <ele>50</ele>
        <time>2021-03-20T16:46:02Z</time>
      </trkpt>
      <trkpt lat="52.41302" lon="-6.57455">
        <ele>47.33</ele>
        <time>2021-03-20T16:46:05Z</time>
      </trkpt>
      <trkpt lat="52.41241" lon="-6.57443">
        <ele>46.66</ele>
        <time>2021-03-20T16:46:09Z</time>
      </trkpt>
      <trkpt lat="52.41184" lon="-6.5743">
        <ele>45.61</ele>
        <time>2021-03-20T16:46:13Z</time>
      </trkpt>
      <trkpt lat="52.40902" lon="-6.57339">
        <ele>33.79</ele>
        <time>2021-03-20T16:46:16Z</time>
      </trkpt>
      <trkpt lat="52.40835" lon="-6.57317">
        <ele>32.74</ele>
        <time>2021-03-20T16:46:20Z</time>
      </trkpt>
      <trkpt lat="52.40795" lon="-6.573">
        <ele>32.94</ele>
        <time>2021-03-20T16:46:24Z</time>
      </trkpt>
      <trkpt lat="52.40765" lon="-6.57293">
        <ele>32.24</ele>
        <time>2021-03-20T16:46:27Z</time>
      </trkpt>
      <trkpt lat="52.40719" lon="-6.57271">
        <ele>30.52</ele>
        <time>2021-03-20T16:46:31Z</time>
      </trkpt>
      <trkpt lat="52.40632" lon="-6.57221">
        <ele>22.99</ele>
        <time>2021-03-20T16:46:34Z</time>
      </trkpt>
      <trkpt lat="52.40608" lon="-6.57212">
        <ele>19.9</ele>
        <time>2021-03-20T16:46:38Z</time>
      </trkpt>
      <trkpt lat="52.40565" lon="-6.57247">
        <ele>18.34</ele>
        <time>2021-03-20T16:46:42Z</time>
      </trkpt>
      <trkpt lat="52.40503" lon="-6.57326">
        <ele>22.68</ele>
        <time>2021-03-20T16:46:45Z</time>
      </trkpt>
      <trkpt lat="52.40389" lon="-6.57409">
        <ele>27</ele>
        <time>2021-03-20T16:46:49Z</time>
      </trkpt>
      <trkpt lat="52.40364" lon="-6.57424">
        <ele>27.88</ele>
        <time>2021-03-20T16:46:53Z</time>
      </trkpt>
      <trkpt lat="52.40288" lon="-6.57444">
        <ele>34.62</ele>
        <time>2021-03-20T16:46:56Z</time>
      </trkpt>
      <trkpt lat="52.40255" lon="-6.57481">
        <ele>35.31</ele>
        <time>2021-03-20T16:47:00Z</time>
      </trkpt>
      <trkpt lat="52.40228" lon="-6.57502">
        <ele>35.72</ele>
        <time>2021-03-20T16:47:04Z</time>
      </trkpt>
      <trkpt lat="52.40201" lon="-6.57512">
        <ele>36.36</ele>
        <time>2021-03-20T16:47:07Z</time>
      </trkpt>
      <trkpt lat="52.40165" lon="-6.57515">
        <ele>38.03</ele>
        <time>2021-03-20T16:47:11Z</time>
      </trkpt>
      <trkpt lat="52.40128" lon="-6.57524">
        <ele>38.85</ele>
        <time>2021-03-20T16:47:15Z</time>
      </trkpt>
      <trkpt lat="52.40076" lon="-6.57537">
        <ele>39</ele>
        <time>2021-03-20T16:47:18Z</time>
      </trkpt>
      <trkpt lat="52.40011" lon="-6.57558">
        <ele>36.29</ele>
        <time>2021-03-20T16:47:22Z</time>
      </trkpt>
      <trkpt lat="52.39975" lon="-6.57578">
        <ele>36.08</ele>
        <time>2021-03-20T16:47:26Z</time>
      </trkpt>
      <trkpt lat="52.3988" lon="-6.5767">
        <ele>31.86</ele>
        <time>2021-03-20T16:47:29Z</time>
      </trkpt>
      <trkpt lat="52.39836" lon="-6.57706">
        <ele>31</ele>
        <time>2021-03-20T16:47:33Z</time>
      </trkpt>
      <trkpt lat="52.39803" lon="-6.57722">
        <ele>31.08</ele>
        <time>2021-03-20T16:47:37Z</time>
      </trkpt>
      <trkpt lat="52.39772" lon="-6.5773">
        <ele>32.26</ele>
        <time>2021-03-20T16:47:40Z</time>
      </trkpt>
      <trkpt lat="52.39724" lon="-6.57729">
        <ele>32.23</ele>
        <time>2021-03-20T16:47:44Z</time>
      </trkpt>
      <trkpt lat="52.39682" lon="-6.57734">
        <ele>32.69</ele>
        <time>2021-03-20T16:47:48Z</time>
      </trkpt>
      <trkpt lat="52.39631" lon="-6.57747">
        <ele>34.56</ele>
        <time>2021-03-20T16:47:51Z</time>
      </trkpt>
      <trkpt lat="52.39592" lon="-6.57774">
        <ele>36.67</ele>
        <time>2021-03-20T16:47:55Z</time>
      </trkpt>
      <trkpt lat="52.3952" lon="-6.57814">
        <ele>40</ele>
        <time>2021-03-20T16:47:59Z</time>
      </trkpt>
      <trkpt lat="52.39476" lon="-6.57828">
        <ele>40</ele>
        <time>2021-03-20T16:48:02Z</time>
      </trkpt>
      <trkpt lat="52.39416" lon="-6.57837">
        <ele>44.92</ele>
        <time>2021-03-20T16:48:06Z</time>
      </trkpt>
      <trkpt lat="52.39402" lon="-6.57836">
        <ele>46.49</ele>
        <time>2021-03-20T16:48:09Z</time>
      </trkpt>
      <trkpt lat="52.39394" lon="-6.57825">
        <ele>47.5</ele>
        <time>2021-03-20T16:48:13Z</time>
      </trkpt>
      <trkpt lat="52.39381" lon="-6.57798">
        <ele>48.02</ele>
        <time>2021-03-20T16:48:17Z</time>
      </trkpt>
      <trkpt lat="52.39357" lon="-6.57718">
        <ele>47.58</ele>
        <time>2021-03-20T16:48:20Z</time>
      </trkpt>
      <trkpt lat="52.39346" lon="-6.57687">
        <ele>48.51</ele>
        <time>2021-03-20T16:48:24Z</time>
      </trkpt>
      <trkpt lat="52.39327" lon="-6.57668">
        <ele>50.12</ele>
        <time>2021-03-20T16:48:28Z</time>
      </trkpt>
      <trkpt lat="52.39304" lon="-6.57666">
        <ele>54.17</ele>
        <time>2021-03-20T16:48:31Z</time>
      </trkpt>
      <trkpt lat="52.39272" lon="-6.5769">
        <ele>58.04</ele>
        <time>2021-03-20T16:48:35Z</time>
      </trkpt>
      <trkpt lat="52.39228" lon="-6.57708">
        <ele>58.6</ele>
        <time>2021-03-20T16:48:39Z</time>
      </trkpt>
      <trkpt lat="52.39183" lon="-6.57707">
        <ele>57.04</ele>
        <time>2021-03-20T16:48:42Z</time>
      </trkpt>
      <trkpt lat="52.39143" lon="-6.57701">
        <ele>55.2</ele>
        <time>2021-03-20T16:48:46Z</time>
      </trkpt>
      <trkpt lat="52.39072" lon="-6.57709">
        <ele>55.52</ele>
        <time>2021-03-20T16:48:50Z</time>
      </trkpt>
      <trkpt lat="52.38994" lon="-6.57712">
        <ele>53.27</ele>
        <time>2021-03-20T16:48:53Z</time>
      </trkpt>
      <trkpt lat="52.38948" lon="-6.57718">
        <ele>50.99</ele>
        <time>2021-03-20T16:48:57Z</time>
      </trkpt>
      <trkpt lat="52.38897" lon="-6.57733">
        <ele>50.7</ele>
        <time>2021-03-20T16:49:01Z</time>
      </trkpt>
      <trkpt lat="52.38763" lon="-6.57755">
        <ele>48.69</ele>
        <time>2021-03-20T16:49:04Z</time>
      </trkpt>
      <trkpt lat="52.38727" lon="-6.57758">
        <ele>49.3</ele>
        <time>2021-03-20T16:49:08Z</time>
      </trkpt>
      <trkpt lat="52.38699" lon="-6.57755">
        <ele>47.53</ele>
        <time>2021-03-20T16:49:12Z</time>
      </trkpt>
      <trkpt lat="52.38639" lon="-6.57732">
        <ele>45.35</ele>
        <time>2021-03-20T16:49:15Z</time>
      </trkpt>
      <trkpt lat="52.38603" lon="-6.577">
        <ele>43.91</ele>
        <time>2021-03-20T16:49:19Z</time>
      </trkpt>
      <trkpt lat="52.38576" lon="-6.57684">
        <ele>42.11</ele>
        <time>2021-03-20T16:49:23Z</time>
      </trkpt>
      <trkpt lat="52.38558" lon="-6.57684">
        <ele>41.66</ele>
        <time>2021-03-20T16:49:26Z</time>
      </trkpt>
      <trkpt lat="52.38535" lon="-6.57694">
        <ele>41.96</ele>
        <time>2021-03-20T16:49:30Z</time>
      </trkpt>
      <trkpt lat="52.38509" lon="-6.577">
        <ele>42.31</ele>
        <time>2021-03-20T16:49:34Z</time>
      </trkpt>
      <trkpt lat="52.38416" lon="-6.57713">
        <ele>40.64</ele>
        <time>2021-03-20T16:49:37Z</time>
      </trkpt>
      <trkpt lat="52.38373" lon="-6.57727">
        <ele>41.41</ele>
        <time>2021-03-20T16:49:41Z</time>
      </trkpt>
      <trkpt lat="52.38322" lon="-6.57711">
        <ele>43.56</ele>
        <time>2021-03-20T16:49:45Z</time>
      </trkpt>
      <trkpt lat="52.38294" lon="-6.57698">
        <ele>46.17</ele>
        <time>2021-03-20T16:49:48Z</time>
      </trkpt>
      <trkpt lat="52.38251" lon="-6.5767">
        <ele>52.72</ele>
        <time>2021-03-20T16:49:52Z</time>
      </trkpt>
      <trkpt lat="52.38227" lon="-6.57619">
        <ele>55.48</ele>
        <time>2021-03-20T16:49:57Z</time>
      </trkpt>
      <trkpt lat="52.38183" lon="-6.57564">
        <ele>56.72</ele>
        <time>2021-03-20T16:50:01Z</time>
      </trkpt>
      <trkpt lat="52.38111" lon="-6.57497">
        <ele>54</ele>
        <time>2021-03-20T16:50:06Z</time>
      </trkpt>
      <trkpt lat="52.3808" lon="-6.57472">
        <ele>53</ele>
        <time>2021-03-20T16:50:10Z</time>
      </trkpt>
      <trkpt lat="52.38055" lon="-6.57449">
        <ele>51.26</ele>
        <time>2021-03-20T16:50:15Z</time>
      </trkpt>
      <trkpt lat="52.38013" lon="-6.57394">
        <ele>49.13</ele>
        <time>2021-03-20T16:50:19Z</time>
      </trkpt>
      <trkpt lat="52.37992" lon="-6.57373">
        <ele>50.12</ele>
        <time>2021-03-20T16:50:24Z</time>
      </trkpt>
      <trkpt lat="52.37978" lon="-6.57365">
        <ele>50.11</ele>
        <time>2021-03-20T16:50:28Z</time>
      </trkpt>
      <trkpt lat="52.37932" lon="-6.57352">
        <ele>47.89</ele>
        <time>2021-03-20T16:50:33Z</time>
      </trkpt>
      <trkpt lat="52.37869" lon="-6.57327">
        <ele>42.28</ele>
        <time>2021-03-20T16:50:37Z</time>
      </trkpt>
      <trkpt lat="52.37844" lon="-6.57316">
        <ele>42</ele>
        <time>2021-03-20T16:50:42Z</time>
      </trkpt>
      <trkpt lat="52.37822" lon="-6.57298">
        <ele>41.33</ele>
        <time>2021-03-20T16:50:46Z</time>
      </trkpt>
      <trkpt lat="52.37811" lon="-6.57278">
        <ele>40.17</ele>
        <time>2021-03-20T16:50:51Z</time>
      </trkpt>
      <trkpt lat="52.37802" lon="-6.57253">
        <ele>38.9</ele>
        <time>2021-03-20T16:50:56Z</time>
      </trkpt>
      <trkpt lat="52.378" lon="-6.57206">
        <ele>36.06</ele>
        <time>2021-03-20T16:51:00Z</time>
      </trkpt>
      <trkpt lat="52.37809" lon="-6.57134">
        <ele>35.41</ele>
        <time>2021-03-20T16:51:05Z</time>
      </trkpt>
      <trkpt lat="52.37807" lon="-6.57066">
        <ele>35.78</ele>
        <time>2021-03-20T16:51:09Z</time>
      </trkpt>
      <trkpt lat="52.37802" lon="-6.57001">
        <ele>35.13</ele>
        <time>2021-03-20T16:51:14Z</time>
      </trkpt>
      <trkpt lat="52.37783" lon="-6.56932">
        <ele>28.82</ele>
        <time>2021-03-20T16:51:18Z</time>
      </trkpt>
      <trkpt lat="52.37761" lon="-6.569">
        <ele>26.78</ele>
        <time>2021-03-20T16:51:23Z</time>
      </trkpt>
      <trkpt lat="52.37649" lon="-6.56867">
        <ele>32.63</ele>
        <time>2021-03-20T16:51:27Z</time>
      </trkpt>
      <trkpt lat="52.37575" lon="-6.56853">
        <ele>35.71</ele>
        <time>2021-03-20T16:51:32Z</time>
      </trkpt>
      <trkpt lat="52.37554" lon="-6.56847">
        <ele>35.48</ele>
        <time>2021-03-20T16:51:36Z</time>
      </trkpt>
      <trkpt lat="52.37455" lon="-6.56857">
        <ele>37.76</ele>
        <time>2021-03-20T16:51:41Z</time>
      </trkpt>
      <trkpt lat="52.37211" lon="-6.56895">
        <ele>39.28</ele>
        <time>2021-03-20T16:51:45Z</time>
      </trkpt>
      <trkpt lat="52.37171" lon="-6.56893">
        <ele>36.59</ele>
        <time>2021-03-20T16:51:50Z</time>
      </trkpt>
      <trkpt lat="52.37141" lon="-6.56881">
        <ele>35.04</ele>
        <time>2021-03-20T16:51:55Z</time>
      </trkpt>
      <trkpt lat="52.37076" lon="-6.56842">
        <ele>31.13</ele>
        <time>2021-03-20T16:51:59Z</time>
      </trkpt>
      <trkpt lat="52.37019" lon="-6.568">
        <ele>27.52</ele>
        <time>2021-03-20T16:52:04Z</time>
      </trkpt>
      <trkpt lat="52.36808" lon="-6.56613">
        <ele>21.14</ele>
        <time>2021-03-20T16:52:08Z</time>
      </trkpt>
      <trkpt lat="52.3677" lon="-6.56584">
        <ele>17.81</ele>
        <time>2021-03-20T16:52:13Z</time>
      </trkpt>
      <trkpt lat="52.36732" lon="-6.56571">
        <ele>13.65</ele>
        <time>2021-03-20T16:52:17Z</time>
      </trkpt>
      <trkpt lat="52.36649" lon="-6.5655">
        <ele>11.51</ele>
        <time>2021-03-20T16:52:22Z</time>
      </trkpt>
      <trkpt lat="52.36598" lon="-6.56526">
        <ele>16.48</ele>
        <time>2021-03-20T16:52:26Z</time>
      </trkpt>
      <trkpt lat="52.3647" lon="-6.56448">
        <ele>22.96</ele>
        <time>2021-03-20T16:52:31Z</time>
      </trkpt>
      <trkpt lat="52.36308" lon="-6.56421">
        <ele>28.67</ele>
        <time>2021-03-20T16:52:35Z</time>
      </trkpt>
      <trkpt lat="52.36233" lon="-6.56403">
        <ele>29.88</ele>
        <time>2021-03-20T16:52:40Z</time>
      </trkpt>
      <trkpt lat="52.36109" lon="-6.56325">
        <ele>32</ele>
        <time>2021-03-20T16:52:45Z</time>
      </trkpt>
      <trkpt lat="52.36054" lon="-6.563">
        <ele>30.91</ele>
        <time>2021-03-20T16:52:49Z</time>
      </trkpt>
      <trkpt lat="52.36036" lon="-6.5625">
        <ele>28.9</ele>
        <time>2021-03-20T16:52:54Z</time>
      </trkpt>
      <trkpt lat="52.36014" lon="-6.56165">
        <ele>27.08</ele>
        <time>2021-03-20T16:52:58Z</time>
      </trkpt>
      <trkpt lat="52.35996" lon="-6.5607">
        <ele>24.63</ele>
        <time>2021-03-20T16:53:03Z</time>
      </trkpt>
      <trkpt lat="52.35967" lon="-6.55594">
        <ele>15.02</ele>
        <time>2021-03-20T16:53:07Z</time>
      </trkpt>
      <trkpt lat="52.35952" lon="-6.55387">
        <ele>11.14</ele>
        <time>2021-03-20T16:53:12Z</time>
      </trkpt>
      <trkpt lat="52.35939" lon="-6.55296">
        <ele>8.24</ele>
        <time>2021-03-20T16:53:16Z</time>
      </trkpt>
      <trkpt lat="52.35922" lon="-6.55214">
        <ele>6.64</ele>
        <time>2021-03-20T16:53:21Z</time>
      </trkpt>
      <trkpt lat="52.35886" lon="-6.55107">
        <ele>5.11</ele>
        <time>2021-03-20T16:53:25Z</time>
      </trkpt>
      <trkpt lat="52.35832" lon="-6.54979">
        <ele>7.91</ele>
        <time>2021-03-20T16:53:30Z</time>
      </trkpt>
      <trkpt lat="52.35763" lon="-6.54826">
        <ele>5.88</ele>
        <time>2021-03-20T16:53:34Z</time>
      </trkpt>
      <trkpt lat="52.35691" lon="-6.54678">
        <ele>10.74</ele>
        <time>2021-03-20T16:53:39Z</time>
      </trkpt>
      <trkpt lat="52.35669" lon="-6.54643">
        <ele>11.02</ele>
        <time>2021-03-20T16:53:44Z</time>
      </trkpt>
      <trkpt lat="52.35632" lon="-6.54617">
        <ele>12.3</ele>
        <time>2021-03-20T16:53:48Z</time>
      </trkpt>
      <trkpt lat="52.35529" lon="-6.54537">
        <ele>14.89</ele>
        <time>2021-03-20T16:53:53Z</time>
      </trkpt>
      <trkpt lat="52.35504" lon="-6.54512">
        <ele>16.07</ele>
        <time>2021-03-20T16:53:57Z</time>
      </trkpt>
      <trkpt lat="52.35445" lon="-6.54438">
        <ele>22.2</ele>
        <time>2021-03-20T16:54:02Z</time>
      </trkpt>
      <trkpt lat="52.35419" lon="-6.54382">
        <ele>22.49</ele>
        <time>2021-03-20T16:54:06Z</time>
      </trkpt>
      <trkpt lat="52.35376" lon="-6.5426">
        <ele>21.12</ele>
        <time>2021-03-20T16:54:11Z</time>
      </trkpt>
      <trkpt lat="52.35337" lon="-6.54144">
        <ele>24.71</ele>
        <time>2021-03-20T16:54:15Z</time>
      </trkpt>
      <trkpt lat="52.35311" lon="-6.54011">
        <ele>20.44</ele>
        <time>2021-03-20T16:54:20Z</time>
      </trkpt>
      <trkpt lat="52.35294" lon="-6.5391">
        <ele>17.08</ele>
        <time>2021-03-20T16:54:24Z</time>
      </trkpt>
      <trkpt lat="52.35279" lon="-6.53846">
        <ele>11.94</ele>
        <time>2021-03-20T16:54:29Z</time>
      </trkpt>
      <trkpt lat="52.3524" lon="-6.53762">
        <ele>10.66</ele>
        <time>2021-03-20T16:54:34Z</time>
      </trkpt>
      <trkpt lat="52.35232" lon="-6.53746">
        <ele>10.13</ele>
        <time>2021-03-20T16:54:38Z</time>
      </trkpt>
      <trkpt lat="52.35217" lon="-6.53712">
        <ele>8.38</ele>
        <time>2021-03-20T16:54:43Z</time>
      </trkpt>
      <trkpt lat="52.35228" lon="-6.53691">
        <ele>6.47</ele>
        <time>2021-03-20T16:54:46Z</time>
      </trkpt>
      <trkpt lat="52.35224" lon="-6.53667">
        <ele>5.93</ele>
        <time>2021-03-20T16:54:50Z</time>
      </trkpt>
      <trkpt lat="52.35212" lon="-6.53631">
        <ele>5.85</ele>
        <time>2021-03-20T16:54:54Z</time>
      </trkpt>
      <trkpt lat="52.35168" lon="-6.53467">
        <ele>8.56</ele>
        <time>2021-03-20T16:54:58Z</time>
      </trkpt>
      <trkpt lat="52.35148" lon="-6.53363">
        <ele>7.7</ele>
        <time>2021-03-20T16:55:02Z</time>
      </trkpt>
      <trkpt lat="52.35123" lon="-6.53255">
        <ele>5.94</ele>
        <time>2021-03-20T16:55:05Z</time>
      </trkpt>
      <trkpt lat="52.35107" lon="-6.532">
        <ele>4.52</ele>
        <time>2021-03-20T16:55:09Z</time>
      </trkpt>
      <trkpt lat="52.35058" lon="-6.53076">
        <ele>3.69</ele>
        <time>2021-03-20T16:55:13Z</time>
      </trkpt>
      <trkpt lat="52.35007" lon="-6.52913">
        <ele>3.96</ele>
        <time>2021-03-20T16:55:17Z</time>
      </trkpt>
      <trkpt lat="52.34992" lon="-6.52853">
        <ele>3.49</ele>
        <time>2021-03-20T16:55:21Z</time>
      </trkpt>
      <trkpt lat="52.34981" lon="-6.52787">
        <ele>2.79</ele>
        <time>2021-03-20T16:55:24Z</time>
      </trkpt>
      <trkpt lat="52.34977" lon="-6.5274">
        <ele>3.15</ele>
        <time>2021-03-20T16:55:28Z</time>
      </trkpt>
      <trkpt lat="52.34974" lon="-6.52676">
        <ele>6.2</ele>
        <time>2021-03-20T16:55:32Z</time>
      </trkpt>
      <trkpt lat="52.34988" lon="-6.52505">
        <ele>11.73</ele>
        <time>2021-03-20T16:55:36Z</time>
      </trkpt>
      <trkpt lat="52.34989" lon="-6.52458">
        <ele>15.62</ele>
        <time>2021-03-20T16:55:40Z</time>
      </trkpt>
      <trkpt lat="52.34985" lon="-6.52362">
        <ele>18.26</ele>
        <time>2021-03-20T16:55:43Z</time>
      </trkpt>
      <trkpt lat="52.3496" lon="-6.52256">
        <ele>16.82</ele>
        <time>2021-03-20T16:55:47Z</time>
      </trkpt>
      <trkpt lat="52.34939" lon="-6.52195">
        <ele>11.74</ele>
        <time>2021-03-20T16:55:51Z</time>
      </trkpt>
      <trkpt lat="52.34868" lon="-6.52031">
        <ele>13.34</ele>
        <time>2021-03-20T16:55:55Z</time>
      </trkpt>
      <trkpt lat="52.34835" lon="-6.51946">
        <ele>9.86</ele>
        <time>2021-03-20T16:55:59Z</time>
      </trkpt>
      <trkpt lat="52.34821" lon="-6.51881">
        <ele>5.73</ele>
        <time>2021-03-20T16:56:02Z</time>
      </trkpt>
      <trkpt lat="52.3482" lon="-6.51824">
        <ele>1.79</ele>
        <time>2021-03-20T16:56:06Z</time>
      </trkpt>
      <trkpt lat="52.34821" lon="-6.51788">
        <ele>0.89</ele>
        <time>2021-03-20T16:56:10Z</time>
      </trkpt>
      <trkpt lat="52.34866" lon="-6.51484">
        <ele>6.28</ele>
        <time>2021-03-20T16:56:14Z</time>
      </trkpt>
      <trkpt lat="52.34871" lon="-6.51433">
        <ele>8.27</ele>
        <time>2021-03-20T16:56:18Z</time>
      </trkpt>
      <trkpt lat="52.34871" lon="-6.5141">
        <ele>10.23</ele>
        <time>2021-03-20T16:56:21Z</time>
      </trkpt>
      <trkpt lat="52.34864" lon="-6.51364">
        <ele>13.77</ele>
        <time>2021-03-20T16:56:25Z</time>
      </trkpt>
      <trkpt lat="52.34796" lon="-6.51409">
        <ele>11.21</ele>
        <time>2021-03-20T16:56:31Z</time>
      </trkpt>
      <trkpt lat="52.3474" lon="-6.51437">
        <ele>12.25</ele>
        <time>2021-03-20T16:56:36Z</time>
      </trkpt>
      <trkpt lat="52.34693" lon="-6.51454">
        <ele>14.4</ele>
        <time>2021-03-20T16:56:41Z</time>
      </trkpt>
      <trkpt lat="52.34146" lon="-6.51557">
        <ele>35.33</ele>
        <time>2021-03-20T16:56:47Z</time>
      </trkpt>
      <trkpt lat="52.34098" lon="-6.51561">
        <ele>35.68</ele>
        <time>2021-03-20T16:56:52Z</time>
      </trkpt>
      <trkpt lat="52.34028" lon="-6.51559">
        <ele>38.86</ele>
        <time>2021-03-20T16:56:58Z</time>
      </trkpt>
      <trkpt lat="52.33962" lon="-6.5155">
        <ele>43.38</ele>
        <time>2021-03-20T16:57:03Z</time>
      </trkpt>
      <trkpt lat="52.33903" lon="-6.51535">
        <ele>44.98</ele>
        <time>2021-03-20T16:57:09Z</time>
      </trkpt>
      <trkpt lat="52.33889" lon="-6.51534">
        <ele>45.97</ele>
        <time>2021-03-20T16:57:14Z</time>
      </trkpt>
      <trkpt lat="52.33854" lon="-6.51524">
        <ele>48.86</ele>
        <time>2021-03-20T16:57:19Z</time>
      </trkpt>
      <trkpt lat="52.33829" lon="-6.51509">
        <ele>50.46</ele>
        <time>2021-03-20T16:57:25Z</time>
      </trkpt>
      <trkpt lat="52.33824" lon="-6.51496">
        <ele>50.16</ele>
        <time>2021-03-20T16:57:30Z</time>
      </trkpt>
      <trkpt lat="52.33817" lon="-6.51486">
        <ele>50.08</ele>
        <time>2021-03-20T16:57:36Z</time>
      </trkpt>
      <trkpt lat="52.33812" lon="-6.51483">
        <ele>50.15</ele>
        <time>2021-03-20T16:57:41Z</time>
      </trkpt>
      <trkpt lat="52.33799" lon="-6.51482">
        <ele>50.35</ele>
        <time>2021-03-20T16:57:47Z</time>
      </trkpt>
      <trkpt lat="52.33789" lon="-6.5149">
        <ele>50.63</ele>
        <time>2021-03-20T16:57:52Z</time>
      </trkpt>
      <trkpt lat="52.33785" lon="-6.51496">
        <ele>50.85</ele>
        <time>2021-03-20T16:57:58Z</time>
      </trkpt>
      <trkpt lat="52.33729" lon="-6.51502">
        <ele>52</ele>
        <time>2021-03-20T16:58:03Z</time>
      </trkpt>
      <trkpt lat="52.33674" lon="-6.51472">
        <ele>49.23</ele>
        <time>2021-03-20T16:58:09Z</time>
      </trkpt>
      <trkpt lat="52.33637" lon="-6.51446">
        <ele>45.1</ele>
        <time>2021-03-20T16:58:15Z</time>
      </trkpt>
      <trkpt lat="52.33576" lon="-6.51398">
        <ele>44.94</ele>
        <time>2021-03-20T16:58:20Z</time>
      </trkpt>
      <trkpt lat="52.33523" lon="-6.5135">
        <ele>46.31</ele>
        <time>2021-03-20T16:58:26Z</time>
      </trkpt>
      <trkpt lat="52.33137" lon="-6.50951">
        <ele>53.76</ele>
        <time>2021-03-20T16:58:31Z</time>
      </trkpt>
      <trkpt lat="52.32796" lon="-6.50592">
        <ele>69.89</ele>
        <time>2021-03-20T16:58:37Z</time>
      </trkpt>
      <trkpt lat="52.32381" lon="-6.50195">
        <ele>70.73</ele>
        <time>2021-03-20T16:58:42Z</time>
      </trkpt>
      <trkpt lat="52.32363" lon="-6.50168">
        <ele>69.11</ele>
        <time>2021-03-20T16:58:48Z</time>
      </trkpt>
      <trkpt lat="52.32349" lon="-6.5014">
        <ele>69</ele>
        <time>2021-03-20T16:58:53Z</time>
      </trkpt>
      <trkpt lat="52.32348" lon="-6.5013">
        <ele>68.84</ele>
        <time>2021-03-20T16:58:59Z</time>
      </trkpt>
      <trkpt lat="52.32344" lon="-6.50121">
        <ele>68.59</ele>
        <time>2021-03-20T16:59:04Z</time>
      </trkpt>
      <trkpt lat="52.32339" lon="-6.50114">
        <ele>68.26</ele>
        <time>2021-03-20T16:59:10Z</time>
      </trkpt>
      <trkpt lat="52.32332" lon="-6.5011">
        <ele>68</ele>
        <time>2021-03-20T16:59:15Z</time>
      </trkpt>
      <trkpt lat="52.32325" lon="-6.50109">
        <ele>68</ele>
        <time>2021-03-20T16:59:20Z</time>
      </trkpt>
      <trkpt lat="52.3232" lon="-6.50112">
        <ele>68.03</ele>
        <time>2021-03-20T16:59:26Z</time>
      </trkpt>
      <trkpt lat="52.32298" lon="-6.50102">
        <ele>68.58</ele>
        <time>2021-03-20T16:59:31Z</time>
      </trkpt>
      <trkpt lat="52.3226" lon="-6.50072">
        <ele>70.89</ele>
        <time>2021-03-20T16:59:37Z</time>
      </trkpt>
      <trkpt lat="52.31708" lon="-6.49481">
        <ele>80.49</ele>
        <time>2021-03-20T16:59:42Z</time>
      </trkpt>
      <trkpt lat="52.31642" lon="-6.49404">
        <ele>79.12</ele>
        <time>2021-03-20T16:59:48Z</time>
      </trkpt>
      <trkpt lat="52.31542" lon="-6.49277">
        <ele>78.53</ele>
        <time>2021-03-20T16:59:53Z</time>
      </trkpt>
      <trkpt lat="52.31413" lon="-6.49095">
        <ele>75.88</ele>
        <time>2021-03-20T16:59:59Z</time>
      </trkpt>
      <trkpt lat="52.31337" lon="-6.48976">
        <ele>71.12</ele>
        <time>2021-03-20T17:00:04Z</time>
      </trkpt>
      <trkpt lat="52.3111" lon="-6.48613">
        <ele>60.9</ele>
        <time>2021-03-20T17:00:10Z</time>
      </trkpt>
      <trkpt lat="52.31067" lon="-6.4854">
        <ele>59.41</ele>
        <time>2021-03-20T17:00:15Z</time>
      </trkpt>
      <trkpt lat="52.30752" lon="-6.48041">
        <ele>44.44</ele>
        <time>2021-03-20T17:00:21Z</time>
      </trkpt>
      <trkpt lat="52.30682" lon="-6.47923">
        <ele>39.56</ele>
        <time>2021-03-20T17:00:26Z</time>
      </trkpt>
      <trkpt lat="52.30631" lon="-6.47824">
        <ele>34.45</ele>
        <time>2021-03-20T17:00:31Z</time>
      </trkpt>
      <trkpt lat="52.30599" lon="-6.47757">
        <ele>33.42</ele>
        <time>2021-03-20T17:00:37Z</time>
      </trkpt>
      <trkpt lat="52.30539" lon="-6.47613">
        <ele>29.11</ele>
        <time>2021-03-20T17:00:42Z</time>
      </trkpt>
      <trkpt lat="52.30498" lon="-6.47494">
        <ele>22.79</ele>
        <time>2021-03-20T17:00:48Z</time>
      </trkpt>
      <trkpt lat="52.30474" lon="-6.47419">
        <ele>21</ele>
        <time>2021-03-20T17:00:53Z</time>
      </trkpt>
      <trkpt lat="52.30457" lon="-6.47358">
        <ele>20.95</ele>
        <time>2021-03-20T17:00:59Z</time>
      </trkpt>
      <trkpt lat="52.30412" lon="-6.47175">
        <ele>19.83</ele>
        <time>2021-03-20T17:01:04Z</time>
      </trkpt>
      <trkpt lat="52.30387" lon="-6.47043">
        <ele>19</ele>
        <time>2021-03-20T17:01:10Z</time>
      </trkpt>
      <trkpt lat="52.30373" lon="-6.46952">
        <ele>18.69</ele>
        <time>2021-03-20T17:01:15Z</time>
      </trkpt>
      <trkpt lat="52.30362" lon="-6.46862">
        <ele>17.98</ele>
        <time>2021-03-20T17:01:21Z</time>
      </trkpt>
      <trkpt lat="52.30352" lon="-6.46766">
        <ele>19.33</ele>
        <time>2021-03-20T17:01:26Z</time>
      </trkpt>
      <trkpt lat="52.30342" lon="-6.46629">
        <ele>20.26</ele>
        <time>2021-03-20T17:01:32Z</time>
      </trkpt>
      <trkpt lat="52.30313" lon="-6.46127">
        <ele>15.54</ele>
        <time>2021-03-20T17:01:37Z</time>
      </trkpt>
      <trkpt lat="52.303" lon="-6.45936">
        <ele>15.19</ele>
        <time>2021-03-20T17:01:43Z</time>
      </trkpt>
      <trkpt lat="52.30301" lon="-6.45894">
        <ele>15.18</ele>
        <time>2021-03-20T17:01:48Z</time>
      </trkpt>
      <trkpt lat="52.30307" lon="-6.45846">
        <ele>14.48</ele>
        <time>2021-03-20T17:01:53Z</time>
      </trkpt>
      <trkpt lat="52.30313" lon="-6.45833">
        <ele>14.26</ele>
        <time>2021-03-20T17:01:57Z</time>
      </trkpt>
      <trkpt lat="52.30314" lon="-6.45826">
        <ele>14.31</ele>
        <time>2021-03-20T17:02:01Z</time>
      </trkpt>
      <trkpt lat="52.30314" lon="-6.45815">
        <ele>14.31</ele>
        <time>2021-03-20T17:02:05Z</time>
      </trkpt>
      <trkpt lat="52.30313" lon="-6.45805">
        <ele>14.25</ele>
        <time>2021-03-20T17:02:09Z</time>
      </trkpt>
      <trkpt lat="52.30309" lon="-6.45796">
        <ele>14.16</ele>
        <time>2021-03-20T17:02:12Z</time>
      </trkpt>
      <trkpt lat="52.30303" lon="-6.4579">
        <ele>13.88</ele>
        <time>2021-03-20T17:02:16Z</time>
      </trkpt>
      <trkpt lat="52.30297" lon="-6.45786">
        <ele>13.48</ele>
        <time>2021-03-20T17:02:20Z</time>
      </trkpt>
      <trkpt lat="52.3029" lon="-6.45786">
        <ele>13.06</ele>
        <time>2021-03-20T17:02:24Z</time>
      </trkpt>
      <trkpt lat="52.30284" lon="-6.4579">
        <ele>12.78</ele>
        <time>2021-03-20T17:02:28Z</time>
      </trkpt>
      <trkpt lat="52.30279" lon="-6.45797">
        <ele>12.72</ele>
        <time>2021-03-20T17:02:32Z</time>
      </trkpt>
      <trkpt lat="52.30275" lon="-6.45806">
        <ele>13.02</ele>
        <time>2021-03-20T17:02:35Z</time>
      </trkpt>
      <trkpt lat="52.30232" lon="-6.45829">
        <ele>15.12</ele>
        <time>2021-03-20T17:02:39Z</time>
      </trkpt>
      <trkpt lat="52.30117" lon="-6.45874">
        <ele>18</ele>
        <time>2021-03-20T17:02:43Z</time>
      </trkpt>
      <trkpt lat="52.30023" lon="-6.45908">
        <ele>15.69</ele>
        <time>2021-03-20T17:02:47Z</time>
      </trkpt>
      <trkpt lat="52.29977" lon="-6.45923">
        <ele>16.86</ele>
        <time>2021-03-20T17:02:51Z</time>
      </trkpt>
      <trkpt lat="52.29698" lon="-6.45996">
        <ele>20.76</ele>
        <time>2021-03-20T17:02:54Z</time>
      </trkpt>
      <trkpt lat="52.29632" lon="-6.46018">
        <ele>24.25</ele>
        <time>2021-03-20T17:02:58Z</time>
      </trkpt>
      <trkpt lat="52.29611" lon="-6.46029">
        <ele>25</ele>
        <time>2021-03-20T17:03:02Z</time>
      </trkpt>
      <trkpt lat="52.29425" lon="-6.46169">
        <ele>29</ele>
        <time>2021-03-20T17:03:06Z</time>
      </trkpt>
      <trkpt lat="52.29271" lon="-6.46276">
        <ele>26.53</ele>
        <time>2021-03-20T17:03:10Z</time>
      </trkpt>
      <trkpt lat="52.29234" lon="-6.46295">
        <ele>25.05</ele>
        <time>2021-03-20T17:03:13Z</time>
      </trkpt>
      <trkpt lat="52.29138" lon="-6.46336">
        <ele>23.08</ele>
        <time>2021-03-20T17:03:17Z</time>
      </trkpt>
      <trkpt lat="52.2902" lon="-6.46367">
        <ele>23</ele>
        <time>2021-03-20T17:03:21Z</time>
      </trkpt>
      <trkpt lat="52.2896" lon="-6.4638">
        <ele>22</ele>
        <time>2021-03-20T17:03:25Z</time>
      </trkpt>
      <trkpt lat="52.2889" lon="-6.46388">
        <ele>23.98</ele>
        <time>2021-03-20T17:03:29Z</time>
      </trkpt>
      <trkpt lat="52.28815" lon="-6.46399">
        <ele>23.35</ele>
        <time>2021-03-20T17:03:32Z</time>
      </trkpt>
      <trkpt lat="52.28708" lon="-6.46411">
        <ele>21.86</ele>
        <time>2021-03-20T17:03:36Z</time>
      </trkpt>
      <trkpt lat="52.2853" lon="-6.46434">
        <ele>19.43</ele>
        <time>2021-03-20T17:03:40Z</time>
      </trkpt>
      <trkpt lat="52.28445" lon="-6.46427">
        <ele>19.97</ele>
        <time>2021-03-20T17:03:44Z</time>
      </trkpt>
      <trkpt lat="52.28402" lon="-6.46414">
        <ele>20</ele>
        <time>2021-03-20T17:03:48Z</time>
      </trkpt>
      <trkpt lat="52.28304" lon="-6.46371">
        <ele>21.92</ele>
        <time>2021-03-20T17:03:51Z</time>
      </trkpt>
      <trkpt lat="52.28159" lon="-6.46295">
        <ele>20.45</ele>
        <time>2021-03-20T17:03:55Z</time>
      </trkpt>
      <trkpt lat="52.28119" lon="-6.4628">
        <ele>20</ele>
        <time>2021-03-20T17:03:59Z</time>
      </trkpt>
      <trkpt lat="52.28078" lon="-6.46269">
        <ele>21.42</ele>
        <time>2021-03-20T17:04:03Z</time>
      </trkpt>
      <trkpt lat="52.28005" lon="-6.46259">
        <ele>20.33</ele>
        <time>2021-03-20T17:04:07Z</time>
      </trkpt>
      <trkpt lat="52.27972" lon="-6.46261">
        <ele>19.02</ele>
        <time>2021-03-20T17:04:11Z</time>
      </trkpt>
      <trkpt lat="52.2794" lon="-6.46259">
        <ele>20</ele>
        <time>2021-03-20T17:04:14Z</time>
      </trkpt>
      <trkpt lat="52.27678" lon="-6.46293">
        <ele>18.27</ele>
        <time>2021-03-20T17:04:18Z</time>
      </trkpt>
      <trkpt lat="52.276" lon="-6.46299">
        <ele>18.41</ele>
        <time>2021-03-20T17:04:22Z</time>
      </trkpt>
      <trkpt lat="52.27531" lon="-6.46296">
        <ele>17.53</ele>
        <time>2021-03-20T17:04:26Z</time>
      </trkpt>
      <trkpt lat="52.27486" lon="-6.46289">
        <ele>17.59</ele>
        <time>2021-03-20T17:04:30Z</time>
      </trkpt>
      <trkpt lat="52.27441" lon="-6.46279">
        <ele>17</ele>
        <time>2021-03-20T17:04:33Z</time>
      </trkpt>
      <trkpt lat="52.27022" lon="-6.46137">
        <ele>11.86</ele>
        <time>2021-03-20T17:04:37Z</time>
      </trkpt>
      <trkpt lat="52.26947" lon="-6.46116">
        <ele>12.92</ele>
        <time>2021-03-20T17:04:41Z</time>
      </trkpt>
      <trkpt lat="52.26901" lon="-6.46114">
        <ele>14.56</ele>
        <time>2021-03-20T17:04:45Z</time>
      </trkpt>
      <trkpt lat="52.26874" lon="-6.46117">
        <ele>15.44</ele>
        <time>2021-03-20T17:04:49Z</time>
      </trkpt>
      <trkpt lat="52.26836" lon="-6.46124">
        <ele>15.54</ele>
        <time>2021-03-20T17:04:52Z</time>
      </trkpt>
      <trkpt lat="52.26806" lon="-6.46131">
        <ele>15.01</ele>
        <time>2021-03-20T17:04:56Z</time>
      </trkpt>
      <trkpt lat="52.26698" lon="-6.4617">
        <ele>16.9</ele>
        <time>2021-03-20T17:05:00Z</time>
      </trkpt>
      <trkpt lat="52.26638" lon="-6.46188">
        <ele>16</ele>
        <time>2021-03-20T17:05:04Z</time>
      </trkpt>
      <trkpt lat="52.26594" lon="-6.46194">
        <ele>16.62</ele>
        <time>2021-03-20T17:05:08Z</time>
      </trkpt>
      <trkpt lat="52.26533" lon="-6.46193">
        <ele>17.01</ele>
        <time>2021-03-20T17:05:11Z</time>
      </trkpt>
      <trkpt lat="52.26459" lon="-6.46177">
        <ele>13.88</ele>
        <time>2021-03-20T17:05:15Z</time>
      </trkpt>
      <trkpt lat="52.26437" lon="-6.46169">
        <ele>12.82</ele>
        <time>2021-03-20T17:05:19Z</time>
      </trkpt>
      <trkpt lat="52.26374" lon="-6.4614">
        <ele>10.45</ele>
        <time>2021-03-20T17:05:23Z</time>
      </trkpt>
      <trkpt lat="52.2608" lon="-6.45943">
        <ele>4.89</ele>
        <time>2021-03-20T17:05:27Z</time>
      </trkpt>
      <trkpt lat="52.25974" lon="-6.45868">
        <ele>6.92</ele>
        <time>2021-03-20T17:05:31Z</time>
      </trkpt>
      <trkpt lat="52.25902" lon="-6.45794">
        <ele>6.26</ele>
        <time>2021-03-20T17:05:34Z</time>
      </trkpt>
      <trkpt lat="52.25875" lon="-6.45758">
        <ele>6.51</ele>
        <time>2021-03-20T17:05:38Z</time>
      </trkpt>
      <trkpt lat="52.25851" lon="-6.45722">
        <ele>8</ele>
        <time>2021-03-20T17:05:42Z</time>
      </trkpt>
      <trkpt lat="52.2582" lon="-6.4567">
        <ele>8</ele>
        <time>2021-03-20T17:05:46Z</time>
      </trkpt>
      <trkpt lat="52.25781" lon="-6.45584">
        <ele>8</ele>
        <time>2021-03-20T17:05:50Z</time>
      </trkpt>
      <trkpt lat="52.2574" lon="-6.45469">
        <ele>7.32</ele>
        <time>2021-03-20T17:05:53Z</time>
      </trkpt>
      <trkpt lat="52.25719" lon="-6.4539">
        <ele>7.01</ele>
        <time>2021-03-20T17:05:57Z</time>
      </trkpt>
      <trkpt lat="52.25708" lon="-6.45337">
        <ele>7.03</ele>
        <time>2021-03-20T17:06:01Z</time>
      </trkpt>
      <trkpt lat="52.25692" lon="-6.45218">
        <ele>7.44</ele>
        <time>2021-03-20T17:06:05Z</time>
      </trkpt>
      <trkpt lat="52.25688" lon="-6.4517">
        <ele>10.27</ele>
        <time>2021-03-20T17:06:09Z</time>
      </trkpt>
      <trkpt lat="52.25687" lon="-6.45088">
        <ele>11.27</ele>
        <time>2021-03-20T17:06:12Z</time>
      </trkpt>
      <trkpt lat="52.25691" lon="-6.45026">
        <ele>11.08</ele>
        <time>2021-03-20T17:06:16Z</time>
      </trkpt>
      <trkpt lat="52.25701" lon="-6.44934">
        <ele>8.86</ele>
        <time>2021-03-20T17:06:20Z</time>
      </trkpt>
      <trkpt lat="52.25719" lon="-6.44787">
        <ele>11.4</ele>
        <time>2021-03-20T17:06:24Z</time>
      </trkpt>
      <trkpt lat="52.25731" lon="-6.44701">
        <ele>11.3</ele>
        <time>2021-03-20T17:06:28Z</time>
      </trkpt>
      <trkpt lat="52.25743" lon="-6.44639">
        <ele>11</ele>
        <time>2021-03-20T17:06:31Z</time>
      </trkpt>
      <trkpt lat="52.2576" lon="-6.44569">
        <ele>10.14</ele>
        <time>2021-03-20T17:06:35Z</time>
      </trkpt>
      <trkpt lat="52.25777" lon="-6.44513">
        <ele>10</ele>
        <time>2021-03-20T17:06:39Z</time>
      </trkpt>
      <trkpt lat="52.25825" lon="-6.44381">
        <ele>5.49</ele>
        <time>2021-03-20T17:06:43Z</time>
      </trkpt>
      <trkpt lat="52.25845" lon="-6.44321">
        <ele>4.41</ele>
        <time>2021-03-20T17:06:47Z</time>
      </trkpt>
      <trkpt lat="52.25862" lon="-6.44259">
        <ele>5</ele>
        <time>2021-03-20T17:06:50Z</time>
      </trkpt>
      <trkpt lat="52.25875" lon="-6.44194">
        <ele>6</ele>
        <time>2021-03-20T17:06:54Z</time>
      </trkpt>
      <trkpt lat="52.25888" lon="-6.44087">
        <ele>7</ele>
        <time>2021-03-20T17:06:58Z</time>
      </trkpt>
      <trkpt lat="52.25893" lon="-6.43929">
        <ele>6.3</ele>
        <time>2021-03-20T17:07:02Z</time>
      </trkpt>
      <trkpt lat="52.25893" lon="-6.43708">
        <ele>3.58</ele>
        <time>2021-03-20T17:07:06Z</time>
      </trkpt>
      <trkpt lat="52.25873" lon="-6.43483">
        <ele>8</ele>
        <time>2021-03-20T17:07:10Z</time>
      </trkpt>
      <trkpt lat="52.25851" lon="-6.4331">
        <ele>11</ele>
        <time>2021-03-20T17:07:13Z</time>
      </trkpt>
      <trkpt lat="52.25822" lon="-6.43129">
        <ele>12.78</ele>
        <time>2021-03-20T17:07:17Z</time>
      </trkpt>
      <trkpt lat="52.2583" lon="-6.4312">
        <ele>12.39</ele>
        <time>2021-03-20T17:07:21Z</time>
      </trkpt>
      <trkpt lat="52.25834" lon="-6.43105">
        <ele>11.97</ele>
        <time>2021-03-20T17:07:25Z</time>
      </trkpt>
      <trkpt lat="52.25832" lon="-6.43089">
        <ele>12.05</ele>
        <time>2021-03-20T17:07:30Z</time>
      </trkpt>
      <trkpt lat="52.25825" lon="-6.43078">
        <ele>12.44</ele>
        <time>2021-03-20T17:07:34Z</time>
      </trkpt>
      <trkpt lat="52.25816" lon="-6.43076">
        <ele>12.73</ele>
        <time>2021-03-20T17:07:38Z</time>
      </trkpt>
      <trkpt lat="52.25808" lon="-6.43082">
        <ele>12.93</ele>
        <time>2021-03-20T17:07:42Z</time>
      </trkpt>
      <trkpt lat="52.25784" lon="-6.43038">
        <ele>13.77</ele>
        <time>2021-03-20T17:07:46Z</time>
      </trkpt>
      <trkpt lat="52.25765" lon="-6.42987">
        <ele>12.53</ele>
        <time>2021-03-20T17:07:50Z</time>
      </trkpt>
      <trkpt lat="52.25565" lon="-6.42424">
        <ele>11</ele>
        <time>2021-03-20T17:07:54Z</time>
      </trkpt>
      <trkpt lat="52.2543" lon="-6.4205">
        <ele>12.54</ele>
        <time>2021-03-20T17:07:58Z</time>
      </trkpt>
      <trkpt lat="52.25387" lon="-6.41925">
        <ele>13.39</ele>
        <time>2021-03-20T17:08:02Z</time>
      </trkpt>
      <trkpt lat="52.25387" lon="-6.41925">
        <ele>13.39</ele>
        <time>2021-03-20T17:08:02Z</time>
      </trkpt>
      <trkpt lat="52.25345" lon="-6.418">
        <ele>14.89</ele>
        <time>2021-03-20T17:08:09Z</time>
      </trkpt>
      <trkpt lat="52.25231" lon="-6.4149">
        <ele>13</ele>
        <time>2021-03-20T17:08:16Z</time>
      </trkpt>
      <trkpt lat="52.25054" lon="-6.41005">
        <ele>14</ele>
        <time>2021-03-20T17:08:23Z</time>
      </trkpt>
      <trkpt lat="52.24979" lon="-6.40804">
        <ele>14.76</ele>
        <time>2021-03-20T17:08:30Z</time>
      </trkpt>
      <trkpt lat="52.24957" lon="-6.40738">
        <ele>15</ele>
        <time>2021-03-20T17:08:37Z</time>
      </trkpt>
      <trkpt lat="52.24931" lon="-6.40665">
        <ele>15.48</ele>
        <time>2021-03-20T17:08:44Z</time>
      </trkpt>
      <trkpt lat="52.2483" lon="-6.40351">
        <ele>15</ele>
        <time>2021-03-20T17:08:51Z</time>
      </trkpt>
      <trkpt lat="52.24456" lon="-6.39308">
        <ele>19.6</ele>
        <time>2021-03-20T17:08:58Z</time>
      </trkpt>
      <trkpt lat="52.24355" lon="-6.3903">
        <ele>16.13</ele>
        <time>2021-03-20T17:09:05Z</time>
      </trkpt>
      <trkpt lat="52.24328" lon="-6.38927">
        <ele>19.36</ele>
        <time>2021-03-20T17:09:12Z</time>
      </trkpt>
      <trkpt lat="52.24313" lon="-6.38834">
        <ele>19.74</ele>
        <time>2021-03-20T17:09:19Z</time>
      </trkpt>
      <trkpt lat="52.24301" lon="-6.38731">
        <ele>20.31</ele>
        <time>2021-03-20T17:09:26Z</time>
      </trkpt>
      <trkpt lat="52.24297" lon="-6.3868">
        <ele>19.84</ele>
        <time>2021-03-20T17:09:33Z</time>
      </trkpt>
      <trkpt lat="52.24297" lon="-6.38603">
        <ele>19</ele>
        <time>2021-03-20T17:09:40Z</time>
      </trkpt>
      <trkpt lat="52.24298" lon="-6.38561">
        <ele>18.18</ele>
        <time>2021-03-20T17:09:47Z</time>
      </trkpt>
      <trkpt lat="52.24301" lon="-6.38517">
        <ele>18</ele>
        <time>2021-03-20T17:09:54Z</time>
      </trkpt>
      <trkpt lat="52.24309" lon="-6.38442">
        <ele>19</ele>
        <time>2021-03-20T17:10:01Z</time>
      </trkpt>
      <trkpt lat="52.24318" lon="-6.38373">
        <ele>19</ele>
        <time>2021-03-20T17:10:08Z</time>
      </trkpt>
      <trkpt lat="52.24433" lon="-6.3775">
        <ele>20.99</ele>
        <time>2021-03-20T17:10:15Z</time>
      </trkpt>
      <trkpt lat="52.24455" lon="-6.37584">
        <ele>20.63</ele>
        <time>2021-03-20T17:10:22Z</time>
      </trkpt>
      <trkpt lat="52.24462" lon="-6.37517">
        <ele>19.61</ele>
        <time>2021-03-20T17:10:29Z</time>
      </trkpt>
      <trkpt lat="52.24475" lon="-6.37314">
        <ele>18.21</ele>
        <time>2021-03-20T17:10:36Z</time>
      </trkpt>
      <trkpt lat="52.24478" lon="-6.37235">
        <ele>19.62</ele>
        <time>2021-03-20T17:10:43Z</time>
      </trkpt>
      <trkpt lat="52.24478" lon="-6.37116">
        <ele>20</ele>
        <time>2021-03-20T17:10:50Z</time>
      </trkpt>
      <trkpt lat="52.24476" lon="-6.37043">
        <ele>20</ele>
        <time>2021-03-20T17:10:57Z</time>
      </trkpt>
      <trkpt lat="52.2447" lon="-6.36948">
        <ele>19.79</ele>
        <time>2021-03-20T17:11:04Z</time>
      </trkpt>
      <trkpt lat="52.24458" lon="-6.36815">
        <ele>18.98</ele>
        <time>2021-03-20T17:11:11Z</time>
      </trkpt>
      <trkpt lat="52.24382" lon="-6.36157">
        <ele>12.23</ele>
        <time>2021-03-20T17:11:18Z</time>
      </trkpt>
      <trkpt lat="52.2437" lon="-6.36082">
        <ele>13.63</ele>
        <time>2021-03-20T17:11:25Z</time>
      </trkpt>
      <trkpt lat="52.2436" lon="-6.36036">
        <ele>13.08</ele>
        <time>2021-03-20T17:11:32Z</time>
      </trkpt>
      <trkpt lat="52.24339" lon="-6.35972">
        <ele>14.62</ele>
        <time>2021-03-20T17:11:39Z</time>
      </trkpt>
      <trkpt lat="52.24282" lon="-6.35834">
        <ele>15.88</ele>
        <time>2021-03-20T17:11:46Z</time>
      </trkpt>
      <trkpt lat="52.2424" lon="-6.35723">
        <ele>17.03</ele>
        <time>2021-03-20T17:11:53Z</time>
      </trkpt>
      <trkpt lat="52.24224" lon="-6.35668">
        <ele>16.94</ele>
        <time>2021-03-20T17:12:00Z</time>
      </trkpt>
      <trkpt lat="52.242" lon="-6.35536">
        <ele>16.79</ele>
        <time>2021-03-20T17:12:07Z</time>
      </trkpt>
      <trkpt lat="52.24206" lon="-6.35536">
        <ele>16.58</ele>
        <time>2021-03-20T17:12:11Z</time>
      </trkpt>
      <trkpt lat="52.24242" lon="-6.35509">
        <ele>15.78</ele>
        <time>2021-03-20T17:12:16Z</time>
      </trkpt>
      <trkpt lat="52.24294" lon="-6.35474">
        <ele>15</ele>
        <time>2021-03-20T17:12:21Z</time>
      </trkpt>
      <trkpt lat="52.24336" lon="-6.35461">
        <ele>13.6</ele>
        <time>2021-03-20T17:12:25Z</time>
      </trkpt>
      <trkpt lat="52.24389" lon="-6.35469">
        <ele>12.9</ele>
        <time>2021-03-20T17:12:30Z</time>
      </trkpt>
      <trkpt lat="52.24407" lon="-6.35469">
        <ele>12.89</ele>
        <time>2021-03-20T17:12:35Z</time>
      </trkpt>
      <trkpt lat="52.24589" lon="-6.35413">
        <ele>11</ele>
        <time>2021-03-20T17:12:39Z</time>
      </trkpt>
      <trkpt lat="52.24627" lon="-6.35404">
        <ele>11</ele>
        <time>2021-03-20T17:12:44Z</time>
      </trkpt>
      <trkpt lat="52.24642" lon="-6.35405">
        <ele>10.95</ele>
        <time>2021-03-20T17:12:49Z</time>
      </trkpt>
      <trkpt lat="52.24684" lon="-6.35421">
        <ele>11</ele>
        <time>2021-03-20T17:12:53Z</time>
      </trkpt>
      <trkpt lat="52.24747" lon="-6.35437">
        <ele>11</ele>
        <time>2021-03-20T17:12:58Z</time>
      </trkpt>
      <trkpt lat="52.24783" lon="-6.35443">
        <ele>10.81</ele>
        <time>2021-03-20T17:13:03Z</time>
      </trkpt>
      <trkpt lat="52.24797" lon="-6.35438">
        <ele>10.3</ele>
        <time>2021-03-20T17:13:07Z</time>
      </trkpt>
      <trkpt lat="52.2484" lon="-6.35402">
        <ele>10.52</ele>
        <time>2021-03-20T17:13:12Z</time>
      </trkpt>
      <trkpt lat="52.24864" lon="-6.35397">
        <ele>10.64</ele>
        <time>2021-03-20T17:13:17Z</time>
      </trkpt>
      <trkpt lat="52.24894" lon="-6.35398">
        <ele>10.11</ele>
        <time>2021-03-20T17:13:21Z</time>
      </trkpt>
      <trkpt lat="52.24917" lon="-6.35391">
        <ele>10.95</ele>
        <time>2021-03-20T17:13:26Z</time>
      </trkpt>
      <trkpt lat="52.24998" lon="-6.35342">
        <ele>12.62</ele>
        <time>2021-03-20T17:13:31Z</time>
      </trkpt>
      <trkpt lat="52.24999" lon="-6.35326">
        <ele>12.95</ele>
        <time>2021-03-20T17:13:35Z</time>
      </trkpt>
      <trkpt lat="52.24986" lon="-6.35224">
        <ele>14.42</ele>
        <time>2021-03-20T17:13:40Z</time>
      </trkpt>
      <trkpt lat="52.2493" lon="-6.34812">
        <ele>15.89</ele>
        <time>2021-03-20T17:13:44Z</time>
      </trkpt>
      <trkpt lat="52.24927" lon="-6.34777">
        <ele>16.63</ele>
        <time>2021-03-20T17:13:48Z</time>
      </trkpt>
      <trkpt lat="52.24929" lon="-6.34763">
        <ele>16.56</ele>
        <time>2021-03-20T17:13:52Z</time>
      </trkpt>
      <trkpt lat="52.24942" lon="-6.34734">
        <ele>16.08</ele>
        <time>2021-03-20T17:13:57Z</time>
      </trkpt>
      <trkpt lat="52.24969" lon="-6.34692">
        <ele>16.96</ele>
        <time>2021-03-20T17:14:01Z</time>
      </trkpt>
      <trkpt lat="52.25013" lon="-6.34636">
        <ele>17.58</ele>
        <time>2021-03-20T17:14:05Z</time>
      </trkpt>
      <trkpt lat="52.25023" lon="-6.34616">
        <ele>17.85</ele>
        <time>2021-03-20T17:14:10Z</time>
      </trkpt>
      <trkpt lat="52.25023" lon="-6.34597">
        <ele>18</ele>
        <time>2021-03-20T17:14:14Z</time>
      </trkpt>
      <trkpt lat="52.2502" lon="-6.34548">
        <ele>18</ele>
        <time>2021-03-20T17:14:18Z</time>
      </trkpt>
      <trkpt lat="52.25018" lon="-6.34527">
        <ele>17.99</ele>
        <time>2021-03-20T17:14:23Z</time>
      </trkpt>
      <trkpt lat="52.25012" lon="-6.34506">
        <ele>17.54</ele>
        <time>2021-03-20T17:14:27Z</time>
      </trkpt>
      <trkpt lat="52.2498" lon="-6.34438">
        <ele>17.42</ele>
        <time>2021-03-20T17:14:31Z</time>
      </trkpt>
      <trkpt lat="52.24974" lon="-6.34419">
        <ele>17.84</ele>
        <time>2021-03-20T17:14:36Z</time>
      </trkpt>
      <trkpt lat="52.24969" lon="-6.34393">
        <ele>17.04</ele>
        <time>2021-03-20T17:14:40Z</time>
      </trkpt>
      <trkpt lat="52.25037" lon="-6.34367">
        <ele>15.19</ele>
        <time>2021-03-20T17:14:44Z</time>
      </trkpt>
      <trkpt lat="52.25062" lon="-6.34352">
        <ele>14.73</ele>
        <time>2021-03-20T17:14:47Z</time>
      </trkpt>
      <trkpt lat="52.25089" lon="-6.34322">
        <ele>16.53</ele>
        <time>2021-03-20T17:14:51Z</time>
      </trkpt>
      <trkpt lat="52.251" lon="-6.34306">
        <ele>17</ele>
        <time>2021-03-20T17:14:54Z</time>
      </trkpt>
      <trkpt lat="52.2511" lon="-6.34285">
        <ele>17.04</ele>
        <time>2021-03-20T17:14:58Z</time>
      </trkpt>
      <trkpt lat="52.2512" lon="-6.34258">
        <ele>15.97</ele>
        <time>2021-03-20T17:15:01Z</time>
      </trkpt>
      <trkpt lat="52.25127" lon="-6.34231">
        <ele>13.28</ele>
        <time>2021-03-20T17:15:05Z</time>
      </trkpt>
      <trkpt lat="52.25132" lon="-6.34182">
        <ele>9.62</ele>
        <time>2021-03-20T17:15:08Z</time>
      </trkpt>
      <trkpt lat="52.25132" lon="-6.34131">
        <ele>9.97</ele>
        <time>2021-03-20T17:15:12Z</time>
      </trkpt>
      <trkpt lat="52.25127" lon="-6.34025">
        <ele>12.41</ele>
        <time>2021-03-20T17:15:15Z</time>
      </trkpt>
      <trkpt lat="52.25125" lon="-6.33973">
        <ele>10.41</ele>
        <time>2021-03-20T17:15:19Z</time>
      </trkpt>
      <trkpt lat="52.25127" lon="-6.33923">
        <ele>8.53</ele>
        <time>2021-03-20T17:15:22Z</time>
      </trkpt>
      <trkpt lat="52.25124" lon="-6.33862">
        <ele>8.76</ele>
        <time>2021-03-20T17:15:26Z</time>
      </trkpt>
      <trkpt lat="52.2512" lon="-6.33834">
        <ele>8.44</ele>
        <time>2021-03-20T17:15:29Z</time>
      </trkpt>
      <trkpt lat="52.25107" lon="-6.33775">
        <ele>8.14</ele>
        <time>2021-03-20T17:15:33Z</time>
      </trkpt>
      <trkpt lat="52.25064" lon="-6.33639">
        <ele>7.79</ele>
        <time>2021-03-20T17:15:36Z</time>
      </trkpt>
      <trkpt lat="52.25054" lon="-6.33599">
        <ele>6.51</ele>
        <time>2021-03-20T17:15:40Z</time>
      </trkpt>
      <trkpt lat="52.25048" lon="-6.33551">
        <ele>8.35</ele>
        <time>2021-03-20T17:15:43Z</time>
      </trkpt>
      <trkpt lat="52.25049" lon="-6.33506">
        <ele>7.44</ele>
        <time>2021-03-20T17:15:47Z</time>
      </trkpt>
      <trkpt lat="52.25054" lon="-6.33475">
        <ele>5.46</ele>
        <time>2021-03-20T17:15:51Z</time>
      </trkpt>
      <trkpt lat="52.25057" lon="-6.33467">
        <ele>4.73</ele>
        <time>2021-03-20T17:15:54Z</time>
      </trkpt>
      <trkpt lat="52.25067" lon="-6.33471">
        <ele>4.18</ele>
        <time>2021-03-20T17:15:55Z</time>
      </trkpt>
      <trkpt lat="52.25072" lon="-6.3347">
        <ele>3.79</ele>
        <time>2021-03-20T17:15:55Z</time>
      </trkpt>
      <trkpt lat="52.25077" lon="-6.33465">
        <ele>3.38</ele>
        <time>2021-03-20T17:15:56Z</time>
      </trkpt>
      <trkpt lat="52.25081" lon="-6.33457">
        <ele>3.11</ele>
        <time>2021-03-20T17:15:56Z</time>
      </trkpt>
      <trkpt lat="52.25084" lon="-6.33441">
        <ele>3.1</ele>
        <time>2021-03-20T17:15:57Z</time>
      </trkpt>
      <trkpt lat="52.25083" lon="-6.33434">
        <ele>3.38</ele>
        <time>2021-03-20T17:15:57Z</time>
      </trkpt>
      <trkpt lat="52.25079" lon="-6.33422">
        <ele>3.85</ele>
        <time>2021-03-20T17:15:58Z</time>
      </trkpt>
      <trkpt lat="52.25097" lon="-6.33389">
        <ele>4.53</ele>
        <time>2021-03-20T17:15:58Z</time>
      </trkpt>
      <trkpt lat="52.25126" lon="-6.33359">
        <ele>3.51</ele>
        <time>2021-03-20T17:16:01Z</time>
      </trkpt>
      <trkpt lat="52.25135" lon="-6.33358">
        <ele>3.17</ele>
        <time>2021-03-20T17:16:04Z</time>
      </trkpt>
      <trkpt lat="52.25144" lon="-6.33362">
        <ele>3</ele>
        <time>2021-03-20T17:16:07Z</time>
      </trkpt>
      <trkpt lat="52.25222" lon="-6.33492">
        <ele>3</ele>
        <time>2021-03-20T17:16:09Z</time>
      </trkpt>
      <trkpt lat="52.25242" lon="-6.33527">
        <ele>3.43</ele>
        <time>2021-03-20T17:16:11Z</time>
      </trkpt>
      <trkpt lat="52.25244" lon="-6.33539">
        <ele>3.55</ele>
        <time>2021-03-20T17:16:12Z</time>
      </trkpt>
      <trkpt lat="52.25241" lon="-6.33546">
        <ele>3.34</ele>
        <time>2021-03-20T17:16:13Z</time>
      </trkpt>
      <trkpt lat="52.25237" lon="-6.33549">
        <ele>3.08</ele>
        <time>2021-03-20T17:16:14Z</time>
      </trkpt>
      <trkpt lat="52.25233" lon="-6.33547">
        <ele>2.77</ele>
        <time>2021-03-20T17:16:15Z</time>
      </trkpt>
      <trkpt lat="52.25192" lon="-6.3348">
        <ele>0.46</ele>
        <time>2021-03-20T17:16:16Z</time>
      </trkpt>
      <trkpt lat="52.25133" lon="-6.33382">
        <ele>3.21</ele>
        <time>2021-03-20T17:16:20Z</time>
      </trkpt>
      <trkpt lat="52.25097" lon="-6.33443">
        <ele>2.54</ele>
        <time>2021-03-20T17:16:23Z</time>
      </trkpt>
      <trkpt lat="52.2519" lon="-6.336">
        <ele>2.59</ele>
        <time>2021-03-20T17:16:26Z</time>
      </trkpt>
      <trkpt lat="52.25214" lon="-6.33587">
        <ele>2.04</ele>
        <time>2021-03-20T17:16:30Z</time>
      </trkpt>
      <trkpt lat="52.25227" lon="-6.33584">
        <ele>2.18</ele>
        <time>2021-03-20T17:16:33Z</time>
      </trkpt>
      <trkpt lat="52.25248" lon="-6.33588">
        <ele>2.94</ele>
        <time>2021-03-20T17:16:36Z</time>
      </trkpt>
      <trkpt lat="52.25275" lon="-6.33596">
        <ele>3.88</ele>
        <time>2021-03-20T17:16:40Z</time>
      </trkpt>
      <trkpt lat="52.25319" lon="-6.33586">
        <ele>4</ele>
        <time>2021-03-20T17:16:43Z</time>
      </trkpt>
      <trkpt lat="52.25383" lon="-6.33657">
        <ele>5</ele>
        <time>2021-03-20T17:17:00Z</time>
      </trkpt>
      <trkpt lat="52.25657" lon="-6.33981">
        <ele>4.99</ele>
        <time>2021-03-20T21:22:46Z</time>
      </trkpt>
      <trkpt lat="52.25931" lon="-6.34057">
        <ele>4.99</ele>
        <time>2021-03-21T01:28:31Z</time>
      </trkpt>
      <trkpt lat="52.26139" lon="-6.33813">
        <ele>4.99</ele>
        <time>2021-03-21T05:34:17Z</time>
      </trkpt>
      <trkpt lat="52.263" lon="-6.33463">
        <ele>4.99</ele>
        <time>2021-03-21T09:40:02Z</time>
      </trkpt>
      <trkpt lat="52.26311" lon="-6.32866">
        <ele>4.98</ele>
        <time>2021-03-21T13:45:48Z</time>
      </trkpt>
      <trkpt lat="52.26129" lon="-6.31983">
        <ele>4.97</ele>
        <time>2021-03-21T17:51:33Z</time>
      </trkpt>
      <trkpt lat="52.25046" lon="-6.29144">
        <ele>4.93</ele>
        <time>2021-03-21T21:57:19Z</time>
      </trkpt>
      <trkpt lat="52.22515" lon="-6.25432">
        <ele>4.87</ele>
        <time>2021-03-22T02:03:04Z</time>
      </trkpt>
      <trkpt lat="52.20407" lon="-6.24012">
        <ele>4.84</ele>
        <time>2021-03-22T06:08:50Z</time>
      </trkpt>
      <trkpt lat="50.78907" lon="-5.98955">
        <ele>3.04</ele>
        <time>2021-03-22T10:14:35Z</time>
      </trkpt>
      <trkpt lat="50.73571" lon="-5.98268">
        <ele>2.98</ele>
        <time>2021-03-22T14:20:21Z</time>
      </trkpt>
      <trkpt lat="50.39115" lon="-5.9221">
        <ele>2.59</ele>
        <time>2021-03-22T18:26:06Z</time>
      </trkpt>
      <trkpt lat="50.39115" lon="-5.9221">
        <ele>2.59</ele>
        <time>2021-03-22T18:26:06Z</time>
      </trkpt>
      <trkpt lat="50.15067" lon="-5.87981">
        <ele>2.59</ele>
        <time>2021-03-23T00:37:27Z</time>
      </trkpt>
      <trkpt lat="50.15067" lon="-5.87981">
        <ele>2.59</ele>
        <time>2021-03-23T00:37:27Z</time>
      </trkpt>
      <trkpt lat="49.94658" lon="-5.84392">
        <ele>2.2</ele>
        <time>2021-03-23T03:45:05Z</time>
      </trkpt>
      <trkpt lat="49.92529" lon="-5.79285">
        <ele>2.05</ele>
        <time>2021-03-23T06:52:42Z</time>
      </trkpt>
      <trkpt lat="49.92529" lon="-5.79285">
        <ele>2.05</ele>
        <time>2021-03-23T06:52:42Z</time>
      </trkpt>
      <trkpt lat="49.81138" lon="-5.51955">
        <ele>1.89</ele>
        <time>2021-03-23T11:37:16Z</time>
      </trkpt>
      <trkpt lat="49.78754" lon="-1.89857">
        <ele>-2.38</ele>
        <time>2021-03-23T16:21:50Z</time>
      </trkpt>
      <trkpt lat="49.67271" lon="-1.65358">
        <ele>-2.77</ele>
        <time>2021-03-23T21:06:23Z</time>
      </trkpt>
      <trkpt lat="49.67121" lon="-1.64953">
        <ele>-2.78</ele>
        <time>2021-03-24T01:50:57Z</time>
      </trkpt>
      <trkpt lat="49.67055" lon="-1.6474">
        <ele>-2.78</ele>
        <time>2021-03-24T06:35:31Z</time>
      </trkpt>
      <trkpt lat="49.66943" lon="-1.64322">
        <ele>-2.79</ele>
        <time>2021-03-24T11:20:04Z</time>
      </trkpt>
      <trkpt lat="49.66749" lon="-1.63624">
        <ele>-2.8</ele>
        <time>2021-03-24T16:04:38Z</time>
      </trkpt>
      <trkpt lat="49.66349" lon="-1.6209">
        <ele>-2.82</ele>
        <time>2021-03-24T20:49:12Z</time>
      </trkpt>
      <trkpt lat="49.66293" lon="-1.61919">
        <ele>-2.82</ele>
        <time>2021-03-25T01:33:45Z</time>
      </trkpt>
      <trkpt lat="49.66221" lon="-1.61809">
        <ele>-2.82</ele>
        <time>2021-03-25T06:18:19Z</time>
      </trkpt>
      <trkpt lat="49.66157" lon="-1.61716">
        <ele>-2.82</ele>
        <time>2021-03-25T11:02:53Z</time>
      </trkpt>
      <trkpt lat="49.66046" lon="-1.61612">
        <ele>-2.82</ele>
        <time>2021-03-25T15:47:26Z</time>
      </trkpt>
      <trkpt lat="49.65846" lon="-1.61517">
        <ele>-2.83</ele>
        <time>2021-03-25T20:32:00Z</time>
      </trkpt>
      <trkpt lat="49.65178" lon="-1.61338">
        <ele>-2.84</ele>
        <time>2021-03-26T01:16:34Z</time>
      </trkpt>
      <trkpt lat="49.64927" lon="-1.61296">
        <ele>-2.84</ele>
        <time>2021-03-26T06:01:07Z</time>
      </trkpt>
      <trkpt lat="49.64877" lon="-1.61286">
        <ele>2.95</ele>
        <time>2021-03-26T06:01:14Z</time>
      </trkpt>
      <trkpt lat="49.64862" lon="-1.61291">
        <ele>4.4</ele>
        <time>2021-03-26T06:01:21Z</time>
      </trkpt>
      <trkpt lat="49.64831" lon="-1.61295">
        <ele>3.3</ele>
        <time>2021-03-26T06:01:29Z</time>
      </trkpt>
      <trkpt lat="49.64771" lon="-1.61284">
        <ele>1.41</ele>
        <time>2021-03-26T06:01:36Z</time>
      </trkpt>
      <trkpt lat="49.64714" lon="-1.61284">
        <ele>3</ele>
        <time>2021-03-26T06:01:43Z</time>
      </trkpt>
      <trkpt lat="49.64391" lon="-1.61225">
        <ele>2.9</ele>
        <time>2021-03-26T06:01:50Z</time>
      </trkpt>
      <trkpt lat="49.64367" lon="-1.61228">
        <ele>2.81</ele>
        <time>2021-03-26T06:01:57Z</time>
      </trkpt>
      <trkpt lat="49.64343" lon="-1.61223">
        <ele>2.33</ele>
        <time>2021-03-26T06:02:04Z</time>
      </trkpt>
      <trkpt lat="49.64333" lon="-1.61219">
        <ele>1.99</ele>
        <time>2021-03-26T06:02:11Z</time>
      </trkpt>
      <trkpt lat="49.64317" lon="-1.61204">
        <ele>0.85</ele>
        <time>2021-03-26T06:02:18Z</time>
      </trkpt>
      <trkpt lat="49.6427" lon="-1.61154">
        <ele>1.85</ele>
        <time>2021-03-26T06:02:25Z</time>
      </trkpt>
      <trkpt lat="49.6429" lon="-1.60883">
        <ele>1.43</ele>
        <time>2021-03-26T06:02:32Z</time>
      </trkpt>
      <trkpt lat="49.64299" lon="-1.60805">
        <ele>3.01</ele>
        <time>2021-03-26T06:02:38Z</time>
      </trkpt>
      <trkpt lat="49.64364" lon="-1.60341">
        <ele>3.91</ele>
        <time>2021-03-26T06:02:45Z</time>
      </trkpt>
      <trkpt lat="49.64374" lon="-1.60285">
        <ele>2.67</ele>
        <time>2021-03-26T06:02:52Z</time>
      </trkpt>
      <trkpt lat="49.64382" lon="-1.60258">
        <ele>2.24</ele>
        <time>2021-03-26T06:02:58Z</time>
      </trkpt>
      <trkpt lat="49.6442" lon="-1.60163">
        <ele>2.99</ele>
        <time>2021-03-26T06:03:05Z</time>
      </trkpt>
      <trkpt lat="49.64425" lon="-1.60142">
        <ele>3.29</ele>
        <time>2021-03-26T06:03:12Z</time>
      </trkpt>
      <trkpt lat="49.64432" lon="-1.60098">
        <ele>1.42</ele>
        <time>2021-03-26T06:03:19Z</time>
      </trkpt>
      <trkpt lat="49.64437" lon="-1.6008">
        <ele>0.47</ele>
        <time>2021-03-26T06:03:25Z</time>
      </trkpt>
      <trkpt lat="49.64444" lon="-1.60065">
        <ele>0.01</ele>
        <time>2021-03-26T06:03:32Z</time>
      </trkpt>
      <trkpt lat="49.64449" lon="-1.60057">
        <ele>0.51</ele>
        <time>2021-03-26T06:03:39Z</time>
      </trkpt>
      <trkpt lat="49.64463" lon="-1.60049">
        <ele>2.04</ele>
        <time>2021-03-26T06:03:46Z</time>
      </trkpt>
      <trkpt lat="49.64468" lon="-1.6005">
        <ele>2.52</ele>
        <time>2021-03-26T06:03:52Z</time>
      </trkpt>
      <trkpt lat="49.64468" lon="-1.6005">
        <ele>2.52</ele>
        <time>2021-03-26T06:03:52Z</time>
      </trkpt>
      <trkpt lat="49.64497" lon="-1.6005">
        <ele>3</ele>
        <time>2021-03-26T06:03:54Z</time>
      </trkpt>
      <trkpt lat="49.64504" lon="-1.60045">
        <ele>3</ele>
        <time>2021-03-26T06:03:56Z</time>
      </trkpt>
      <trkpt lat="49.6451" lon="-1.60035">
        <ele>3</ele>
        <time>2021-03-26T06:03:57Z</time>
      </trkpt>
      <trkpt lat="49.64513" lon="-1.60019">
        <ele>3</ele>
        <time>2021-03-26T06:03:59Z</time>
      </trkpt>
      <trkpt lat="49.64512" lon="-1.60003">
        <ele>3</ele>
        <time>2021-03-26T06:04:01Z</time>
      </trkpt>
      <trkpt lat="49.64507" lon="-1.59986">
        <ele>2.87</ele>
        <time>2021-03-26T06:04:02Z</time>
      </trkpt>
      <trkpt lat="49.64492" lon="-1.59962">
        <ele>2.72</ele>
        <time>2021-03-26T06:04:04Z</time>
      </trkpt>
      <trkpt lat="49.6448" lon="-1.59961">
        <ele>2.27</ele>
        <time>2021-03-26T06:04:06Z</time>
      </trkpt>
      <trkpt lat="49.64474" lon="-1.59957">
        <ele>2.06</ele>
        <time>2021-03-26T06:04:07Z</time>
      </trkpt>
      <trkpt lat="49.64465" lon="-1.59943">
        <ele>2</ele>
        <time>2021-03-26T06:04:09Z</time>
      </trkpt>
      <trkpt lat="49.64461" lon="-1.59923">
        <ele>2</ele>
        <time>2021-03-26T06:04:11Z</time>
      </trkpt>
      <trkpt lat="49.64464" lon="-1.59902">
        <ele>2</ele>
        <time>2021-03-26T06:04:13Z</time>
      </trkpt>
      <trkpt lat="49.64474" lon="-1.59887">
        <ele>2.04</ele>
        <time>2021-03-26T06:04:15Z</time>
      </trkpt>
      <trkpt lat="49.64486" lon="-1.5988">
        <ele>2.35</ele>
        <time>2021-03-26T06:04:17Z</time>
      </trkpt>
      <trkpt lat="49.64498" lon="-1.59862">
        <ele>2.04</ele>
        <time>2021-03-26T06:04:18Z</time>
      </trkpt>
      <trkpt lat="49.64506" lon="-1.5984">
        <ele>1.67</ele>
        <time>2021-03-26T06:04:20Z</time>
      </trkpt>
      <trkpt lat="49.64512" lon="-1.59808">
        <ele>1.46</ele>
        <time>2021-03-26T06:04:22Z</time>
      </trkpt>
      <trkpt lat="49.64519" lon="-1.59782">
        <ele>2.51</ele>
        <time>2021-03-26T06:04:24Z</time>
      </trkpt>
      <trkpt lat="49.64532" lon="-1.59747">
        <ele>3</ele>
        <time>2021-03-26T06:04:26Z</time>
      </trkpt>
      <trkpt lat="49.64616" lon="-1.59575">
        <ele>2.32</ele>
        <time>2021-03-26T06:04:28Z</time>
      </trkpt>
      <trkpt lat="49.64765" lon="-1.59289">
        <ele>1.32</ele>
        <time>2021-03-26T06:04:29Z</time>
      </trkpt>
      <trkpt lat="49.64778" lon="-1.59268">
        <ele>1.37</ele>
        <time>2021-03-26T06:04:31Z</time>
      </trkpt>
      <trkpt lat="49.64811" lon="-1.59229">
        <ele>2.21</ele>
        <time>2021-03-26T06:04:33Z</time>
      </trkpt>
      <trkpt lat="49.64818" lon="-1.59211">
        <ele>2.46</ele>
        <time>2021-03-26T06:04:35Z</time>
      </trkpt>
      <trkpt lat="49.64821" lon="-1.59201">
        <ele>2.55</ele>
        <time>2021-03-26T06:04:37Z</time>
      </trkpt>
      <trkpt lat="49.64818" lon="-1.5919">
        <ele>2.45</ele>
        <time>2021-03-26T06:04:40Z</time>
      </trkpt>
      <trkpt lat="49.64818" lon="-1.59167">
        <ele>2.43</ele>
        <time>2021-03-26T06:04:44Z</time>
      </trkpt>
      <trkpt lat="49.64824" lon="-1.59146">
        <ele>2.91</ele>
        <time>2021-03-26T06:04:48Z</time>
      </trkpt>
      <trkpt lat="49.64829" lon="-1.59139">
        <ele>2.99</ele>
        <time>2021-03-26T06:04:51Z</time>
      </trkpt>
      <trkpt lat="49.64841" lon="-1.59129">
        <ele>2.39</ele>
        <time>2021-03-26T06:04:55Z</time>
      </trkpt>
      <trkpt lat="49.64849" lon="-1.59128">
        <ele>2.03</ele>
        <time>2021-03-26T06:04:59Z</time>
      </trkpt>
      <trkpt lat="49.64863" lon="-1.59111">
        <ele>0.94</ele>
        <time>2021-03-26T06:05:02Z</time>
      </trkpt>
      <trkpt lat="49.64871" lon="-1.59094">
        <ele>0.46</ele>
        <time>2021-03-26T06:05:06Z</time>
      </trkpt>
      <trkpt lat="49.64932" lon="-1.58989">
        <ele>2.18</ele>
        <time>2021-03-26T06:05:10Z</time>
      </trkpt>
      <trkpt lat="49.64963" lon="-1.58933">
        <ele>2.14</ele>
        <time>2021-03-26T06:05:14Z</time>
      </trkpt>
      <trkpt lat="49.6506" lon="-1.58706">
        <ele>3.09</ele>
        <time>2021-03-26T06:05:17Z</time>
      </trkpt>
      <trkpt lat="49.65246" lon="-1.58339">
        <ele>2</ele>
        <time>2021-03-26T06:05:21Z</time>
      </trkpt>
      <trkpt lat="49.6528" lon="-1.58265">
        <ele>1.9</ele>
        <time>2021-03-26T06:05:25Z</time>
      </trkpt>
      <trkpt lat="49.65298" lon="-1.58218">
        <ele>0.68</ele>
        <time>2021-03-26T06:05:28Z</time>
      </trkpt>
      <trkpt lat="49.65311" lon="-1.5817">
        <ele>2.76</ele>
        <time>2021-03-26T06:05:32Z</time>
      </trkpt>
      <trkpt lat="49.65328" lon="-1.58074">
        <ele>3</ele>
        <time>2021-03-26T06:05:36Z</time>
      </trkpt>
      <trkpt lat="49.6534" lon="-1.57961">
        <ele>4.86</ele>
        <time>2021-03-26T06:05:39Z</time>
      </trkpt>
      <trkpt lat="49.6534" lon="-1.57944">
        <ele>4.98</ele>
        <time>2021-03-26T06:05:43Z</time>
      </trkpt>
      <trkpt lat="49.65338" lon="-1.57924">
        <ele>4.39</ele>
        <time>2021-03-26T06:05:47Z</time>
      </trkpt>
      <trkpt lat="49.65327" lon="-1.57911">
        <ele>4.18</ele>
        <time>2021-03-26T06:05:49Z</time>
      </trkpt>
      <trkpt lat="49.6532" lon="-1.57893">
        <ele>4.07</ele>
        <time>2021-03-26T06:05:52Z</time>
      </trkpt>
      <trkpt lat="49.65319" lon="-1.57871">
        <ele>3.36</ele>
        <time>2021-03-26T06:05:55Z</time>
      </trkpt>
      <trkpt lat="49.65323" lon="-1.5785">
        <ele>3</ele>
        <time>2021-03-26T06:05:58Z</time>
      </trkpt>
      <trkpt lat="49.65333" lon="-1.57835">
        <ele>3</ele>
        <time>2021-03-26T06:06:01Z</time>
      </trkpt>
      <trkpt lat="49.6534" lon="-1.57829">
        <ele>2.89</ele>
        <time>2021-03-26T06:06:03Z</time>
      </trkpt>
      <trkpt lat="49.6535" lon="-1.57802">
        <ele>2.59</ele>
        <time>2021-03-26T06:06:06Z</time>
      </trkpt>
      <trkpt lat="49.65354" lon="-1.57785">
        <ele>2.74</ele>
        <time>2021-03-26T06:06:09Z</time>
      </trkpt>
      <trkpt lat="49.6539" lon="-1.57336">
        <ele>4.91</ele>
        <time>2021-03-26T06:06:12Z</time>
      </trkpt>
      <trkpt lat="49.65392" lon="-1.57285">
        <ele>5.12</ele>
        <time>2021-03-26T06:06:15Z</time>
      </trkpt>
      <trkpt lat="49.65392" lon="-1.57234">
        <ele>5</ele>
        <time>2021-03-26T06:06:17Z</time>
      </trkpt>
      <trkpt lat="49.65384" lon="-1.57146">
        <ele>5</ele>
        <time>2021-03-26T06:06:20Z</time>
      </trkpt>
      <trkpt lat="49.65374" lon="-1.57093">
        <ele>5.45</ele>
        <time>2021-03-26T06:06:23Z</time>
      </trkpt>
      <trkpt lat="49.65361" lon="-1.57045">
        <ele>3.6</ele>
        <time>2021-03-26T06:06:26Z</time>
      </trkpt>
      <trkpt lat="49.65328" lon="-1.56951">
        <ele>2</ele>
        <time>2021-03-26T06:06:29Z</time>
      </trkpt>
      <trkpt lat="49.65232" lon="-1.56724">
        <ele>5.96</ele>
        <time>2021-03-26T06:06:31Z</time>
      </trkpt>
      <trkpt lat="49.65217" lon="-1.56694">
        <ele>6</ele>
        <time>2021-03-26T06:06:34Z</time>
      </trkpt>
      <trkpt lat="49.65196" lon="-1.56658">
        <ele>6</ele>
        <time>2021-03-26T06:06:37Z</time>
      </trkpt>
      <trkpt lat="49.65168" lon="-1.56619">
        <ele>6.95</ele>
        <time>2021-03-26T06:06:40Z</time>
      </trkpt>
      <trkpt lat="49.65139" lon="-1.56584">
        <ele>7.99</ele>
        <time>2021-03-26T06:06:43Z</time>
      </trkpt>
      <trkpt lat="49.65117" lon="-1.56563">
        <ele>8.79</ele>
        <time>2021-03-26T06:06:45Z</time>
      </trkpt>
      <trkpt lat="49.65078" lon="-1.56533">
        <ele>10</ele>
        <time>2021-03-26T06:06:48Z</time>
      </trkpt>
      <trkpt lat="49.65028" lon="-1.56506">
        <ele>12.73</ele>
        <time>2021-03-26T06:06:51Z</time>
      </trkpt>
      <trkpt lat="49.64985" lon="-1.56491">
        <ele>16.82</ele>
        <time>2021-03-26T06:06:54Z</time>
      </trkpt>
      <trkpt lat="49.64906" lon="-1.56482">
        <ele>22.41</ele>
        <time>2021-03-26T06:06:57Z</time>
      </trkpt>
      <trkpt lat="49.64721" lon="-1.56487">
        <ele>52.69</ele>
        <time>2021-03-26T06:06:59Z</time>
      </trkpt>
      <trkpt lat="49.64681" lon="-1.56484">
        <ele>57.53</ele>
        <time>2021-03-26T06:07:02Z</time>
      </trkpt>
      <trkpt lat="49.64651" lon="-1.56478">
        <ele>63.61</ele>
        <time>2021-03-26T06:07:05Z</time>
      </trkpt>
      <trkpt lat="49.64615" lon="-1.56467">
        <ele>68.36</ele>
        <time>2021-03-26T06:07:08Z</time>
      </trkpt>
      <trkpt lat="49.64582" lon="-1.56451">
        <ele>68.61</ele>
        <time>2021-03-26T06:07:11Z</time>
      </trkpt>
      <trkpt lat="49.64536" lon="-1.5642">
        <ele>74.07</ele>
        <time>2021-03-26T06:07:13Z</time>
      </trkpt>
      <trkpt lat="49.64473" lon="-1.56352">
        <ele>75.04</ele>
        <time>2021-03-26T06:07:16Z</time>
      </trkpt>
      <trkpt lat="49.64455" lon="-1.56327">
        <ele>75.23</ele>
        <time>2021-03-26T06:07:19Z</time>
      </trkpt>
      <trkpt lat="49.64426" lon="-1.56281">
        <ele>76.96</ele>
        <time>2021-03-26T06:07:22Z</time>
      </trkpt>
      <trkpt lat="49.64401" lon="-1.5623">
        <ele>78.41</ele>
        <time>2021-03-26T06:07:25Z</time>
      </trkpt>
      <trkpt lat="49.64383" lon="-1.56187">
        <ele>79.06</ele>
        <time>2021-03-26T06:07:27Z</time>
      </trkpt>
      <trkpt lat="49.64146" lon="-1.55458">
        <ele>78.43</ele>
        <time>2021-03-26T06:07:30Z</time>
      </trkpt>
      <trkpt lat="49.64126" lon="-1.55408">
        <ele>77.88</ele>
        <time>2021-03-26T06:07:33Z</time>
      </trkpt>
      <trkpt lat="49.64109" lon="-1.55374">
        <ele>78.54</ele>
        <time>2021-03-26T06:07:36Z</time>
      </trkpt>
      <trkpt lat="49.6408" lon="-1.55326">
        <ele>80.61</ele>
        <time>2021-03-26T06:07:39Z</time>
      </trkpt>
      <trkpt lat="49.64044" lon="-1.55276">
        <ele>85.53</ele>
        <time>2021-03-26T06:07:41Z</time>
      </trkpt>
      <trkpt lat="49.63995" lon="-1.55227">
        <ele>90.13</ele>
        <time>2021-03-26T06:07:44Z</time>
      </trkpt>
      <trkpt lat="49.63967" lon="-1.55206">
        <ele>92.57</ele>
        <time>2021-03-26T06:07:47Z</time>
      </trkpt>
      <trkpt lat="49.63938" lon="-1.55188">
        <ele>93.05</ele>
        <time>2021-03-26T06:07:50Z</time>
      </trkpt>
      <trkpt lat="49.63909" lon="-1.55175">
        <ele>92.81</ele>
        <time>2021-03-26T06:07:53Z</time>
      </trkpt>
      <trkpt lat="49.63884" lon="-1.55166">
        <ele>91.54</ele>
        <time>2021-03-26T06:07:55Z</time>
      </trkpt>
      <trkpt lat="49.63858" lon="-1.55159">
        <ele>89.65</ele>
        <time>2021-03-26T06:07:58Z</time>
      </trkpt>
      <trkpt lat="49.63813" lon="-1.55154">
        <ele>86.72</ele>
        <time>2021-03-26T06:08:01Z</time>
      </trkpt>
      <trkpt lat="49.63766" lon="-1.55159">
        <ele>83.28</ele>
        <time>2021-03-26T06:08:04Z</time>
      </trkpt>
      <trkpt lat="49.63711" lon="-1.55176">
        <ele>82.07</ele>
        <time>2021-03-26T06:08:07Z</time>
      </trkpt>
      <trkpt lat="49.63679" lon="-1.55194">
        <ele>82.61</ele>
        <time>2021-03-26T06:08:09Z</time>
      </trkpt>
      <trkpt lat="49.63638" lon="-1.55221">
        <ele>85.11</ele>
        <time>2021-03-26T06:08:12Z</time>
      </trkpt>
      <trkpt lat="49.63603" lon="-1.55252">
        <ele>85.78</ele>
        <time>2021-03-26T06:08:15Z</time>
      </trkpt>
      <trkpt lat="49.63566" lon="-1.55295">
        <ele>86</ele>
        <time>2021-03-26T06:08:18Z</time>
      </trkpt>
      <trkpt lat="49.6354" lon="-1.55337">
        <ele>82.88</ele>
        <time>2021-03-26T06:08:21Z</time>
      </trkpt>
      <trkpt lat="49.63502" lon="-1.55407">
        <ele>84.22</ele>
        <time>2021-03-26T06:08:23Z</time>
      </trkpt>
      <trkpt lat="49.63473" lon="-1.55483">
        <ele>84.51</ele>
        <time>2021-03-26T06:08:26Z</time>
      </trkpt>
      <trkpt lat="49.6346" lon="-1.55534">
        <ele>83.46</ele>
        <time>2021-03-26T06:08:29Z</time>
      </trkpt>
      <trkpt lat="49.63448" lon="-1.55601">
        <ele>79.69</ele>
        <time>2021-03-26T06:08:32Z</time>
      </trkpt>
      <trkpt lat="49.63442" lon="-1.5565">
        <ele>78.36</ele>
        <time>2021-03-26T06:08:35Z</time>
      </trkpt>
      <trkpt lat="49.63441" lon="-1.55716">
        <ele>73.69</ele>
        <time>2021-03-26T06:08:37Z</time>
      </trkpt>
      <trkpt lat="49.63443" lon="-1.5575">
        <ele>72.07</ele>
        <time>2021-03-26T06:08:40Z</time>
      </trkpt>
      <trkpt lat="49.6345" lon="-1.55776">
        <ele>71.79</ele>
        <time>2021-03-26T06:08:42Z</time>
      </trkpt>
      <trkpt lat="49.63466" lon="-1.55798">
        <ele>70.8</ele>
        <time>2021-03-26T06:08:45Z</time>
      </trkpt>
      <trkpt lat="49.63484" lon="-1.55808">
        <ele>69.96</ele>
        <time>2021-03-26T06:08:48Z</time>
      </trkpt>
      <trkpt lat="49.63493" lon="-1.55806">
        <ele>69.98</ele>
        <time>2021-03-26T06:08:50Z</time>
      </trkpt>
      <trkpt lat="49.63507" lon="-1.55797">
        <ele>69.83</ele>
        <time>2021-03-26T06:08:53Z</time>
      </trkpt>
      <trkpt lat="49.6357" lon="-1.5567">
        <ele>73.88</ele>
        <time>2021-03-26T06:08:56Z</time>
      </trkpt>
      <trkpt lat="49.63584" lon="-1.55635">
        <ele>75.13</ele>
        <time>2021-03-26T06:08:58Z</time>
      </trkpt>
      <trkpt lat="49.63604" lon="-1.5557">
        <ele>74.39</ele>
        <time>2021-03-26T06:09:01Z</time>
      </trkpt>
      <trkpt lat="49.63692" lon="-1.55205">
        <ele>81.7</ele>
        <time>2021-03-26T06:09:04Z</time>
      </trkpt>
      <trkpt lat="49.63699" lon="-1.55146">
        <ele>84.08</ele>
        <time>2021-03-26T06:09:06Z</time>
      </trkpt>
      <trkpt lat="49.63712" lon="-1.55064">
        <ele>85.87</ele>
        <time>2021-03-26T06:09:09Z</time>
      </trkpt>
      <trkpt lat="49.63706" lon="-1.55061">
        <ele>86.71</ele>
        <time>2021-03-26T06:09:11Z</time>
      </trkpt>
      <trkpt lat="49.63697" lon="-1.55053">
        <ele>87.79</ele>
        <time>2021-03-26T06:09:12Z</time>
      </trkpt>
      <trkpt lat="49.63689" lon="-1.5504">
        <ele>88.64</ele>
        <time>2021-03-26T06:09:14Z</time>
      </trkpt>
      <trkpt lat="49.63685" lon="-1.55025">
        <ele>89.42</ele>
        <time>2021-03-26T06:09:16Z</time>
      </trkpt>
      <trkpt lat="49.63684" lon="-1.55009">
        <ele>90.14</ele>
        <time>2021-03-26T06:09:18Z</time>
      </trkpt>
      <trkpt lat="49.63687" lon="-1.54991">
        <ele>90.9</ele>
        <time>2021-03-26T06:09:19Z</time>
      </trkpt>
      <trkpt lat="49.63694" lon="-1.54977">
        <ele>91.62</ele>
        <time>2021-03-26T06:09:21Z</time>
      </trkpt>
      <trkpt lat="49.63703" lon="-1.54966">
        <ele>92.21</ele>
        <time>2021-03-26T06:09:23Z</time>
      </trkpt>
      <trkpt lat="49.63714" lon="-1.54961">
        <ele>91.91</ele>
        <time>2021-03-26T06:09:25Z</time>
      </trkpt>
      <trkpt lat="49.63723" lon="-1.54961">
        <ele>91.15</ele>
        <time>2021-03-26T06:09:26Z</time>
      </trkpt>
      <trkpt lat="49.63749" lon="-1.54742">
        <ele>97.39</ele>
        <time>2021-03-26T06:09:28Z</time>
      </trkpt>
      <trkpt lat="49.63763" lon="-1.54665">
        <ele>100.52</ele>
        <time>2021-03-26T06:09:30Z</time>
      </trkpt>
      <trkpt lat="49.63776" lon="-1.54613">
        <ele>103.79</ele>
        <time>2021-03-26T06:09:32Z</time>
      </trkpt>
      <trkpt lat="49.63792" lon="-1.54562">
        <ele>106.75</ele>
        <time>2021-03-26T06:09:33Z</time>
      </trkpt>
      <trkpt lat="49.63788" lon="-1.54559">
        <ele>106.89</ele>
        <time>2021-03-26T06:09:39Z</time>
      </trkpt>
      <trkpt lat="49.6375" lon="-1.54541">
        <ele>108.04</ele>
        <time>2021-03-26T06:09:46Z</time>
      </trkpt>
      <trkpt lat="49.63734" lon="-1.54536">
        <ele>107.78</ele>
        <time>2021-03-26T06:09:52Z</time>
      </trkpt>
      <trkpt lat="49.63721" lon="-1.54536">
        <ele>107.57</ele>
        <time>2021-03-26T06:09:58Z</time>
      </trkpt>
      <trkpt lat="49.63711" lon="-1.54543">
        <ele>108.37</ele>
        <time>2021-03-26T06:10:04Z</time>
      </trkpt>
      <trkpt lat="49.63688" lon="-1.54583">
        <ele>109.18</ele>
        <time>2021-03-26T06:10:10Z</time>
      </trkpt>
      <trkpt lat="49.63615" lon="-1.54747">
        <ele>114.96</ele>
        <time>2021-03-26T06:10:16Z</time>
      </trkpt>
      <trkpt lat="49.63597" lon="-1.54777">
        <ele>115.14</ele>
        <time>2021-03-26T06:10:22Z</time>
      </trkpt>
      <trkpt lat="49.63576" lon="-1.54801">
        <ele>116.95</ele>
        <time>2021-03-26T06:10:29Z</time>
      </trkpt>
      <trkpt lat="49.63517" lon="-1.54852">
        <ele>119.67</ele>
        <time>2021-03-26T06:10:35Z</time>
      </trkpt>
      <trkpt lat="49.63494" lon="-1.54869">
        <ele>120.93</ele>
        <time>2021-03-26T06:10:41Z</time>
      </trkpt>
      <trkpt lat="49.6346" lon="-1.54884">
        <ele>121.55</ele>
        <time>2021-03-26T06:10:47Z</time>
      </trkpt>
      <trkpt lat="49.63358" lon="-1.54886">
        <ele>123.1</ele>
        <time>2021-03-26T06:10:53Z</time>
      </trkpt>
      <trkpt lat="49.63039" lon="-1.54877">
        <ele>128.45</ele>
        <time>2021-03-26T06:10:59Z</time>
      </trkpt>
      <trkpt lat="49.6269" lon="-1.54874">
        <ele>121.92</ele>
        <time>2021-03-26T06:11:05Z</time>
      </trkpt>
      <trkpt lat="49.62682" lon="-1.54862">
        <ele>121.99</ele>
        <time>2021-03-26T06:11:11Z</time>
      </trkpt>
      <trkpt lat="49.62593" lon="-1.54761">
        <ele>125.49</ele>
        <time>2021-03-26T06:11:17Z</time>
      </trkpt>
      <trkpt lat="49.6255" lon="-1.54715">
        <ele>127.06</ele>
        <time>2021-03-26T06:11:23Z</time>
      </trkpt>
      <trkpt lat="49.62441" lon="-1.54632">
        <ele>127.38</ele>
        <time>2021-03-26T06:11:29Z</time>
      </trkpt>
      <trkpt lat="49.62428" lon="-1.54622">
        <ele>128.2</ele>
        <time>2021-03-26T06:11:36Z</time>
      </trkpt>
      <trkpt lat="49.62378" lon="-1.54573">
        <ele>128.61</ele>
        <time>2021-03-26T06:11:42Z</time>
      </trkpt>
      <trkpt lat="49.62331" lon="-1.54523">
        <ele>130.31</ele>
        <time>2021-03-26T06:11:48Z</time>
      </trkpt>
      <trkpt lat="49.62242" lon="-1.54434">
        <ele>133.3</ele>
        <time>2021-03-26T06:11:54Z</time>
      </trkpt>
      <trkpt lat="49.62228" lon="-1.54416">
        <ele>133.81</ele>
        <time>2021-03-26T06:12:00Z</time>
      </trkpt>
      <trkpt lat="49.62203" lon="-1.5438">
        <ele>134</ele>
        <time>2021-03-26T06:12:06Z</time>
      </trkpt>
      <trkpt lat="49.61917" lon="-1.5377">
        <ele>137.02</ele>
        <time>2021-03-26T06:12:12Z</time>
      </trkpt>
      <trkpt lat="49.61886" lon="-1.53685">
        <ele>136.49</ele>
        <time>2021-03-26T06:12:18Z</time>
      </trkpt>
      <trkpt lat="49.61853" lon="-1.53574">
        <ele>134.24</ele>
        <time>2021-03-26T06:12:24Z</time>
      </trkpt>
      <trkpt lat="49.61814" lon="-1.53404">
        <ele>136.3</ele>
        <time>2021-03-26T06:12:30Z</time>
      </trkpt>
      <trkpt lat="49.6176" lon="-1.5315">
        <ele>135.21</ele>
        <time>2021-03-26T06:12:36Z</time>
      </trkpt>
      <trkpt lat="49.61682" lon="-1.52717">
        <ele>126</ele>
        <time>2021-03-26T06:12:42Z</time>
      </trkpt>
      <trkpt lat="49.61644" lon="-1.52375">
        <ele>123.31</ele>
        <time>2021-03-26T06:12:48Z</time>
      </trkpt>
      <trkpt lat="49.61643" lon="-1.52336">
        <ele>122.85</ele>
        <time>2021-03-26T06:12:54Z</time>
      </trkpt>
      <trkpt lat="49.61646" lon="-1.52248">
        <ele>123.46</ele>
        <time>2021-03-26T06:13:00Z</time>
      </trkpt>
      <trkpt lat="49.61645" lon="-1.5222">
        <ele>123.5</ele>
        <time>2021-03-26T06:13:06Z</time>
      </trkpt>
      <trkpt lat="49.61636" lon="-1.52155">
        <ele>123.06</ele>
        <time>2021-03-26T06:13:12Z</time>
      </trkpt>
      <trkpt lat="49.6163" lon="-1.52129">
        <ele>122.64</ele>
        <time>2021-03-26T06:13:18Z</time>
      </trkpt>
      <trkpt lat="49.61618" lon="-1.52105">
        <ele>121.78</ele>
        <time>2021-03-26T06:13:24Z</time>
      </trkpt>
      <trkpt lat="49.61597" lon="-1.52073">
        <ele>121.52</ele>
        <time>2021-03-26T06:13:30Z</time>
      </trkpt>
      <trkpt lat="49.61582" lon="-1.52043">
        <ele>122.04</ele>
        <time>2021-03-26T06:13:36Z</time>
      </trkpt>
      <trkpt lat="49.61463" lon="-1.51664">
        <ele>118.33</ele>
        <time>2021-03-26T06:13:42Z</time>
      </trkpt>
      <trkpt lat="49.61424" lon="-1.51523">
        <ele>120.82</ele>
        <time>2021-03-26T06:13:48Z</time>
      </trkpt>
      <trkpt lat="49.61395" lon="-1.5145">
        <ele>120.16</ele>
        <time>2021-03-26T06:13:54Z</time>
      </trkpt>
      <trkpt lat="49.61374" lon="-1.51391">
        <ele>120</ele>
        <time>2021-03-26T06:14:00Z</time>
      </trkpt>
      <trkpt lat="49.61355" lon="-1.51332">
        <ele>119.79</ele>
        <time>2021-03-26T06:14:06Z</time>
      </trkpt>
      <trkpt lat="49.61298" lon="-1.51066">
        <ele>113.96</ele>
        <time>2021-03-26T06:14:12Z</time>
      </trkpt>
      <trkpt lat="49.61287" lon="-1.51035">
        <ele>112.39</ele>
        <time>2021-03-26T06:14:18Z</time>
      </trkpt>
      <trkpt lat="49.61143" lon="-1.5073">
        <ele>101.69</ele>
        <time>2021-03-26T06:14:24Z</time>
      </trkpt>
      <trkpt lat="49.61093" lon="-1.50592">
        <ele>96.24</ele>
        <time>2021-03-26T06:14:30Z</time>
      </trkpt>
      <trkpt lat="49.61072" lon="-1.50548">
        <ele>96</ele>
        <time>2021-03-26T06:14:36Z</time>
      </trkpt>
      <trkpt lat="49.61031" lon="-1.50469">
        <ele>93.81</ele>
        <time>2021-03-26T06:14:42Z</time>
      </trkpt>
      <trkpt lat="49.61009" lon="-1.50446">
        <ele>90.47</ele>
        <time>2021-03-26T06:14:48Z</time>
      </trkpt>
      <trkpt lat="49.60992" lon="-1.50433">
        <ele>89.01</ele>
        <time>2021-03-26T06:14:54Z</time>
      </trkpt>
      <trkpt lat="49.60963" lon="-1.50421">
        <ele>88.74</ele>
        <time>2021-03-26T06:15:00Z</time>
      </trkpt>
      <trkpt lat="49.60881" lon="-1.50413">
        <ele>95.27</ele>
        <time>2021-03-26T06:15:06Z</time>
      </trkpt>
      <trkpt lat="49.60864" lon="-1.50408">
        <ele>97.39</ele>
        <time>2021-03-26T06:15:13Z</time>
      </trkpt>
      <trkpt lat="49.60841" lon="-1.50392">
        <ele>100.23</ele>
        <time>2021-03-26T06:15:19Z</time>
      </trkpt>
      <trkpt lat="49.60784" lon="-1.50293">
        <ele>100.49</ele>
        <time>2021-03-26T06:15:25Z</time>
      </trkpt>
      <trkpt lat="49.60743" lon="-1.50227">
        <ele>102.8</ele>
        <time>2021-03-26T06:15:31Z</time>
      </trkpt>
      <trkpt lat="49.60658" lon="-1.50112">
        <ele>107.28</ele>
        <time>2021-03-26T06:15:37Z</time>
      </trkpt>
      <trkpt lat="49.60527" lon="-1.49959">
        <ele>118.6</ele>
        <time>2021-03-26T06:15:43Z</time>
      </trkpt>
      <trkpt lat="49.60438" lon="-1.49869">
        <ele>117.72</ele>
        <time>2021-03-26T06:15:49Z</time>
      </trkpt>
      <trkpt lat="49.6039" lon="-1.49795">
        <ele>114.56</ele>
        <time>2021-03-26T06:15:55Z</time>
      </trkpt>
      <trkpt lat="49.60354" lon="-1.49715">
        <ele>115.99</ele>
        <time>2021-03-26T06:16:01Z</time>
      </trkpt>
      <trkpt lat="49.60318" lon="-1.49644">
        <ele>114.66</ele>
        <time>2021-03-26T06:16:07Z</time>
      </trkpt>
      <trkpt lat="49.60274" lon="-1.49544">
        <ele>111.34</ele>
        <time>2021-03-26T06:16:13Z</time>
      </trkpt>
      <trkpt lat="49.60255" lon="-1.49509">
        <ele>109.36</ele>
        <time>2021-03-26T06:16:19Z</time>
      </trkpt>
      <trkpt lat="49.60238" lon="-1.49471">
        <ele>106.91</ele>
        <time>2021-03-26T06:16:25Z</time>
      </trkpt>
      <trkpt lat="49.60184" lon="-1.49376">
        <ele>100.14</ele>
        <time>2021-03-26T06:16:31Z</time>
      </trkpt>
      <trkpt lat="49.60147" lon="-1.49306">
        <ele>95.29</ele>
        <time>2021-03-26T06:16:37Z</time>
      </trkpt>
      <trkpt lat="49.60116" lon="-1.49229">
        <ele>90.1</ele>
        <time>2021-03-26T06:16:43Z</time>
      </trkpt>
      <trkpt lat="49.60108" lon="-1.49218">
        <ele>89.87</ele>
        <time>2021-03-26T06:16:49Z</time>
      </trkpt>
      <trkpt lat="49.60076" lon="-1.49195">
        <ele>90</ele>
        <time>2021-03-26T06:16:55Z</time>
      </trkpt>
      <trkpt lat="49.59974" lon="-1.49138">
        <ele>95.96</ele>
        <time>2021-03-26T06:17:01Z</time>
      </trkpt>
      <trkpt lat="49.59885" lon="-1.491">
        <ele>99.92</ele>
        <time>2021-03-26T06:17:07Z</time>
      </trkpt>
      <trkpt lat="49.59855" lon="-1.49083">
        <ele>99.55</ele>
        <time>2021-03-26T06:17:13Z</time>
      </trkpt>
      <trkpt lat="49.59833" lon="-1.49063">
        <ele>99.46</ele>
        <time>2021-03-26T06:17:19Z</time>
      </trkpt>
      <trkpt lat="49.59802" lon="-1.49005">
        <ele>98.58</ele>
        <time>2021-03-26T06:17:25Z</time>
      </trkpt>
      <trkpt lat="49.59798" lon="-1.49001">
        <ele>98.18</ele>
        <time>2021-03-26T06:17:31Z</time>
      </trkpt>
      <trkpt lat="49.59793" lon="-1.48999">
        <ele>97.67</ele>
        <time>2021-03-26T06:17:37Z</time>
      </trkpt>
      <trkpt lat="49.59791" lon="-1.48844">
        <ele>101.22</ele>
        <time>2021-03-26T06:17:44Z</time>
      </trkpt>
      <trkpt lat="49.59799" lon="-1.48595">
        <ele>106.54</ele>
        <time>2021-03-26T06:17:52Z</time>
      </trkpt>
      <trkpt lat="49.59805" lon="-1.48523">
        <ele>106.98</ele>
        <time>2021-03-26T06:17:59Z</time>
      </trkpt>
      <trkpt lat="49.59806" lon="-1.48457">
        <ele>106.56</ele>
        <time>2021-03-26T06:18:06Z</time>
      </trkpt>
      <trkpt lat="49.59812" lon="-1.48433">
        <ele>107</ele>
        <time>2021-03-26T06:18:13Z</time>
      </trkpt>
      <trkpt lat="49.59803" lon="-1.48422">
        <ele>106.9</ele>
        <time>2021-03-26T06:18:17Z</time>
      </trkpt>
      <trkpt lat="49.59774" lon="-1.48353">
        <ele>108.39</ele>
        <time>2021-03-26T06:18:21Z</time>
      </trkpt>
      <trkpt lat="49.59763" lon="-1.4833">
        <ele>109.1</ele>
        <time>2021-03-26T06:18:24Z</time>
      </trkpt>
      <trkpt lat="49.5965" lon="-1.48154">
        <ele>112.38</ele>
        <time>2021-03-26T06:18:28Z</time>
      </trkpt>
      <trkpt lat="49.59639" lon="-1.48133">
        <ele>112.21</ele>
        <time>2021-03-26T06:18:31Z</time>
      </trkpt>
      <trkpt lat="49.59634" lon="-1.48103">
        <ele>113.29</ele>
        <time>2021-03-26T06:18:35Z</time>
      </trkpt>
      <trkpt lat="49.59629" lon="-1.48039">
        <ele>115</ele>
        <time>2021-03-26T06:18:38Z</time>
      </trkpt>
      <trkpt lat="49.59623" lon="-1.48004">
        <ele>115.86</ele>
        <time>2021-03-26T06:18:42Z</time>
      </trkpt>
      <trkpt lat="49.59613" lon="-1.4796">
        <ele>116.04</ele>
        <time>2021-03-26T06:18:45Z</time>
      </trkpt>
      <trkpt lat="49.5959" lon="-1.47874">
        <ele>117.54</ele>
        <time>2021-03-26T06:18:49Z</time>
      </trkpt>
      <trkpt lat="49.59563" lon="-1.47791">
        <ele>119.39</ele>
        <time>2021-03-26T06:18:53Z</time>
      </trkpt>
      <trkpt lat="49.59507" lon="-1.47644">
        <ele>121.07</ele>
        <time>2021-03-26T06:18:56Z</time>
      </trkpt>
      <trkpt lat="49.59489" lon="-1.47607">
        <ele>122.65</ele>
        <time>2021-03-26T06:19:00Z</time>
      </trkpt>
      <trkpt lat="49.5946" lon="-1.47542">
        <ele>123</ele>
        <time>2021-03-26T06:19:03Z</time>
      </trkpt>
      <trkpt lat="49.59447" lon="-1.475">
        <ele>123</ele>
        <time>2021-03-26T06:19:07Z</time>
      </trkpt>
      <trkpt lat="49.59439" lon="-1.47468">
        <ele>122.81</ele>
        <time>2021-03-26T06:19:10Z</time>
      </trkpt>
      <trkpt lat="49.59407" lon="-1.47445">
        <ele>121.65</ele>
        <time>2021-03-26T06:19:15Z</time>
      </trkpt>
      <trkpt lat="49.59189" lon="-1.47239">
        <ele>123.21</ele>
        <time>2021-03-26T06:19:19Z</time>
      </trkpt>
      <trkpt lat="49.59079" lon="-1.47147">
        <ele>123.4</ele>
        <time>2021-03-26T06:19:23Z</time>
      </trkpt>
      <trkpt lat="49.59047" lon="-1.47114">
        <ele>124.03</ele>
        <time>2021-03-26T06:19:27Z</time>
      </trkpt>
      <trkpt lat="49.58992" lon="-1.47065">
        <ele>124.28</ele>
        <time>2021-03-26T06:19:31Z</time>
      </trkpt>
      <trkpt lat="49.58969" lon="-1.4705">
        <ele>124.79</ele>
        <time>2021-03-26T06:19:35Z</time>
      </trkpt>
      <trkpt lat="49.58809" lon="-1.46972">
        <ele>125.13</ele>
        <time>2021-03-26T06:19:39Z</time>
      </trkpt>
      <trkpt lat="49.58749" lon="-1.46935">
        <ele>122.96</ele>
        <time>2021-03-26T06:19:43Z</time>
      </trkpt>
      <trkpt lat="49.58711" lon="-1.46916">
        <ele>122</ele>
        <time>2021-03-26T06:19:48Z</time>
      </trkpt>
      <trkpt lat="49.58673" lon="-1.46901">
        <ele>122</ele>
        <time>2021-03-26T06:19:52Z</time>
      </trkpt>
      <trkpt lat="49.58534" lon="-1.46867">
        <ele>121.78</ele>
        <time>2021-03-26T06:19:56Z</time>
      </trkpt>
      <trkpt lat="49.58257" lon="-1.46757">
        <ele>116.92</ele>
        <time>2021-03-26T06:20:00Z</time>
      </trkpt>
      <trkpt lat="49.57988" lon="-1.46675">
        <ele>112.4</ele>
        <time>2021-03-26T06:20:04Z</time>
      </trkpt>
      <trkpt lat="49.57902" lon="-1.46625">
        <ele>113.78</ele>
        <time>2021-03-26T06:20:08Z</time>
      </trkpt>
      <trkpt lat="49.57816" lon="-1.46585">
        <ele>117.57</ele>
        <time>2021-03-26T06:20:12Z</time>
      </trkpt>
      <trkpt lat="49.57677" lon="-1.46513">
        <ele>123.19</ele>
        <time>2021-03-26T06:20:16Z</time>
      </trkpt>
      <trkpt lat="49.57511" lon="-1.46414">
        <ele>118.04</ele>
        <time>2021-03-26T06:20:21Z</time>
      </trkpt>
      <trkpt lat="49.57461" lon="-1.46373">
        <ele>117</ele>
        <time>2021-03-26T06:20:25Z</time>
      </trkpt>
      <trkpt lat="49.57401" lon="-1.46321">
        <ele>115.88</ele>
        <time>2021-03-26T06:20:29Z</time>
      </trkpt>
      <trkpt lat="49.57321" lon="-1.46274">
        <ele>114.54</ele>
        <time>2021-03-26T06:20:33Z</time>
      </trkpt>
      <trkpt lat="49.57295" lon="-1.46253">
        <ele>115</ele>
        <time>2021-03-26T06:20:37Z</time>
      </trkpt>
      <trkpt lat="49.57283" lon="-1.46241">
        <ele>115.06</ele>
        <time>2021-03-26T06:20:41Z</time>
      </trkpt>
      <trkpt lat="49.5726" lon="-1.46211">
        <ele>114.77</ele>
        <time>2021-03-26T06:20:45Z</time>
      </trkpt>
      <trkpt lat="49.57135" lon="-1.46025">
        <ele>100.61</ele>
        <time>2021-03-26T06:20:50Z</time>
      </trkpt>
      <trkpt lat="49.57085" lon="-1.45959">
        <ele>93.61</ele>
        <time>2021-03-26T06:20:54Z</time>
      </trkpt>
      <trkpt lat="49.57049" lon="-1.4593">
        <ele>91.65</ele>
        <time>2021-03-26T06:20:58Z</time>
      </trkpt>
      <trkpt lat="49.57006" lon="-1.45904">
        <ele>90.67</ele>
        <time>2021-03-26T06:21:02Z</time>
      </trkpt>
      <trkpt lat="49.56934" lon="-1.45855">
        <ele>91.94</ele>
        <time>2021-03-26T06:21:06Z</time>
      </trkpt>
      <trkpt lat="49.56884" lon="-1.4583">
        <ele>97.64</ele>
        <time>2021-03-26T06:21:10Z</time>
      </trkpt>
      <trkpt lat="49.56835" lon="-1.45811">
        <ele>101.86</ele>
        <time>2021-03-26T06:21:14Z</time>
      </trkpt>
      <trkpt lat="49.5681" lon="-1.45808">
        <ele>102.06</ele>
        <time>2021-03-26T06:21:18Z</time>
      </trkpt>
      <trkpt lat="49.56747" lon="-1.45807">
        <ele>105.16</ele>
        <time>2021-03-26T06:21:23Z</time>
      </trkpt>
      <trkpt lat="49.56712" lon="-1.45812">
        <ele>106.15</ele>
        <time>2021-03-26T06:21:27Z</time>
      </trkpt>
      <trkpt lat="49.5663" lon="-1.45832">
        <ele>107.91</ele>
        <time>2021-03-26T06:21:31Z</time>
      </trkpt>
      <trkpt lat="49.56561" lon="-1.45854">
        <ele>112.95</ele>
        <time>2021-03-26T06:21:35Z</time>
      </trkpt>
      <trkpt lat="49.5653" lon="-1.4587">
        <ele>113.93</ele>
        <time>2021-03-26T06:21:39Z</time>
      </trkpt>
      <trkpt lat="49.56479" lon="-1.45904">
        <ele>114.55</ele>
        <time>2021-03-26T06:21:43Z</time>
      </trkpt>
      <trkpt lat="49.56431" lon="-1.45933">
        <ele>117.88</ele>
        <time>2021-03-26T06:21:47Z</time>
      </trkpt>
      <trkpt lat="49.56394" lon="-1.45942">
        <ele>119.72</ele>
        <time>2021-03-26T06:21:52Z</time>
      </trkpt>
      <trkpt lat="49.56363" lon="-1.45946">
        <ele>121</ele>
        <time>2021-03-26T06:21:56Z</time>
      </trkpt>
      <trkpt lat="49.56288" lon="-1.45936">
        <ele>123.62</ele>
        <time>2021-03-26T06:22:00Z</time>
      </trkpt>
      <trkpt lat="49.56236" lon="-1.4595">
        <ele>125.49</ele>
        <time>2021-03-26T06:22:04Z</time>
      </trkpt>
      <trkpt lat="49.5611" lon="-1.46018">
        <ele>121.36</ele>
        <time>2021-03-26T06:22:08Z</time>
      </trkpt>
      <trkpt lat="49.56011" lon="-1.4608">
        <ele>120.11</ele>
        <time>2021-03-26T06:22:12Z</time>
      </trkpt>
      <trkpt lat="49.55776" lon="-1.46245">
        <ele>117.25</ele>
        <time>2021-03-26T06:22:16Z</time>
      </trkpt>
      <trkpt lat="49.55667" lon="-1.46309">
        <ele>115</ele>
        <time>2021-03-26T06:22:20Z</time>
      </trkpt>
      <trkpt lat="49.55591" lon="-1.46341">
        <ele>116.29</ele>
        <time>2021-03-26T06:22:25Z</time>
      </trkpt>
      <trkpt lat="49.55378" lon="-1.46375">
        <ele>115.39</ele>
        <time>2021-03-26T06:22:29Z</time>
      </trkpt>
      <trkpt lat="49.5536" lon="-1.4638">
        <ele>114.27</ele>
        <time>2021-03-26T06:22:33Z</time>
      </trkpt>
      <trkpt lat="49.55348" lon="-1.46357">
        <ele>114.52</ele>
        <time>2021-03-26T06:22:39Z</time>
      </trkpt>
      <trkpt lat="49.55297" lon="-1.46299">
        <ele>112.68</ele>
        <time>2021-03-26T06:22:45Z</time>
      </trkpt>
      <trkpt lat="49.55249" lon="-1.4624">
        <ele>111.5</ele>
        <time>2021-03-26T06:22:51Z</time>
      </trkpt>
      <trkpt lat="49.55208" lon="-1.46182">
        <ele>108.18</ele>
        <time>2021-03-26T06:22:57Z</time>
      </trkpt>
      <trkpt lat="49.5511" lon="-1.46079">
        <ele>103.98</ele>
        <time>2021-03-26T06:23:03Z</time>
      </trkpt>
      <trkpt lat="49.55068" lon="-1.46046">
        <ele>103.29</ele>
        <time>2021-03-26T06:23:09Z</time>
      </trkpt>
      <trkpt lat="49.55048" lon="-1.46036">
        <ele>103</ele>
        <time>2021-03-26T06:23:16Z</time>
      </trkpt>
      <trkpt lat="49.54939" lon="-1.46003">
        <ele>99.8</ele>
        <time>2021-03-26T06:23:22Z</time>
      </trkpt>
      <trkpt lat="49.54859" lon="-1.46033">
        <ele>98.89</ele>
        <time>2021-03-26T06:23:28Z</time>
      </trkpt>
      <trkpt lat="49.5483" lon="-1.46039">
        <ele>97.53</ele>
        <time>2021-03-26T06:23:34Z</time>
      </trkpt>
      <trkpt lat="49.54674" lon="-1.45954">
        <ele>93</ele>
        <time>2021-03-26T06:23:40Z</time>
      </trkpt>
      <trkpt lat="49.54455" lon="-1.45844">
        <ele>90.24</ele>
        <time>2021-03-26T06:23:46Z</time>
      </trkpt>
      <trkpt lat="49.54345" lon="-1.45825">
        <ele>87.68</ele>
        <time>2021-03-26T06:23:52Z</time>
      </trkpt>
      <trkpt lat="49.54177" lon="-1.45749">
        <ele>82.05</ele>
        <time>2021-03-26T06:23:58Z</time>
      </trkpt>
      <trkpt lat="49.54164" lon="-1.4572">
        <ele>79.93</ele>
        <time>2021-03-26T06:24:04Z</time>
      </trkpt>
      <trkpt lat="49.54082" lon="-1.45477">
        <ele>78.22</ele>
        <time>2021-03-26T06:24:11Z</time>
      </trkpt>
      <trkpt lat="49.54043" lon="-1.45386">
        <ele>77.9</ele>
        <time>2021-03-26T06:24:17Z</time>
      </trkpt>
      <trkpt lat="49.53979" lon="-1.45264">
        <ele>78.37</ele>
        <time>2021-03-26T06:24:23Z</time>
      </trkpt>
      <trkpt lat="49.53963" lon="-1.45228">
        <ele>78.07</ele>
        <time>2021-03-26T06:24:29Z</time>
      </trkpt>
      <trkpt lat="49.53903" lon="-1.45116">
        <ele>77.09</ele>
        <time>2021-03-26T06:24:35Z</time>
      </trkpt>
      <trkpt lat="49.5384" lon="-1.44985">
        <ele>74.76</ele>
        <time>2021-03-26T06:24:41Z</time>
      </trkpt>
      <trkpt lat="49.53837" lon="-1.44963">
        <ele>74.9</ele>
        <time>2021-03-26T06:24:47Z</time>
      </trkpt>
      <trkpt lat="49.53804" lon="-1.44877">
        <ele>73.65</ele>
        <time>2021-03-26T06:24:53Z</time>
      </trkpt>
      <trkpt lat="49.53772" lon="-1.44816">
        <ele>72.96</ele>
        <time>2021-03-26T06:24:59Z</time>
      </trkpt>
      <trkpt lat="49.5375" lon="-1.44788">
        <ele>72.38</ele>
        <time>2021-03-26T06:25:06Z</time>
      </trkpt>
      <trkpt lat="49.53724" lon="-1.4476">
        <ele>73.29</ele>
        <time>2021-03-26T06:25:12Z</time>
      </trkpt>
      <trkpt lat="49.53685" lon="-1.4472">
        <ele>72.92</ele>
        <time>2021-03-26T06:25:18Z</time>
      </trkpt>
      <trkpt lat="49.53637" lon="-1.44675">
        <ele>73</ele>
        <time>2021-03-26T06:25:24Z</time>
      </trkpt>
      <trkpt lat="49.53527" lon="-1.44552">
        <ele>69.85</ele>
        <time>2021-03-26T06:25:30Z</time>
      </trkpt>
      <trkpt lat="49.53477" lon="-1.44486">
        <ele>67.88</ele>
        <time>2021-03-26T06:25:36Z</time>
      </trkpt>
      <trkpt lat="49.53469" lon="-1.44495">
        <ele>68.52</ele>
        <time>2021-03-26T06:25:37Z</time>
      </trkpt>
      <trkpt lat="49.53417" lon="-1.4443">
        <ele>66</ele>
        <time>2021-03-26T06:25:41Z</time>
      </trkpt>
      <trkpt lat="49.53404" lon="-1.44409">
        <ele>65.43</ele>
        <time>2021-03-26T06:25:45Z</time>
      </trkpt>
      <trkpt lat="49.53392" lon="-1.44376">
        <ele>64.19</ele>
        <time>2021-03-26T06:25:50Z</time>
      </trkpt>
      <trkpt lat="49.53368" lon="-1.44248">
        <ele>63.23</ele>
        <time>2021-03-26T06:25:54Z</time>
      </trkpt>
      <trkpt lat="49.53349" lon="-1.44173">
        <ele>62.16</ele>
        <time>2021-03-26T06:25:58Z</time>
      </trkpt>
      <trkpt lat="49.53328" lon="-1.44057">
        <ele>61.81</ele>
        <time>2021-03-26T06:26:03Z</time>
      </trkpt>
      <trkpt lat="49.53306" lon="-1.43985">
        <ele>62.01</ele>
        <time>2021-03-26T06:26:07Z</time>
      </trkpt>
      <trkpt lat="49.53293" lon="-1.43956">
        <ele>61.69</ele>
        <time>2021-03-26T06:26:12Z</time>
      </trkpt>
      <trkpt lat="49.53245" lon="-1.4387">
        <ele>60.32</ele>
        <time>2021-03-26T06:26:16Z</time>
      </trkpt>
      <trkpt lat="49.53174" lon="-1.4378">
        <ele>54.29</ele>
        <time>2021-03-26T06:26:20Z</time>
      </trkpt>
      <trkpt lat="49.53114" lon="-1.43709">
        <ele>51.14</ele>
        <time>2021-03-26T06:26:25Z</time>
      </trkpt>
      <trkpt lat="49.53095" lon="-1.43679">
        <ele>50.75</ele>
        <time>2021-03-26T06:26:29Z</time>
      </trkpt>
      <trkpt lat="49.53062" lon="-1.43608">
        <ele>52.78</ele>
        <time>2021-03-26T06:26:33Z</time>
      </trkpt>
      <trkpt lat="49.53037" lon="-1.43568">
        <ele>52.26</ele>
        <time>2021-03-26T06:26:38Z</time>
      </trkpt>
      <trkpt lat="49.52984" lon="-1.43497">
        <ele>50.52</ele>
        <time>2021-03-26T06:26:42Z</time>
      </trkpt>
      <trkpt lat="49.52974" lon="-1.43476">
        <ele>50.14</ele>
        <time>2021-03-26T06:26:47Z</time>
      </trkpt>
      <trkpt lat="49.52967" lon="-1.43451">
        <ele>50.19</ele>
        <time>2021-03-26T06:26:51Z</time>
      </trkpt>
      <trkpt lat="49.52962" lon="-1.43378">
        <ele>51.62</ele>
        <time>2021-03-26T06:26:55Z</time>
      </trkpt>
      <trkpt lat="49.52954" lon="-1.43318">
        <ele>51.36</ele>
        <time>2021-03-26T06:27:00Z</time>
      </trkpt>
      <trkpt lat="49.52931" lon="-1.43173">
        <ele>49</ele>
        <time>2021-03-26T06:27:04Z</time>
      </trkpt>
      <trkpt lat="49.52888" lon="-1.43012">
        <ele>49.04</ele>
        <time>2021-03-26T06:27:08Z</time>
      </trkpt>
      <trkpt lat="49.52871" lon="-1.42937">
        <ele>50.36</ele>
        <time>2021-03-26T06:27:13Z</time>
      </trkpt>
      <trkpt lat="49.52862" lon="-1.42877">
        <ele>48.97</ele>
        <time>2021-03-26T06:27:17Z</time>
      </trkpt>
      <trkpt lat="49.52856" lon="-1.42849">
        <ele>49.26</ele>
        <time>2021-03-26T06:27:22Z</time>
      </trkpt>
      <trkpt lat="49.52857" lon="-1.42839">
        <ele>49.25</ele>
        <time>2021-03-26T06:27:26Z</time>
      </trkpt>
      <trkpt lat="49.52891" lon="-1.42819">
        <ele>47.85</ele>
        <time>2021-03-26T06:27:30Z</time>
      </trkpt>
      <trkpt lat="49.52943" lon="-1.42807">
        <ele>45.06</ele>
        <time>2021-03-26T06:27:35Z</time>
      </trkpt>
      <trkpt lat="49.52988" lon="-1.42811">
        <ele>44</ele>
        <time>2021-03-26T06:27:39Z</time>
      </trkpt>
      <trkpt lat="49.53006" lon="-1.42805">
        <ele>44.22</ele>
        <time>2021-03-26T06:27:43Z</time>
      </trkpt>
      <trkpt lat="49.53027" lon="-1.42783">
        <ele>44.95</ele>
        <time>2021-03-26T06:27:48Z</time>
      </trkpt>
      <trkpt lat="49.53092" lon="-1.42706">
        <ele>48.43</ele>
        <time>2021-03-26T06:27:52Z</time>
      </trkpt>
      <trkpt lat="49.5311" lon="-1.4267">
        <ele>48.9</ele>
        <time>2021-03-26T06:27:57Z</time>
      </trkpt>
      <trkpt lat="49.53124" lon="-1.42633">
        <ele>49.48</ele>
        <time>2021-03-26T06:28:01Z</time>
      </trkpt>
      <trkpt lat="49.53165" lon="-1.42549">
        <ele>50.93</ele>
        <time>2021-03-26T06:28:05Z</time>
      </trkpt>
      <trkpt lat="49.53174" lon="-1.42517">
        <ele>50.81</ele>
        <time>2021-03-26T06:28:10Z</time>
      </trkpt>
      <trkpt lat="49.53173" lon="-1.42475">
        <ele>50.24</ele>
        <time>2021-03-26T06:28:14Z</time>
      </trkpt>
      <trkpt lat="49.5315" lon="-1.4213">
        <ele>47.6</ele>
        <time>2021-03-26T06:28:18Z</time>
      </trkpt>
      <trkpt lat="49.53152" lon="-1.42089">
        <ele>48.38</ele>
        <time>2021-03-26T06:28:23Z</time>
      </trkpt>
      <trkpt lat="49.53144" lon="-1.41864">
        <ele>41</ele>
        <time>2021-03-26T06:28:27Z</time>
      </trkpt>
      <trkpt lat="49.53138" lon="-1.41759">
        <ele>42</ele>
        <time>2021-03-26T06:28:32Z</time>
      </trkpt>
      <trkpt lat="49.53121" lon="-1.41679">
        <ele>41</ele>
        <time>2021-03-26T06:28:36Z</time>
      </trkpt>
      <trkpt lat="49.53099" lon="-1.41523">
        <ele>38.47</ele>
        <time>2021-03-26T06:28:40Z</time>
      </trkpt>
      <trkpt lat="49.53093" lon="-1.4144">
        <ele>38.72</ele>
        <time>2021-03-26T06:28:45Z</time>
      </trkpt>
      <trkpt lat="49.53089" lon="-1.41345">
        <ele>38.88</ele>
        <time>2021-03-26T06:28:49Z</time>
      </trkpt>
      <trkpt lat="49.5309" lon="-1.41261">
        <ele>39</ele>
        <time>2021-03-26T06:28:53Z</time>
      </trkpt>
      <trkpt lat="49.53101" lon="-1.41222">
        <ele>38.63</ele>
        <time>2021-03-26T06:28:58Z</time>
      </trkpt>
      <trkpt lat="49.53123" lon="-1.41127">
        <ele>38</ele>
        <time>2021-03-26T06:29:02Z</time>
      </trkpt>
      <trkpt lat="49.5314" lon="-1.41024">
        <ele>38.14</ele>
        <time>2021-03-26T06:29:07Z</time>
      </trkpt>
      <trkpt lat="49.53155" lon="-1.40904">
        <ele>39</ele>
        <time>2021-03-26T06:29:11Z</time>
      </trkpt>
      <trkpt lat="49.53198" lon="-1.40701">
        <ele>37</ele>
        <time>2021-03-26T06:29:15Z</time>
      </trkpt>
      <trkpt lat="49.53216" lon="-1.40651">
        <ele>37.12</ele>
        <time>2021-03-26T06:29:20Z</time>
      </trkpt>
      <trkpt lat="49.53215" lon="-1.40639">
        <ele>37.25</ele>
        <time>2021-03-26T06:29:24Z</time>
      </trkpt>
      <trkpt lat="49.53169" lon="-1.40532">
        <ele>37.82</ele>
        <time>2021-03-26T06:29:28Z</time>
      </trkpt>
      <trkpt lat="49.53121" lon="-1.40525">
        <ele>36.34</ele>
        <time>2021-03-26T06:29:36Z</time>
      </trkpt>
      <trkpt lat="49.52983" lon="-1.40493">
        <ele>34.09</ele>
        <time>2021-03-26T06:29:45Z</time>
      </trkpt>
      <trkpt lat="49.52606" lon="-1.40385">
        <ele>44</ele>
        <time>2021-03-26T06:29:53Z</time>
      </trkpt>
      <trkpt lat="49.52419" lon="-1.40339">
        <ele>42.09</ele>
        <time>2021-03-26T06:30:01Z</time>
      </trkpt>
      <trkpt lat="49.52409" lon="-1.40332">
        <ele>41.41</ele>
        <time>2021-03-26T06:30:09Z</time>
      </trkpt>
      <trkpt lat="49.52407" lon="-1.4032">
        <ele>41</ele>
        <time>2021-03-26T06:30:17Z</time>
      </trkpt>
      <trkpt lat="49.52408" lon="-1.40298">
        <ele>40.58</ele>
        <time>2021-03-26T06:30:25Z</time>
      </trkpt>
      <trkpt lat="49.52415" lon="-1.40229">
        <ele>40.86</ele>
        <time>2021-03-26T06:30:33Z</time>
      </trkpt>
      <trkpt lat="49.52363" lon="-1.40287">
        <ele>37.14</ele>
        <time>2021-03-26T06:30:37Z</time>
      </trkpt>
      <trkpt lat="49.52344" lon="-1.40329">
        <ele>36.38</ele>
        <time>2021-03-26T06:30:40Z</time>
      </trkpt>
      <trkpt lat="49.52311" lon="-1.40333">
        <ele>36</ele>
        <time>2021-03-26T06:30:46Z</time>
      </trkpt>
      <trkpt lat="49.52283" lon="-1.40309">
        <ele>36</ele>
        <time>2021-03-26T06:30:52Z</time>
      </trkpt>
      <trkpt lat="49.52204" lon="-1.40272">
        <ele>34.33</ele>
        <time>2021-03-26T06:30:57Z</time>
      </trkpt>
      <trkpt lat="49.52173" lon="-1.40221">
        <ele>34</ele>
        <time>2021-03-26T06:31:03Z</time>
      </trkpt>
      <trkpt lat="49.52142" lon="-1.40061">
        <ele>35.92</ele>
        <time>2021-03-26T06:31:09Z</time>
      </trkpt>
      <trkpt lat="49.52118" lon="-1.39998">
        <ele>37</ele>
        <time>2021-03-26T06:31:14Z</time>
      </trkpt>
      <trkpt lat="49.52084" lon="-1.39926">
        <ele>37</ele>
        <time>2021-03-26T06:31:20Z</time>
      </trkpt>
      <trkpt lat="49.52027" lon="-1.39865">
        <ele>36.84</ele>
        <time>2021-03-26T06:31:25Z</time>
      </trkpt>
      <trkpt lat="49.5197" lon="-1.39831">
        <ele>34.93</ele>
        <time>2021-03-26T06:31:31Z</time>
      </trkpt>
      <trkpt lat="49.51939" lon="-1.39784">
        <ele>35</ele>
        <time>2021-03-26T06:31:37Z</time>
      </trkpt>
      <trkpt lat="49.5188" lon="-1.39736">
        <ele>34.51</ele>
        <time>2021-03-26T06:31:42Z</time>
      </trkpt>
      <trkpt lat="49.51824" lon="-1.39687">
        <ele>33.18</ele>
        <time>2021-03-26T06:31:48Z</time>
      </trkpt>
      <trkpt lat="49.51795" lon="-1.39682">
        <ele>34.21</ele>
        <time>2021-03-26T06:31:54Z</time>
      </trkpt>
      <trkpt lat="49.51717" lon="-1.39697">
        <ele>34.19</ele>
        <time>2021-03-26T06:31:59Z</time>
      </trkpt>
      <trkpt lat="49.51663" lon="-1.39688">
        <ele>38.17</ele>
        <time>2021-03-26T06:32:05Z</time>
      </trkpt>
      <trkpt lat="49.51618" lon="-1.39647">
        <ele>43.02</ele>
        <time>2021-03-26T06:32:11Z</time>
      </trkpt>
      <trkpt lat="49.51568" lon="-1.3961">
        <ele>47.09</ele>
        <time>2021-03-26T06:32:16Z</time>
      </trkpt>
      <trkpt lat="49.51521" lon="-1.39578">
        <ele>48.86</ele>
        <time>2021-03-26T06:32:22Z</time>
      </trkpt>
      <trkpt lat="49.51415" lon="-1.39522">
        <ele>51.08</ele>
        <time>2021-03-26T06:32:27Z</time>
      </trkpt>
      <trkpt lat="49.51372" lon="-1.39495">
        <ele>53.62</ele>
        <time>2021-03-26T06:32:33Z</time>
      </trkpt>
      <trkpt lat="49.51319" lon="-1.39482">
        <ele>54.5</ele>
        <time>2021-03-26T06:32:39Z</time>
      </trkpt>
      <trkpt lat="49.5126" lon="-1.39458">
        <ele>55.18</ele>
        <time>2021-03-26T06:32:44Z</time>
      </trkpt>
      <trkpt lat="49.51105" lon="-1.39368">
        <ele>65.63</ele>
        <time>2021-03-26T06:32:50Z</time>
      </trkpt>
      <trkpt lat="49.50913" lon="-1.39273">
        <ele>80.88</ele>
        <time>2021-03-26T06:32:56Z</time>
      </trkpt>
      <trkpt lat="49.50752" lon="-1.39172">
        <ele>82.93</ele>
        <time>2021-03-26T06:33:01Z</time>
      </trkpt>
      <trkpt lat="49.50576" lon="-1.39071">
        <ele>90.82</ele>
        <time>2021-03-26T06:33:07Z</time>
      </trkpt>
      <trkpt lat="49.50453" lon="-1.38994">
        <ele>95.55</ele>
        <time>2021-03-26T06:33:13Z</time>
      </trkpt>
      <trkpt lat="49.50387" lon="-1.38933">
        <ele>94.54</ele>
        <time>2021-03-26T06:33:18Z</time>
      </trkpt>
      <trkpt lat="49.50234" lon="-1.38768">
        <ele>98.78</ele>
        <time>2021-03-26T06:33:24Z</time>
      </trkpt>
      <trkpt lat="49.50193" lon="-1.38727">
        <ele>100.01</ele>
        <time>2021-03-26T06:33:29Z</time>
      </trkpt>
      <trkpt lat="49.50147" lon="-1.38648">
        <ele>97.54</ele>
        <time>2021-03-26T06:33:35Z</time>
      </trkpt>
      <trkpt lat="49.50088" lon="-1.38575">
        <ele>92.18</ele>
        <time>2021-03-26T06:33:41Z</time>
      </trkpt>
      <trkpt lat="49.50026" lon="-1.38538">
        <ele>85.54</ele>
        <time>2021-03-26T06:33:46Z</time>
      </trkpt>
      <trkpt lat="49.49975" lon="-1.38512">
        <ele>79.6</ele>
        <time>2021-03-26T06:33:52Z</time>
      </trkpt>
      <trkpt lat="49.49947" lon="-1.3846">
        <ele>74.29</ele>
        <time>2021-03-26T06:33:58Z</time>
      </trkpt>
      <trkpt lat="49.49896" lon="-1.38399">
        <ele>69.62</ele>
        <time>2021-03-26T06:34:03Z</time>
      </trkpt>
      <trkpt lat="49.49849" lon="-1.3836">
        <ele>64.04</ele>
        <time>2021-03-26T06:34:09Z</time>
      </trkpt>
      <trkpt lat="49.49789" lon="-1.38348">
        <ele>57.69</ele>
        <time>2021-03-26T06:34:15Z</time>
      </trkpt>
      <trkpt lat="49.49751" lon="-1.38311">
        <ele>53.04</ele>
        <time>2021-03-26T06:34:20Z</time>
      </trkpt>
      <trkpt lat="49.49699" lon="-1.38203">
        <ele>49.17</ele>
        <time>2021-03-26T06:34:26Z</time>
      </trkpt>
      <trkpt lat="49.49672" lon="-1.3814">
        <ele>46.62</ele>
        <time>2021-03-26T06:34:31Z</time>
      </trkpt>
      <trkpt lat="49.49641" lon="-1.38081">
        <ele>42.16</ele>
        <time>2021-03-26T06:34:37Z</time>
      </trkpt>
      <trkpt lat="49.49617" lon="-1.38022">
        <ele>43.42</ele>
        <time>2021-03-26T06:34:43Z</time>
      </trkpt>
      <trkpt lat="49.49621" lon="-1.37967">
        <ele>44.17</ele>
        <time>2021-03-26T06:34:48Z</time>
      </trkpt>
      <trkpt lat="49.49626" lon="-1.37933">
        <ele>43.12</ele>
        <time>2021-03-26T06:34:54Z</time>
      </trkpt>
      <trkpt lat="49.49608" lon="-1.37894">
        <ele>41.02</ele>
        <time>2021-03-26T06:34:59Z</time>
      </trkpt>
      <trkpt lat="49.49564" lon="-1.37865">
        <ele>39.12</ele>
        <time>2021-03-26T06:35:04Z</time>
      </trkpt>
      <trkpt lat="49.49478" lon="-1.37811">
        <ele>39.15</ele>
        <time>2021-03-26T06:35:09Z</time>
      </trkpt>
      <trkpt lat="49.49398" lon="-1.37735">
        <ele>37.81</ele>
        <time>2021-03-26T06:35:14Z</time>
      </trkpt>
      <trkpt lat="49.49341" lon="-1.37676">
        <ele>39.1</ele>
        <time>2021-03-26T06:35:19Z</time>
      </trkpt>
      <trkpt lat="49.49258" lon="-1.37617">
        <ele>38</ele>
        <time>2021-03-26T06:35:24Z</time>
      </trkpt>
      <trkpt lat="49.49216" lon="-1.37567">
        <ele>38.22</ele>
        <time>2021-03-26T06:35:29Z</time>
      </trkpt>
      <trkpt lat="49.49185" lon="-1.37518">
        <ele>38.65</ele>
        <time>2021-03-26T06:35:34Z</time>
      </trkpt>
      <trkpt lat="49.49138" lon="-1.37591">
        <ele>38.98</ele>
        <time>2021-03-26T06:35:39Z</time>
      </trkpt>
      <trkpt lat="49.4912" lon="-1.37606">
        <ele>38.88</ele>
        <time>2021-03-26T06:35:45Z</time>
      </trkpt>
      <trkpt lat="49.49113" lon="-1.37609">
        <ele>38.92</ele>
        <time>2021-03-26T06:35:50Z</time>
      </trkpt>
      <trkpt lat="49.49077" lon="-1.37605">
        <ele>37.95</ele>
        <time>2021-03-26T06:35:55Z</time>
      </trkpt>
      <trkpt lat="49.49051" lon="-1.37597">
        <ele>37.5</ele>
        <time>2021-03-26T06:36:00Z</time>
      </trkpt>
      <trkpt lat="49.49017" lon="-1.37579">
        <ele>37</ele>
        <time>2021-03-26T06:36:05Z</time>
      </trkpt>
      <trkpt lat="49.49003" lon="-1.37575">
        <ele>37</ele>
        <time>2021-03-26T06:36:11Z</time>
      </trkpt>
      <trkpt lat="49.48843" lon="-1.37583">
        <ele>36.35</ele>
        <time>2021-03-26T06:36:16Z</time>
      </trkpt>
      <trkpt lat="49.4873" lon="-1.37634">
        <ele>34.47</ele>
        <time>2021-03-26T06:36:21Z</time>
      </trkpt>
      <trkpt lat="49.48701" lon="-1.37654">
        <ele>34.69</ele>
        <time>2021-03-26T06:36:26Z</time>
      </trkpt>
      <trkpt lat="49.48644" lon="-1.37714">
        <ele>34.87</ele>
        <time>2021-03-26T06:36:32Z</time>
      </trkpt>
      <trkpt lat="49.48623" lon="-1.37741">
        <ele>35.3</ele>
        <time>2021-03-26T06:36:37Z</time>
      </trkpt>
      <trkpt lat="49.48593" lon="-1.37706">
        <ele>32.83</ele>
        <time>2021-03-26T06:36:47Z</time>
      </trkpt>
      <trkpt lat="49.48259" lon="-1.37454">
        <ele>24.66</ele>
        <time>2021-03-26T06:36:57Z</time>
      </trkpt>
      <trkpt lat="49.47769" lon="-1.3708">
        <ele>27.74</ele>
        <time>2021-03-26T06:37:08Z</time>
      </trkpt>
      <trkpt lat="49.4756" lon="-1.36914">
        <ele>24.91</ele>
        <time>2021-03-26T06:37:18Z</time>
      </trkpt>
      <trkpt lat="49.47428" lon="-1.36814">
        <ele>22.41</ele>
        <time>2021-03-26T06:37:28Z</time>
      </trkpt>
      <trkpt lat="49.4732" lon="-1.36699">
        <ele>21.08</ele>
        <time>2021-03-26T06:37:38Z</time>
      </trkpt>
      <trkpt lat="49.47279" lon="-1.36659">
        <ele>21</ele>
        <time>2021-03-26T06:37:49Z</time>
      </trkpt>
      <trkpt lat="49.47206" lon="-1.36602">
        <ele>20.14</ele>
        <time>2021-03-26T06:37:59Z</time>
      </trkpt>
      <trkpt lat="49.47021" lon="-1.36453">
        <ele>15.78</ele>
        <time>2021-03-26T06:38:09Z</time>
      </trkpt>
      <trkpt lat="49.46732" lon="-1.3623">
        <ele>11.1</ele>
        <time>2021-03-26T06:38:20Z</time>
      </trkpt>
      <trkpt lat="49.46652" lon="-1.36154">
        <ele>11.26</ele>
        <time>2021-03-26T06:38:30Z</time>
      </trkpt>
      <trkpt lat="49.46605" lon="-1.361">
        <ele>12.41</ele>
        <time>2021-03-26T06:38:40Z</time>
      </trkpt>
      <trkpt lat="49.46519" lon="-1.35986">
        <ele>16.49</ele>
        <time>2021-03-26T06:38:50Z</time>
      </trkpt>
      <trkpt lat="49.46508" lon="-1.35985">
        <ele>16.53</ele>
        <time>2021-03-26T06:38:51Z</time>
      </trkpt>
      <trkpt lat="49.46499" lon="-1.35993">
        <ele>16.28</ele>
        <time>2021-03-26T06:38:53Z</time>
      </trkpt>
      <trkpt lat="49.46472" lon="-1.36047">
        <ele>16</ele>
        <time>2021-03-26T06:38:54Z</time>
      </trkpt>
      <trkpt lat="49.46452" lon="-1.36083">
        <ele>17.73</ele>
        <time>2021-03-26T06:38:55Z</time>
      </trkpt>
      <trkpt lat="49.46419" lon="-1.36024">
        <ele>17.9</ele>
        <time>2021-03-26T06:38:59Z</time>
      </trkpt>
      <trkpt lat="49.464" lon="-1.35997">
        <ele>16.81</ele>
        <time>2021-03-26T06:39:02Z</time>
      </trkpt>
      <trkpt lat="49.46384" lon="-1.35983">
        <ele>15.83</ele>
        <time>2021-03-26T06:39:06Z</time>
      </trkpt>
      <trkpt lat="49.46365" lon="-1.35972">
        <ele>15.13</ele>
        <time>2021-03-26T06:39:10Z</time>
      </trkpt>
      <trkpt lat="49.46329" lon="-1.35961">
        <ele>15.14</ele>
        <time>2021-03-26T06:39:13Z</time>
      </trkpt>
      <trkpt lat="49.46298" lon="-1.35947">
        <ele>16.25</ele>
        <time>2021-03-26T06:39:17Z</time>
      </trkpt>
      <trkpt lat="49.46253" lon="-1.35915">
        <ele>16</ele>
        <time>2021-03-26T06:39:21Z</time>
      </trkpt>
      <trkpt lat="49.46084" lon="-1.35784">
        <ele>16</ele>
        <time>2021-03-26T06:39:25Z</time>
      </trkpt>
      <trkpt lat="49.46068" lon="-1.35765">
        <ele>16.56</ele>
        <time>2021-03-26T06:39:28Z</time>
      </trkpt>
      <trkpt lat="49.46033" lon="-1.35727">
        <ele>17</ele>
        <time>2021-03-26T06:39:37Z</time>
      </trkpt>
      <trkpt lat="49.46016" lon="-1.35712">
        <ele>17.57</ele>
        <time>2021-03-26T06:39:46Z</time>
      </trkpt>
      <trkpt lat="49.45963" lon="-1.35679">
        <ele>19.19</ele>
        <time>2021-03-26T06:39:55Z</time>
      </trkpt>
      <trkpt lat="49.4591" lon="-1.35652">
        <ele>20.14</ele>
        <time>2021-03-26T06:40:04Z</time>
      </trkpt>
      <trkpt lat="49.4586" lon="-1.35621">
        <ele>21.71</ele>
        <time>2021-03-26T06:40:13Z</time>
      </trkpt>
      <trkpt lat="49.45776" lon="-1.35562">
        <ele>24.06</ele>
        <time>2021-03-26T06:40:21Z</time>
      </trkpt>
      <trkpt lat="49.44903" lon="-1.34891">
        <ele>13.49</ele>
        <time>2021-03-26T06:40:30Z</time>
      </trkpt>
      <trkpt lat="49.4275" lon="-1.33242">
        <ele>11.27</ele>
        <time>2021-03-26T06:40:39Z</time>
      </trkpt>
      <trkpt lat="49.42639" lon="-1.3315">
        <ele>12.39</ele>
        <time>2021-03-26T06:40:48Z</time>
      </trkpt>
      <trkpt lat="49.42426" lon="-1.32976">
        <ele>15.1</ele>
        <time>2021-03-26T06:40:57Z</time>
      </trkpt>
      <trkpt lat="49.41542" lon="-1.32299">
        <ele>17.25</ele>
        <time>2021-03-26T06:41:06Z</time>
      </trkpt>
      <trkpt lat="49.4148" lon="-1.32262">
        <ele>19.01</ele>
        <time>2021-03-26T06:41:14Z</time>
      </trkpt>
      <trkpt lat="49.41416" lon="-1.32233">
        <ele>21.61</ele>
        <time>2021-03-26T06:41:23Z</time>
      </trkpt>
      <trkpt lat="49.41359" lon="-1.32211">
        <ele>23.13</ele>
        <time>2021-03-26T06:41:32Z</time>
      </trkpt>
      <trkpt lat="49.41298" lon="-1.32196">
        <ele>26</ele>
        <time>2021-03-26T06:41:41Z</time>
      </trkpt>
      <trkpt lat="49.41189" lon="-1.32184">
        <ele>26.61</ele>
        <time>2021-03-26T06:41:50Z</time>
      </trkpt>
      <trkpt lat="49.41015" lon="-1.32193">
        <ele>24.65</ele>
        <time>2021-03-26T06:41:59Z</time>
      </trkpt>
      <trkpt lat="49.40975" lon="-1.3219">
        <ele>22.13</ele>
        <time>2021-03-26T06:42:07Z</time>
      </trkpt>
      <trkpt lat="49.40892" lon="-1.32177">
        <ele>22.47</ele>
        <time>2021-03-26T06:42:16Z</time>
      </trkpt>
      <trkpt lat="49.408" lon="-1.32141">
        <ele>19.55</ele>
        <time>2021-03-26T06:42:25Z</time>
      </trkpt>
      <trkpt lat="49.40766" lon="-1.32122">
        <ele>17.41</ele>
        <time>2021-03-26T06:42:34Z</time>
      </trkpt>
      <trkpt lat="49.40699" lon="-1.32074">
        <ele>19.35</ele>
        <time>2021-03-26T06:42:43Z</time>
      </trkpt>
      <trkpt lat="49.40655" lon="-1.32034">
        <ele>19.46</ele>
        <time>2021-03-26T06:42:52Z</time>
      </trkpt>
      <trkpt lat="49.40605" lon="-1.31977">
        <ele>21</ele>
        <time>2021-03-26T06:43:00Z</time>
      </trkpt>
      <trkpt lat="49.40567" lon="-1.31929">
        <ele>21.18</ele>
        <time>2021-03-26T06:43:09Z</time>
      </trkpt>
      <trkpt lat="49.40533" lon="-1.31877">
        <ele>20.08</ele>
        <time>2021-03-26T06:43:18Z</time>
      </trkpt>
      <trkpt lat="49.40494" lon="-1.3181">
        <ele>20</ele>
        <time>2021-03-26T06:43:27Z</time>
      </trkpt>
      <trkpt lat="49.40468" lon="-1.31752">
        <ele>20.06</ele>
        <time>2021-03-26T06:43:36Z</time>
      </trkpt>
      <trkpt lat="49.40416" lon="-1.31617">
        <ele>19.75</ele>
        <time>2021-03-26T06:43:45Z</time>
      </trkpt>
      <trkpt lat="49.4029" lon="-1.31275">
        <ele>24</ele>
        <time>2021-03-26T06:43:53Z</time>
      </trkpt>
      <trkpt lat="49.40242" lon="-1.31152">
        <ele>22.52</ele>
        <time>2021-03-26T06:44:02Z</time>
      </trkpt>
      <trkpt lat="49.40218" lon="-1.31101">
        <ele>24</ele>
        <time>2021-03-26T06:44:11Z</time>
      </trkpt>
      <trkpt lat="49.40179" lon="-1.31027">
        <ele>25</ele>
        <time>2021-03-26T06:44:20Z</time>
      </trkpt>
      <trkpt lat="49.40134" lon="-1.30958">
        <ele>26</ele>
        <time>2021-03-26T06:44:29Z</time>
      </trkpt>
      <trkpt lat="49.4007" lon="-1.30881">
        <ele>25.65</ele>
        <time>2021-03-26T06:44:38Z</time>
      </trkpt>
      <trkpt lat="49.40036" lon="-1.30848">
        <ele>25.3</ele>
        <time>2021-03-26T06:44:46Z</time>
      </trkpt>
      <trkpt lat="49.40002" lon="-1.30817">
        <ele>24.6</ele>
        <time>2021-03-26T06:44:55Z</time>
      </trkpt>
      <trkpt lat="49.39942" lon="-1.30775">
        <ele>25</ele>
        <time>2021-03-26T06:45:04Z</time>
      </trkpt>
      <trkpt lat="49.39857" lon="-1.30737">
        <ele>26.14</ele>
        <time>2021-03-26T06:45:13Z</time>
      </trkpt>
      <trkpt lat="49.39747" lon="-1.30714">
        <ele>29.26</ele>
        <time>2021-03-26T06:45:22Z</time>
      </trkpt>
      <trkpt lat="49.39613" lon="-1.30704">
        <ele>29.32</ele>
        <time>2021-03-26T06:45:31Z</time>
      </trkpt>
      <trkpt lat="49.3951" lon="-1.30686">
        <ele>30.8</ele>
        <time>2021-03-26T06:45:39Z</time>
      </trkpt>
      <trkpt lat="49.39441" lon="-1.30662">
        <ele>26.69</ele>
        <time>2021-03-26T06:45:48Z</time>
      </trkpt>
      <trkpt lat="49.39374" lon="-1.30623">
        <ele>22.9</ele>
        <time>2021-03-26T06:45:57Z</time>
      </trkpt>
      <trkpt lat="49.39322" lon="-1.30587">
        <ele>17.28</ele>
        <time>2021-03-26T06:46:06Z</time>
      </trkpt>
      <trkpt lat="49.38677" lon="-1.30095">
        <ele>15.6</ele>
        <time>2021-03-26T06:46:15Z</time>
      </trkpt>
      <trkpt lat="49.38391" lon="-1.29873">
        <ele>26.44</ele>
        <time>2021-03-26T06:46:24Z</time>
      </trkpt>
      <trkpt lat="49.38239" lon="-1.29771">
        <ele>29.29</ele>
        <time>2021-03-26T06:46:32Z</time>
      </trkpt>
      <trkpt lat="49.38076" lon="-1.29669">
        <ele>30.97</ele>
        <time>2021-03-26T06:46:41Z</time>
      </trkpt>
      <trkpt lat="49.37634" lon="-1.29462">
        <ele>29.17</ele>
        <time>2021-03-26T06:46:50Z</time>
      </trkpt>
      <trkpt lat="49.37399" lon="-1.29348">
        <ele>25.19</ele>
        <time>2021-03-26T06:46:59Z</time>
      </trkpt>
      <trkpt lat="49.37349" lon="-1.29316">
        <ele>25.19</ele>
        <time>2021-03-26T06:47:08Z</time>
      </trkpt>
      <trkpt lat="49.37299" lon="-1.2928">
        <ele>21.53</ele>
        <time>2021-03-26T06:47:17Z</time>
      </trkpt>
      <trkpt lat="49.37254" lon="-1.29244">
        <ele>19.68</ele>
        <time>2021-03-26T06:47:25Z</time>
      </trkpt>
      <trkpt lat="49.37199" lon="-1.29196">
        <ele>17.32</ele>
        <time>2021-03-26T06:47:34Z</time>
      </trkpt>
      <trkpt lat="49.37154" lon="-1.29151">
        <ele>15.32</ele>
        <time>2021-03-26T06:47:43Z</time>
      </trkpt>
      <trkpt lat="49.37102" lon="-1.29094">
        <ele>13.36</ele>
        <time>2021-03-26T06:47:52Z</time>
      </trkpt>
      <trkpt lat="49.37029" lon="-1.29001">
        <ele>10.09</ele>
        <time>2021-03-26T06:48:01Z</time>
      </trkpt>
      <trkpt lat="49.36987" lon="-1.2894">
        <ele>8.46</ele>
        <time>2021-03-26T06:48:10Z</time>
      </trkpt>
      <trkpt lat="49.36954" lon="-1.28886">
        <ele>8</ele>
        <time>2021-03-26T06:48:18Z</time>
      </trkpt>
      <trkpt lat="49.369" lon="-1.2879">
        <ele>6.74</ele>
        <time>2021-03-26T06:48:27Z</time>
      </trkpt>
      <trkpt lat="49.36737" lon="-1.28482">
        <ele>6.83</ele>
        <time>2021-03-26T06:48:36Z</time>
      </trkpt>
      <trkpt lat="49.36704" lon="-1.28425">
        <ele>7</ele>
        <time>2021-03-26T06:48:45Z</time>
      </trkpt>
      <trkpt lat="49.36671" lon="-1.28371">
        <ele>7.95</ele>
        <time>2021-03-26T06:48:54Z</time>
      </trkpt>
      <trkpt lat="49.3663" lon="-1.28313">
        <ele>7.68</ele>
        <time>2021-03-26T06:49:03Z</time>
      </trkpt>
      <trkpt lat="49.36591" lon="-1.28263">
        <ele>7.65</ele>
        <time>2021-03-26T06:49:11Z</time>
      </trkpt>
      <trkpt lat="49.36542" lon="-1.28209">
        <ele>5.56</ele>
        <time>2021-03-26T06:49:20Z</time>
      </trkpt>
      <trkpt lat="49.36495" lon="-1.28163">
        <ele>3.15</ele>
        <time>2021-03-26T06:49:29Z</time>
      </trkpt>
      <trkpt lat="49.36439" lon="-1.28115">
        <ele>3.48</ele>
        <time>2021-03-26T06:49:38Z</time>
      </trkpt>
      <trkpt lat="49.36376" lon="-1.28073">
        <ele>5.02</ele>
        <time>2021-03-26T06:49:47Z</time>
      </trkpt>
      <trkpt lat="49.36313" lon="-1.28036">
        <ele>6.7</ele>
        <time>2021-03-26T06:49:56Z</time>
      </trkpt>
      <trkpt lat="49.36247" lon="-1.2801">
        <ele>10.67</ele>
        <time>2021-03-26T06:50:04Z</time>
      </trkpt>
      <trkpt lat="49.35908" lon="-1.27908">
        <ele>7.09</ele>
        <time>2021-03-26T06:50:13Z</time>
      </trkpt>
      <trkpt lat="49.34684" lon="-1.2755">
        <ele>9.36</ele>
        <time>2021-03-26T06:50:22Z</time>
      </trkpt>
      <trkpt lat="49.34619" lon="-1.27521">
        <ele>11.7</ele>
        <time>2021-03-26T06:50:31Z</time>
      </trkpt>
      <trkpt lat="49.34556" lon="-1.27489">
        <ele>12.39</ele>
        <time>2021-03-26T06:50:40Z</time>
      </trkpt>
      <trkpt lat="49.34489" lon="-1.2745">
        <ele>16.38</ele>
        <time>2021-03-26T06:50:49Z</time>
      </trkpt>
      <trkpt lat="49.34425" lon="-1.27407">
        <ele>18.7</ele>
        <time>2021-03-26T06:50:57Z</time>
      </trkpt>
      <trkpt lat="49.34303" lon="-1.27306">
        <ele>25.16</ele>
        <time>2021-03-26T06:51:06Z</time>
      </trkpt>
      <trkpt lat="49.34266" lon="-1.27269">
        <ele>28.14</ele>
        <time>2021-03-26T06:51:15Z</time>
      </trkpt>
      <trkpt lat="49.34173" lon="-1.27166">
        <ele>30.77</ele>
        <time>2021-03-26T06:51:24Z</time>
      </trkpt>
      <trkpt lat="49.33637" lon="-1.26477">
        <ele>28</ele>
        <time>2021-03-26T06:51:33Z</time>
      </trkpt>
      <trkpt lat="49.32851" lon="-1.2546">
        <ele>2.8</ele>
        <time>2021-03-26T06:51:42Z</time>
      </trkpt>
      <trkpt lat="49.32662" lon="-1.25193">
        <ele>1.95</ele>
        <time>2021-03-26T06:51:50Z</time>
      </trkpt>
      <trkpt lat="49.32519" lon="-1.24983">
        <ele>1</ele>
        <time>2021-03-26T06:51:59Z</time>
      </trkpt>
      <trkpt lat="49.32447" lon="-1.24875">
        <ele>0.61</ele>
        <time>2021-03-26T06:52:08Z</time>
      </trkpt>
      <trkpt lat="49.32233" lon="-1.24536">
        <ele>2.14</ele>
        <time>2021-03-26T06:52:17Z</time>
      </trkpt>
      <trkpt lat="49.3214" lon="-1.24382">
        <ele>2.78</ele>
        <time>2021-03-26T06:52:26Z</time>
      </trkpt>
      <trkpt lat="49.31996" lon="-1.24131">
        <ele>3.04</ele>
        <time>2021-03-26T06:52:35Z</time>
      </trkpt>
      <trkpt lat="49.319" lon="-1.23958">
        <ele>2</ele>
        <time>2021-03-26T06:52:43Z</time>
      </trkpt>
      <trkpt lat="49.31699" lon="-1.23569">
        <ele>3.84</ele>
        <time>2021-03-26T06:52:52Z</time>
      </trkpt>
      <trkpt lat="49.31513" lon="-1.23204">
        <ele>-1.46</ele>
        <time>2021-03-26T06:53:01Z</time>
      </trkpt>
      <trkpt lat="49.31342" lon="-1.22867">
        <ele>0.62</ele>
        <time>2021-03-26T06:53:10Z</time>
      </trkpt>
      <trkpt lat="49.313" lon="-1.22782">
        <ele>0.34</ele>
        <time>2021-03-26T06:53:19Z</time>
      </trkpt>
      <trkpt lat="49.30672" lon="-1.21535">
        <ele>16.2</ele>
        <time>2021-03-26T06:53:28Z</time>
      </trkpt>
      <trkpt lat="49.30636" lon="-1.21456">
        <ele>17.67</ele>
        <time>2021-03-26T06:53:36Z</time>
      </trkpt>
      <trkpt lat="49.3059" lon="-1.21337">
        <ele>19.64</ele>
        <time>2021-03-26T06:53:45Z</time>
      </trkpt>
      <trkpt lat="49.30547" lon="-1.21195">
        <ele>21.29</ele>
        <time>2021-03-26T06:53:54Z</time>
      </trkpt>
      <trkpt lat="49.30528" lon="-1.21126">
        <ele>23.43</ele>
        <time>2021-03-26T06:54:03Z</time>
      </trkpt>
      <trkpt lat="49.305" lon="-1.20997">
        <ele>23.9</ele>
        <time>2021-03-26T06:54:12Z</time>
      </trkpt>
      <trkpt lat="49.30485" lon="-1.20912">
        <ele>25.54</ele>
        <time>2021-03-26T06:54:21Z</time>
      </trkpt>
      <trkpt lat="49.30473" lon="-1.20829">
        <ele>24.82</ele>
        <time>2021-03-26T06:54:29Z</time>
      </trkpt>
      <trkpt lat="49.30461" lon="-1.20726">
        <ele>25</ele>
        <time>2021-03-26T06:54:38Z</time>
      </trkpt>
      <trkpt lat="49.30452" lon="-1.2058">
        <ele>25.34</ele>
        <time>2021-03-26T06:54:47Z</time>
      </trkpt>
      <trkpt lat="49.30439" lon="-1.20183">
        <ele>28</ele>
        <time>2021-03-26T06:54:56Z</time>
      </trkpt>
      <trkpt lat="49.30429" lon="-1.20012">
        <ele>28.43</ele>
        <time>2021-03-26T06:55:05Z</time>
      </trkpt>
      <trkpt lat="49.30419" lon="-1.19894">
        <ele>30</ele>
        <time>2021-03-26T06:55:14Z</time>
      </trkpt>
      <trkpt lat="49.30406" lon="-1.19778">
        <ele>29.38</ele>
        <time>2021-03-26T06:55:23Z</time>
      </trkpt>
      <trkpt lat="49.30307" lon="-1.19014">
        <ele>29.03</ele>
        <time>2021-03-26T06:55:31Z</time>
      </trkpt>
      <trkpt lat="49.30295" lon="-1.18894">
        <ele>28.3</ele>
        <time>2021-03-26T06:55:40Z</time>
      </trkpt>
      <trkpt lat="49.30279" lon="-1.18665">
        <ele>29.03</ele>
        <time>2021-03-26T06:55:49Z</time>
      </trkpt>
      <trkpt lat="49.30273" lon="-1.18553">
        <ele>29</ele>
        <time>2021-03-26T06:55:58Z</time>
      </trkpt>
      <trkpt lat="49.3027" lon="-1.1834">
        <ele>29.16</ele>
        <time>2021-03-26T06:56:07Z</time>
      </trkpt>
      <trkpt lat="49.30274" lon="-1.18171">
        <ele>30</ele>
        <time>2021-03-26T06:56:16Z</time>
      </trkpt>
      <trkpt lat="49.30342" lon="-1.16193">
        <ele>24.3</ele>
        <time>2021-03-26T06:56:24Z</time>
      </trkpt>
      <trkpt lat="49.30353" lon="-1.15977">
        <ele>19</ele>
        <time>2021-03-26T06:56:33Z</time>
      </trkpt>
      <trkpt lat="49.3037" lon="-1.15787">
        <ele>18.23</ele>
        <time>2021-03-26T06:56:42Z</time>
      </trkpt>
      <trkpt lat="49.30385" lon="-1.15654">
        <ele>18</ele>
        <time>2021-03-26T06:56:51Z</time>
      </trkpt>
      <trkpt lat="49.30404" lon="-1.15514">
        <ele>16.73</ele>
        <time>2021-03-26T06:57:00Z</time>
      </trkpt>
      <trkpt lat="49.30437" lon="-1.15317">
        <ele>13.82</ele>
        <time>2021-03-26T06:57:09Z</time>
      </trkpt>
      <trkpt lat="49.30774" lon="-1.13467">
        <ele>1.82</ele>
        <time>2021-03-26T06:57:17Z</time>
      </trkpt>
      <trkpt lat="49.30799" lon="-1.13289">
        <ele>2.91</ele>
        <time>2021-03-26T06:57:26Z</time>
      </trkpt>
      <trkpt lat="49.30817" lon="-1.13112">
        <ele>4.01</ele>
        <time>2021-03-26T06:57:35Z</time>
      </trkpt>
      <trkpt lat="49.30824" lon="-1.13013">
        <ele>4.54</ele>
        <time>2021-03-26T06:57:44Z</time>
      </trkpt>
      <trkpt lat="49.30828" lon="-1.12913">
        <ele>10.35</ele>
        <time>2021-03-26T06:57:53Z</time>
      </trkpt>
      <trkpt lat="49.3083" lon="-1.12781">
        <ele>13.12</ele>
        <time>2021-03-26T06:58:02Z</time>
      </trkpt>
      <trkpt lat="49.30827" lon="-1.1259">
        <ele>16.17</ele>
        <time>2021-03-26T06:58:10Z</time>
      </trkpt>
      <trkpt lat="49.30793" lon="-1.10959">
        <ele>20</ele>
        <time>2021-03-26T06:58:19Z</time>
      </trkpt>
      <trkpt lat="49.30792" lon="-1.10682">
        <ele>23.24</ele>
        <time>2021-03-26T06:58:28Z</time>
      </trkpt>
      <trkpt lat="49.30794" lon="-1.10604">
        <ele>23.85</ele>
        <time>2021-03-26T06:58:37Z</time>
      </trkpt>
      <trkpt lat="49.30803" lon="-1.10495">
        <ele>22</ele>
        <time>2021-03-26T06:58:46Z</time>
      </trkpt>
      <trkpt lat="49.30815" lon="-1.10401">
        <ele>21.16</ele>
        <time>2021-03-26T06:58:55Z</time>
      </trkpt>
      <trkpt lat="49.30833" lon="-1.10311">
        <ele>20.78</ele>
        <time>2021-03-26T06:59:03Z</time>
      </trkpt>
      <trkpt lat="49.30854" lon="-1.10234">
        <ele>19.42</ele>
        <time>2021-03-26T06:59:12Z</time>
      </trkpt>
      <trkpt lat="49.30877" lon="-1.1016">
        <ele>17.31</ele>
        <time>2021-03-26T06:59:21Z</time>
      </trkpt>
      <trkpt lat="49.30899" lon="-1.10101">
        <ele>14.77</ele>
        <time>2021-03-26T06:59:30Z</time>
      </trkpt>
      <trkpt lat="49.3092" lon="-1.10053">
        <ele>14</ele>
        <time>2021-03-26T06:59:39Z</time>
      </trkpt>
      <trkpt lat="49.3095" lon="-1.09993">
        <ele>14</ele>
        <time>2021-03-26T06:59:48Z</time>
      </trkpt>
      <trkpt lat="49.30981" lon="-1.09938">
        <ele>13.69</ele>
        <time>2021-03-26T06:59:56Z</time>
      </trkpt>
      <trkpt lat="49.30985" lon="-1.0992">
        <ele>13.55</ele>
        <time>2021-03-26T07:00:01Z</time>
      </trkpt>
      <trkpt lat="49.31105" lon="-1.09718">
        <ele>7.7</ele>
        <time>2021-03-26T07:00:06Z</time>
      </trkpt>
      <trkpt lat="49.31108" lon="-1.09689">
        <ele>7.5</ele>
        <time>2021-03-26T07:00:07Z</time>
      </trkpt>
      <trkpt lat="49.31093" lon="-1.09669">
        <ele>8.89</ele>
        <time>2021-03-26T07:00:13Z</time>
      </trkpt>
      <trkpt lat="49.31028" lon="-1.09598">
        <ele>11</ele>
        <time>2021-03-26T07:00:20Z</time>
      </trkpt>
      <trkpt lat="49.30891" lon="-1.09463">
        <ele>13.92</ele>
        <time>2021-03-26T07:00:26Z</time>
      </trkpt>
      <trkpt lat="49.30837" lon="-1.09394">
        <ele>14.97</ele>
        <time>2021-03-26T07:00:32Z</time>
      </trkpt>
      <trkpt lat="49.30799" lon="-1.09356">
        <ele>16.24</ele>
        <time>2021-03-26T07:00:39Z</time>
      </trkpt>
      <trkpt lat="49.30742" lon="-1.0929">
        <ele>19</ele>
        <time>2021-03-26T07:00:45Z</time>
      </trkpt>
      <trkpt lat="49.30691" lon="-1.09224">
        <ele>20.12</ele>
        <time>2021-03-26T07:00:51Z</time>
      </trkpt>
      <trkpt lat="49.30667" lon="-1.09186">
        <ele>21.31</ele>
        <time>2021-03-26T07:00:58Z</time>
      </trkpt>
      <trkpt lat="49.30646" lon="-1.09139">
        <ele>22.72</ele>
        <time>2021-03-26T07:01:04Z</time>
      </trkpt>
      <trkpt lat="49.3058" lon="-1.08976">
        <ele>29.02</ele>
        <time>2021-03-26T07:01:10Z</time>
      </trkpt>
      <trkpt lat="49.3055" lon="-1.08916">
        <ele>31.19</ele>
        <time>2021-03-26T07:01:16Z</time>
      </trkpt>
      <trkpt lat="49.30469" lon="-1.08776">
        <ele>33.94</ele>
        <time>2021-03-26T07:01:23Z</time>
      </trkpt>
      <trkpt lat="49.30412" lon="-1.0869">
        <ele>34</ele>
        <time>2021-03-26T07:01:29Z</time>
      </trkpt>
      <trkpt lat="49.30338" lon="-1.08598">
        <ele>34</ele>
        <time>2021-03-26T07:01:35Z</time>
      </trkpt>
      <trkpt lat="49.30237" lon="-1.08464">
        <ele>33.74</ele>
        <time>2021-03-26T07:01:42Z</time>
      </trkpt>
      <trkpt lat="49.30114" lon="-1.08239">
        <ele>34.95</ele>
        <time>2021-03-26T07:01:48Z</time>
      </trkpt>
      <trkpt lat="49.30088" lon="-1.0818">
        <ele>35.08</ele>
        <time>2021-03-26T07:01:54Z</time>
      </trkpt>
      <trkpt lat="49.30074" lon="-1.08136">
        <ele>33.96</ele>
        <time>2021-03-26T07:02:01Z</time>
      </trkpt>
      <trkpt lat="49.3006" lon="-1.08079">
        <ele>32.17</ele>
        <time>2021-03-26T07:02:07Z</time>
      </trkpt>
      <trkpt lat="49.29989" lon="-1.07774">
        <ele>21.14</ele>
        <time>2021-03-26T07:02:13Z</time>
      </trkpt>
      <trkpt lat="49.2998" lon="-1.07708">
        <ele>18.42</ele>
        <time>2021-03-26T07:02:19Z</time>
      </trkpt>
      <trkpt lat="49.2994" lon="-1.07312">
        <ele>20</ele>
        <time>2021-03-26T07:02:26Z</time>
      </trkpt>
      <trkpt lat="49.29923" lon="-1.07197">
        <ele>21.21</ele>
        <time>2021-03-26T07:02:32Z</time>
      </trkpt>
      <trkpt lat="49.29917" lon="-1.07055">
        <ele>19</ele>
        <time>2021-03-26T07:02:38Z</time>
      </trkpt>
      <trkpt lat="49.29909" lon="-1.06979">
        <ele>18.06</ele>
        <time>2021-03-26T07:02:45Z</time>
      </trkpt>
      <trkpt lat="49.2989" lon="-1.06907">
        <ele>14.72</ele>
        <time>2021-03-26T07:02:51Z</time>
      </trkpt>
      <trkpt lat="49.2986" lon="-1.06832">
        <ele>13.91</ele>
        <time>2021-03-26T07:02:57Z</time>
      </trkpt>
      <trkpt lat="49.29827" lon="-1.06758">
        <ele>12.28</ele>
        <time>2021-03-26T07:03:04Z</time>
      </trkpt>
      <trkpt lat="49.29797" lon="-1.06706">
        <ele>10.69</ele>
        <time>2021-03-26T07:03:10Z</time>
      </trkpt>
      <trkpt lat="49.29784" lon="-1.06678">
        <ele>10.09</ele>
        <time>2021-03-26T07:03:16Z</time>
      </trkpt>
      <trkpt lat="49.29777" lon="-1.06646">
        <ele>10.05</ele>
        <time>2021-03-26T07:03:22Z</time>
      </trkpt>
      <trkpt lat="49.29777" lon="-1.06434">
        <ele>15</ele>
        <time>2021-03-26T07:03:29Z</time>
      </trkpt>
      <trkpt lat="49.29774" lon="-1.06301">
        <ele>15.87</ele>
        <time>2021-03-26T07:03:35Z</time>
      </trkpt>
      <trkpt lat="49.29767" lon="-1.06251">
        <ele>14.44</ele>
        <time>2021-03-26T07:03:41Z</time>
      </trkpt>
      <trkpt lat="49.29755" lon="-1.06205">
        <ele>13.82</ele>
        <time>2021-03-26T07:03:48Z</time>
      </trkpt>
      <trkpt lat="49.29732" lon="-1.06157">
        <ele>13.65</ele>
        <time>2021-03-26T07:03:54Z</time>
      </trkpt>
      <trkpt lat="49.2969" lon="-1.06082">
        <ele>15.26</ele>
        <time>2021-03-26T07:04:00Z</time>
      </trkpt>
      <trkpt lat="49.29522" lon="-1.05538">
        <ele>28.85</ele>
        <time>2021-03-26T07:04:07Z</time>
      </trkpt>
      <trkpt lat="49.29501" lon="-1.05495">
        <ele>30.14</ele>
        <time>2021-03-26T07:04:13Z</time>
      </trkpt>
      <trkpt lat="49.29478" lon="-1.05468">
        <ele>31.82</ele>
        <time>2021-03-26T07:04:19Z</time>
      </trkpt>
      <trkpt lat="49.29446" lon="-1.05436">
        <ele>31.05</ele>
        <time>2021-03-26T07:04:25Z</time>
      </trkpt>
      <trkpt lat="49.29391" lon="-1.05412">
        <ele>33.83</ele>
        <time>2021-03-26T07:04:32Z</time>
      </trkpt>
      <trkpt lat="49.29355" lon="-1.05408">
        <ele>34.76</ele>
        <time>2021-03-26T07:04:38Z</time>
      </trkpt>
      <trkpt lat="49.27205" lon="-1.05416">
        <ele>38</ele>
        <time>2021-03-26T07:04:44Z</time>
      </trkpt>
      <trkpt lat="49.25197" lon="-1.0542">
        <ele>46.2</ele>
        <time>2021-03-26T07:04:51Z</time>
      </trkpt>
      <trkpt lat="49.24621" lon="-1.05439">
        <ele>48.36</ele>
        <time>2021-03-26T07:04:57Z</time>
      </trkpt>
      <trkpt lat="49.24523" lon="-1.05429">
        <ele>49.74</ele>
        <time>2021-03-26T07:05:03Z</time>
      </trkpt>
      <trkpt lat="49.24487" lon="-1.05434">
        <ele>50.1</ele>
        <time>2021-03-26T07:05:10Z</time>
      </trkpt>
      <trkpt lat="49.24427" lon="-1.05446">
        <ele>48.29</ele>
        <time>2021-03-26T07:05:16Z</time>
      </trkpt>
      <trkpt lat="49.23691" lon="-1.05614">
        <ele>52.79</ele>
        <time>2021-03-26T07:05:22Z</time>
      </trkpt>
      <trkpt lat="49.23627" lon="-1.05614">
        <ele>49.64</ele>
        <time>2021-03-26T07:05:28Z</time>
      </trkpt>
      <trkpt lat="49.23536" lon="-1.05574">
        <ele>41.16</ele>
        <time>2021-03-26T07:05:35Z</time>
      </trkpt>
      <trkpt lat="49.23249" lon="-1.05443">
        <ele>19.94</ele>
        <time>2021-03-26T07:05:41Z</time>
      </trkpt>
      <trkpt lat="49.23194" lon="-1.05413">
        <ele>16.83</ele>
        <time>2021-03-26T07:05:47Z</time>
      </trkpt>
      <trkpt lat="49.23172" lon="-1.05391">
        <ele>15.21</ele>
        <time>2021-03-26T07:05:54Z</time>
      </trkpt>
      <trkpt lat="49.23126" lon="-1.05327">
        <ele>12.94</ele>
        <time>2021-03-26T07:06:00Z</time>
      </trkpt>
      <trkpt lat="49.23087" lon="-1.05277">
        <ele>11.14</ele>
        <time>2021-03-26T07:06:06Z</time>
      </trkpt>
      <trkpt lat="49.22984" lon="-1.05137">
        <ele>7</ele>
        <time>2021-03-26T07:06:13Z</time>
      </trkpt>
      <trkpt lat="49.22937" lon="-1.05078">
        <ele>5.6</ele>
        <time>2021-03-26T07:06:19Z</time>
      </trkpt>
      <trkpt lat="49.22917" lon="-1.05047">
        <ele>4.71</ele>
        <time>2021-03-26T07:06:25Z</time>
      </trkpt>
      <trkpt lat="49.22907" lon="-1.0503">
        <ele>4.39</ele>
        <time>2021-03-26T07:06:31Z</time>
      </trkpt>
      <trkpt lat="49.22889" lon="-1.0499">
        <ele>4.99</ele>
        <time>2021-03-26T07:06:38Z</time>
      </trkpt>
      <trkpt lat="49.22874" lon="-1.04939">
        <ele>5.33</ele>
        <time>2021-03-26T07:06:44Z</time>
      </trkpt>
      <trkpt lat="49.22846" lon="-1.04832">
        <ele>5.5</ele>
        <time>2021-03-26T07:06:50Z</time>
      </trkpt>
      <trkpt lat="49.22836" lon="-1.04803">
        <ele>6.1</ele>
        <time>2021-03-26T07:06:57Z</time>
      </trkpt>
      <trkpt lat="49.22811" lon="-1.04754">
        <ele>5.2</ele>
        <time>2021-03-26T07:07:03Z</time>
      </trkpt>
      <trkpt lat="49.22798" lon="-1.04736">
        <ele>4.77</ele>
        <time>2021-03-26T07:07:09Z</time>
      </trkpt>
      <trkpt lat="49.22783" lon="-1.0472">
        <ele>4.75</ele>
        <time>2021-03-26T07:07:16Z</time>
      </trkpt>
      <trkpt lat="49.22761" lon="-1.04704">
        <ele>4.95</ele>
        <time>2021-03-26T07:07:22Z</time>
      </trkpt>
      <trkpt lat="49.22705" lon="-1.04667">
        <ele>5.63</ele>
        <time>2021-03-26T07:07:28Z</time>
      </trkpt>
      <trkpt lat="49.22688" lon="-1.04659">
        <ele>6.14</ele>
        <time>2021-03-26T07:07:34Z</time>
      </trkpt>
      <trkpt lat="49.22668" lon="-1.04654">
        <ele>7.02</ele>
        <time>2021-03-26T07:07:41Z</time>
      </trkpt>
      <trkpt lat="49.22643" lon="-1.04656">
        <ele>8.87</ele>
        <time>2021-03-26T07:07:47Z</time>
      </trkpt>
      <trkpt lat="49.22607" lon="-1.04668">
        <ele>10.56</ele>
        <time>2021-03-26T07:07:53Z</time>
      </trkpt>
      <trkpt lat="49.22591" lon="-1.04677">
        <ele>9.13</ele>
        <time>2021-03-26T07:08:00Z</time>
      </trkpt>
      <trkpt lat="49.22563" lon="-1.04684">
        <ele>7.89</ele>
        <time>2021-03-26T07:08:06Z</time>
      </trkpt>
      <trkpt lat="49.22532" lon="-1.04677">
        <ele>8.24</ele>
        <time>2021-03-26T07:08:12Z</time>
      </trkpt>
      <trkpt lat="49.22515" lon="-1.04668">
        <ele>8.05</ele>
        <time>2021-03-26T07:08:19Z</time>
      </trkpt>
      <trkpt lat="49.22502" lon="-1.04657">
        <ele>7.98</ele>
        <time>2021-03-26T07:08:25Z</time>
      </trkpt>
      <trkpt lat="49.22128" lon="-1.04139">
        <ele>6.38</ele>
        <time>2021-03-26T07:08:31Z</time>
      </trkpt>
      <trkpt lat="49.22085" lon="-1.0409">
        <ele>7</ele>
        <time>2021-03-26T07:08:37Z</time>
      </trkpt>
      <trkpt lat="49.22063" lon="-1.04075">
        <ele>6.92</ele>
        <time>2021-03-26T07:08:44Z</time>
      </trkpt>
      <trkpt lat="49.22047" lon="-1.04069">
        <ele>7.65</ele>
        <time>2021-03-26T07:08:50Z</time>
      </trkpt>
      <trkpt lat="49.22018" lon="-1.04074">
        <ele>9.7</ele>
        <time>2021-03-26T07:08:56Z</time>
      </trkpt>
      <trkpt lat="49.21967" lon="-1.0409">
        <ele>12.81</ele>
        <time>2021-03-26T07:09:03Z</time>
      </trkpt>
      <trkpt lat="49.21625" lon="-1.04217">
        <ele>26.1</ele>
        <time>2021-03-26T07:09:09Z</time>
      </trkpt>
      <trkpt lat="49.21413" lon="-1.04302">
        <ele>38.1</ele>
        <time>2021-03-26T07:09:15Z</time>
      </trkpt>
      <trkpt lat="49.21269" lon="-1.04348">
        <ele>39.69</ele>
        <time>2021-03-26T07:09:22Z</time>
      </trkpt>
      <trkpt lat="49.21235" lon="-1.04345">
        <ele>39.23</ele>
        <time>2021-03-26T07:09:28Z</time>
      </trkpt>
      <trkpt lat="49.21211" lon="-1.04336">
        <ele>39.47</ele>
        <time>2021-03-26T07:09:34Z</time>
      </trkpt>
      <trkpt lat="49.21193" lon="-1.04326">
        <ele>40</ele>
        <time>2021-03-26T07:09:40Z</time>
      </trkpt>
      <trkpt lat="49.21118" lon="-1.04258">
        <ele>39.25</ele>
        <time>2021-03-26T07:09:47Z</time>
      </trkpt>
      <trkpt lat="49.21126" lon="-1.04224">
        <ele>39.52</ele>
        <time>2021-03-26T07:09:52Z</time>
      </trkpt>
      <trkpt lat="49.21125" lon="-1.04207">
        <ele>39.51</ele>
        <time>2021-03-26T07:09:57Z</time>
      </trkpt>
      <trkpt lat="49.21117" lon="-1.04182">
        <ele>39.55</ele>
        <time>2021-03-26T07:10:02Z</time>
      </trkpt>
      <trkpt lat="49.21102" lon="-1.04119">
        <ele>39.68</ele>
        <time>2021-03-26T07:10:07Z</time>
      </trkpt>
      <trkpt lat="49.21086" lon="-1.04026">
        <ele>38.93</ele>
        <time>2021-03-26T07:10:11Z</time>
      </trkpt>
      <trkpt lat="49.21065" lon="-1.03923">
        <ele>38</ele>
        <time>2021-03-26T07:10:16Z</time>
      </trkpt>
      <trkpt lat="49.21002" lon="-1.03676">
        <ele>34.38</ele>
        <time>2021-03-26T07:10:21Z</time>
      </trkpt>
      <trkpt lat="49.20986" lon="-1.03603">
        <ele>34.29</ele>
        <time>2021-03-26T07:10:26Z</time>
      </trkpt>
      <trkpt lat="49.2095" lon="-1.0336">
        <ele>36.78</ele>
        <time>2021-03-26T07:10:31Z</time>
      </trkpt>
      <trkpt lat="49.20945" lon="-1.03303">
        <ele>36.93</ele>
        <time>2021-03-26T07:10:36Z</time>
      </trkpt>
      <trkpt lat="49.2094" lon="-1.03127">
        <ele>38.17</ele>
        <time>2021-03-26T07:10:41Z</time>
      </trkpt>
      <trkpt lat="49.20931" lon="-1.0304">
        <ele>40.04</ele>
        <time>2021-03-26T07:10:46Z</time>
      </trkpt>
      <trkpt lat="49.2092" lon="-1.02974">
        <ele>40.75</ele>
        <time>2021-03-26T07:10:51Z</time>
      </trkpt>
      <trkpt lat="49.20859" lon="-1.02754">
        <ele>42.05</ele>
        <time>2021-03-26T07:10:56Z</time>
      </trkpt>
      <trkpt lat="49.2083" lon="-1.02622">
        <ele>44</ele>
        <time>2021-03-26T07:11:01Z</time>
      </trkpt>
      <trkpt lat="49.20797" lon="-1.02456">
        <ele>42.83</ele>
        <time>2021-03-26T07:11:06Z</time>
      </trkpt>
      <trkpt lat="49.20774" lon="-1.02346">
        <ele>44.46</ele>
        <time>2021-03-26T07:11:11Z</time>
      </trkpt>
      <trkpt lat="49.20758" lon="-1.02257">
        <ele>45.29</ele>
        <time>2021-03-26T07:11:16Z</time>
      </trkpt>
      <trkpt lat="49.20728" lon="-1.02044">
        <ele>45.21</ele>
        <time>2021-03-26T07:11:21Z</time>
      </trkpt>
      <trkpt lat="49.20724" lon="-1.02005">
        <ele>45.06</ele>
        <time>2021-03-26T07:11:25Z</time>
      </trkpt>
      <trkpt lat="49.20712" lon="-1.01942">
        <ele>44.68</ele>
        <time>2021-03-26T07:11:30Z</time>
      </trkpt>
      <trkpt lat="49.20624" lon="-1.01533">
        <ele>43.42</ele>
        <time>2021-03-26T07:11:35Z</time>
      </trkpt>
      <trkpt lat="49.20601" lon="-1.01414">
        <ele>44.3</ele>
        <time>2021-03-26T07:11:40Z</time>
      </trkpt>
      <trkpt lat="49.20593" lon="-1.0136">
        <ele>44.05</ele>
        <time>2021-03-26T07:11:45Z</time>
      </trkpt>
      <trkpt lat="49.20589" lon="-1.01291">
        <ele>45.89</ele>
        <time>2021-03-26T07:11:50Z</time>
      </trkpt>
      <trkpt lat="49.20592" lon="-1.01179">
        <ele>41.4</ele>
        <time>2021-03-26T07:11:55Z</time>
      </trkpt>
      <trkpt lat="49.20598" lon="-1.01104">
        <ele>38.51</ele>
        <time>2021-03-26T07:12:00Z</time>
      </trkpt>
      <trkpt lat="49.20608" lon="-1.01025">
        <ele>39.53</ele>
        <time>2021-03-26T07:12:05Z</time>
      </trkpt>
      <trkpt lat="49.20602" lon="-1.00975">
        <ele>38.11</ele>
        <time>2021-03-26T07:12:10Z</time>
      </trkpt>
      <trkpt lat="49.20589" lon="-1.00937">
        <ele>36.65</ele>
        <time>2021-03-26T07:12:15Z</time>
      </trkpt>
      <trkpt lat="49.20554" lon="-1.00883">
        <ele>36.99</ele>
        <time>2021-03-26T07:12:20Z</time>
      </trkpt>
      <trkpt lat="49.20497" lon="-1.00775">
        <ele>38.94</ele>
        <time>2021-03-26T07:12:25Z</time>
      </trkpt>
      <trkpt lat="49.20462" lon="-1.00677">
        <ele>42.26</ele>
        <time>2021-03-26T07:12:30Z</time>
      </trkpt>
      <trkpt lat="49.20425" lon="-1.00521">
        <ele>45.82</ele>
        <time>2021-03-26T07:12:35Z</time>
      </trkpt>
      <trkpt lat="49.20416" lon="-1.0041">
        <ele>46.03</ele>
        <time>2021-03-26T07:12:40Z</time>
      </trkpt>
      <trkpt lat="49.20411" lon="-1.00274">
        <ele>47.21</ele>
        <time>2021-03-26T07:12:44Z</time>
      </trkpt>
      <trkpt lat="49.20436" lon="-0.99835">
        <ele>51.02</ele>
        <time>2021-03-26T07:12:49Z</time>
      </trkpt>
      <trkpt lat="49.20435" lon="-0.99795">
        <ele>50.33</ele>
        <time>2021-03-26T07:12:54Z</time>
      </trkpt>
      <trkpt lat="49.20426" lon="-0.99711">
        <ele>50.67</ele>
        <time>2021-03-26T07:12:59Z</time>
      </trkpt>
      <trkpt lat="49.20413" lon="-0.9962">
        <ele>50.12</ele>
        <time>2021-03-26T07:13:04Z</time>
      </trkpt>
      <trkpt lat="49.20402" lon="-0.99492">
        <ele>51.38</ele>
        <time>2021-03-26T07:13:09Z</time>
      </trkpt>
      <trkpt lat="49.20384" lon="-0.99393">
        <ele>52.35</ele>
        <time>2021-03-26T07:13:14Z</time>
      </trkpt>
      <trkpt lat="49.20353" lon="-0.99246">
        <ele>53.17</ele>
        <time>2021-03-26T07:13:19Z</time>
      </trkpt>
      <trkpt lat="49.20344" lon="-0.9919">
        <ele>55.68</ele>
        <time>2021-03-26T07:13:24Z</time>
      </trkpt>
      <trkpt lat="49.20331" lon="-0.98791">
        <ele>57.15</ele>
        <time>2021-03-26T07:13:29Z</time>
      </trkpt>
      <trkpt lat="49.20323" lon="-0.98669">
        <ele>57.73</ele>
        <time>2021-03-26T07:13:34Z</time>
      </trkpt>
      <trkpt lat="49.20308" lon="-0.98574">
        <ele>56.3</ele>
        <time>2021-03-26T07:13:39Z</time>
      </trkpt>
      <trkpt lat="49.20169" lon="-0.97825">
        <ele>65</ele>
        <time>2021-03-26T07:13:44Z</time>
      </trkpt>
      <trkpt lat="49.20158" lon="-0.9778">
        <ele>65.94</ele>
        <time>2021-03-26T07:13:49Z</time>
      </trkpt>
      <trkpt lat="49.20141" lon="-0.97742">
        <ele>67.3</ele>
        <time>2021-03-26T07:13:54Z</time>
      </trkpt>
      <trkpt lat="49.20023" lon="-0.97517">
        <ele>69.78</ele>
        <time>2021-03-26T07:13:58Z</time>
      </trkpt>
      <trkpt lat="49.19993" lon="-0.97456">
        <ele>70.94</ele>
        <time>2021-03-26T07:14:03Z</time>
      </trkpt>
      <trkpt lat="49.19882" lon="-0.97128">
        <ele>73.23</ele>
        <time>2021-03-26T07:14:08Z</time>
      </trkpt>
      <trkpt lat="49.19801" lon="-0.9692">
        <ele>76.86</ele>
        <time>2021-03-26T07:14:13Z</time>
      </trkpt>
      <trkpt lat="49.19741" lon="-0.96709">
        <ele>79</ele>
        <time>2021-03-26T07:14:18Z</time>
      </trkpt>
      <trkpt lat="49.19701" lon="-0.96585">
        <ele>78.77</ele>
        <time>2021-03-26T07:14:23Z</time>
      </trkpt>
      <trkpt lat="49.19691" lon="-0.96544">
        <ele>79.05</ele>
        <time>2021-03-26T07:14:28Z</time>
      </trkpt>
      <trkpt lat="49.19692" lon="-0.96513">
        <ele>78.58</ele>
        <time>2021-03-26T07:14:33Z</time>
      </trkpt>
      <trkpt lat="49.19747" lon="-0.96178">
        <ele>81.7</ele>
        <time>2021-03-26T07:14:38Z</time>
      </trkpt>
      <trkpt lat="49.19755" lon="-0.96099">
        <ele>80.93</ele>
        <time>2021-03-26T07:14:43Z</time>
      </trkpt>
      <trkpt lat="49.19762" lon="-0.95866">
        <ele>82.92</ele>
        <time>2021-03-26T07:14:48Z</time>
      </trkpt>
      <trkpt lat="49.19759" lon="-0.95807">
        <ele>83</ele>
        <time>2021-03-26T07:14:53Z</time>
      </trkpt>
      <trkpt lat="49.1972" lon="-0.95218">
        <ele>87.93</ele>
        <time>2021-03-26T07:14:58Z</time>
      </trkpt>
      <trkpt lat="49.19697" lon="-0.94996">
        <ele>86</ele>
        <time>2021-03-26T07:15:03Z</time>
      </trkpt>
      <trkpt lat="49.19719" lon="-0.94844">
        <ele>86.95</ele>
        <time>2021-03-26T07:15:08Z</time>
      </trkpt>
      <trkpt lat="49.19725" lon="-0.9479">
        <ele>87</ele>
        <time>2021-03-26T07:15:12Z</time>
      </trkpt>
      <trkpt lat="49.19726" lon="-0.94745">
        <ele>86.11</ele>
        <time>2021-03-26T07:15:17Z</time>
      </trkpt>
      <trkpt lat="49.19715" lon="-0.94504">
        <ele>86.9</ele>
        <time>2021-03-26T07:15:22Z</time>
      </trkpt>
      <trkpt lat="49.19714" lon="-0.94451">
        <ele>87</ele>
        <time>2021-03-26T07:15:27Z</time>
      </trkpt>
      <trkpt lat="49.19762" lon="-0.94038">
        <ele>72.56</ele>
        <time>2021-03-26T07:15:32Z</time>
      </trkpt>
      <trkpt lat="49.1976" lon="-0.94">
        <ele>72</ele>
        <time>2021-03-26T07:15:37Z</time>
      </trkpt>
      <trkpt lat="49.19757" lon="-0.9398">
        <ele>72.55</ele>
        <time>2021-03-26T07:15:42Z</time>
      </trkpt>
      <trkpt lat="49.19748" lon="-0.93952">
        <ele>73.74</ele>
        <time>2021-03-26T07:15:47Z</time>
      </trkpt>
      <trkpt lat="49.19733" lon="-0.93922">
        <ele>74.49</ele>
        <time>2021-03-26T07:15:52Z</time>
      </trkpt>
      <trkpt lat="49.19703" lon="-0.93884">
        <ele>76.16</ele>
        <time>2021-03-26T07:15:57Z</time>
      </trkpt>
      <trkpt lat="49.19644" lon="-0.93821">
        <ele>81.47</ele>
        <time>2021-03-26T07:16:02Z</time>
      </trkpt>
      <trkpt lat="49.19636" lon="-0.93786">
        <ele>82.24</ele>
        <time>2021-03-26T07:16:07Z</time>
      </trkpt>
      <trkpt lat="49.1962" lon="-0.93656">
        <ele>85.26</ele>
        <time>2021-03-26T07:16:12Z</time>
      </trkpt>
      <trkpt lat="49.19497" lon="-0.93678">
        <ele>87.09</ele>
        <time>2021-03-26T07:16:19Z</time>
      </trkpt>
      <trkpt lat="49.19474" lon="-0.93685">
        <ele>87.95</ele>
        <time>2021-03-26T07:16:25Z</time>
      </trkpt>
      <trkpt lat="49.19377" lon="-0.93699">
        <ele>89</ele>
        <time>2021-03-26T07:16:32Z</time>
      </trkpt>
      <trkpt lat="49.19359" lon="-0.93689">
        <ele>89.18</ele>
        <time>2021-03-26T07:16:39Z</time>
      </trkpt>
      <trkpt lat="49.19356" lon="-0.93364">
        <ele>94.1</ele>
        <time>2021-03-26T07:16:45Z</time>
      </trkpt>
      <trkpt lat="49.19351" lon="-0.93323">
        <ele>95.25</ele>
        <time>2021-03-26T07:16:52Z</time>
      </trkpt>
      <trkpt lat="49.19321" lon="-0.93219">
        <ele>94.44</ele>
        <time>2021-03-26T07:16:58Z</time>
      </trkpt>
      <trkpt lat="49.19271" lon="-0.93011">
        <ele>93.1</ele>
        <time>2021-03-26T07:17:05Z</time>
      </trkpt>
      <trkpt lat="49.19249" lon="-0.92953">
        <ele>93.04</ele>
        <time>2021-03-26T07:17:11Z</time>
      </trkpt>
      <trkpt lat="49.19225" lon="-0.92874">
        <ele>95</ele>
        <time>2021-03-26T07:17:18Z</time>
      </trkpt>
      <trkpt lat="49.19183" lon="-0.92715">
        <ele>95.27</ele>
        <time>2021-03-26T07:17:24Z</time>
      </trkpt>
      <trkpt lat="49.19163" lon="-0.92622">
        <ele>92.79</ele>
        <time>2021-03-26T07:17:31Z</time>
      </trkpt>
      <trkpt lat="49.1915" lon="-0.92588">
        <ele>90.81</ele>
        <time>2021-03-26T07:17:37Z</time>
      </trkpt>
      <trkpt lat="49.19117" lon="-0.92539">
        <ele>91.57</ele>
        <time>2021-03-26T07:17:44Z</time>
      </trkpt>
      <trkpt lat="49.19106" lon="-0.92517">
        <ele>92.4</ele>
        <time>2021-03-26T07:17:51Z</time>
      </trkpt>
      <trkpt lat="49.19092" lon="-0.92475">
        <ele>93.14</ele>
        <time>2021-03-26T07:17:57Z</time>
      </trkpt>
      <trkpt lat="49.19069" lon="-0.92393">
        <ele>93</ele>
        <time>2021-03-26T07:18:04Z</time>
      </trkpt>
      <trkpt lat="49.19026" lon="-0.92246">
        <ele>91.83</ele>
        <time>2021-03-26T07:18:10Z</time>
      </trkpt>
      <trkpt lat="49.19023" lon="-0.92203">
        <ele>91.09</ele>
        <time>2021-03-26T07:18:17Z</time>
      </trkpt>
      <trkpt lat="49.19027" lon="-0.92141">
        <ele>92.04</ele>
        <time>2021-03-26T07:18:23Z</time>
      </trkpt>
      <trkpt lat="49.19024" lon="-0.92108">
        <ele>91.01</ele>
        <time>2021-03-26T07:18:30Z</time>
      </trkpt>
      <trkpt lat="49.19017" lon="-0.92073">
        <ele>90.17</ele>
        <time>2021-03-26T07:18:36Z</time>
      </trkpt>
      <trkpt lat="49.1899" lon="-0.92027">
        <ele>93.23</ele>
        <time>2021-03-26T07:18:43Z</time>
      </trkpt>
      <trkpt lat="49.18976" lon="-0.92">
        <ele>96.56</ele>
        <time>2021-03-26T07:18:49Z</time>
      </trkpt>
      <trkpt lat="49.18973" lon="-0.91948">
        <ele>97.92</ele>
        <time>2021-03-26T07:18:56Z</time>
      </trkpt>
      <trkpt lat="49.18968" lon="-0.91714">
        <ele>91.71</ele>
        <time>2021-03-26T07:19:02Z</time>
      </trkpt>
      <trkpt lat="49.18963" lon="-0.91661">
        <ele>90.32</ele>
        <time>2021-03-26T07:19:09Z</time>
      </trkpt>
      <trkpt lat="49.18952" lon="-0.91578">
        <ele>93.37</ele>
        <time>2021-03-26T07:19:15Z</time>
      </trkpt>
      <trkpt lat="49.18958" lon="-0.91505">
        <ele>101.37</ele>
        <time>2021-03-26T07:19:22Z</time>
      </trkpt>
      <trkpt lat="49.19071" lon="-0.90629">
        <ele>128.46</ele>
        <time>2021-03-26T07:19:28Z</time>
      </trkpt>
      <trkpt lat="49.19103" lon="-0.90355">
        <ele>125.11</ele>
        <time>2021-03-26T07:19:35Z</time>
      </trkpt>
      <trkpt lat="49.19133" lon="-0.89859">
        <ele>124.82</ele>
        <time>2021-03-26T07:19:41Z</time>
      </trkpt>
      <trkpt lat="49.19148" lon="-0.8965">
        <ele>117.93</ele>
        <time>2021-03-26T07:19:48Z</time>
      </trkpt>
      <trkpt lat="49.19148" lon="-0.89612">
        <ele>118.31</ele>
        <time>2021-03-26T07:19:54Z</time>
      </trkpt>
      <trkpt lat="49.19238" lon="-0.88374">
        <ele>133.41</ele>
        <time>2021-03-26T07:20:01Z</time>
      </trkpt>
      <trkpt lat="49.19338" lon="-0.86605">
        <ele>136.67</ele>
        <time>2021-03-26T07:20:07Z</time>
      </trkpt>
      <trkpt lat="49.19344" lon="-0.8657">
        <ele>135.21</ele>
        <time>2021-03-26T07:20:14Z</time>
      </trkpt>
      <trkpt lat="49.19362" lon="-0.86513">
        <ele>133</ele>
        <time>2021-03-26T07:20:21Z</time>
      </trkpt>
      <trkpt lat="49.19359" lon="-0.86499">
        <ele>131.73</ele>
        <time>2021-03-26T07:20:27Z</time>
      </trkpt>
      <trkpt lat="49.19351" lon="-0.86486">
        <ele>130.44</ele>
        <time>2021-03-26T07:20:34Z</time>
      </trkpt>
      <trkpt lat="49.1934" lon="-0.86484">
        <ele>129.76</ele>
        <time>2021-03-26T07:20:38Z</time>
      </trkpt>
      <trkpt lat="49.19333" lon="-0.8648">
        <ele>129.3</ele>
        <time>2021-03-26T07:20:43Z</time>
      </trkpt>
      <trkpt lat="49.19324" lon="-0.8647">
        <ele>128.97</ele>
        <time>2021-03-26T07:20:48Z</time>
      </trkpt>
      <trkpt lat="49.19318" lon="-0.86452">
        <ele>129.09</ele>
        <time>2021-03-26T07:20:53Z</time>
      </trkpt>
      <trkpt lat="49.19316" lon="-0.8644">
        <ele>129.37</ele>
        <time>2021-03-26T07:20:58Z</time>
      </trkpt>
      <trkpt lat="49.19317" lon="-0.86428">
        <ele>129.75</ele>
        <time>2021-03-26T07:21:03Z</time>
      </trkpt>
      <trkpt lat="49.19321" lon="-0.86413">
        <ele>130.16</ele>
        <time>2021-03-26T07:21:08Z</time>
      </trkpt>
      <trkpt lat="49.1932" lon="-0.86398">
        <ele>131.3</ele>
        <time>2021-03-26T07:21:13Z</time>
      </trkpt>
      <trkpt lat="49.19316" lon="-0.86372">
        <ele>132.87</ele>
        <time>2021-03-26T07:21:18Z</time>
      </trkpt>
      <trkpt lat="49.19183" lon="-0.86102">
        <ele>132.79</ele>
        <time>2021-03-26T07:21:23Z</time>
      </trkpt>
      <trkpt lat="49.19142" lon="-0.86047">
        <ele>127.28</ele>
        <time>2021-03-26T07:21:28Z</time>
      </trkpt>
      <trkpt lat="49.18589" lon="-0.85616">
        <ele>101.37</ele>
        <time>2021-03-26T07:21:32Z</time>
      </trkpt>
      <trkpt lat="49.18553" lon="-0.85585">
        <ele>99.75</ele>
        <time>2021-03-26T07:21:37Z</time>
      </trkpt>
      <trkpt lat="49.18532" lon="-0.85554">
        <ele>95.52</ele>
        <time>2021-03-26T07:21:42Z</time>
      </trkpt>
      <trkpt lat="49.18523" lon="-0.85523">
        <ele>91.85</ele>
        <time>2021-03-26T07:21:47Z</time>
      </trkpt>
      <trkpt lat="49.1851" lon="-0.85431">
        <ele>87.54</ele>
        <time>2021-03-26T07:21:52Z</time>
      </trkpt>
      <trkpt lat="49.1845" lon="-0.8493">
        <ele>67.17</ele>
        <time>2021-03-26T07:21:57Z</time>
      </trkpt>
      <trkpt lat="49.18432" lon="-0.8477">
        <ele>57.71</ele>
        <time>2021-03-26T07:22:02Z</time>
      </trkpt>
      <trkpt lat="49.18403" lon="-0.84536">
        <ele>55.86</ele>
        <time>2021-03-26T07:22:07Z</time>
      </trkpt>
      <trkpt lat="49.18395" lon="-0.845">
        <ele>56.99</ele>
        <time>2021-03-26T07:22:12Z</time>
      </trkpt>
      <trkpt lat="49.18383" lon="-0.84463">
        <ele>59.32</ele>
        <time>2021-03-26T07:22:17Z</time>
      </trkpt>
      <trkpt lat="49.18129" lon="-0.83943">
        <ele>88.31</ele>
        <time>2021-03-26T07:22:22Z</time>
      </trkpt>
      <trkpt lat="49.18098" lon="-0.83883">
        <ele>90.31</ele>
        <time>2021-03-26T07:22:26Z</time>
      </trkpt>
      <trkpt lat="49.18089" lon="-0.83852">
        <ele>91.93</ele>
        <time>2021-03-26T07:22:31Z</time>
      </trkpt>
      <trkpt lat="49.18082" lon="-0.83853">
        <ele>91.96</ele>
        <time>2021-03-26T07:22:46Z</time>
      </trkpt>
      <trkpt lat="49.18078" lon="-0.83842">
        <ele>91.8</ele>
        <time>2021-03-26T07:23:00Z</time>
      </trkpt>
      <trkpt lat="49.18081" lon="-0.83834">
        <ele>91.92</ele>
        <time>2021-03-26T07:23:15Z</time>
      </trkpt>
      <trkpt lat="49.18085" lon="-0.83833">
        <ele>92.13</ele>
        <time>2021-03-26T07:23:29Z</time>
      </trkpt>
      <trkpt lat="49.18088" lon="-0.83834">
        <ele>92.16</ele>
        <time>2021-03-26T07:23:44Z</time>
      </trkpt>
      <trkpt lat="49.18529" lon="-0.82774">
        <ele>121</ele>
        <time>2021-03-26T07:23:58Z</time>
      </trkpt>
      <trkpt lat="49.18524" lon="-0.82763">
        <ele>120.87</ele>
        <time>2021-03-26T07:24:10Z</time>
      </trkpt>
      <trkpt lat="49.18525" lon="-0.82751">
        <ele>120.91</ele>
        <time>2021-03-26T07:24:21Z</time>
      </trkpt>
      <trkpt lat="49.18369" lon="-0.82645">
        <ele>123.83</ele>
        <time>2021-03-26T07:24:33Z</time>
      </trkpt>
      <trkpt lat="49.18041" lon="-0.82419">
        <ele>125.03</ele>
        <time>2021-03-26T07:24:44Z</time>
      </trkpt>
      <trkpt lat="49.18032" lon="-0.82407">
        <ele>125</ele>
        <time>2021-03-26T07:24:56Z</time>
      </trkpt>
      <trkpt lat="49.18025" lon="-0.82389">
        <ele>125</ele>
        <time>2021-03-26T07:25:07Z</time>
      </trkpt>
      <trkpt lat="49.1802" lon="-0.82372">
        <ele>125.61</ele>
        <time>2021-03-26T07:25:19Z</time>
      </trkpt>
      <trkpt lat="49.17925" lon="-0.81219">
        <ele>128.91</ele>
        <time>2021-03-26T07:25:30Z</time>
      </trkpt>
      <trkpt lat="49.1784" lon="-0.80161">
        <ele>128.23</ele>
        <time>2021-03-26T07:25:42Z</time>
      </trkpt>
      <trkpt lat="49.17826" lon="-0.79971">
        <ele>130.72</ele>
        <time>2021-03-26T07:25:53Z</time>
      </trkpt>
      <trkpt lat="49.17846" lon="-0.79426">
        <ele>127.84</ele>
        <time>2021-03-26T07:26:05Z</time>
      </trkpt>
      <trkpt lat="49.17854" lon="-0.79087">
        <ele>129.23</ele>
        <time>2021-03-26T07:26:17Z</time>
      </trkpt>
      <trkpt lat="49.17869" lon="-0.78724">
        <ele>129.04</ele>
        <time>2021-03-26T07:26:28Z</time>
      </trkpt>
      <trkpt lat="49.17888" lon="-0.78193">
        <ele>127.14</ele>
        <time>2021-03-26T07:26:40Z</time>
      </trkpt>
      <trkpt lat="49.17893" lon="-0.781">
        <ele>129.71</ele>
        <time>2021-03-26T07:26:51Z</time>
      </trkpt>
      <trkpt lat="49.17964" lon="-0.77709">
        <ele>128.29</ele>
        <time>2021-03-26T07:27:03Z</time>
      </trkpt>
      <trkpt lat="49.18281" lon="-0.76069">
        <ele>122.48</ele>
        <time>2021-03-26T07:27:14Z</time>
      </trkpt>
      <trkpt lat="49.18508" lon="-0.74853">
        <ele>95.98</ele>
        <time>2021-03-26T07:27:26Z</time>
      </trkpt>
      <trkpt lat="49.18508" lon="-0.74818">
        <ele>94.73</ele>
        <time>2021-03-26T07:27:37Z</time>
      </trkpt>
      <trkpt lat="49.18505" lon="-0.74785">
        <ele>94.05</ele>
        <time>2021-03-26T07:27:49Z</time>
      </trkpt>
      <trkpt lat="49.18496" lon="-0.74751">
        <ele>94</ele>
        <time>2021-03-26T07:28:00Z</time>
      </trkpt>
      <trkpt lat="49.18028" lon="-0.736">
        <ele>75.4</ele>
        <time>2021-03-26T07:28:12Z</time>
      </trkpt>
      <trkpt lat="49.18015" lon="-0.73558">
        <ele>77.85</ele>
        <time>2021-03-26T07:28:23Z</time>
      </trkpt>
      <trkpt lat="49.18009" lon="-0.73507">
        <ele>80.32</ele>
        <time>2021-03-26T07:28:35Z</time>
      </trkpt>
      <trkpt lat="49.1801" lon="-0.7348">
        <ele>80.63</ele>
        <time>2021-03-26T07:28:46Z</time>
      </trkpt>
      <trkpt lat="49.18196" lon="-0.72569">
        <ele>93.02</ele>
        <time>2021-03-26T07:28:58Z</time>
      </trkpt>
      <trkpt lat="49.18208" lon="-0.72469">
        <ele>92.95</ele>
        <time>2021-03-26T07:29:09Z</time>
      </trkpt>
      <trkpt lat="49.18212" lon="-0.72389">
        <ele>92.29</ele>
        <time>2021-03-26T07:29:21Z</time>
      </trkpt>
      <trkpt lat="49.18213" lon="-0.72345">
        <ele>91.75</ele>
        <time>2021-03-26T07:29:32Z</time>
      </trkpt>
      <trkpt lat="49.18211" lon="-0.72298">
        <ele>90.32</ele>
        <time>2021-03-26T07:29:44Z</time>
      </trkpt>
      <trkpt lat="49.18197" lon="-0.72192">
        <ele>86.01</ele>
        <time>2021-03-26T07:29:55Z</time>
      </trkpt>
      <trkpt lat="49.1817" lon="-0.72073">
        <ele>80.88</ele>
        <time>2021-03-26T07:30:07Z</time>
      </trkpt>
      <trkpt lat="49.17863" lon="-0.71093">
        <ele>87.19</ele>
        <time>2021-03-26T07:30:18Z</time>
      </trkpt>
      <trkpt lat="49.17848" lon="-0.71037">
        <ele>92.24</ele>
        <time>2021-03-26T07:30:30Z</time>
      </trkpt>
      <trkpt lat="49.17846" lon="-0.71">
        <ele>94.56</ele>
        <time>2021-03-26T07:30:41Z</time>
      </trkpt>
      <trkpt lat="49.17854" lon="-0.7067">
        <ele>106.18</ele>
        <time>2021-03-26T07:30:53Z</time>
      </trkpt>
      <trkpt lat="49.17851" lon="-0.70603">
        <ele>107.11</ele>
        <time>2021-03-26T07:31:04Z</time>
      </trkpt>
      <trkpt lat="49.17789" lon="-0.69951">
        <ele>105.13</ele>
        <time>2021-03-26T07:31:16Z</time>
      </trkpt>
      <trkpt lat="49.17567" lon="-0.67541">
        <ele>82.63</ele>
        <time>2021-03-26T07:31:27Z</time>
      </trkpt>
      <trkpt lat="49.17525" lon="-0.67322">
        <ele>85.96</ele>
        <time>2021-03-26T07:31:39Z</time>
      </trkpt>
      <trkpt lat="49.17522" lon="-0.67302">
        <ele>87.36</ele>
        <time>2021-03-26T07:31:50Z</time>
      </trkpt>
      <trkpt lat="49.17511" lon="-0.67255">
        <ele>88.61</ele>
        <time>2021-03-26T07:32:02Z</time>
      </trkpt>
      <trkpt lat="49.17498" lon="-0.67176">
        <ele>89</ele>
        <time>2021-03-26T07:32:13Z</time>
      </trkpt>
      <trkpt lat="49.17376" lon="-0.66568">
        <ele>85.95</ele>
        <time>2021-03-26T07:32:25Z</time>
      </trkpt>
      <trkpt lat="49.1737" lon="-0.66528">
        <ele>86.67</ele>
        <time>2021-03-26T07:32:36Z</time>
      </trkpt>
      <trkpt lat="49.17371" lon="-0.66459">
        <ele>88.46</ele>
        <time>2021-03-26T07:32:48Z</time>
      </trkpt>
      <trkpt lat="49.17483" lon="-0.65332">
        <ele>93.22</ele>
        <time>2021-03-26T07:32:59Z</time>
      </trkpt>
      <trkpt lat="49.17509" lon="-0.65028">
        <ele>91</ele>
        <time>2021-03-26T07:33:11Z</time>
      </trkpt>
      <trkpt lat="49.17507" lon="-0.64969">
        <ele>89.88</ele>
        <time>2021-03-26T07:33:22Z</time>
      </trkpt>
      <trkpt lat="49.17471" lon="-0.64772">
        <ele>87.82</ele>
        <time>2021-03-26T07:33:34Z</time>
      </trkpt>
      <trkpt lat="49.17365" lon="-0.6416">
        <ele>91.85</ele>
        <time>2021-03-26T07:33:45Z</time>
      </trkpt>
      <trkpt lat="49.17359" lon="-0.64116">
        <ele>92.08</ele>
        <time>2021-03-26T07:33:57Z</time>
      </trkpt>
      <trkpt lat="49.1736" lon="-0.64088">
        <ele>92.05</ele>
        <time>2021-03-26T07:34:08Z</time>
      </trkpt>
      <trkpt lat="49.17371" lon="-0.63971">
        <ele>93</ele>
        <time>2021-03-26T07:34:20Z</time>
      </trkpt>
      <trkpt lat="49.1748" lon="-0.62977">
        <ele>78.17</ele>
        <time>2021-03-26T07:34:31Z</time>
      </trkpt>
      <trkpt lat="49.17502" lon="-0.62792">
        <ele>68.13</ele>
        <time>2021-03-26T07:34:43Z</time>
      </trkpt>
      <trkpt lat="49.17514" lon="-0.62734">
        <ele>66.11</ele>
        <time>2021-03-26T07:34:54Z</time>
      </trkpt>
      <trkpt lat="49.17526" lon="-0.62688">
        <ele>63.46</ele>
        <time>2021-03-26T07:35:06Z</time>
      </trkpt>
      <trkpt lat="49.17553" lon="-0.62601">
        <ele>60.49</ele>
        <time>2021-03-26T07:35:17Z</time>
      </trkpt>
      <trkpt lat="49.17561" lon="-0.62606">
        <ele>61.04</ele>
        <time>2021-03-26T07:35:18Z</time>
      </trkpt>
      <trkpt lat="49.1757" lon="-0.62588">
        <ele>60.7</ele>
        <time>2021-03-26T07:35:24Z</time>
      </trkpt>
      <trkpt lat="49.17587" lon="-0.62563">
        <ele>60.37</ele>
        <time>2021-03-26T07:35:31Z</time>
      </trkpt>
      <trkpt lat="49.17656" lon="-0.62472">
        <ele>58.01</ele>
        <time>2021-03-26T07:35:37Z</time>
      </trkpt>
      <trkpt lat="49.17738" lon="-0.62358">
        <ele>52.93</ele>
        <time>2021-03-26T07:35:43Z</time>
      </trkpt>
      <trkpt lat="49.17733" lon="-0.6235">
        <ele>52.85</ele>
        <time>2021-03-26T07:35:56Z</time>
      </trkpt>
      <trkpt lat="49.17732" lon="-0.6234">
        <ele>52.72</ele>
        <time>2021-03-26T07:36:09Z</time>
      </trkpt>
      <trkpt lat="49.17736" lon="-0.62331">
        <ele>52.46</ele>
        <time>2021-03-26T07:36:22Z</time>
      </trkpt>
      <trkpt lat="49.17743" lon="-0.62327">
        <ele>52.11</ele>
        <time>2021-03-26T07:36:35Z</time>
      </trkpt>
      <trkpt lat="49.17746" lon="-0.62328">
        <ele>51.98</ele>
        <time>2021-03-26T07:36:48Z</time>
      </trkpt>
      <trkpt lat="49.1775" lon="-0.62307">
        <ele>51.03</ele>
        <time>2021-03-26T07:37:01Z</time>
      </trkpt>
      <trkpt lat="49.17751" lon="-0.62295">
        <ele>50.99</ele>
        <time>2021-03-26T07:37:14Z</time>
      </trkpt>
      <trkpt lat="49.17751" lon="-0.62244">
        <ele>50.91</ele>
        <time>2021-03-26T07:37:27Z</time>
      </trkpt>
      <trkpt lat="49.17742" lon="-0.62005">
        <ele>55.46</ele>
        <time>2021-03-26T07:37:40Z</time>
      </trkpt>
      <trkpt lat="49.17741" lon="-0.61902">
        <ele>61.27</ele>
        <time>2021-03-26T07:37:53Z</time>
      </trkpt>
      <trkpt lat="49.17742" lon="-0.61888">
        <ele>62.33</ele>
        <time>2021-03-26T07:38:06Z</time>
      </trkpt>
      <trkpt lat="49.17748" lon="-0.61862">
        <ele>64.07</ele>
        <time>2021-03-26T07:38:19Z</time>
      </trkpt>
      <trkpt lat="49.17752" lon="-0.6185">
        <ele>64.21</ele>
        <time>2021-03-26T07:38:33Z</time>
      </trkpt>
      <trkpt lat="49.17856" lon="-0.61687">
        <ele>68.08</ele>
        <time>2021-03-26T07:38:46Z</time>
      </trkpt>
      <trkpt lat="49.17867" lon="-0.61658">
        <ele>70.45</ele>
        <time>2021-03-26T07:38:59Z</time>
      </trkpt>
      <trkpt lat="49.17869" lon="-0.61622">
        <ele>71.89</ele>
        <time>2021-03-26T07:39:12Z</time>
      </trkpt>
      <trkpt lat="49.178" lon="-0.61209">
        <ele>81.79</ele>
        <time>2021-03-26T07:39:25Z</time>
      </trkpt>
      <trkpt lat="49.17748" lon="-0.60912">
        <ele>81.17</ele>
        <time>2021-03-26T07:39:38Z</time>
      </trkpt>
      <trkpt lat="49.1746" lon="-0.59182">
        <ele>83.32</ele>
        <time>2021-03-26T07:39:51Z</time>
      </trkpt>
      <trkpt lat="49.17301" lon="-0.58238">
        <ele>84.82</ele>
        <time>2021-03-26T07:40:04Z</time>
      </trkpt>
      <trkpt lat="49.1725" lon="-0.57923">
        <ele>83.01</ele>
        <time>2021-03-26T07:40:17Z</time>
      </trkpt>
      <trkpt lat="49.17209" lon="-0.57695">
        <ele>87</ele>
        <time>2021-03-26T07:40:30Z</time>
      </trkpt>
      <trkpt lat="49.17062" lon="-0.56818">
        <ele>95.57</ele>
        <time>2021-03-26T07:40:43Z</time>
      </trkpt>
      <trkpt lat="49.17054" lon="-0.56788">
        <ele>95.92</ele>
        <time>2021-03-26T07:40:56Z</time>
      </trkpt>
      <trkpt lat="49.17279" lon="-0.54894">
        <ele>84</ele>
        <time>2021-03-26T07:41:09Z</time>
      </trkpt>
      <trkpt lat="49.17444" lon="-0.53539">
        <ele>80.61</ele>
        <time>2021-03-26T07:41:22Z</time>
      </trkpt>
      <trkpt lat="49.1753" lon="-0.52804">
        <ele>87.92</ele>
        <time>2021-03-26T07:41:35Z</time>
      </trkpt>
      <trkpt lat="49.17586" lon="-0.52344">
        <ele>87.34</ele>
        <time>2021-03-26T07:41:48Z</time>
      </trkpt>
      <trkpt lat="49.17627" lon="-0.51977">
        <ele>82.1</ele>
        <time>2021-03-26T07:42:01Z</time>
      </trkpt>
      <trkpt lat="49.17657" lon="-0.51728">
        <ele>77.74</ele>
        <time>2021-03-26T07:42:14Z</time>
      </trkpt>
      <trkpt lat="49.17694" lon="-0.51423">
        <ele>72.25</ele>
        <time>2021-03-26T07:42:27Z</time>
      </trkpt>
      <trkpt lat="49.17709" lon="-0.51275">
        <ele>71.57</ele>
        <time>2021-03-26T07:42:40Z</time>
      </trkpt>
      <trkpt lat="49.1771" lon="-0.51214">
        <ele>70.83</ele>
        <time>2021-03-26T07:42:53Z</time>
      </trkpt>
      <trkpt lat="49.17698" lon="-0.5107">
        <ele>66.86</ele>
        <time>2021-03-26T07:43:06Z</time>
      </trkpt>
      <trkpt lat="49.17695" lon="-0.51014">
        <ele>68.48</ele>
        <time>2021-03-26T07:43:20Z</time>
      </trkpt>
      <trkpt lat="49.17698" lon="-0.50882">
        <ele>72.25</ele>
        <time>2021-03-26T07:43:33Z</time>
      </trkpt>
      <trkpt lat="49.17703" lon="-0.508">
        <ele>74.67</ele>
        <time>2021-03-26T07:43:46Z</time>
      </trkpt>
      <trkpt lat="49.178" lon="-0.5016">
        <ele>80</ele>
        <time>2021-03-26T07:43:59Z</time>
      </trkpt>
      <trkpt lat="49.17811" lon="-0.5011">
        <ele>80</ele>
        <time>2021-03-26T07:44:12Z</time>
      </trkpt>
      <trkpt lat="49.17881" lon="-0.49897">
        <ele>77.57</ele>
        <time>2021-03-26T07:44:25Z</time>
      </trkpt>
      <trkpt lat="49.18071" lon="-0.49341">
        <ele>74</ele>
        <time>2021-03-26T07:44:38Z</time>
      </trkpt>
      <trkpt lat="49.18123" lon="-0.49178">
        <ele>72</ele>
        <time>2021-03-26T07:44:51Z</time>
      </trkpt>
      <trkpt lat="49.18125" lon="-0.49167">
        <ele>72</ele>
        <time>2021-03-26T07:45:04Z</time>
      </trkpt>
      <trkpt lat="49.18124" lon="-0.49152">
        <ele>72</ele>
        <time>2021-03-26T07:45:17Z</time>
      </trkpt>
      <trkpt lat="49.18119" lon="-0.49136">
        <ele>71.96</ele>
        <time>2021-03-26T07:45:24Z</time>
      </trkpt>
      <trkpt lat="49.1811" lon="-0.49123">
        <ele>72</ele>
        <time>2021-03-26T07:45:31Z</time>
      </trkpt>
      <trkpt lat="49.18098" lon="-0.49113">
        <ele>72</ele>
        <time>2021-03-26T07:45:38Z</time>
      </trkpt>
      <trkpt lat="49.18089" lon="-0.49103">
        <ele>71.94</ele>
        <time>2021-03-26T07:45:45Z</time>
      </trkpt>
      <trkpt lat="49.18033" lon="-0.49058">
        <ele>72</ele>
        <time>2021-03-26T07:45:52Z</time>
      </trkpt>
      <trkpt lat="49.17996" lon="-0.49018">
        <ele>71.94</ele>
        <time>2021-03-26T07:45:59Z</time>
      </trkpt>
      <trkpt lat="49.17969" lon="-0.48957">
        <ele>71.56</ele>
        <time>2021-03-26T07:46:06Z</time>
      </trkpt>
      <trkpt lat="49.17942" lon="-0.48826">
        <ele>71.07</ele>
        <time>2021-03-26T07:46:14Z</time>
      </trkpt>
      <trkpt lat="49.17916" lon="-0.48739">
        <ele>72.41</ele>
        <time>2021-03-26T07:46:21Z</time>
      </trkpt>
      <trkpt lat="49.17891" lon="-0.48684">
        <ele>73.36</ele>
        <time>2021-03-26T07:46:28Z</time>
      </trkpt>
      <trkpt lat="49.1786" lon="-0.48637">
        <ele>74.89</ele>
        <time>2021-03-26T07:46:35Z</time>
      </trkpt>
      <trkpt lat="49.17813" lon="-0.48591">
        <ele>74.07</ele>
        <time>2021-03-26T07:46:42Z</time>
      </trkpt>
      <trkpt lat="49.17621" lon="-0.48454">
        <ele>76.86</ele>
        <time>2021-03-26T07:46:49Z</time>
      </trkpt>
      <trkpt lat="49.17331" lon="-0.48264">
        <ele>83.1</ele>
        <time>2021-03-26T07:46:56Z</time>
      </trkpt>
      <trkpt lat="49.17089" lon="-0.48093">
        <ele>82.57</ele>
        <time>2021-03-26T07:47:03Z</time>
      </trkpt>
      <trkpt lat="49.16963" lon="-0.48026">
        <ele>76.98</ele>
        <time>2021-03-26T07:47:10Z</time>
      </trkpt>
      <trkpt lat="49.1689" lon="-0.4793">
        <ele>75.05</ele>
        <time>2021-03-26T07:47:17Z</time>
      </trkpt>
      <trkpt lat="49.16755" lon="-0.47785">
        <ele>69.31</ele>
        <time>2021-03-26T07:47:24Z</time>
      </trkpt>
      <trkpt lat="49.16688" lon="-0.47714">
        <ele>66.93</ele>
        <time>2021-03-26T07:47:31Z</time>
      </trkpt>
      <trkpt lat="49.16492" lon="-0.47514">
        <ele>61.46</ele>
        <time>2021-03-26T07:47:39Z</time>
      </trkpt>
      <trkpt lat="49.16239" lon="-0.47219">
        <ele>64.93</ele>
        <time>2021-03-26T07:47:46Z</time>
      </trkpt>
      <trkpt lat="49.1615" lon="-0.47134">
        <ele>68</ele>
        <time>2021-03-26T07:47:53Z</time>
      </trkpt>
      <trkpt lat="49.16058" lon="-0.47046">
        <ele>67.94</ele>
        <time>2021-03-26T07:48:00Z</time>
      </trkpt>
      <trkpt lat="49.16015" lon="-0.46991">
        <ele>69.48</ele>
        <time>2021-03-26T07:48:07Z</time>
      </trkpt>
      <trkpt lat="49.15968" lon="-0.46919">
        <ele>69.32</ele>
        <time>2021-03-26T07:48:14Z</time>
      </trkpt>
      <trkpt lat="49.15945" lon="-0.46897">
        <ele>70.99</ele>
        <time>2021-03-26T07:48:21Z</time>
      </trkpt>
      <trkpt lat="49.15851" lon="-0.46832">
        <ele>69.65</ele>
        <time>2021-03-26T07:48:28Z</time>
      </trkpt>
      <trkpt lat="49.15823" lon="-0.46808">
        <ele>69</ele>
        <time>2021-03-26T07:48:35Z</time>
      </trkpt>
      <trkpt lat="49.15798" lon="-0.46763">
        <ele>68.61</ele>
        <time>2021-03-26T07:48:42Z</time>
      </trkpt>
      <trkpt lat="49.15786" lon="-0.46739">
        <ele>68.42</ele>
        <time>2021-03-26T07:48:49Z</time>
      </trkpt>
      <trkpt lat="49.15772" lon="-0.46723">
        <ele>68.02</ele>
        <time>2021-03-26T07:48:57Z</time>
      </trkpt>
      <trkpt lat="49.1577" lon="-0.46731">
        <ele>68.21</ele>
        <time>2021-03-26T07:48:57Z</time>
      </trkpt>
      <trkpt lat="49.15765" lon="-0.46736">
        <ele>68.28</ele>
        <time>2021-03-26T07:48:58Z</time>
      </trkpt>
      <trkpt lat="49.1576" lon="-0.4674">
        <ele>68.22</ele>
        <time>2021-03-26T07:48:59Z</time>
      </trkpt>
      <trkpt lat="49.15754" lon="-0.4674">
        <ele>68.1</ele>
        <time>2021-03-26T07:49:00Z</time>
      </trkpt>
      <trkpt lat="49.15749" lon="-0.46738">
        <ele>67.94</ele>
        <time>2021-03-26T07:49:01Z</time>
      </trkpt>
      <trkpt lat="49.15744" lon="-0.46732">
        <ele>67.66</ele>
        <time>2021-03-26T07:49:02Z</time>
      </trkpt>
      <trkpt lat="49.15741" lon="-0.46725">
        <ele>67.39</ele>
        <time>2021-03-26T07:49:02Z</time>
      </trkpt>
      <trkpt lat="49.1574" lon="-0.46709">
        <ele>66.79</ele>
        <time>2021-03-26T07:49:03Z</time>
      </trkpt>
      <trkpt lat="49.15745" lon="-0.46695">
        <ele>66.69</ele>
        <time>2021-03-26T07:49:04Z</time>
      </trkpt>
      <trkpt lat="49.1575" lon="-0.46691">
        <ele>67</ele>
        <time>2021-03-26T07:49:05Z</time>
      </trkpt>
      <trkpt lat="49.15761" lon="-0.4669">
        <ele>67.38</ele>
        <time>2021-03-26T07:49:06Z</time>
      </trkpt>
      <trkpt lat="49.15766" lon="-0.46693">
        <ele>67.56</ele>
        <time>2021-03-26T07:49:07Z</time>
      </trkpt>
      <trkpt lat="49.1577" lon="-0.46699">
        <ele>67.75</ele>
        <time>2021-03-26T07:49:08Z</time>
      </trkpt>
      <trkpt lat="49.15773" lon="-0.46715">
        <ele>67.96</ele>
        <time>2021-03-26T07:49:08Z</time>
      </trkpt>
      <trkpt lat="49.15772" lon="-0.46723">
        <ele>68.02</ele>
        <time>2021-03-26T07:49:09Z</time>
      </trkpt>
      <trkpt lat="49.15786" lon="-0.46739">
        <ele>68.42</ele>
        <time>2021-03-26T07:49:10Z</time>
      </trkpt>
      <trkpt lat="49.15798" lon="-0.46763">
        <ele>68.61</ele>
        <time>2021-03-26T07:49:11Z</time>
      </trkpt>
      <trkpt lat="49.15811" lon="-0.46767">
        <ele>68.43</ele>
        <time>2021-03-26T07:49:23Z</time>
      </trkpt>
      <trkpt lat="49.1582" lon="-0.46762">
        <ele>67.9</ele>
        <time>2021-03-26T07:49:34Z</time>
      </trkpt>
      <trkpt lat="49.15876" lon="-0.46688">
        <ele>66.64</ele>
        <time>2021-03-26T07:49:46Z</time>
      </trkpt>
      <trkpt lat="49.15895" lon="-0.4665">
        <ele>67</ele>
        <time>2021-03-26T07:49:57Z</time>
      </trkpt>
      <trkpt lat="49.15923" lon="-0.46566">
        <ele>67.13</ele>
        <time>2021-03-26T07:50:09Z</time>
      </trkpt>
      <trkpt lat="49.16291" lon="-0.44582">
        <ele>46.48</ele>
        <time>2021-03-26T07:50:20Z</time>
      </trkpt>
      <trkpt lat="49.1634" lon="-0.443">
        <ele>43.55</ele>
        <time>2021-03-26T07:50:32Z</time>
      </trkpt>
      <trkpt lat="49.16376" lon="-0.4406">
        <ele>37.83</ele>
        <time>2021-03-26T07:50:43Z</time>
      </trkpt>
      <trkpt lat="49.16436" lon="-0.43598">
        <ele>39.66</ele>
        <time>2021-03-26T07:50:55Z</time>
      </trkpt>
      <trkpt lat="49.16473" lon="-0.43311">
        <ele>38.08</ele>
        <time>2021-03-26T07:51:06Z</time>
      </trkpt>
      <trkpt lat="49.16477" lon="-0.43177">
        <ele>34.74</ele>
        <time>2021-03-26T07:51:12Z</time>
      </trkpt>
      <trkpt lat="49.16476" lon="-0.43138">
        <ele>32.22</ele>
        <time>2021-03-26T07:51:18Z</time>
      </trkpt>
      <trkpt lat="49.16474" lon="-0.43123">
        <ele>31.52</ele>
        <time>2021-03-26T07:51:24Z</time>
      </trkpt>
      <trkpt lat="49.16468" lon="-0.43096">
        <ele>31.42</ele>
        <time>2021-03-26T07:51:30Z</time>
      </trkpt>
      <trkpt lat="49.16456" lon="-0.43069">
        <ele>32.63</ele>
        <time>2021-03-26T07:51:36Z</time>
      </trkpt>
      <trkpt lat="49.16449" lon="-0.43056">
        <ele>32.84</ele>
        <time>2021-03-26T07:51:41Z</time>
      </trkpt>
      <trkpt lat="49.16408" lon="-0.43">
        <ele>32.71</ele>
        <time>2021-03-26T07:51:47Z</time>
      </trkpt>
      <trkpt lat="49.1639" lon="-0.42971">
        <ele>32.02</ele>
        <time>2021-03-26T07:51:53Z</time>
      </trkpt>
      <trkpt lat="49.16377" lon="-0.4294">
        <ele>31.02</ele>
        <time>2021-03-26T07:51:59Z</time>
      </trkpt>
      <trkpt lat="49.16356" lon="-0.4287">
        <ele>28.31</ele>
        <time>2021-03-26T07:52:05Z</time>
      </trkpt>
      <trkpt lat="49.16342" lon="-0.4284">
        <ele>27.22</ele>
        <time>2021-03-26T07:52:11Z</time>
      </trkpt>
      <trkpt lat="49.16336" lon="-0.4283">
        <ele>27</ele>
        <time>2021-03-26T07:52:17Z</time>
      </trkpt>
      <trkpt lat="49.16318" lon="-0.42813">
        <ele>26.59</ele>
        <time>2021-03-26T07:52:23Z</time>
      </trkpt>
      <trkpt lat="49.1626" lon="-0.42802">
        <ele>27</ele>
        <time>2021-03-26T07:52:29Z</time>
      </trkpt>
      <trkpt lat="49.16156" lon="-0.42779">
        <ele>25.69</ele>
        <time>2021-03-26T07:52:34Z</time>
      </trkpt>
      <trkpt lat="49.16047" lon="-0.42737">
        <ele>17</ele>
        <time>2021-03-26T07:52:40Z</time>
      </trkpt>
      <trkpt lat="49.16039" lon="-0.42725">
        <ele>17</ele>
        <time>2021-03-26T07:52:46Z</time>
      </trkpt>
      <trkpt lat="49.1599" lon="-0.42701">
        <ele>16.14</ele>
        <time>2021-03-26T07:52:52Z</time>
      </trkpt>
      <trkpt lat="49.15921" lon="-0.42657">
        <ele>16.71</ele>
        <time>2021-03-26T07:52:58Z</time>
      </trkpt>
      <trkpt lat="49.15897" lon="-0.42639">
        <ele>15.27</ele>
        <time>2021-03-26T07:53:04Z</time>
      </trkpt>
      <trkpt lat="49.15822" lon="-0.42575">
        <ele>14.95</ele>
        <time>2021-03-26T07:53:10Z</time>
      </trkpt>
      <trkpt lat="49.15775" lon="-0.42528">
        <ele>17.33</ele>
        <time>2021-03-26T07:53:16Z</time>
      </trkpt>
      <trkpt lat="49.15715" lon="-0.42457">
        <ele>26.29</ele>
        <time>2021-03-26T07:53:22Z</time>
      </trkpt>
      <trkpt lat="49.14961" lon="-0.4143">
        <ele>44.28</ele>
        <time>2021-03-26T07:53:27Z</time>
      </trkpt>
      <trkpt lat="49.14803" lon="-0.41211">
        <ele>43.53</ele>
        <time>2021-03-26T07:53:33Z</time>
      </trkpt>
      <trkpt lat="49.14717" lon="-0.41082">
        <ele>40.41</ele>
        <time>2021-03-26T07:53:39Z</time>
      </trkpt>
      <trkpt lat="49.14616" lon="-0.40919">
        <ele>36.22</ele>
        <time>2021-03-26T07:53:45Z</time>
      </trkpt>
      <trkpt lat="49.145" lon="-0.40713">
        <ele>31.99</ele>
        <time>2021-03-26T07:53:51Z</time>
      </trkpt>
      <trkpt lat="49.14355" lon="-0.40432">
        <ele>22.65</ele>
        <time>2021-03-26T07:53:57Z</time>
      </trkpt>
      <trkpt lat="49.14208" lon="-0.40163">
        <ele>9.38</ele>
        <time>2021-03-26T07:54:03Z</time>
      </trkpt>
      <trkpt lat="49.14135" lon="-0.40024">
        <ele>7.43</ele>
        <time>2021-03-26T07:54:09Z</time>
      </trkpt>
      <trkpt lat="49.1386" lon="-0.39486">
        <ele>7.43</ele>
        <time>2021-03-26T07:54:14Z</time>
      </trkpt>
      <trkpt lat="49.1378" lon="-0.39323">
        <ele>10.55</ele>
        <time>2021-03-26T07:54:20Z</time>
      </trkpt>
      <trkpt lat="49.13763" lon="-0.3928">
        <ele>13.22</ele>
        <time>2021-03-26T07:54:26Z</time>
      </trkpt>
      <trkpt lat="49.13731" lon="-0.39187">
        <ele>16.67</ele>
        <time>2021-03-26T07:54:32Z</time>
      </trkpt>
      <trkpt lat="49.13713" lon="-0.39113">
        <ele>19.19</ele>
        <time>2021-03-26T07:54:38Z</time>
      </trkpt>
      <trkpt lat="49.13698" lon="-0.39039">
        <ele>18.12</ele>
        <time>2021-03-26T07:54:44Z</time>
      </trkpt>
      <trkpt lat="49.13684" lon="-0.38936">
        <ele>19.5</ele>
        <time>2021-03-26T07:54:50Z</time>
      </trkpt>
      <trkpt lat="49.1367" lon="-0.38714">
        <ele>19.39</ele>
        <time>2021-03-26T07:54:56Z</time>
      </trkpt>
      <trkpt lat="49.13646" lon="-0.38303">
        <ele>30.76</ele>
        <time>2021-03-26T07:55:02Z</time>
      </trkpt>
      <trkpt lat="49.13616" lon="-0.38006">
        <ele>42.42</ele>
        <time>2021-03-26T07:55:07Z</time>
      </trkpt>
      <trkpt lat="49.13584" lon="-0.37725">
        <ele>53.89</ele>
        <time>2021-03-26T07:55:12Z</time>
      </trkpt>
      <trkpt lat="49.1358" lon="-0.37715">
        <ele>53.76</ele>
        <time>2021-03-26T07:55:17Z</time>
      </trkpt>
      <trkpt lat="49.13575" lon="-0.3771">
        <ele>53.56</ele>
        <time>2021-03-26T07:55:22Z</time>
      </trkpt>
      <trkpt lat="49.13566" lon="-0.37697">
        <ele>53.1</ele>
        <time>2021-03-26T07:55:25Z</time>
      </trkpt>
      <trkpt lat="49.13558" lon="-0.37675">
        <ele>53</ele>
        <time>2021-03-26T07:55:29Z</time>
      </trkpt>
      <trkpt lat="49.13554" lon="-0.37649">
        <ele>53.67</ele>
        <time>2021-03-26T07:55:32Z</time>
      </trkpt>
      <trkpt lat="49.13558" lon="-0.37625">
        <ele>54.47</ele>
        <time>2021-03-26T07:55:36Z</time>
      </trkpt>
      <trkpt lat="49.13565" lon="-0.37606">
        <ele>54.72</ele>
        <time>2021-03-26T07:55:39Z</time>
      </trkpt>
      <trkpt lat="49.13577" lon="-0.37585">
        <ele>54.96</ele>
        <time>2021-03-26T07:55:42Z</time>
      </trkpt>
      <trkpt lat="49.13581" lon="-0.37567">
        <ele>55.04</ele>
        <time>2021-03-26T07:55:46Z</time>
      </trkpt>
      <trkpt lat="49.13585" lon="-0.37491">
        <ele>56.62</ele>
        <time>2021-03-26T07:55:49Z</time>
      </trkpt>
      <trkpt lat="49.13588" lon="-0.37455">
        <ele>55.9</ele>
        <time>2021-03-26T07:55:53Z</time>
      </trkpt>
      <trkpt lat="49.13597" lon="-0.37395">
        <ele>55.04</ele>
        <time>2021-03-26T07:55:56Z</time>
      </trkpt>
      <trkpt lat="49.13618" lon="-0.37283">
        <ele>55.63</ele>
        <time>2021-03-26T07:55:59Z</time>
      </trkpt>
      <trkpt lat="49.13628" lon="-0.37241">
        <ele>55.38</ele>
        <time>2021-03-26T07:56:03Z</time>
      </trkpt>
      <trkpt lat="49.13663" lon="-0.37137">
        <ele>55.01</ele>
        <time>2021-03-26T07:56:06Z</time>
      </trkpt>
      <trkpt lat="49.13684" lon="-0.37078">
        <ele>53.46</ele>
        <time>2021-03-26T07:56:10Z</time>
      </trkpt>
      <trkpt lat="49.13701" lon="-0.37034">
        <ele>49.76</ele>
        <time>2021-03-26T07:56:13Z</time>
      </trkpt>
      <trkpt lat="49.13739" lon="-0.36956">
        <ele>49.65</ele>
        <time>2021-03-26T07:56:17Z</time>
      </trkpt>
      <trkpt lat="49.13763" lon="-0.36913">
        <ele>49</ele>
        <time>2021-03-26T07:56:20Z</time>
      </trkpt>
      <trkpt lat="49.13783" lon="-0.36882">
        <ele>48.81</ele>
        <time>2021-03-26T07:56:23Z</time>
      </trkpt>
      <trkpt lat="49.13836" lon="-0.3681">
        <ele>46.89</ele>
        <time>2021-03-26T07:56:27Z</time>
      </trkpt>
      <trkpt lat="49.13882" lon="-0.36759">
        <ele>46.91</ele>
        <time>2021-03-26T07:56:30Z</time>
      </trkpt>
      <trkpt lat="49.14494" lon="-0.36161">
        <ele>34.86</ele>
        <time>2021-03-26T07:56:34Z</time>
      </trkpt>
      <trkpt lat="49.14525" lon="-0.36124">
        <ele>32.33</ele>
        <time>2021-03-26T07:56:37Z</time>
      </trkpt>
      <trkpt lat="49.14553" lon="-0.36088">
        <ele>31.13</ele>
        <time>2021-03-26T07:56:41Z</time>
      </trkpt>
      <trkpt lat="49.14576" lon="-0.36055">
        <ele>29.55</ele>
        <time>2021-03-26T07:56:44Z</time>
      </trkpt>
      <trkpt lat="49.14597" lon="-0.36021">
        <ele>28.75</ele>
        <time>2021-03-26T07:56:47Z</time>
      </trkpt>
      <trkpt lat="49.14626" lon="-0.35967">
        <ele>30</ele>
        <time>2021-03-26T07:56:51Z</time>
      </trkpt>
      <trkpt lat="49.1465" lon="-0.35915">
        <ele>31</ele>
        <time>2021-03-26T07:56:54Z</time>
      </trkpt>
      <trkpt lat="49.14668" lon="-0.35872">
        <ele>30.32</ele>
        <time>2021-03-26T07:56:58Z</time>
      </trkpt>
      <trkpt lat="49.14686" lon="-0.35823">
        <ele>27.47</ele>
        <time>2021-03-26T07:57:01Z</time>
      </trkpt>
      <trkpt lat="49.14699" lon="-0.3578">
        <ele>25.06</ele>
        <time>2021-03-26T07:57:05Z</time>
      </trkpt>
      <trkpt lat="49.14722" lon="-0.35687">
        <ele>26.97</ele>
        <time>2021-03-26T07:57:08Z</time>
      </trkpt>
      <trkpt lat="49.14733" lon="-0.35626">
        <ele>25.43</ele>
        <time>2021-03-26T07:57:11Z</time>
      </trkpt>
      <trkpt lat="49.14745" lon="-0.35528">
        <ele>24.01</ele>
        <time>2021-03-26T07:57:15Z</time>
      </trkpt>
      <trkpt lat="49.14751" lon="-0.35447">
        <ele>25.1</ele>
        <time>2021-03-26T07:57:18Z</time>
      </trkpt>
      <trkpt lat="49.14755" lon="-0.35356">
        <ele>23</ele>
        <time>2021-03-26T07:57:22Z</time>
      </trkpt>
      <trkpt lat="49.14748" lon="-0.35271">
        <ele>22.5</ele>
        <time>2021-03-26T07:57:24Z</time>
      </trkpt>
      <trkpt lat="49.14741" lon="-0.3522">
        <ele>20.27</ele>
        <time>2021-03-26T07:57:26Z</time>
      </trkpt>
      <trkpt lat="49.14734" lon="-0.35192">
        <ele>20.21</ele>
        <time>2021-03-26T07:57:29Z</time>
      </trkpt>
      <trkpt lat="49.14725" lon="-0.35168">
        <ele>20.89</ele>
        <time>2021-03-26T07:57:31Z</time>
      </trkpt>
      <trkpt lat="49.14689" lon="-0.35081">
        <ele>23.27</ele>
        <time>2021-03-26T07:57:33Z</time>
      </trkpt>
      <trkpt lat="49.14686" lon="-0.3505">
        <ele>24.06</ele>
        <time>2021-03-26T07:57:36Z</time>
      </trkpt>
      <trkpt lat="49.1468" lon="-0.35045">
        <ele>24.2</ele>
        <time>2021-03-26T07:57:44Z</time>
      </trkpt>
      <trkpt lat="49.14678" lon="-0.35031">
        <ele>24.53</ele>
        <time>2021-03-26T07:57:52Z</time>
      </trkpt>
      <trkpt lat="49.14681" lon="-0.35022">
        <ele>24.48</ele>
        <time>2021-03-26T07:58:00Z</time>
      </trkpt>
      <trkpt lat="49.14689" lon="-0.35017">
        <ele>24.21</ele>
        <time>2021-03-26T07:58:07Z</time>
      </trkpt>
      <trkpt lat="49.14699" lon="-0.34982">
        <ele>22.93</ele>
        <time>2021-03-26T07:58:15Z</time>
      </trkpt>
      <trkpt lat="49.14703" lon="-0.3486">
        <ele>20.3</ele>
        <time>2021-03-26T07:58:23Z</time>
      </trkpt>
      <trkpt lat="49.14699" lon="-0.34806">
        <ele>20.99</ele>
        <time>2021-03-26T07:58:31Z</time>
      </trkpt>
      <trkpt lat="49.14688" lon="-0.34723">
        <ele>20.26</ele>
        <time>2021-03-26T07:58:39Z</time>
      </trkpt>
      <trkpt lat="49.14636" lon="-0.34528">
        <ele>19.01</ele>
        <time>2021-03-26T07:58:47Z</time>
      </trkpt>
      <trkpt lat="49.14623" lon="-0.3447">
        <ele>21.5</ele>
        <time>2021-03-26T07:58:55Z</time>
      </trkpt>
      <trkpt lat="49.14603" lon="-0.34365">
        <ele>21.95</ele>
        <time>2021-03-26T07:59:03Z</time>
      </trkpt>
      <trkpt lat="49.14586" lon="-0.34254">
        <ele>23.67</ele>
        <time>2021-03-26T07:59:10Z</time>
      </trkpt>
      <trkpt lat="49.14571" lon="-0.34114">
        <ele>29.32</ele>
        <time>2021-03-26T07:59:18Z</time>
      </trkpt>
      <trkpt lat="49.14564" lon="-0.33991">
        <ele>33</ele>
        <time>2021-03-26T07:59:26Z</time>
      </trkpt>
      <trkpt lat="49.14561" lon="-0.33852">
        <ele>35.07</ele>
        <time>2021-03-26T07:59:34Z</time>
      </trkpt>
      <trkpt lat="49.14565" lon="-0.33725">
        <ele>33.63</ele>
        <time>2021-03-26T07:59:42Z</time>
      </trkpt>
      <trkpt lat="49.14617" lon="-0.33018">
        <ele>33.37</ele>
        <time>2021-03-26T07:59:50Z</time>
      </trkpt>
      <trkpt lat="49.14632" lon="-0.32848">
        <ele>35.36</ele>
        <time>2021-03-26T07:59:58Z</time>
      </trkpt>
      <trkpt lat="49.14646" lon="-0.32746">
        <ele>33.88</ele>
        <time>2021-03-26T08:00:06Z</time>
      </trkpt>
      <trkpt lat="49.14657" lon="-0.32686">
        <ele>34.39</ele>
        <time>2021-03-26T08:00:14Z</time>
      </trkpt>
      <trkpt lat="49.14682" lon="-0.32566">
        <ele>34.09</ele>
        <time>2021-03-26T08:00:21Z</time>
      </trkpt>
      <trkpt lat="49.14715" lon="-0.32442">
        <ele>33.26</ele>
        <time>2021-03-26T08:00:29Z</time>
      </trkpt>
      <trkpt lat="49.14757" lon="-0.32316">
        <ele>30.81</ele>
        <time>2021-03-26T08:00:37Z</time>
      </trkpt>
      <trkpt lat="49.1478" lon="-0.32257">
        <ele>32.09</ele>
        <time>2021-03-26T08:00:45Z</time>
      </trkpt>
      <trkpt lat="49.14833" lon="-0.3214">
        <ele>33.06</ele>
        <time>2021-03-26T08:00:53Z</time>
      </trkpt>
      <trkpt lat="49.14876" lon="-0.32058">
        <ele>31</ele>
        <time>2021-03-26T08:01:01Z</time>
      </trkpt>
      <trkpt lat="49.14914" lon="-0.31993">
        <ele>30.32</ele>
        <time>2021-03-26T08:01:09Z</time>
      </trkpt>
      <trkpt lat="49.14958" lon="-0.31928">
        <ele>31.15</ele>
        <time>2021-03-26T08:01:17Z</time>
      </trkpt>
      <trkpt lat="49.15015" lon="-0.31849">
        <ele>30.67</ele>
        <time>2021-03-26T08:01:25Z</time>
      </trkpt>
      <trkpt lat="49.15095" lon="-0.31759">
        <ele>28.97</ele>
        <time>2021-03-26T08:01:32Z</time>
      </trkpt>
      <trkpt lat="49.15142" lon="-0.31713">
        <ele>28.8</ele>
        <time>2021-03-26T08:01:40Z</time>
      </trkpt>
      <trkpt lat="49.1535" lon="-0.31528">
        <ele>25.81</ele>
        <time>2021-03-26T08:01:48Z</time>
      </trkpt>
      <trkpt lat="49.15574" lon="-0.31323">
        <ele>23.08</ele>
        <time>2021-03-26T08:01:56Z</time>
      </trkpt>
      <trkpt lat="49.1608" lon="-0.30864">
        <ele>16.21</ele>
        <time>2021-03-26T08:02:04Z</time>
      </trkpt>
      <trkpt lat="49.16333" lon="-0.3063">
        <ele>16.69</ele>
        <time>2021-03-26T08:02:12Z</time>
      </trkpt>
      <trkpt lat="49.16375" lon="-0.30591">
        <ele>16</ele>
        <time>2021-03-26T08:02:20Z</time>
      </trkpt>
      <trkpt lat="49.16571" lon="-0.30419">
        <ele>18.04</ele>
        <time>2021-03-26T08:02:28Z</time>
      </trkpt>
      <trkpt lat="49.16656" lon="-0.30341">
        <ele>17.44</ele>
        <time>2021-03-26T08:02:36Z</time>
      </trkpt>
      <trkpt lat="49.16683" lon="-0.30301">
        <ele>18.28</ele>
        <time>2021-03-26T08:02:38Z</time>
      </trkpt>
      <trkpt lat="49.16721" lon="-0.30253">
        <ele>19.93</ele>
        <time>2021-03-26T08:02:45Z</time>
      </trkpt>
      <trkpt lat="49.16735" lon="-0.3023">
        <ele>19.52</ele>
        <time>2021-03-26T08:02:52Z</time>
      </trkpt>
      <trkpt lat="49.16743" lon="-0.30214">
        <ele>19.26</ele>
        <time>2021-03-26T08:03:00Z</time>
      </trkpt>
      <trkpt lat="49.16749" lon="-0.30195">
        <ele>19.05</ele>
        <time>2021-03-26T08:03:07Z</time>
      </trkpt>
      <trkpt lat="49.16757" lon="-0.30154">
        <ele>19.87</ele>
        <time>2021-03-26T08:03:14Z</time>
      </trkpt>
      <trkpt lat="49.16775" lon="-0.30011">
        <ele>23</ele>
        <time>2021-03-26T08:03:21Z</time>
      </trkpt>
      <trkpt lat="49.16786" lon="-0.29907">
        <ele>22.16</ele>
        <time>2021-03-26T08:03:28Z</time>
      </trkpt>
      <trkpt lat="49.16787" lon="-0.29876">
        <ele>22.45</ele>
        <time>2021-03-26T08:03:35Z</time>
      </trkpt>
      <trkpt lat="49.16786" lon="-0.29782">
        <ele>23.11</ele>
        <time>2021-03-26T08:03:42Z</time>
      </trkpt>
      <trkpt lat="49.16782" lon="-0.29726">
        <ele>20.27</ele>
        <time>2021-03-26T08:03:50Z</time>
      </trkpt>
      <trkpt lat="49.16773" lon="-0.29664">
        <ele>19.28</ele>
        <time>2021-03-26T08:03:57Z</time>
      </trkpt>
      <trkpt lat="49.16774" lon="-0.29644">
        <ele>19.95</ele>
        <time>2021-03-26T08:04:04Z</time>
      </trkpt>
      <trkpt lat="49.16757" lon="-0.29556">
        <ele>20.5</ele>
        <time>2021-03-26T08:04:11Z</time>
      </trkpt>
      <trkpt lat="49.16746" lon="-0.29488">
        <ele>19.94</ele>
        <time>2021-03-26T08:04:18Z</time>
      </trkpt>
      <trkpt lat="49.16722" lon="-0.29296">
        <ele>22.99</ele>
        <time>2021-03-26T08:04:25Z</time>
      </trkpt>
      <trkpt lat="49.16715" lon="-0.29205">
        <ele>21.53</ele>
        <time>2021-03-26T08:04:33Z</time>
      </trkpt>
      <trkpt lat="49.16705" lon="-0.29045">
        <ele>19.59</ele>
        <time>2021-03-26T08:04:40Z</time>
      </trkpt>
      <trkpt lat="49.16702" lon="-0.2893">
        <ele>21.32</ele>
        <time>2021-03-26T08:04:47Z</time>
      </trkpt>
      <trkpt lat="49.16698" lon="-0.28702">
        <ele>15</ele>
        <time>2021-03-26T08:04:54Z</time>
      </trkpt>
      <trkpt lat="49.16699" lon="-0.28511">
        <ele>14.16</ele>
        <time>2021-03-26T08:05:01Z</time>
      </trkpt>
      <trkpt lat="49.16706" lon="-0.28188">
        <ele>19.96</ele>
        <time>2021-03-26T08:05:08Z</time>
      </trkpt>
      <trkpt lat="49.16712" lon="-0.28038">
        <ele>18.47</ele>
        <time>2021-03-26T08:05:16Z</time>
      </trkpt>
      <trkpt lat="49.16721" lon="-0.27871">
        <ele>19.29</ele>
        <time>2021-03-26T08:05:23Z</time>
      </trkpt>
      <trkpt lat="49.16739" lon="-0.27586">
        <ele>17.72</ele>
        <time>2021-03-26T08:05:30Z</time>
      </trkpt>
      <trkpt lat="49.16779" lon="-0.27003">
        <ele>19.95</ele>
        <time>2021-03-26T08:05:37Z</time>
      </trkpt>
      <trkpt lat="49.16793" lon="-0.26723">
        <ele>19.98</ele>
        <time>2021-03-26T08:05:44Z</time>
      </trkpt>
      <trkpt lat="49.16804" lon="-0.26458">
        <ele>19.44</ele>
        <time>2021-03-26T08:05:51Z</time>
      </trkpt>
      <trkpt lat="49.16813" lon="-0.26075">
        <ele>17.73</ele>
        <time>2021-03-26T08:05:59Z</time>
      </trkpt>
      <trkpt lat="49.16815" lon="-0.25798">
        <ele>18.26</ele>
        <time>2021-03-26T08:06:06Z</time>
      </trkpt>
      <trkpt lat="49.16814" lon="-0.25253">
        <ele>18.08</ele>
        <time>2021-03-26T08:06:13Z</time>
      </trkpt>
      <trkpt lat="49.16807" lon="-0.23664">
        <ele>15.85</ele>
        <time>2021-03-26T08:06:20Z</time>
      </trkpt>
      <trkpt lat="49.16806" lon="-0.23202">
        <ele>14.02</ele>
        <time>2021-03-26T08:06:27Z</time>
      </trkpt>
      <trkpt lat="49.16807" lon="-0.23094">
        <ele>15</ele>
        <time>2021-03-26T08:06:34Z</time>
      </trkpt>
      <trkpt lat="49.16812" lon="-0.22892">
        <ele>15.38</ele>
        <time>2021-03-26T08:06:41Z</time>
      </trkpt>
      <trkpt lat="49.16823" lon="-0.2271">
        <ele>13.39</ele>
        <time>2021-03-26T08:06:49Z</time>
      </trkpt>
      <trkpt lat="49.16831" lon="-0.2261">
        <ele>14.08</ele>
        <time>2021-03-26T08:06:56Z</time>
      </trkpt>
      <trkpt lat="49.16847" lon="-0.22453">
        <ele>12</ele>
        <time>2021-03-26T08:07:03Z</time>
      </trkpt>
      <trkpt lat="49.16869" lon="-0.22294">
        <ele>12.31</ele>
        <time>2021-03-26T08:07:10Z</time>
      </trkpt>
      <trkpt lat="49.16888" lon="-0.22174">
        <ele>12.73</ele>
        <time>2021-03-26T08:07:17Z</time>
      </trkpt>
      <trkpt lat="49.1693" lon="-0.21968">
        <ele>13.92</ele>
        <time>2021-03-26T08:07:24Z</time>
      </trkpt>
      <trkpt lat="49.16969" lon="-0.21805">
        <ele>10</ele>
        <time>2021-03-26T08:07:32Z</time>
      </trkpt>
      <trkpt lat="49.16997" lon="-0.21703">
        <ele>10.74</ele>
        <time>2021-03-26T08:07:39Z</time>
      </trkpt>
      <trkpt lat="49.17048" lon="-0.2154">
        <ele>10.16</ele>
        <time>2021-03-26T08:07:46Z</time>
      </trkpt>
      <trkpt lat="49.17078" lon="-0.21452">
        <ele>9.8</ele>
        <time>2021-03-26T08:07:53Z</time>
      </trkpt>
      <trkpt lat="49.17121" lon="-0.21336">
        <ele>8.34</ele>
        <time>2021-03-26T08:08:00Z</time>
      </trkpt>
      <trkpt lat="49.17206" lon="-0.21131">
        <ele>8.29</ele>
        <time>2021-03-26T08:08:07Z</time>
      </trkpt>
      <trkpt lat="49.17266" lon="-0.21003">
        <ele>7</ele>
        <time>2021-03-26T08:08:15Z</time>
      </trkpt>
      <trkpt lat="49.17371" lon="-0.20809">
        <ele>8</ele>
        <time>2021-03-26T08:08:22Z</time>
      </trkpt>
      <trkpt lat="49.17449" lon="-0.2068">
        <ele>8.28</ele>
        <time>2021-03-26T08:08:29Z</time>
      </trkpt>
      <trkpt lat="49.17507" lon="-0.20592">
        <ele>7</ele>
        <time>2021-03-26T08:08:36Z</time>
      </trkpt>
      <trkpt lat="49.17599" lon="-0.20465">
        <ele>8.68</ele>
        <time>2021-03-26T08:08:43Z</time>
      </trkpt>
      <trkpt lat="49.17647" lon="-0.20404">
        <ele>8.75</ele>
        <time>2021-03-26T08:08:50Z</time>
      </trkpt>
      <trkpt lat="49.17703" lon="-0.20337">
        <ele>9.28</ele>
        <time>2021-03-26T08:08:58Z</time>
      </trkpt>
      <trkpt lat="49.17857" lon="-0.2017">
        <ele>15.04</ele>
        <time>2021-03-26T08:09:05Z</time>
      </trkpt>
      <trkpt lat="49.19187" lon="-0.18807">
        <ele>31.53</ele>
        <time>2021-03-26T08:09:12Z</time>
      </trkpt>
      <trkpt lat="49.1935" lon="-0.18632">
        <ele>31.89</ele>
        <time>2021-03-26T08:09:19Z</time>
      </trkpt>
      <trkpt lat="49.19434" lon="-0.18538">
        <ele>28.3</ele>
        <time>2021-03-26T08:09:26Z</time>
      </trkpt>
      <trkpt lat="49.19517" lon="-0.18441">
        <ele>28.44</ele>
        <time>2021-03-26T08:09:33Z</time>
      </trkpt>
      <trkpt lat="49.19593" lon="-0.18346">
        <ele>28.23</ele>
        <time>2021-03-26T08:09:40Z</time>
      </trkpt>
      <trkpt lat="49.19666" lon="-0.18252">
        <ele>24.21</ele>
        <time>2021-03-26T08:09:48Z</time>
      </trkpt>
      <trkpt lat="49.19808" lon="-0.18058">
        <ele>23.46</ele>
        <time>2021-03-26T08:09:55Z</time>
      </trkpt>
      <trkpt lat="49.19936" lon="-0.17864">
        <ele>12.09</ele>
        <time>2021-03-26T08:10:02Z</time>
      </trkpt>
      <trkpt lat="49.20054" lon="-0.17672">
        <ele>8.1</ele>
        <time>2021-03-26T08:10:09Z</time>
      </trkpt>
      <trkpt lat="49.20122" lon="-0.17551">
        <ele>8.62</ele>
        <time>2021-03-26T08:10:16Z</time>
      </trkpt>
      <trkpt lat="49.20183" lon="-0.1743">
        <ele>7.41</ele>
        <time>2021-03-26T08:10:23Z</time>
      </trkpt>
      <trkpt lat="49.20242" lon="-0.17306">
        <ele>8</ele>
        <time>2021-03-26T08:10:31Z</time>
      </trkpt>
      <trkpt lat="49.20298" lon="-0.17178">
        <ele>6.84</ele>
        <time>2021-03-26T08:10:38Z</time>
      </trkpt>
      <trkpt lat="49.20344" lon="-0.17057">
        <ele>6.26</ele>
        <time>2021-03-26T08:10:45Z</time>
      </trkpt>
      <trkpt lat="49.20404" lon="-0.16886">
        <ele>3.46</ele>
        <time>2021-03-26T08:10:52Z</time>
      </trkpt>
      <trkpt lat="49.20448" lon="-0.16742">
        <ele>0.88</ele>
        <time>2021-03-26T08:10:59Z</time>
      </trkpt>
      <trkpt lat="49.20487" lon="-0.16604">
        <ele>3</ele>
        <time>2021-03-26T08:11:06Z</time>
      </trkpt>
      <trkpt lat="49.20976" lon="-0.14779">
        <ele>10.85</ele>
        <time>2021-03-26T08:11:14Z</time>
      </trkpt>
      <trkpt lat="49.21004" lon="-0.14682">
        <ele>10.58</ele>
        <time>2021-03-26T08:11:21Z</time>
      </trkpt>
      <trkpt lat="49.21099" lon="-0.1436">
        <ele>13.04</ele>
        <time>2021-03-26T08:11:28Z</time>
      </trkpt>
      <trkpt lat="49.21211" lon="-0.1401">
        <ele>13</ele>
        <time>2021-03-26T08:11:35Z</time>
      </trkpt>
      <trkpt lat="49.2128" lon="-0.13804">
        <ele>10.13</ele>
        <time>2021-03-26T08:11:42Z</time>
      </trkpt>
      <trkpt lat="49.21377" lon="-0.13529">
        <ele>13.4</ele>
        <time>2021-03-26T08:11:49Z</time>
      </trkpt>
      <trkpt lat="49.21564" lon="-0.13019">
        <ele>14.69</ele>
        <time>2021-03-26T08:11:57Z</time>
      </trkpt>
      <trkpt lat="49.21629" lon="-0.12829">
        <ele>13.94</ele>
        <time>2021-03-26T08:12:04Z</time>
      </trkpt>
      <trkpt lat="49.21691" lon="-0.1264">
        <ele>13.01</ele>
        <time>2021-03-26T08:12:11Z</time>
      </trkpt>
      <trkpt lat="49.21754" lon="-0.12436">
        <ele>10.6</ele>
        <time>2021-03-26T08:12:18Z</time>
      </trkpt>
      <trkpt lat="49.22028" lon="-0.11496">
        <ele>5.13</ele>
        <time>2021-03-26T08:12:25Z</time>
      </trkpt>
      <trkpt lat="49.22156" lon="-0.11068">
        <ele>10.78</ele>
        <time>2021-03-26T08:12:32Z</time>
      </trkpt>
      <trkpt lat="49.22209" lon="-0.10877">
        <ele>11.77</ele>
        <time>2021-03-26T08:12:39Z</time>
      </trkpt>
      <trkpt lat="49.22295" lon="-0.10551">
        <ele>13</ele>
        <time>2021-03-26T08:12:47Z</time>
      </trkpt>
      <trkpt lat="49.22393" lon="-0.10145">
        <ele>7.18</ele>
        <time>2021-03-26T08:12:54Z</time>
      </trkpt>
      <trkpt lat="49.22836" lon="-0.08142">
        <ele>5.09</ele>
        <time>2021-03-26T08:13:01Z</time>
      </trkpt>
      <trkpt lat="49.22853" lon="-0.08072">
        <ele>9.13</ele>
        <time>2021-03-26T08:13:08Z</time>
      </trkpt>
      <trkpt lat="49.22879" lon="-0.07985">
        <ele>10</ele>
        <time>2021-03-26T08:13:15Z</time>
      </trkpt>
      <trkpt lat="49.22925" lon="-0.07821">
        <ele>7</ele>
        <time>2021-03-26T08:13:22Z</time>
      </trkpt>
      <trkpt lat="49.22954" lon="-0.07693">
        <ele>9</ele>
        <time>2021-03-26T08:13:30Z</time>
      </trkpt>
      <trkpt lat="49.22962" lon="-0.07662">
        <ele>9</ele>
        <time>2021-03-26T08:13:37Z</time>
      </trkpt>
      <trkpt lat="49.22982" lon="-0.07561">
        <ele>10</ele>
        <time>2021-03-26T08:13:44Z</time>
      </trkpt>
      <trkpt lat="49.2302" lon="-0.07341">
        <ele>13</ele>
        <time>2021-03-26T08:13:51Z</time>
      </trkpt>
      <trkpt lat="49.23043" lon="-0.07193">
        <ele>13.02</ele>
        <time>2021-03-26T08:13:58Z</time>
      </trkpt>
      <trkpt lat="49.23159" lon="-0.06662">
        <ele>16</ele>
        <time>2021-03-26T08:14:05Z</time>
      </trkpt>
      <trkpt lat="49.23213" lon="-0.06389">
        <ele>19.33</ele>
        <time>2021-03-26T08:14:13Z</time>
      </trkpt>
      <trkpt lat="49.2334" lon="-0.05649">
        <ele>19.91</ele>
        <time>2021-03-26T08:14:20Z</time>
      </trkpt>
      <trkpt lat="49.23398" lon="-0.05338">
        <ele>18.3</ele>
        <time>2021-03-26T08:14:27Z</time>
      </trkpt>
      <trkpt lat="49.23456" lon="-0.05067">
        <ele>18.53</ele>
        <time>2021-03-26T08:14:34Z</time>
      </trkpt>
      <trkpt lat="49.23541" lon="-0.04716">
        <ele>21.47</ele>
        <time>2021-03-26T08:14:41Z</time>
      </trkpt>
      <trkpt lat="49.23635" lon="-0.04378">
        <ele>21.53</ele>
        <time>2021-03-26T08:14:48Z</time>
      </trkpt>
      <trkpt lat="49.23699" lon="-0.04166">
        <ele>18.83</ele>
        <time>2021-03-26T08:14:56Z</time>
      </trkpt>
      <trkpt lat="49.2377" lon="-0.03947">
        <ele>23.16</ele>
        <time>2021-03-26T08:15:03Z</time>
      </trkpt>
      <trkpt lat="49.23898" lon="-0.03575">
        <ele>25.9</ele>
        <time>2021-03-26T08:15:10Z</time>
      </trkpt>
      <trkpt lat="49.24017" lon="-0.03205">
        <ele>21.4</ele>
        <time>2021-03-26T08:15:17Z</time>
      </trkpt>
      <trkpt lat="49.24098" lon="-0.02932">
        <ele>19.48</ele>
        <time>2021-03-26T08:15:24Z</time>
      </trkpt>
      <trkpt lat="49.24456" lon="-0.0163">
        <ele>26.35</ele>
        <time>2021-03-26T08:15:31Z</time>
      </trkpt>
      <trkpt lat="49.24523" lon="-0.01364">
        <ele>26.98</ele>
        <time>2021-03-26T08:15:38Z</time>
      </trkpt>
      <trkpt lat="49.24571" lon="-0.01154">
        <ele>26.44</ele>
        <time>2021-03-26T08:15:46Z</time>
      </trkpt>
      <trkpt lat="49.24611" lon="-0.00966">
        <ele>28.01</ele>
        <time>2021-03-26T08:15:53Z</time>
      </trkpt>
      <trkpt lat="49.24668" lon="-0.00679">
        <ele>32.52</ele>
        <time>2021-03-26T08:16:00Z</time>
      </trkpt>
      <trkpt lat="49.24733" lon="-0.00302">
        <ele>36.57</ele>
        <time>2021-03-26T08:16:07Z</time>
      </trkpt>
      <trkpt lat="49.24751" lon="-0.00184">
        <ele>38.52</ele>
        <time>2021-03-26T08:16:14Z</time>
      </trkpt>
      <trkpt lat="49.24792" lon="0.00102">
        <ele>42.67</ele>
        <time>2021-03-26T08:16:21Z</time>
      </trkpt>
      <trkpt lat="49.24809" lon="0.00233">
        <ele>43.24</ele>
        <time>2021-03-26T08:16:29Z</time>
      </trkpt>
      <trkpt lat="49.24841" lon="0.00513">
        <ele>48.38</ele>
        <time>2021-03-26T08:16:36Z</time>
      </trkpt>
      <trkpt lat="49.24868" lon="0.00802">
        <ele>51.99</ele>
        <time>2021-03-26T08:16:43Z</time>
      </trkpt>
      <trkpt lat="49.24887" lon="0.01033">
        <ele>56.86</ele>
        <time>2021-03-26T08:16:50Z</time>
      </trkpt>
      <trkpt lat="49.24898" lon="0.01204">
        <ele>53.28</ele>
        <time>2021-03-26T08:16:57Z</time>
      </trkpt>
      <trkpt lat="49.24936" lon="0.01888">
        <ele>56.33</ele>
        <time>2021-03-26T08:17:04Z</time>
      </trkpt>
      <trkpt lat="49.24942" lon="0.02014">
        <ele>60.21</ele>
        <time>2021-03-26T08:17:12Z</time>
      </trkpt>
      <trkpt lat="49.24944" lon="0.0214">
        <ele>62.99</ele>
        <time>2021-03-26T08:17:19Z</time>
      </trkpt>
      <trkpt lat="49.24944" lon="0.02228">
        <ele>61.9</ele>
        <time>2021-03-26T08:17:26Z</time>
      </trkpt>
      <trkpt lat="49.24941" lon="0.02311">
        <ele>62.88</ele>
        <time>2021-03-26T08:17:33Z</time>
      </trkpt>
      <trkpt lat="49.24933" lon="0.02416">
        <ele>65.02</ele>
        <time>2021-03-26T08:17:40Z</time>
      </trkpt>
      <trkpt lat="49.24922" lon="0.0252">
        <ele>67.78</ele>
        <time>2021-03-26T08:17:47Z</time>
      </trkpt>
      <trkpt lat="49.24904" lon="0.0263">
        <ele>67.34</ele>
        <time>2021-03-26T08:17:55Z</time>
      </trkpt>
      <trkpt lat="49.24878" lon="0.02757">
        <ele>65.67</ele>
        <time>2021-03-26T08:18:02Z</time>
      </trkpt>
      <trkpt lat="49.24841" lon="0.02907">
        <ele>66.18</ele>
        <time>2021-03-26T08:18:09Z</time>
      </trkpt>
      <trkpt lat="49.24734" lon="0.03283">
        <ele>74.19</ele>
        <time>2021-03-26T08:18:16Z</time>
      </trkpt>
      <trkpt lat="49.24698" lon="0.0342">
        <ele>73.11</ele>
        <time>2021-03-26T08:18:23Z</time>
      </trkpt>
      <trkpt lat="49.24673" lon="0.03532">
        <ele>77.57</ele>
        <time>2021-03-26T08:18:30Z</time>
      </trkpt>
      <trkpt lat="49.24656" lon="0.03621">
        <ele>80.34</ele>
        <time>2021-03-26T08:18:37Z</time>
      </trkpt>
      <trkpt lat="49.24639" lon="0.0373">
        <ele>84.82</ele>
        <time>2021-03-26T08:18:45Z</time>
      </trkpt>
      <trkpt lat="49.24608" lon="0.03964">
        <ele>87.32</ele>
        <time>2021-03-26T08:18:52Z</time>
      </trkpt>
      <trkpt lat="49.24572" lon="0.04294">
        <ele>91.41</ele>
        <time>2021-03-26T08:18:59Z</time>
      </trkpt>
      <trkpt lat="49.24563" lon="0.04416">
        <ele>92.94</ele>
        <time>2021-03-26T08:19:06Z</time>
      </trkpt>
      <trkpt lat="49.24556" lon="0.0453">
        <ele>96</ele>
        <time>2021-03-26T08:19:13Z</time>
      </trkpt>
      <trkpt lat="49.24555" lon="0.04651">
        <ele>93.97</ele>
        <time>2021-03-26T08:19:20Z</time>
      </trkpt>
      <trkpt lat="49.24556" lon="0.04715">
        <ele>95.76</ele>
        <time>2021-03-26T08:19:28Z</time>
      </trkpt>
      <trkpt lat="49.24564" lon="0.04856">
        <ele>97.29</ele>
        <time>2021-03-26T08:19:35Z</time>
      </trkpt>
      <trkpt lat="49.24572" lon="0.0493">
        <ele>100.14</ele>
        <time>2021-03-26T08:19:42Z</time>
      </trkpt>
      <trkpt lat="49.24586" lon="0.0503">
        <ele>101.84</ele>
        <time>2021-03-26T08:19:49Z</time>
      </trkpt>
      <trkpt lat="49.24605" lon="0.05135">
        <ele>103.86</ele>
        <time>2021-03-26T08:19:56Z</time>
      </trkpt>
      <trkpt lat="49.24627" lon="0.05233">
        <ele>106.8</ele>
        <time>2021-03-26T08:20:03Z</time>
      </trkpt>
      <trkpt lat="49.24652" lon="0.05326">
        <ele>105.3</ele>
        <time>2021-03-26T08:20:11Z</time>
      </trkpt>
      <trkpt lat="49.24708" lon="0.05511">
        <ele>115.29</ele>
        <time>2021-03-26T08:20:18Z</time>
      </trkpt>
      <trkpt lat="49.24806" lon="0.05801">
        <ele>114.88</ele>
        <time>2021-03-26T08:20:25Z</time>
      </trkpt>
      <trkpt lat="49.24846" lon="0.05929">
        <ele>117.08</ele>
        <time>2021-03-26T08:20:32Z</time>
      </trkpt>
      <trkpt lat="49.24885" lon="0.0607">
        <ele>116.55</ele>
        <time>2021-03-26T08:20:39Z</time>
      </trkpt>
      <trkpt lat="49.24913" lon="0.06185">
        <ele>121.53</ele>
        <time>2021-03-26T08:20:46Z</time>
      </trkpt>
      <trkpt lat="49.24937" lon="0.06301">
        <ele>127.83</ele>
        <time>2021-03-26T08:20:54Z</time>
      </trkpt>
      <trkpt lat="49.24985" lon="0.06541">
        <ele>136.59</ele>
        <time>2021-03-26T08:21:01Z</time>
      </trkpt>
      <trkpt lat="49.25015" lon="0.06684">
        <ele>137.63</ele>
        <time>2021-03-26T08:21:08Z</time>
      </trkpt>
      <trkpt lat="49.25049" lon="0.06827">
        <ele>139.22</ele>
        <time>2021-03-26T08:21:15Z</time>
      </trkpt>
      <trkpt lat="49.25096" lon="0.06993">
        <ele>142.16</ele>
        <time>2021-03-26T08:21:22Z</time>
      </trkpt>
      <trkpt lat="49.25149" lon="0.07155">
        <ele>145</ele>
        <time>2021-03-26T08:21:29Z</time>
      </trkpt>
      <trkpt lat="49.25234" lon="0.07386">
        <ele>141.96</ele>
        <time>2021-03-26T08:21:36Z</time>
      </trkpt>
      <trkpt lat="49.2539" lon="0.07777">
        <ele>140.95</ele>
        <time>2021-03-26T08:21:44Z</time>
      </trkpt>
      <trkpt lat="49.25452" lon="0.07945">
        <ele>140.47</ele>
        <time>2021-03-26T08:21:51Z</time>
      </trkpt>
      <trkpt lat="49.25506" lon="0.08104">
        <ele>138</ele>
        <time>2021-03-26T08:21:58Z</time>
      </trkpt>
      <trkpt lat="49.25545" lon="0.08233">
        <ele>139.76</ele>
        <time>2021-03-26T08:22:05Z</time>
      </trkpt>
      <trkpt lat="49.25574" lon="0.08336">
        <ele>139.33</ele>
        <time>2021-03-26T08:22:12Z</time>
      </trkpt>
      <trkpt lat="49.25626" lon="0.0855">
        <ele>140.27</ele>
        <time>2021-03-26T08:22:19Z</time>
      </trkpt>
      <trkpt lat="49.25645" lon="0.0864">
        <ele>139.37</ele>
        <time>2021-03-26T08:22:27Z</time>
      </trkpt>
      <trkpt lat="49.25678" lon="0.08816">
        <ele>135.73</ele>
        <time>2021-03-26T08:22:34Z</time>
      </trkpt>
      <trkpt lat="49.25699" lon="0.08951">
        <ele>136.46</ele>
        <time>2021-03-26T08:22:41Z</time>
      </trkpt>
      <trkpt lat="49.25718" lon="0.09094">
        <ele>137.17</ele>
        <time>2021-03-26T08:22:48Z</time>
      </trkpt>
      <trkpt lat="49.25738" lon="0.09288">
        <ele>138.16</ele>
        <time>2021-03-26T08:22:55Z</time>
      </trkpt>
      <trkpt lat="49.258" lon="0.09989">
        <ele>135.32</ele>
        <time>2021-03-26T08:23:02Z</time>
      </trkpt>
      <trkpt lat="49.25822" lon="0.10203">
        <ele>134</ele>
        <time>2021-03-26T08:23:10Z</time>
      </trkpt>
      <trkpt lat="49.25846" lon="0.10394">
        <ele>132</ele>
        <time>2021-03-26T08:23:17Z</time>
      </trkpt>
      <trkpt lat="49.25868" lon="0.10552">
        <ele>133.66</ele>
        <time>2021-03-26T08:23:24Z</time>
      </trkpt>
      <trkpt lat="49.25903" lon="0.1078">
        <ele>128.95</ele>
        <time>2021-03-26T08:23:31Z</time>
      </trkpt>
      <trkpt lat="49.25917" lon="0.10899">
        <ele>130.02</ele>
        <time>2021-03-26T08:23:38Z</time>
      </trkpt>
      <trkpt lat="49.25929" lon="0.10968">
        <ele>129.91</ele>
        <time>2021-03-26T08:23:45Z</time>
      </trkpt>
      <trkpt lat="49.26058" lon="0.11678">
        <ele>118.92</ele>
        <time>2021-03-26T08:23:53Z</time>
      </trkpt>
      <trkpt lat="49.26094" lon="0.11901">
        <ele>117.32</ele>
        <time>2021-03-26T08:24:00Z</time>
      </trkpt>
      <trkpt lat="49.26126" lon="0.12124">
        <ele>116.85</ele>
        <time>2021-03-26T08:24:07Z</time>
      </trkpt>
      <trkpt lat="49.26144" lon="0.12279">
        <ele>118.02</ele>
        <time>2021-03-26T08:24:14Z</time>
      </trkpt>
      <trkpt lat="49.26161" lon="0.12428">
        <ele>121.57</ele>
        <time>2021-03-26T08:24:21Z</time>
      </trkpt>
      <trkpt lat="49.26186" lon="0.12715">
        <ele>122.3</ele>
        <time>2021-03-26T08:24:28Z</time>
      </trkpt>
      <trkpt lat="49.26193" lon="0.12811">
        <ele>122.08</ele>
        <time>2021-03-26T08:24:35Z</time>
      </trkpt>
      <trkpt lat="49.26222" lon="0.13278">
        <ele>120</ele>
        <time>2021-03-26T08:24:43Z</time>
      </trkpt>
      <trkpt lat="49.2623" lon="0.13443">
        <ele>120</ele>
        <time>2021-03-26T08:24:50Z</time>
      </trkpt>
      <trkpt lat="49.26243" lon="0.13866">
        <ele>120.69</ele>
        <time>2021-03-26T08:24:57Z</time>
      </trkpt>
      <trkpt lat="49.26245" lon="0.14021">
        <ele>116</ele>
        <time>2021-03-26T08:25:04Z</time>
      </trkpt>
      <trkpt lat="49.26251" lon="0.14692">
        <ele>118.1</ele>
        <time>2021-03-26T08:25:11Z</time>
      </trkpt>
      <trkpt lat="49.26258" lon="0.14906">
        <ele>117</ele>
        <time>2021-03-26T08:25:18Z</time>
      </trkpt>
      <trkpt lat="49.26264" lon="0.15038">
        <ele>116.96</ele>
        <time>2021-03-26T08:25:26Z</time>
      </trkpt>
      <trkpt lat="49.26272" lon="0.15169">
        <ele>113.6</ele>
        <time>2021-03-26T08:25:33Z</time>
      </trkpt>
      <trkpt lat="49.26283" lon="0.15303">
        <ele>110.08</ele>
        <time>2021-03-26T08:25:40Z</time>
      </trkpt>
      <trkpt lat="49.26296" lon="0.15431">
        <ele>107.13</ele>
        <time>2021-03-26T08:25:47Z</time>
      </trkpt>
      <trkpt lat="49.26321" lon="0.15622">
        <ele>93.18</ele>
        <time>2021-03-26T08:25:54Z</time>
      </trkpt>
      <trkpt lat="49.26341" lon="0.15741">
        <ele>90.36</ele>
        <time>2021-03-26T08:26:01Z</time>
      </trkpt>
      <trkpt lat="49.2638" lon="0.15922">
        <ele>84.87</ele>
        <time>2021-03-26T08:26:09Z</time>
      </trkpt>
      <trkpt lat="49.26422" lon="0.16087">
        <ele>77.03</ele>
        <time>2021-03-26T08:26:16Z</time>
      </trkpt>
      <trkpt lat="49.26472" lon="0.16247">
        <ele>69.11</ele>
        <time>2021-03-26T08:26:23Z</time>
      </trkpt>
      <trkpt lat="49.2653" lon="0.16409">
        <ele>67.36</ele>
        <time>2021-03-26T08:26:30Z</time>
      </trkpt>
      <trkpt lat="49.26803" lon="0.17074">
        <ele>50.59</ele>
        <time>2021-03-26T08:26:37Z</time>
      </trkpt>
      <trkpt lat="49.26901" lon="0.17337">
        <ele>41.73</ele>
        <time>2021-03-26T08:26:44Z</time>
      </trkpt>
      <trkpt lat="49.26947" lon="0.17473">
        <ele>27.06</ele>
        <time>2021-03-26T08:26:52Z</time>
      </trkpt>
      <trkpt lat="49.26992" lon="0.17615">
        <ele>25.9</ele>
        <time>2021-03-26T08:26:59Z</time>
      </trkpt>
      <trkpt lat="49.27055" lon="0.17835">
        <ele>25.03</ele>
        <time>2021-03-26T08:27:06Z</time>
      </trkpt>
      <trkpt lat="49.27177" lon="0.18295">
        <ele>25.47</ele>
        <time>2021-03-26T08:27:13Z</time>
      </trkpt>
      <trkpt lat="49.27227" lon="0.18475">
        <ele>25.91</ele>
        <time>2021-03-26T08:27:20Z</time>
      </trkpt>
      <trkpt lat="49.27284" lon="0.18662">
        <ele>25.84</ele>
        <time>2021-03-26T08:27:27Z</time>
      </trkpt>
      <trkpt lat="49.27319" lon="0.18758">
        <ele>23.87</ele>
        <time>2021-03-26T08:27:34Z</time>
      </trkpt>
      <trkpt lat="49.27356" lon="0.18852">
        <ele>23</ele>
        <time>2021-03-26T08:27:42Z</time>
      </trkpt>
      <trkpt lat="49.27407" lon="0.18957">
        <ele>22.19</ele>
        <time>2021-03-26T08:27:49Z</time>
      </trkpt>
      <trkpt lat="49.27442" lon="0.19022">
        <ele>21.02</ele>
        <time>2021-03-26T08:27:56Z</time>
      </trkpt>
      <trkpt lat="49.27503" lon="0.19121">
        <ele>15.24</ele>
        <time>2021-03-26T08:28:03Z</time>
      </trkpt>
      <trkpt lat="49.27566" lon="0.1921">
        <ele>13.98</ele>
        <time>2021-03-26T08:28:10Z</time>
      </trkpt>
      <trkpt lat="49.27618" lon="0.19274">
        <ele>10.84</ele>
        <time>2021-03-26T08:28:17Z</time>
      </trkpt>
      <trkpt lat="49.27673" lon="0.19332">
        <ele>9.98</ele>
        <time>2021-03-26T08:28:25Z</time>
      </trkpt>
      <trkpt lat="49.27731" lon="0.19386">
        <ele>10.97</ele>
        <time>2021-03-26T08:28:32Z</time>
      </trkpt>
      <trkpt lat="49.2779" lon="0.1943">
        <ele>11.14</ele>
        <time>2021-03-26T08:28:39Z</time>
      </trkpt>
      <trkpt lat="49.27853" lon="0.19472">
        <ele>11</ele>
        <time>2021-03-26T08:28:46Z</time>
      </trkpt>
      <trkpt lat="49.27916" lon="0.1951">
        <ele>11.99</ele>
        <time>2021-03-26T08:28:53Z</time>
      </trkpt>
      <trkpt lat="49.27976" lon="0.19535">
        <ele>12.9</ele>
        <time>2021-03-26T08:29:00Z</time>
      </trkpt>
      <trkpt lat="49.28041" lon="0.19561">
        <ele>12.51</ele>
        <time>2021-03-26T08:29:08Z</time>
      </trkpt>
      <trkpt lat="49.28303" lon="0.19641">
        <ele>9.14</ele>
        <time>2021-03-26T08:29:15Z</time>
      </trkpt>
      <trkpt lat="49.28372" lon="0.19658">
        <ele>12.4</ele>
        <time>2021-03-26T08:29:22Z</time>
      </trkpt>
      <trkpt lat="49.2846" lon="0.19691">
        <ele>13.12</ele>
        <time>2021-03-26T08:29:29Z</time>
      </trkpt>
      <trkpt lat="49.2849" lon="0.19705">
        <ele>13.64</ele>
        <time>2021-03-26T08:29:36Z</time>
      </trkpt>
      <trkpt lat="49.28584" lon="0.19751">
        <ele>12.94</ele>
        <time>2021-03-26T08:29:43Z</time>
      </trkpt>
      <trkpt lat="49.28672" lon="0.19801">
        <ele>14.83</ele>
        <time>2021-03-26T08:29:51Z</time>
      </trkpt>
      <trkpt lat="49.28766" lon="0.19866">
        <ele>16.82</ele>
        <time>2021-03-26T08:29:58Z</time>
      </trkpt>
      <trkpt lat="49.28816" lon="0.19904">
        <ele>21.83</ele>
        <time>2021-03-26T08:30:05Z</time>
      </trkpt>
      <trkpt lat="49.28842" lon="0.19924">
        <ele>21.48</ele>
        <time>2021-03-26T08:30:12Z</time>
      </trkpt>
      <trkpt lat="49.28943" lon="0.20014">
        <ele>18.53</ele>
        <time>2021-03-26T08:30:19Z</time>
      </trkpt>
      <trkpt lat="49.29036" lon="0.2011">
        <ele>17.29</ele>
        <time>2021-03-26T08:30:26Z</time>
      </trkpt>
      <trkpt lat="49.29166" lon="0.20261">
        <ele>16.28</ele>
        <time>2021-03-26T08:30:33Z</time>
      </trkpt>
      <trkpt lat="49.29241" lon="0.20361">
        <ele>13.33</ele>
        <time>2021-03-26T08:30:41Z</time>
      </trkpt>
      <trkpt lat="49.29321" lon="0.20487">
        <ele>13.21</ele>
        <time>2021-03-26T08:30:48Z</time>
      </trkpt>
      <trkpt lat="49.29414" lon="0.20651">
        <ele>13.17</ele>
        <time>2021-03-26T08:30:55Z</time>
      </trkpt>
      <trkpt lat="49.29423" lon="0.20678">
        <ele>13.31</ele>
        <time>2021-03-26T08:31:02Z</time>
      </trkpt>
      <trkpt lat="49.29438" lon="0.20705">
        <ele>13.51</ele>
        <time>2021-03-26T08:31:09Z</time>
      </trkpt>
      <trkpt lat="49.29489" lon="0.2081">
        <ele>15.38</ele>
        <time>2021-03-26T08:31:16Z</time>
      </trkpt>
      <trkpt lat="49.29549" lon="0.20954">
        <ele>13.55</ele>
        <time>2021-03-26T08:31:24Z</time>
      </trkpt>
      <trkpt lat="49.2958" lon="0.21032">
        <ele>15.71</ele>
        <time>2021-03-26T08:31:31Z</time>
      </trkpt>
      <trkpt lat="49.29618" lon="0.21143">
        <ele>15.39</ele>
        <time>2021-03-26T08:31:38Z</time>
      </trkpt>
      <trkpt lat="49.29655" lon="0.21263">
        <ele>16.58</ele>
        <time>2021-03-26T08:31:45Z</time>
      </trkpt>
      <trkpt lat="49.29683" lon="0.21362">
        <ele>17.1</ele>
        <time>2021-03-26T08:31:52Z</time>
      </trkpt>
      <trkpt lat="49.29709" lon="0.2147">
        <ele>17.62</ele>
        <time>2021-03-26T08:31:59Z</time>
      </trkpt>
      <trkpt lat="49.29734" lon="0.21579">
        <ele>19.11</ele>
        <time>2021-03-26T08:32:07Z</time>
      </trkpt>
      <trkpt lat="49.29764" lon="0.21725">
        <ele>23.53</ele>
        <time>2021-03-26T08:32:14Z</time>
      </trkpt>
      <trkpt lat="49.29802" lon="0.21955">
        <ele>26.01</ele>
        <time>2021-03-26T08:32:21Z</time>
      </trkpt>
      <trkpt lat="49.29818" lon="0.22059">
        <ele>26.43</ele>
        <time>2021-03-26T08:32:28Z</time>
      </trkpt>
      <trkpt lat="49.2985" lon="0.22308">
        <ele>26.58</ele>
        <time>2021-03-26T08:32:35Z</time>
      </trkpt>
      <trkpt lat="49.29873" lon="0.22501">
        <ele>26.06</ele>
        <time>2021-03-26T08:32:42Z</time>
      </trkpt>
      <trkpt lat="49.29892" lon="0.22695">
        <ele>25.3</ele>
        <time>2021-03-26T08:32:50Z</time>
      </trkpt>
      <trkpt lat="49.29904" lon="0.22846">
        <ele>22.95</ele>
        <time>2021-03-26T08:32:57Z</time>
      </trkpt>
      <trkpt lat="49.29917" lon="0.23037">
        <ele>18.33</ele>
        <time>2021-03-26T08:33:04Z</time>
      </trkpt>
      <trkpt lat="49.29927" lon="0.23226">
        <ele>19.14</ele>
        <time>2021-03-26T08:33:11Z</time>
      </trkpt>
      <trkpt lat="49.29936" lon="0.23473">
        <ele>19.72</ele>
        <time>2021-03-26T08:33:18Z</time>
      </trkpt>
      <trkpt lat="49.29944" lon="0.23833">
        <ele>20</ele>
        <time>2021-03-26T08:33:25Z</time>
      </trkpt>
      <trkpt lat="49.29965" lon="0.25922">
        <ele>32.26</ele>
        <time>2021-03-26T08:33:32Z</time>
      </trkpt>
      <trkpt lat="49.29971" lon="0.26257">
        <ele>33.28</ele>
        <time>2021-03-26T08:33:40Z</time>
      </trkpt>
      <trkpt lat="49.2998" lon="0.26461">
        <ele>33.73</ele>
        <time>2021-03-26T08:33:47Z</time>
      </trkpt>
      <trkpt lat="49.29989" lon="0.26615">
        <ele>30.41</ele>
        <time>2021-03-26T08:33:54Z</time>
      </trkpt>
      <trkpt lat="49.30001" lon="0.26782">
        <ele>29.82</ele>
        <time>2021-03-26T08:34:01Z</time>
      </trkpt>
      <trkpt lat="49.30016" lon="0.26944">
        <ele>30.82</ele>
        <time>2021-03-26T08:34:08Z</time>
      </trkpt>
      <trkpt lat="49.30046" lon="0.27193">
        <ele>27</ele>
        <time>2021-03-26T08:34:15Z</time>
      </trkpt>
      <trkpt lat="49.30078" lon="0.27387">
        <ele>26.77</ele>
        <time>2021-03-26T08:34:23Z</time>
      </trkpt>
      <trkpt lat="49.3012" lon="0.27595">
        <ele>31.3</ele>
        <time>2021-03-26T08:34:30Z</time>
      </trkpt>
      <trkpt lat="49.30257" lon="0.28202">
        <ele>37.57</ele>
        <time>2021-03-26T08:34:37Z</time>
      </trkpt>
      <trkpt lat="49.30282" lon="0.28336">
        <ele>37.35</ele>
        <time>2021-03-26T08:34:44Z</time>
      </trkpt>
      <trkpt lat="49.30312" lon="0.28554">
        <ele>49.22</ele>
        <time>2021-03-26T08:34:51Z</time>
      </trkpt>
      <trkpt lat="49.30348" lon="0.28871">
        <ele>58.36</ele>
        <time>2021-03-26T08:34:58Z</time>
      </trkpt>
      <trkpt lat="49.30365" lon="0.28988">
        <ele>62.16</ele>
        <time>2021-03-26T08:35:06Z</time>
      </trkpt>
      <trkpt lat="49.30385" lon="0.29095">
        <ele>66.26</ele>
        <time>2021-03-26T08:35:13Z</time>
      </trkpt>
      <trkpt lat="49.30416" lon="0.29223">
        <ele>70.91</ele>
        <time>2021-03-26T08:35:20Z</time>
      </trkpt>
      <trkpt lat="49.30455" lon="0.29349">
        <ele>76.44</ele>
        <time>2021-03-26T08:35:27Z</time>
      </trkpt>
      <trkpt lat="49.30502" lon="0.29477">
        <ele>81.26</ele>
        <time>2021-03-26T08:35:34Z</time>
      </trkpt>
      <trkpt lat="49.3053" lon="0.29541">
        <ele>84.71</ele>
        <time>2021-03-26T08:35:41Z</time>
      </trkpt>
      <trkpt lat="49.30558" lon="0.29598">
        <ele>87.04</ele>
        <time>2021-03-26T08:35:49Z</time>
      </trkpt>
      <trkpt lat="49.30605" lon="0.29686">
        <ele>92.63</ele>
        <time>2021-03-26T08:35:56Z</time>
      </trkpt>
      <trkpt lat="49.30663" lon="0.29782">
        <ele>100.68</ele>
        <time>2021-03-26T08:36:03Z</time>
      </trkpt>
      <trkpt lat="49.30773" lon="0.29928">
        <ele>106.37</ele>
        <time>2021-03-26T08:36:10Z</time>
      </trkpt>
      <trkpt lat="49.3088" lon="0.30052">
        <ele>116.18</ele>
        <time>2021-03-26T08:36:17Z</time>
      </trkpt>
      <trkpt lat="49.31336" lon="0.30542">
        <ele>138.04</ele>
        <time>2021-03-26T08:36:24Z</time>
      </trkpt>
      <trkpt lat="49.31428" lon="0.30644">
        <ele>140.11</ele>
        <time>2021-03-26T08:36:31Z</time>
      </trkpt>
      <trkpt lat="49.31542" lon="0.30789">
        <ele>139.26</ele>
        <time>2021-03-26T08:36:39Z</time>
      </trkpt>
      <trkpt lat="49.31675" lon="0.30986">
        <ele>138.28</ele>
        <time>2021-03-26T08:36:46Z</time>
      </trkpt>
      <trkpt lat="49.3176" lon="0.31131">
        <ele>135</ele>
        <time>2021-03-26T08:36:53Z</time>
      </trkpt>
      <trkpt lat="49.31821" lon="0.31245">
        <ele>137</ele>
        <time>2021-03-26T08:37:00Z</time>
      </trkpt>
      <trkpt lat="49.31875" lon="0.31362">
        <ele>137.99</ele>
        <time>2021-03-26T08:37:07Z</time>
      </trkpt>
      <trkpt lat="49.31958" lon="0.31554">
        <ele>134.54</ele>
        <time>2021-03-26T08:37:14Z</time>
      </trkpt>
      <trkpt lat="49.32045" lon="0.31788">
        <ele>134</ele>
        <time>2021-03-26T08:37:22Z</time>
      </trkpt>
      <trkpt lat="49.32194" lon="0.32227">
        <ele>132.07</ele>
        <time>2021-03-26T08:37:29Z</time>
      </trkpt>
      <trkpt lat="49.32612" lon="0.33481">
        <ele>128.07</ele>
        <time>2021-03-26T08:37:36Z</time>
      </trkpt>
      <trkpt lat="49.32679" lon="0.33673">
        <ele>128.87</ele>
        <time>2021-03-26T08:37:43Z</time>
      </trkpt>
      <trkpt lat="49.3277" lon="0.33919">
        <ele>127</ele>
        <time>2021-03-26T08:37:50Z</time>
      </trkpt>
      <trkpt lat="49.32825" lon="0.34061">
        <ele>127.85</ele>
        <time>2021-03-26T08:37:57Z</time>
      </trkpt>
      <trkpt lat="49.3287" lon="0.34168">
        <ele>130.61</ele>
        <time>2021-03-26T08:38:05Z</time>
      </trkpt>
      <trkpt lat="49.32972" lon="0.34396">
        <ele>133.03</ele>
        <time>2021-03-26T08:38:12Z</time>
      </trkpt>
      <trkpt lat="49.33017" lon="0.34487">
        <ele>131.19</ele>
        <time>2021-03-26T08:38:19Z</time>
      </trkpt>
      <trkpt lat="49.33131" lon="0.34706">
        <ele>131.12</ele>
        <time>2021-03-26T08:38:26Z</time>
      </trkpt>
      <trkpt lat="49.33345" lon="0.35087">
        <ele>131</ele>
        <time>2021-03-26T08:38:33Z</time>
      </trkpt>
      <trkpt lat="49.33414" lon="0.35213">
        <ele>128.62</ele>
        <time>2021-03-26T08:38:40Z</time>
      </trkpt>
      <trkpt lat="49.33471" lon="0.35333">
        <ele>128.96</ele>
        <time>2021-03-26T08:38:48Z</time>
      </trkpt>
      <trkpt lat="49.33513" lon="0.35428">
        <ele>128.5</ele>
        <time>2021-03-26T08:38:55Z</time>
      </trkpt>
      <trkpt lat="49.33559" lon="0.3554">
        <ele>130.93</ele>
        <time>2021-03-26T08:39:02Z</time>
      </trkpt>
      <trkpt lat="49.33601" lon="0.35654">
        <ele>128.85</ele>
        <time>2021-03-26T08:39:09Z</time>
      </trkpt>
      <trkpt lat="49.33631" lon="0.35746">
        <ele>127.61</ele>
        <time>2021-03-26T08:39:16Z</time>
      </trkpt>
      <trkpt lat="49.33656" lon="0.35835">
        <ele>128.02</ele>
        <time>2021-03-26T08:39:23Z</time>
      </trkpt>
      <trkpt lat="49.3371" lon="0.36048">
        <ele>129.28</ele>
        <time>2021-03-26T08:39:30Z</time>
      </trkpt>
      <trkpt lat="49.33732" lon="0.36163">
        <ele>128</ele>
        <time>2021-03-26T08:39:38Z</time>
      </trkpt>
      <trkpt lat="49.33742" lon="0.36235">
        <ele>130.15</ele>
        <time>2021-03-26T08:39:45Z</time>
      </trkpt>
      <trkpt lat="49.33764" lon="0.3646">
        <ele>131</ele>
        <time>2021-03-26T08:39:52Z</time>
      </trkpt>
      <trkpt lat="49.33789" lon="0.36665">
        <ele>127.86</ele>
        <time>2021-03-26T08:39:59Z</time>
      </trkpt>
      <trkpt lat="49.33805" lon="0.36838">
        <ele>128.83</ele>
        <time>2021-03-26T08:40:06Z</time>
      </trkpt>
      <trkpt lat="49.33807" lon="0.36947">
        <ele>126.26</ele>
        <time>2021-03-26T08:40:13Z</time>
      </trkpt>
      <trkpt lat="49.33804" lon="0.37099">
        <ele>127.42</ele>
        <time>2021-03-26T08:40:21Z</time>
      </trkpt>
      <trkpt lat="49.33799" lon="0.37181">
        <ele>127.93</ele>
        <time>2021-03-26T08:40:28Z</time>
      </trkpt>
      <trkpt lat="49.3379" lon="0.37311">
        <ele>128</ele>
        <time>2021-03-26T08:40:35Z</time>
      </trkpt>
      <trkpt lat="49.33772" lon="0.37474">
        <ele>127.73</ele>
        <time>2021-03-26T08:40:42Z</time>
      </trkpt>
      <trkpt lat="49.33754" lon="0.37592">
        <ele>125.04</ele>
        <time>2021-03-26T08:40:49Z</time>
      </trkpt>
      <trkpt lat="49.33733" lon="0.37709">
        <ele>126.18</ele>
        <time>2021-03-26T08:40:56Z</time>
      </trkpt>
      <trkpt lat="49.33719" lon="0.37781">
        <ele>125</ele>
        <time>2021-03-26T08:41:04Z</time>
      </trkpt>
      <trkpt lat="49.33678" lon="0.37952">
        <ele>123</ele>
        <time>2021-03-26T08:41:11Z</time>
      </trkpt>
      <trkpt lat="49.33649" lon="0.38056">
        <ele>125.02</ele>
        <time>2021-03-26T08:41:18Z</time>
      </trkpt>
      <trkpt lat="49.3362" lon="0.38151">
        <ele>126</ele>
        <time>2021-03-26T08:41:25Z</time>
      </trkpt>
      <trkpt lat="49.33589" lon="0.38242">
        <ele>127.46</ele>
        <time>2021-03-26T08:41:32Z</time>
      </trkpt>
      <trkpt lat="49.33532" lon="0.38393">
        <ele>125</ele>
        <time>2021-03-26T08:41:39Z</time>
      </trkpt>
      <trkpt lat="49.33351" lon="0.38824">
        <ele>127.61</ele>
        <time>2021-03-26T08:41:47Z</time>
      </trkpt>
      <trkpt lat="49.33306" lon="0.38951">
        <ele>127.22</ele>
        <time>2021-03-26T08:41:54Z</time>
      </trkpt>
      <trkpt lat="49.3328" lon="0.39031">
        <ele>130.09</ele>
        <time>2021-03-26T08:42:01Z</time>
      </trkpt>
      <trkpt lat="49.33257" lon="0.39113">
        <ele>129.68</ele>
        <time>2021-03-26T08:42:08Z</time>
      </trkpt>
      <trkpt lat="49.33231" lon="0.39227">
        <ele>128.59</ele>
        <time>2021-03-26T08:42:15Z</time>
      </trkpt>
      <trkpt lat="49.33209" lon="0.39345">
        <ele>125.57</ele>
        <time>2021-03-26T08:42:22Z</time>
      </trkpt>
      <trkpt lat="49.33196" lon="0.3945">
        <ele>121.04</ele>
        <time>2021-03-26T08:42:29Z</time>
      </trkpt>
      <trkpt lat="49.33185" lon="0.39577">
        <ele>121.62</ele>
        <time>2021-03-26T08:42:37Z</time>
      </trkpt>
      <trkpt lat="49.3318" lon="0.39725">
        <ele>123.89</ele>
        <time>2021-03-26T08:42:44Z</time>
      </trkpt>
      <trkpt lat="49.33181" lon="0.39803">
        <ele>124.89</ele>
        <time>2021-03-26T08:42:51Z</time>
      </trkpt>
      <trkpt lat="49.33185" lon="0.3988">
        <ele>126.35</ele>
        <time>2021-03-26T08:42:58Z</time>
      </trkpt>
      <trkpt lat="49.33196" lon="0.40006">
        <ele>126.91</ele>
        <time>2021-03-26T08:43:05Z</time>
      </trkpt>
      <trkpt lat="49.33213" lon="0.40129">
        <ele>127.35</ele>
        <time>2021-03-26T08:43:12Z</time>
      </trkpt>
      <trkpt lat="49.33224" lon="0.40195">
        <ele>125.9</ele>
        <time>2021-03-26T08:43:20Z</time>
      </trkpt>
      <trkpt lat="49.33254" lon="0.4033">
        <ele>124.1</ele>
        <time>2021-03-26T08:43:27Z</time>
      </trkpt>
      <trkpt lat="49.33291" lon="0.40459">
        <ele>122.53</ele>
        <time>2021-03-26T08:43:34Z</time>
      </trkpt>
      <trkpt lat="49.33311" lon="0.40516">
        <ele>122.18</ele>
        <time>2021-03-26T08:43:41Z</time>
      </trkpt>
      <trkpt lat="49.3336" lon="0.40642">
        <ele>121.91</ele>
        <time>2021-03-26T08:43:48Z</time>
      </trkpt>
      <trkpt lat="49.33675" lon="0.41315">
        <ele>120.68</ele>
        <time>2021-03-26T08:43:55Z</time>
      </trkpt>
      <trkpt lat="49.33903" lon="0.41793">
        <ele>117.23</ele>
        <time>2021-03-26T08:44:03Z</time>
      </trkpt>
      <trkpt lat="49.33984" lon="0.41948">
        <ele>113.57</ele>
        <time>2021-03-26T08:44:10Z</time>
      </trkpt>
      <trkpt lat="49.34019" lon="0.42003">
        <ele>113.12</ele>
        <time>2021-03-26T08:44:17Z</time>
      </trkpt>
      <trkpt lat="49.34056" lon="0.42059">
        <ele>113.96</ele>
        <time>2021-03-26T08:44:24Z</time>
      </trkpt>
      <trkpt lat="49.34134" lon="0.42159">
        <ele>108.55</ele>
        <time>2021-03-26T08:44:31Z</time>
      </trkpt>
      <trkpt lat="49.34201" lon="0.42225">
        <ele>106.85</ele>
        <time>2021-03-26T08:44:38Z</time>
      </trkpt>
      <trkpt lat="49.3427" lon="0.42286">
        <ele>103.33</ele>
        <time>2021-03-26T08:44:46Z</time>
      </trkpt>
      <trkpt lat="49.34509" lon="0.42442">
        <ele>86.18</ele>
        <time>2021-03-26T08:44:53Z</time>
      </trkpt>
      <trkpt lat="49.34609" lon="0.42529">
        <ele>74.57</ele>
        <time>2021-03-26T08:45:00Z</time>
      </trkpt>
      <trkpt lat="49.34668" lon="0.42595">
        <ele>66.17</ele>
        <time>2021-03-26T08:45:07Z</time>
      </trkpt>
      <trkpt lat="49.34726" lon="0.42673">
        <ele>60.57</ele>
        <time>2021-03-26T08:45:14Z</time>
      </trkpt>
      <trkpt lat="49.34756" lon="0.42721">
        <ele>58.09</ele>
        <time>2021-03-26T08:45:21Z</time>
      </trkpt>
      <trkpt lat="49.34785" lon="0.42771">
        <ele>57</ele>
        <time>2021-03-26T08:45:28Z</time>
      </trkpt>
      <trkpt lat="49.34813" lon="0.42825">
        <ele>55.22</ele>
        <time>2021-03-26T08:45:36Z</time>
      </trkpt>
      <trkpt lat="49.34837" lon="0.42879">
        <ele>53.3</ele>
        <time>2021-03-26T08:45:43Z</time>
      </trkpt>
      <trkpt lat="49.34876" lon="0.42981">
        <ele>51.35</ele>
        <time>2021-03-26T08:45:50Z</time>
      </trkpt>
      <trkpt lat="49.34898" lon="0.43048">
        <ele>49.14</ele>
        <time>2021-03-26T08:45:57Z</time>
      </trkpt>
      <trkpt lat="49.34916" lon="0.43117">
        <ele>45.34</ele>
        <time>2021-03-26T08:46:04Z</time>
      </trkpt>
      <trkpt lat="49.34937" lon="0.43212">
        <ele>39.11</ele>
        <time>2021-03-26T08:46:11Z</time>
      </trkpt>
      <trkpt lat="49.34952" lon="0.43309">
        <ele>36.33</ele>
        <time>2021-03-26T08:46:19Z</time>
      </trkpt>
      <trkpt lat="49.34961" lon="0.43384">
        <ele>33.77</ele>
        <time>2021-03-26T08:46:26Z</time>
      </trkpt>
      <trkpt lat="49.34967" lon="0.43457">
        <ele>31.75</ele>
        <time>2021-03-26T08:46:33Z</time>
      </trkpt>
      <trkpt lat="49.34985" lon="0.43739">
        <ele>38.19</ele>
        <time>2021-03-26T08:46:40Z</time>
      </trkpt>
      <trkpt lat="49.34993" lon="0.43836">
        <ele>41.73</ele>
        <time>2021-03-26T08:46:47Z</time>
      </trkpt>
      <trkpt lat="49.35005" lon="0.43928">
        <ele>40.28</ele>
        <time>2021-03-26T08:46:54Z</time>
      </trkpt>
      <trkpt lat="49.35024" lon="0.44037">
        <ele>40.56</ele>
        <time>2021-03-26T08:47:02Z</time>
      </trkpt>
      <trkpt lat="49.35036" lon="0.44097">
        <ele>42.02</ele>
        <time>2021-03-26T08:47:09Z</time>
      </trkpt>
      <trkpt lat="49.3505" lon="0.44155">
        <ele>41.8</ele>
        <time>2021-03-26T08:47:16Z</time>
      </trkpt>
      <trkpt lat="49.3507" lon="0.44229">
        <ele>41.2</ele>
        <time>2021-03-26T08:47:23Z</time>
      </trkpt>
      <trkpt lat="49.35091" lon="0.44301">
        <ele>41.57</ele>
        <time>2021-03-26T08:47:30Z</time>
      </trkpt>
      <trkpt lat="49.35161" lon="0.44506">
        <ele>38.23</ele>
        <time>2021-03-26T08:47:37Z</time>
      </trkpt>
      <trkpt lat="49.35199" lon="0.44622">
        <ele>40.17</ele>
        <time>2021-03-26T08:47:45Z</time>
      </trkpt>
      <trkpt lat="49.3522" lon="0.44694">
        <ele>39.31</ele>
        <time>2021-03-26T08:47:52Z</time>
      </trkpt>
      <trkpt lat="49.35254" lon="0.4483">
        <ele>39.97</ele>
        <time>2021-03-26T08:47:59Z</time>
      </trkpt>
      <trkpt lat="49.35267" lon="0.44896">
        <ele>44.02</ele>
        <time>2021-03-26T08:48:06Z</time>
      </trkpt>
      <trkpt lat="49.35281" lon="0.44977">
        <ele>43.76</ele>
        <time>2021-03-26T08:48:13Z</time>
      </trkpt>
      <trkpt lat="49.35324" lon="0.45313">
        <ele>43.61</ele>
        <time>2021-03-26T08:48:20Z</time>
      </trkpt>
      <trkpt lat="49.35349" lon="0.4547">
        <ele>39.85</ele>
        <time>2021-03-26T08:48:27Z</time>
      </trkpt>
      <trkpt lat="49.35384" lon="0.45628">
        <ele>39.72</ele>
        <time>2021-03-26T08:48:35Z</time>
      </trkpt>
      <trkpt lat="49.35411" lon="0.45716">
        <ele>38.69</ele>
        <time>2021-03-26T08:48:42Z</time>
      </trkpt>
      <trkpt lat="49.35437" lon="0.45794">
        <ele>39.52</ele>
        <time>2021-03-26T08:48:49Z</time>
      </trkpt>
      <trkpt lat="49.35463" lon="0.45864">
        <ele>39.23</ele>
        <time>2021-03-26T08:48:56Z</time>
      </trkpt>
      <trkpt lat="49.35512" lon="0.45975">
        <ele>38.9</ele>
        <time>2021-03-26T08:49:03Z</time>
      </trkpt>
      <trkpt lat="49.35539" lon="0.4603">
        <ele>39.26</ele>
        <time>2021-03-26T08:49:10Z</time>
      </trkpt>
      <trkpt lat="49.35569" lon="0.46084">
        <ele>40.05</ele>
        <time>2021-03-26T08:49:18Z</time>
      </trkpt>
      <trkpt lat="49.35608" lon="0.46151">
        <ele>40.58</ele>
        <time>2021-03-26T08:49:25Z</time>
      </trkpt>
      <trkpt lat="49.3565" lon="0.46213">
        <ele>41.84</ele>
        <time>2021-03-26T08:49:32Z</time>
      </trkpt>
      <trkpt lat="49.35696" lon="0.46276">
        <ele>40.83</ele>
        <time>2021-03-26T08:49:39Z</time>
      </trkpt>
      <trkpt lat="49.35743" lon="0.46333">
        <ele>37.71</ele>
        <time>2021-03-26T08:49:46Z</time>
      </trkpt>
      <trkpt lat="49.35799" lon="0.46393">
        <ele>35.35</ele>
        <time>2021-03-26T08:49:53Z</time>
      </trkpt>
      <trkpt lat="49.35869" lon="0.46458">
        <ele>32.42</ele>
        <time>2021-03-26T08:50:01Z</time>
      </trkpt>
      <trkpt lat="49.3595" lon="0.46517">
        <ele>30.83</ele>
        <time>2021-03-26T08:50:08Z</time>
      </trkpt>
      <trkpt lat="49.36024" lon="0.46564">
        <ele>27.67</ele>
        <time>2021-03-26T08:50:15Z</time>
      </trkpt>
      <trkpt lat="49.36119" lon="0.46613">
        <ele>23.12</ele>
        <time>2021-03-26T08:50:22Z</time>
      </trkpt>
      <trkpt lat="49.36236" lon="0.46681">
        <ele>17.24</ele>
        <time>2021-03-26T08:50:29Z</time>
      </trkpt>
      <trkpt lat="49.36299" lon="0.46723">
        <ele>14.48</ele>
        <time>2021-03-26T08:50:36Z</time>
      </trkpt>
      <trkpt lat="49.36406" lon="0.46812">
        <ele>7</ele>
        <time>2021-03-26T08:50:44Z</time>
      </trkpt>
      <trkpt lat="49.3646" lon="0.46869">
        <ele>8.68</ele>
        <time>2021-03-26T08:50:51Z</time>
      </trkpt>
      <trkpt lat="49.36562" lon="0.46996">
        <ele>8.34</ele>
        <time>2021-03-26T08:50:58Z</time>
      </trkpt>
      <trkpt lat="49.36612" lon="0.47071">
        <ele>7.42</ele>
        <time>2021-03-26T08:51:05Z</time>
      </trkpt>
      <trkpt lat="49.36658" lon="0.4715">
        <ele>6.87</ele>
        <time>2021-03-26T08:51:12Z</time>
      </trkpt>
      <trkpt lat="49.36707" lon="0.47247">
        <ele>4.59</ele>
        <time>2021-03-26T08:51:19Z</time>
      </trkpt>
      <trkpt lat="49.36751" lon="0.47349">
        <ele>5.41</ele>
        <time>2021-03-26T08:51:26Z</time>
      </trkpt>
      <trkpt lat="49.36803" lon="0.47487">
        <ele>4.05</ele>
        <time>2021-03-26T08:51:34Z</time>
      </trkpt>
      <trkpt lat="49.36893" lon="0.47767">
        <ele>6.1</ele>
        <time>2021-03-26T08:51:41Z</time>
      </trkpt>
      <trkpt lat="49.36959" lon="0.47964">
        <ele>8.66</ele>
        <time>2021-03-26T08:51:48Z</time>
      </trkpt>
      <trkpt lat="49.36992" lon="0.48051">
        <ele>9.46</ele>
        <time>2021-03-26T08:51:55Z</time>
      </trkpt>
      <trkpt lat="49.37048" lon="0.48181">
        <ele>13.06</ele>
        <time>2021-03-26T08:52:02Z</time>
      </trkpt>
      <trkpt lat="49.37093" lon="0.48271">
        <ele>15.11</ele>
        <time>2021-03-26T08:52:09Z</time>
      </trkpt>
      <trkpt lat="49.37141" lon="0.48358">
        <ele>16.11</ele>
        <time>2021-03-26T08:52:17Z</time>
      </trkpt>
      <trkpt lat="49.37198" lon="0.48451">
        <ele>21.06</ele>
        <time>2021-03-26T08:52:24Z</time>
      </trkpt>
      <trkpt lat="49.37261" lon="0.48537">
        <ele>27.53</ele>
        <time>2021-03-26T08:52:31Z</time>
      </trkpt>
      <trkpt lat="49.37325" lon="0.48609">
        <ele>36.21</ele>
        <time>2021-03-26T08:52:38Z</time>
      </trkpt>
      <trkpt lat="49.37407" lon="0.48678">
        <ele>35.42</ele>
        <time>2021-03-26T08:52:45Z</time>
      </trkpt>
      <trkpt lat="49.37509" lon="0.48735">
        <ele>40.59</ele>
        <time>2021-03-26T08:52:52Z</time>
      </trkpt>
      <trkpt lat="49.37721" lon="0.48806">
        <ele>47.06</ele>
        <time>2021-03-26T08:53:00Z</time>
      </trkpt>
      <trkpt lat="49.37778" lon="0.48832">
        <ele>49.05</ele>
        <time>2021-03-26T08:53:07Z</time>
      </trkpt>
      <trkpt lat="49.37828" lon="0.48864">
        <ele>50.96</ele>
        <time>2021-03-26T08:53:14Z</time>
      </trkpt>
      <trkpt lat="49.37871" lon="0.48897">
        <ele>53.74</ele>
        <time>2021-03-26T08:53:21Z</time>
      </trkpt>
      <trkpt lat="49.37919" lon="0.48941">
        <ele>57.72</ele>
        <time>2021-03-26T08:53:28Z</time>
      </trkpt>
      <trkpt lat="49.37969" lon="0.48997">
        <ele>53.63</ele>
        <time>2021-03-26T08:53:35Z</time>
      </trkpt>
      <trkpt lat="49.38005" lon="0.49047">
        <ele>51.06</ele>
        <time>2021-03-26T08:53:43Z</time>
      </trkpt>
      <trkpt lat="49.38044" lon="0.49109">
        <ele>48.12</ele>
        <time>2021-03-26T08:53:50Z</time>
      </trkpt>
      <trkpt lat="49.38097" lon="0.49212">
        <ele>47.51</ele>
        <time>2021-03-26T08:53:57Z</time>
      </trkpt>
      <trkpt lat="49.38156" lon="0.49342">
        <ele>51.75</ele>
        <time>2021-03-26T08:54:04Z</time>
      </trkpt>
      <trkpt lat="49.38212" lon="0.4946">
        <ele>55.89</ele>
        <time>2021-03-26T08:54:11Z</time>
      </trkpt>
      <trkpt lat="49.38243" lon="0.49515">
        <ele>57.52</ele>
        <time>2021-03-26T08:54:18Z</time>
      </trkpt>
      <trkpt lat="49.38274" lon="0.49565">
        <ele>60.42</ele>
        <time>2021-03-26T08:54:25Z</time>
      </trkpt>
      <trkpt lat="49.38409" lon="0.49759">
        <ele>68.71</ele>
        <time>2021-03-26T08:54:33Z</time>
      </trkpt>
      <trkpt lat="49.38454" lon="0.49832">
        <ele>70.47</ele>
        <time>2021-03-26T08:54:40Z</time>
      </trkpt>
      <trkpt lat="49.38495" lon="0.49908">
        <ele>73.56</ele>
        <time>2021-03-26T08:54:47Z</time>
      </trkpt>
      <trkpt lat="49.38526" lon="0.49982">
        <ele>77.56</ele>
        <time>2021-03-26T08:54:54Z</time>
      </trkpt>
      <trkpt lat="49.3856" lon="0.50084">
        <ele>76.75</ele>
        <time>2021-03-26T08:55:01Z</time>
      </trkpt>
      <trkpt lat="49.3858" lon="0.50163">
        <ele>79.16</ele>
        <time>2021-03-26T08:55:08Z</time>
      </trkpt>
      <trkpt lat="49.38595" lon="0.50244">
        <ele>76.42</ele>
        <time>2021-03-26T08:55:16Z</time>
      </trkpt>
      <trkpt lat="49.38638" lon="0.50528">
        <ele>81.13</ele>
        <time>2021-03-26T08:55:23Z</time>
      </trkpt>
      <trkpt lat="49.38663" lon="0.50647">
        <ele>80.34</ele>
        <time>2021-03-26T08:55:30Z</time>
      </trkpt>
      <trkpt lat="49.3869" lon="0.50742">
        <ele>86.31</ele>
        <time>2021-03-26T08:55:37Z</time>
      </trkpt>
      <trkpt lat="49.38721" lon="0.50834">
        <ele>87.93</ele>
        <time>2021-03-26T08:55:44Z</time>
      </trkpt>
      <trkpt lat="49.38771" lon="0.50956">
        <ele>89.87</ele>
        <time>2021-03-26T08:55:51Z</time>
      </trkpt>
      <trkpt lat="49.3883" lon="0.51077">
        <ele>94.58</ele>
        <time>2021-03-26T08:55:59Z</time>
      </trkpt>
      <trkpt lat="49.39029" lon="0.51418">
        <ele>102.16</ele>
        <time>2021-03-26T08:56:06Z</time>
      </trkpt>
      <trkpt lat="49.39082" lon="0.51513">
        <ele>105.43</ele>
        <time>2021-03-26T08:56:13Z</time>
      </trkpt>
      <trkpt lat="49.39129" lon="0.51606">
        <ele>106.13</ele>
        <time>2021-03-26T08:56:20Z</time>
      </trkpt>
      <trkpt lat="49.39169" lon="0.51692">
        <ele>106</ele>
        <time>2021-03-26T08:56:27Z</time>
      </trkpt>
      <trkpt lat="49.39224" lon="0.51818">
        <ele>109.49</ele>
        <time>2021-03-26T08:56:34Z</time>
      </trkpt>
      <trkpt lat="49.39264" lon="0.51922">
        <ele>112</ele>
        <time>2021-03-26T08:56:42Z</time>
      </trkpt>
      <trkpt lat="49.39308" lon="0.52052">
        <ele>115.93</ele>
        <time>2021-03-26T08:56:49Z</time>
      </trkpt>
      <trkpt lat="49.39348" lon="0.52186">
        <ele>116.02</ele>
        <time>2021-03-26T08:56:56Z</time>
      </trkpt>
      <trkpt lat="49.39385" lon="0.52329">
        <ele>119.98</ele>
        <time>2021-03-26T08:57:03Z</time>
      </trkpt>
      <trkpt lat="49.39403" lon="0.52409">
        <ele>121</ele>
        <time>2021-03-26T08:57:10Z</time>
      </trkpt>
      <trkpt lat="49.3942" lon="0.52489">
        <ele>120.71</ele>
        <time>2021-03-26T08:57:17Z</time>
      </trkpt>
      <trkpt lat="49.39442" lon="0.52618">
        <ele>122.69</ele>
        <time>2021-03-26T08:57:24Z</time>
      </trkpt>
      <trkpt lat="49.39453" lon="0.52693">
        <ele>121.31</ele>
        <time>2021-03-26T08:57:32Z</time>
      </trkpt>
      <trkpt lat="49.39471" lon="0.52845">
        <ele>122.96</ele>
        <time>2021-03-26T08:57:39Z</time>
      </trkpt>
      <trkpt lat="49.39478" lon="0.5292">
        <ele>123</ele>
        <time>2021-03-26T08:57:46Z</time>
      </trkpt>
      <trkpt lat="49.39488" lon="0.53088">
        <ele>123</ele>
        <time>2021-03-26T08:57:53Z</time>
      </trkpt>
      <trkpt lat="49.39492" lon="0.5322">
        <ele>126.97</ele>
        <time>2021-03-26T08:58:00Z</time>
      </trkpt>
      <trkpt lat="49.39491" lon="0.53364">
        <ele>127.03</ele>
        <time>2021-03-26T08:58:07Z</time>
      </trkpt>
      <trkpt lat="49.39488" lon="0.53447">
        <ele>126.45</ele>
        <time>2021-03-26T08:58:15Z</time>
      </trkpt>
      <trkpt lat="49.39479" lon="0.53588">
        <ele>130.75</ele>
        <time>2021-03-26T08:58:22Z</time>
      </trkpt>
      <trkpt lat="49.39473" lon="0.53662">
        <ele>130.98</ele>
        <time>2021-03-26T08:58:29Z</time>
      </trkpt>
      <trkpt lat="49.39458" lon="0.53797">
        <ele>128.64</ele>
        <time>2021-03-26T08:58:36Z</time>
      </trkpt>
      <trkpt lat="49.39446" lon="0.53883">
        <ele>129.8</ele>
        <time>2021-03-26T08:58:43Z</time>
      </trkpt>
      <trkpt lat="49.39417" lon="0.54047">
        <ele>131.02</ele>
        <time>2021-03-26T08:58:50Z</time>
      </trkpt>
      <trkpt lat="49.39385" lon="0.54194">
        <ele>128.87</ele>
        <time>2021-03-26T08:58:58Z</time>
      </trkpt>
      <trkpt lat="49.39338" lon="0.54373">
        <ele>132.25</ele>
        <time>2021-03-26T08:59:05Z</time>
      </trkpt>
      <trkpt lat="49.39308" lon="0.54474">
        <ele>129.2</ele>
        <time>2021-03-26T08:59:12Z</time>
      </trkpt>
      <trkpt lat="49.39271" lon="0.54582">
        <ele>131.75</ele>
        <time>2021-03-26T08:59:19Z</time>
      </trkpt>
      <trkpt lat="49.39232" lon="0.54688">
        <ele>130.74</ele>
        <time>2021-03-26T08:59:26Z</time>
      </trkpt>
      <trkpt lat="49.3918" lon="0.54815">
        <ele>130.83</ele>
        <time>2021-03-26T08:59:33Z</time>
      </trkpt>
      <trkpt lat="49.39029" lon="0.55172">
        <ele>131.94</ele>
        <time>2021-03-26T08:59:41Z</time>
      </trkpt>
      <trkpt lat="49.38995" lon="0.55256">
        <ele>131.82</ele>
        <time>2021-03-26T08:59:48Z</time>
      </trkpt>
      <trkpt lat="49.38918" lon="0.55453">
        <ele>128.63</ele>
        <time>2021-03-26T08:59:55Z</time>
      </trkpt>
      <trkpt lat="49.3884" lon="0.55674">
        <ele>128</ele>
        <time>2021-03-26T09:00:02Z</time>
      </trkpt>
      <trkpt lat="49.38787" lon="0.55835">
        <ele>127.98</ele>
        <time>2021-03-26T09:00:09Z</time>
      </trkpt>
      <trkpt lat="49.3874" lon="0.55992">
        <ele>126.7</ele>
        <time>2021-03-26T09:00:16Z</time>
      </trkpt>
      <trkpt lat="49.38671" lon="0.56241">
        <ele>122.66</ele>
        <time>2021-03-26T09:00:23Z</time>
      </trkpt>
      <trkpt lat="49.3861" lon="0.56496">
        <ele>116.04</ele>
        <time>2021-03-26T09:00:31Z</time>
      </trkpt>
      <trkpt lat="49.38553" lon="0.56764">
        <ele>113.48</ele>
        <time>2021-03-26T09:00:38Z</time>
      </trkpt>
      <trkpt lat="49.38505" lon="0.57034">
        <ele>115.96</ele>
        <time>2021-03-26T09:00:45Z</time>
      </trkpt>
      <trkpt lat="49.38469" lon="0.57283">
        <ele>112.15</ele>
        <time>2021-03-26T09:00:52Z</time>
      </trkpt>
      <trkpt lat="49.38442" lon="0.57501">
        <ele>111.11</ele>
        <time>2021-03-26T09:00:59Z</time>
      </trkpt>
      <trkpt lat="49.38429" lon="0.57631">
        <ele>108.53</ele>
        <time>2021-03-26T09:01:06Z</time>
      </trkpt>
      <trkpt lat="49.38417" lon="0.57767">
        <ele>105.36</ele>
        <time>2021-03-26T09:01:14Z</time>
      </trkpt>
      <trkpt lat="49.38404" lon="0.57966">
        <ele>106.17</ele>
        <time>2021-03-26T09:01:21Z</time>
      </trkpt>
      <trkpt lat="49.38395" lon="0.58139">
        <ele>104.58</ele>
        <time>2021-03-26T09:01:28Z</time>
      </trkpt>
      <trkpt lat="49.38389" lon="0.58306">
        <ele>102.95</ele>
        <time>2021-03-26T09:01:35Z</time>
      </trkpt>
      <trkpt lat="49.38388" lon="0.58429">
        <ele>99.98</ele>
        <time>2021-03-26T09:01:42Z</time>
      </trkpt>
      <trkpt lat="49.38388" lon="0.58655">
        <ele>107.87</ele>
        <time>2021-03-26T09:01:49Z</time>
      </trkpt>
      <trkpt lat="49.38403" lon="0.59322">
        <ele>117.11</ele>
        <time>2021-03-26T09:01:57Z</time>
      </trkpt>
      <trkpt lat="49.38401" lon="0.59515">
        <ele>120.81</ele>
        <time>2021-03-26T09:02:04Z</time>
      </trkpt>
      <trkpt lat="49.38392" lon="0.59663">
        <ele>121.99</ele>
        <time>2021-03-26T09:02:11Z</time>
      </trkpt>
      <trkpt lat="49.38376" lon="0.59839">
        <ele>124</ele>
        <time>2021-03-26T09:02:18Z</time>
      </trkpt>
      <trkpt lat="49.38354" lon="0.59998">
        <ele>126.02</ele>
        <time>2021-03-26T09:02:25Z</time>
      </trkpt>
      <trkpt lat="49.38332" lon="0.6013">
        <ele>128.73</ele>
        <time>2021-03-26T09:02:32Z</time>
      </trkpt>
      <trkpt lat="49.3831" lon="0.60236">
        <ele>128</ele>
        <time>2021-03-26T09:02:40Z</time>
      </trkpt>
      <trkpt lat="49.38302" lon="0.60273">
        <ele>127.86</ele>
        <time>2021-03-26T09:02:47Z</time>
      </trkpt>
      <trkpt lat="49.38279" lon="0.60362">
        <ele>127.04</ele>
        <time>2021-03-26T09:02:54Z</time>
      </trkpt>
      <trkpt lat="49.38237" lon="0.60511">
        <ele>131.05</ele>
        <time>2021-03-26T09:03:01Z</time>
      </trkpt>
      <trkpt lat="49.38195" lon="0.60652">
        <ele>131.03</ele>
        <time>2021-03-26T09:03:08Z</time>
      </trkpt>
      <trkpt lat="49.3807" lon="0.61046">
        <ele>129.52</ele>
        <time>2021-03-26T09:03:15Z</time>
      </trkpt>
      <trkpt lat="49.37992" lon="0.61319">
        <ele>128.86</ele>
        <time>2021-03-26T09:03:22Z</time>
      </trkpt>
      <trkpt lat="49.37928" lon="0.61566">
        <ele>126.65</ele>
        <time>2021-03-26T09:03:30Z</time>
      </trkpt>
      <trkpt lat="49.37888" lon="0.61741">
        <ele>125.96</ele>
        <time>2021-03-26T09:03:37Z</time>
      </trkpt>
      <trkpt lat="49.37851" lon="0.61916">
        <ele>127.61</ele>
        <time>2021-03-26T09:03:44Z</time>
      </trkpt>
      <trkpt lat="49.3781" lon="0.62137">
        <ele>129.04</ele>
        <time>2021-03-26T09:03:51Z</time>
      </trkpt>
      <trkpt lat="49.37764" lon="0.62422">
        <ele>127.84</ele>
        <time>2021-03-26T09:03:58Z</time>
      </trkpt>
      <trkpt lat="49.37738" lon="0.62606">
        <ele>127.32</ele>
        <time>2021-03-26T09:04:05Z</time>
      </trkpt>
      <trkpt lat="49.37506" lon="0.645">
        <ele>120.78</ele>
        <time>2021-03-26T09:04:13Z</time>
      </trkpt>
      <trkpt lat="49.37484" lon="0.64668">
        <ele>123.56</ele>
        <time>2021-03-26T09:04:20Z</time>
      </trkpt>
      <trkpt lat="49.37434" lon="0.64992">
        <ele>125.89</ele>
        <time>2021-03-26T09:04:27Z</time>
      </trkpt>
      <trkpt lat="49.37402" lon="0.65176">
        <ele>128.34</ele>
        <time>2021-03-26T09:04:34Z</time>
      </trkpt>
      <trkpt lat="49.37323" lon="0.65621">
        <ele>129</ele>
        <time>2021-03-26T09:04:41Z</time>
      </trkpt>
      <trkpt lat="49.37293" lon="0.658">
        <ele>127.54</ele>
        <time>2021-03-26T09:04:48Z</time>
      </trkpt>
      <trkpt lat="49.37252" lon="0.66103">
        <ele>122.06</ele>
        <time>2021-03-26T09:04:56Z</time>
      </trkpt>
      <trkpt lat="49.37236" lon="0.66244">
        <ele>123.48</ele>
        <time>2021-03-26T09:05:03Z</time>
      </trkpt>
      <trkpt lat="49.37224" lon="0.66361">
        <ele>123</ele>
        <time>2021-03-26T09:05:10Z</time>
      </trkpt>
      <trkpt lat="49.3721" lon="0.66539">
        <ele>121.68</ele>
        <time>2021-03-26T09:05:17Z</time>
      </trkpt>
      <trkpt lat="49.37198" lon="0.66716">
        <ele>119</ele>
        <time>2021-03-26T09:05:24Z</time>
      </trkpt>
      <trkpt lat="49.37189" lon="0.6692">
        <ele>119.12</ele>
        <time>2021-03-26T09:05:31Z</time>
      </trkpt>
      <trkpt lat="49.37185" lon="0.67102">
        <ele>121.31</ele>
        <time>2021-03-26T09:05:39Z</time>
      </trkpt>
      <trkpt lat="49.37184" lon="0.67239">
        <ele>121.61</ele>
        <time>2021-03-26T09:05:46Z</time>
      </trkpt>
      <trkpt lat="49.37185" lon="0.67422">
        <ele>121.47</ele>
        <time>2021-03-26T09:05:53Z</time>
      </trkpt>
      <trkpt lat="49.37196" lon="0.6804">
        <ele>125.97</ele>
        <time>2021-03-26T09:06:00Z</time>
      </trkpt>
      <trkpt lat="49.37198" lon="0.68359">
        <ele>126.68</ele>
        <time>2021-03-26T09:06:07Z</time>
      </trkpt>
      <trkpt lat="49.37196" lon="0.68531">
        <ele>129</ele>
        <time>2021-03-26T09:06:14Z</time>
      </trkpt>
      <trkpt lat="49.3719" lon="0.68747">
        <ele>125.25</ele>
        <time>2021-03-26T09:06:21Z</time>
      </trkpt>
      <trkpt lat="49.37181" lon="0.68956">
        <ele>125.57</ele>
        <time>2021-03-26T09:06:29Z</time>
      </trkpt>
      <trkpt lat="49.37149" lon="0.69443">
        <ele>123.02</ele>
        <time>2021-03-26T09:06:36Z</time>
      </trkpt>
      <trkpt lat="49.37062" lon="0.70503">
        <ele>127.02</ele>
        <time>2021-03-26T09:06:43Z</time>
      </trkpt>
      <trkpt lat="49.37051" lon="0.7065">
        <ele>127.49</ele>
        <time>2021-03-26T09:06:50Z</time>
      </trkpt>
      <trkpt lat="49.37036" lon="0.70903">
        <ele>130.64</ele>
        <time>2021-03-26T09:06:57Z</time>
      </trkpt>
      <trkpt lat="49.37026" lon="0.71155">
        <ele>130.08</ele>
        <time>2021-03-26T09:07:04Z</time>
      </trkpt>
      <trkpt lat="49.37024" lon="0.71412">
        <ele>132</ele>
        <time>2021-03-26T09:07:12Z</time>
      </trkpt>
      <trkpt lat="49.37026" lon="0.7154">
        <ele>133.09</ele>
        <time>2021-03-26T09:07:19Z</time>
      </trkpt>
      <trkpt lat="49.37031" lon="0.71757">
        <ele>133.77</ele>
        <time>2021-03-26T09:07:26Z</time>
      </trkpt>
      <trkpt lat="49.37044" lon="0.72198">
        <ele>132.88</ele>
        <time>2021-03-26T09:07:33Z</time>
      </trkpt>
      <trkpt lat="49.37048" lon="0.72396">
        <ele>133.74</ele>
        <time>2021-03-26T09:07:40Z</time>
      </trkpt>
      <trkpt lat="49.3705" lon="0.72574">
        <ele>131.81</ele>
        <time>2021-03-26T09:07:47Z</time>
      </trkpt>
      <trkpt lat="49.3705" lon="0.72727">
        <ele>129.31</ele>
        <time>2021-03-26T09:07:55Z</time>
      </trkpt>
      <trkpt lat="49.37047" lon="0.72898">
        <ele>128.81</ele>
        <time>2021-03-26T09:08:02Z</time>
      </trkpt>
      <trkpt lat="49.37042" lon="0.73061">
        <ele>127.61</ele>
        <time>2021-03-26T09:08:09Z</time>
      </trkpt>
      <trkpt lat="49.37035" lon="0.73221">
        <ele>128.73</ele>
        <time>2021-03-26T09:08:16Z</time>
      </trkpt>
      <trkpt lat="49.36977" lon="0.74267">
        <ele>135.17</ele>
        <time>2021-03-26T09:08:23Z</time>
      </trkpt>
      <trkpt lat="49.3697" lon="0.7446">
        <ele>138.55</ele>
        <time>2021-03-26T09:08:30Z</time>
      </trkpt>
      <trkpt lat="49.36966" lon="0.74644">
        <ele>139.96</ele>
        <time>2021-03-26T09:08:38Z</time>
      </trkpt>
      <trkpt lat="49.36964" lon="0.74826">
        <ele>142.25</ele>
        <time>2021-03-26T09:08:45Z</time>
      </trkpt>
      <trkpt lat="49.36968" lon="0.75126">
        <ele>141.93</ele>
        <time>2021-03-26T09:08:52Z</time>
      </trkpt>
      <trkpt lat="49.36987" lon="0.75869">
        <ele>139.42</ele>
        <time>2021-03-26T09:08:59Z</time>
      </trkpt>
      <trkpt lat="49.36988" lon="0.76015">
        <ele>136.81</ele>
        <time>2021-03-26T09:09:06Z</time>
      </trkpt>
      <trkpt lat="49.36983" lon="0.76391">
        <ele>140.19</ele>
        <time>2021-03-26T09:09:13Z</time>
      </trkpt>
      <trkpt lat="49.36973" lon="0.76665">
        <ele>140</ele>
        <time>2021-03-26T09:09:20Z</time>
      </trkpt>
      <trkpt lat="49.36966" lon="0.76798">
        <ele>139</ele>
        <time>2021-03-26T09:09:28Z</time>
      </trkpt>
      <trkpt lat="49.36958" lon="0.76931">
        <ele>139.02</ele>
        <time>2021-03-26T09:09:35Z</time>
      </trkpt>
      <trkpt lat="49.36943" lon="0.77123">
        <ele>140.07</ele>
        <time>2021-03-26T09:09:42Z</time>
      </trkpt>
      <trkpt lat="49.36927" lon="0.77288">
        <ele>141.26</ele>
        <time>2021-03-26T09:09:49Z</time>
      </trkpt>
      <trkpt lat="49.36894" lon="0.776">
        <ele>136.41</ele>
        <time>2021-03-26T09:09:56Z</time>
      </trkpt>
      <trkpt lat="49.36859" lon="0.7789">
        <ele>139.85</ele>
        <time>2021-03-26T09:10:03Z</time>
      </trkpt>
      <trkpt lat="49.3666" lon="0.79378">
        <ele>143.9</ele>
        <time>2021-03-26T09:10:11Z</time>
      </trkpt>
      <trkpt lat="49.36631" lon="0.79617">
        <ele>138.29</ele>
        <time>2021-03-26T09:10:18Z</time>
      </trkpt>
      <trkpt lat="49.3661" lon="0.79815">
        <ele>137.67</ele>
        <time>2021-03-26T09:10:25Z</time>
      </trkpt>
      <trkpt lat="49.36589" lon="0.80033">
        <ele>135</ele>
        <time>2021-03-26T09:10:32Z</time>
      </trkpt>
      <trkpt lat="49.36563" lon="0.80375">
        <ele>131.74</ele>
        <time>2021-03-26T09:10:39Z</time>
      </trkpt>
      <trkpt lat="49.36302" lon="0.84611">
        <ele>126.13</ele>
        <time>2021-03-26T09:10:46Z</time>
      </trkpt>
      <trkpt lat="49.36279" lon="0.84929">
        <ele>126.94</ele>
        <time>2021-03-26T09:10:54Z</time>
      </trkpt>
      <trkpt lat="49.36265" lon="0.85105">
        <ele>128.4</ele>
        <time>2021-03-26T09:11:01Z</time>
      </trkpt>
      <trkpt lat="49.36244" lon="0.85327">
        <ele>128.46</ele>
        <time>2021-03-26T09:11:08Z</time>
      </trkpt>
      <trkpt lat="49.36209" lon="0.8562">
        <ele>127</ele>
        <time>2021-03-26T09:11:15Z</time>
      </trkpt>
      <trkpt lat="49.36159" lon="0.85949">
        <ele>132.31</ele>
        <time>2021-03-26T09:11:22Z</time>
      </trkpt>
      <trkpt lat="49.36122" lon="0.86152">
        <ele>132</ele>
        <time>2021-03-26T09:11:29Z</time>
      </trkpt>
      <trkpt lat="49.36072" lon="0.8639">
        <ele>134.22</ele>
        <time>2021-03-26T09:11:37Z</time>
      </trkpt>
      <trkpt lat="49.36027" lon="0.8658">
        <ele>135.08</ele>
        <time>2021-03-26T09:11:44Z</time>
      </trkpt>
      <trkpt lat="49.35976" lon="0.86773">
        <ele>134.02</ele>
        <time>2021-03-26T09:11:51Z</time>
      </trkpt>
      <trkpt lat="49.35949" lon="0.86872">
        <ele>134.39</ele>
        <time>2021-03-26T09:11:58Z</time>
      </trkpt>
      <trkpt lat="49.35912" lon="0.86993">
        <ele>133.47</ele>
        <time>2021-03-26T09:12:05Z</time>
      </trkpt>
      <trkpt lat="49.35857" lon="0.87166">
        <ele>131</ele>
        <time>2021-03-26T09:12:12Z</time>
      </trkpt>
      <trkpt lat="49.35813" lon="0.87295">
        <ele>129.46</ele>
        <time>2021-03-26T09:12:19Z</time>
      </trkpt>
      <trkpt lat="49.35747" lon="0.87483">
        <ele>133.25</ele>
        <time>2021-03-26T09:12:27Z</time>
      </trkpt>
      <trkpt lat="49.35692" lon="0.87624">
        <ele>132.54</ele>
        <time>2021-03-26T09:12:34Z</time>
      </trkpt>
      <trkpt lat="49.35476" lon="0.88167">
        <ele>124.56</ele>
        <time>2021-03-26T09:12:41Z</time>
      </trkpt>
      <trkpt lat="49.35404" lon="0.88352">
        <ele>124.97</ele>
        <time>2021-03-26T09:12:48Z</time>
      </trkpt>
      <trkpt lat="49.3535" lon="0.88497">
        <ele>130.05</ele>
        <time>2021-03-26T09:12:55Z</time>
      </trkpt>
      <trkpt lat="49.35306" lon="0.8862">
        <ele>128.29</ele>
        <time>2021-03-26T09:13:02Z</time>
      </trkpt>
      <trkpt lat="49.35263" lon="0.88748">
        <ele>130.58</ele>
        <time>2021-03-26T09:13:10Z</time>
      </trkpt>
      <trkpt lat="49.35203" lon="0.88939">
        <ele>131.98</ele>
        <time>2021-03-26T09:13:17Z</time>
      </trkpt>
      <trkpt lat="49.3514" lon="0.89155">
        <ele>133.59</ele>
        <time>2021-03-26T09:13:24Z</time>
      </trkpt>
      <trkpt lat="49.35065" lon="0.8945">
        <ele>132.86</ele>
        <time>2021-03-26T09:13:31Z</time>
      </trkpt>
      <trkpt lat="49.34912" lon="0.90155">
        <ele>128.36</ele>
        <time>2021-03-26T09:13:38Z</time>
      </trkpt>
      <trkpt lat="49.34872" lon="0.90321">
        <ele>132</ele>
        <time>2021-03-26T09:13:45Z</time>
      </trkpt>
      <trkpt lat="49.3483" lon="0.90484">
        <ele>132</ele>
        <time>2021-03-26T09:13:53Z</time>
      </trkpt>
      <trkpt lat="49.34764" lon="0.90722">
        <ele>132.97</ele>
        <time>2021-03-26T09:14:00Z</time>
      </trkpt>
      <trkpt lat="49.34724" lon="0.90856">
        <ele>133.34</ele>
        <time>2021-03-26T09:14:07Z</time>
      </trkpt>
      <trkpt lat="49.34584" lon="0.91317">
        <ele>125.21</ele>
        <time>2021-03-26T09:14:14Z</time>
      </trkpt>
      <trkpt lat="49.34543" lon="0.91458">
        <ele>125.55</ele>
        <time>2021-03-26T09:14:21Z</time>
      </trkpt>
      <trkpt lat="49.34498" lon="0.91622">
        <ele>131.8</ele>
        <time>2021-03-26T09:14:28Z</time>
      </trkpt>
      <trkpt lat="49.34432" lon="0.91893">
        <ele>127.91</ele>
        <time>2021-03-26T09:14:36Z</time>
      </trkpt>
      <trkpt lat="49.3435" lon="0.9228">
        <ele>120.53</ele>
        <time>2021-03-26T09:14:43Z</time>
      </trkpt>
      <trkpt lat="49.34215" lon="0.92951">
        <ele>117</ele>
        <time>2021-03-26T09:14:50Z</time>
      </trkpt>
      <trkpt lat="49.34118" lon="0.93459">
        <ele>128.5</ele>
        <time>2021-03-26T09:14:57Z</time>
      </trkpt>
      <trkpt lat="49.34066" lon="0.93781">
        <ele>130.27</ele>
        <time>2021-03-26T09:15:04Z</time>
      </trkpt>
      <trkpt lat="49.3404" lon="0.9397">
        <ele>126.83</ele>
        <time>2021-03-26T09:15:11Z</time>
      </trkpt>
      <trkpt lat="49.33964" lon="0.94584">
        <ele>120.66</ele>
        <time>2021-03-26T09:15:18Z</time>
      </trkpt>
      <trkpt lat="49.33896" lon="0.95079">
        <ele>114.2</ele>
        <time>2021-03-26T09:15:26Z</time>
      </trkpt>
      <trkpt lat="49.33887" lon="0.95164">
        <ele>116.72</ele>
        <time>2021-03-26T09:15:33Z</time>
      </trkpt>
      <trkpt lat="49.3388" lon="0.9525">
        <ele>118</ele>
        <time>2021-03-26T09:15:40Z</time>
      </trkpt>
      <trkpt lat="49.33876" lon="0.95339">
        <ele>113.47</ele>
        <time>2021-03-26T09:15:47Z</time>
      </trkpt>
      <trkpt lat="49.33875" lon="0.95428">
        <ele>110.11</ele>
        <time>2021-03-26T09:15:54Z</time>
      </trkpt>
      <trkpt lat="49.33876" lon="0.9554">
        <ele>102.94</ele>
        <time>2021-03-26T09:16:01Z</time>
      </trkpt>
      <trkpt lat="49.33881" lon="0.95652">
        <ele>101.61</ele>
        <time>2021-03-26T09:16:09Z</time>
      </trkpt>
      <trkpt lat="49.33908" lon="0.96081">
        <ele>84.79</ele>
        <time>2021-03-26T09:16:16Z</time>
      </trkpt>
      <trkpt lat="49.3391" lon="0.96181">
        <ele>86.17</ele>
        <time>2021-03-26T09:16:23Z</time>
      </trkpt>
      <trkpt lat="49.33908" lon="0.96271">
        <ele>92.61</ele>
        <time>2021-03-26T09:16:30Z</time>
      </trkpt>
      <trkpt lat="49.33903" lon="0.96355">
        <ele>103.37</ele>
        <time>2021-03-26T09:16:37Z</time>
      </trkpt>
      <trkpt lat="49.3389" lon="0.96461">
        <ele>109.37</ele>
        <time>2021-03-26T09:16:44Z</time>
      </trkpt>
      <trkpt lat="49.33876" lon="0.96551">
        <ele>107.61</ele>
        <time>2021-03-26T09:16:52Z</time>
      </trkpt>
      <trkpt lat="49.33824" lon="0.96828">
        <ele>111.87</ele>
        <time>2021-03-26T09:16:59Z</time>
      </trkpt>
      <trkpt lat="49.33809" lon="0.96921">
        <ele>112.75</ele>
        <time>2021-03-26T09:17:06Z</time>
      </trkpt>
      <trkpt lat="49.33797" lon="0.97041">
        <ele>113.98</ele>
        <time>2021-03-26T09:17:13Z</time>
      </trkpt>
      <trkpt lat="49.33791" lon="0.97137">
        <ele>121.31</ele>
        <time>2021-03-26T09:17:20Z</time>
      </trkpt>
      <trkpt lat="49.33791" lon="0.97201">
        <ele>120.42</ele>
        <time>2021-03-26T09:17:27Z</time>
      </trkpt>
      <trkpt lat="49.33792" lon="0.97293">
        <ele>124.39</ele>
        <time>2021-03-26T09:17:35Z</time>
      </trkpt>
      <trkpt lat="49.33808" lon="0.97568">
        <ele>121.35</ele>
        <time>2021-03-26T09:17:42Z</time>
      </trkpt>
      <trkpt lat="49.33824" lon="0.97906">
        <ele>123.78</ele>
        <time>2021-03-26T09:17:49Z</time>
      </trkpt>
      <trkpt lat="49.33847" lon="0.98382">
        <ele>133.99</ele>
        <time>2021-03-26T09:17:56Z</time>
      </trkpt>
      <trkpt lat="49.33855" lon="0.98633">
        <ele>135.85</ele>
        <time>2021-03-26T09:18:03Z</time>
      </trkpt>
      <trkpt lat="49.33856" lon="0.98796">
        <ele>135.36</ele>
        <time>2021-03-26T09:18:10Z</time>
      </trkpt>
      <trkpt lat="49.33852" lon="0.98996">
        <ele>135.53</ele>
        <time>2021-03-26T09:18:17Z</time>
      </trkpt>
      <trkpt lat="49.33848" lon="0.99099">
        <ele>140.57</ele>
        <time>2021-03-26T09:18:25Z</time>
      </trkpt>
      <trkpt lat="49.33837" lon="0.99267">
        <ele>140.82</ele>
        <time>2021-03-26T09:18:32Z</time>
      </trkpt>
      <trkpt lat="49.33823" lon="0.99448">
        <ele>142.48</ele>
        <time>2021-03-26T09:18:39Z</time>
      </trkpt>
      <trkpt lat="49.33782" lon="0.99902">
        <ele>140.25</ele>
        <time>2021-03-26T09:18:46Z</time>
      </trkpt>
      <trkpt lat="49.33767" lon="1.00091">
        <ele>138.52</ele>
        <time>2021-03-26T09:18:53Z</time>
      </trkpt>
      <trkpt lat="49.33755" lon="1.00265">
        <ele>135.34</ele>
        <time>2021-03-26T09:19:00Z</time>
      </trkpt>
      <trkpt lat="49.33749" lon="1.0043">
        <ele>132.98</ele>
        <time>2021-03-26T09:19:08Z</time>
      </trkpt>
      <trkpt lat="49.33749" lon="1.00522">
        <ele>131.97</ele>
        <time>2021-03-26T09:19:15Z</time>
      </trkpt>
      <trkpt lat="49.33751" lon="1.00614">
        <ele>133.96</ele>
        <time>2021-03-26T09:19:22Z</time>
      </trkpt>
      <trkpt lat="49.3376" lon="1.00787">
        <ele>131.17</ele>
        <time>2021-03-26T09:19:29Z</time>
      </trkpt>
      <trkpt lat="49.33772" lon="1.00912">
        <ele>130.76</ele>
        <time>2021-03-26T09:19:36Z</time>
      </trkpt>
      <trkpt lat="49.33787" lon="1.01037">
        <ele>130.67</ele>
        <time>2021-03-26T09:19:43Z</time>
      </trkpt>
      <trkpt lat="49.33799" lon="1.01123">
        <ele>128.8</ele>
        <time>2021-03-26T09:19:51Z</time>
      </trkpt>
      <trkpt lat="49.33814" lon="1.01206">
        <ele>128</ele>
        <time>2021-03-26T09:19:58Z</time>
      </trkpt>
      <trkpt lat="49.33845" lon="1.01366">
        <ele>131.26</ele>
        <time>2021-03-26T09:20:05Z</time>
      </trkpt>
      <trkpt lat="49.34003" lon="1.02062">
        <ele>122.79</ele>
        <time>2021-03-26T09:20:12Z</time>
      </trkpt>
      <trkpt lat="49.34048" lon="1.02269">
        <ele>121.68</ele>
        <time>2021-03-26T09:20:19Z</time>
      </trkpt>
      <trkpt lat="49.34103" lon="1.0256">
        <ele>124</ele>
        <time>2021-03-26T09:20:26Z</time>
      </trkpt>
      <trkpt lat="49.34142" lon="1.02792">
        <ele>127.45</ele>
        <time>2021-03-26T09:20:34Z</time>
      </trkpt>
      <trkpt lat="49.3425" lon="1.03473">
        <ele>126.04</ele>
        <time>2021-03-26T09:20:41Z</time>
      </trkpt>
      <trkpt lat="49.34312" lon="1.03875">
        <ele>126.93</ele>
        <time>2021-03-26T09:20:48Z</time>
      </trkpt>
      <trkpt lat="49.34353" lon="1.04155">
        <ele>125</ele>
        <time>2021-03-26T09:20:55Z</time>
      </trkpt>
      <trkpt lat="49.34362" lon="1.04243">
        <ele>124.02</ele>
        <time>2021-03-26T09:21:02Z</time>
      </trkpt>
      <trkpt lat="49.34376" lon="1.04466">
        <ele>118.69</ele>
        <time>2021-03-26T09:21:09Z</time>
      </trkpt>
      <trkpt lat="49.34379" lon="1.04587">
        <ele>118.32</ele>
        <time>2021-03-26T09:21:16Z</time>
      </trkpt>
      <trkpt lat="49.34378" lon="1.04701">
        <ele>115.18</ele>
        <time>2021-03-26T09:21:24Z</time>
      </trkpt>
      <trkpt lat="49.34373" lon="1.04829">
        <ele>114.85</ele>
        <time>2021-03-26T09:21:31Z</time>
      </trkpt>
      <trkpt lat="49.34368" lon="1.04905">
        <ele>116.1</ele>
        <time>2021-03-26T09:21:38Z</time>
      </trkpt>
      <trkpt lat="49.34362" lon="1.04981">
        <ele>112.68</ele>
        <time>2021-03-26T09:21:45Z</time>
      </trkpt>
      <trkpt lat="49.34343" lon="1.05174">
        <ele>110</ele>
        <time>2021-03-26T09:21:52Z</time>
      </trkpt>
      <trkpt lat="49.34333" lon="1.05295">
        <ele>109.42</ele>
        <time>2021-03-26T09:21:59Z</time>
      </trkpt>
      <trkpt lat="49.3433" lon="1.05371">
        <ele>108.2</ele>
        <time>2021-03-26T09:22:07Z</time>
      </trkpt>
      <trkpt lat="49.34321" lon="1.05711">
        <ele>97.51</ele>
        <time>2021-03-26T09:22:14Z</time>
      </trkpt>
      <trkpt lat="49.34315" lon="1.05821">
        <ele>92.73</ele>
        <time>2021-03-26T09:22:21Z</time>
      </trkpt>
      <trkpt lat="49.34307" lon="1.05903">
        <ele>91.71</ele>
        <time>2021-03-26T09:22:28Z</time>
      </trkpt>
      <trkpt lat="49.34298" lon="1.05986">
        <ele>87.19</ele>
        <time>2021-03-26T09:22:35Z</time>
      </trkpt>
      <trkpt lat="49.34284" lon="1.06075">
        <ele>82.85</ele>
        <time>2021-03-26T09:22:42Z</time>
      </trkpt>
      <trkpt lat="49.34253" lon="1.06225">
        <ele>79.74</ele>
        <time>2021-03-26T09:22:50Z</time>
      </trkpt>
      <trkpt lat="49.34226" lon="1.06327">
        <ele>76.68</ele>
        <time>2021-03-26T09:22:57Z</time>
      </trkpt>
      <trkpt lat="49.34197" lon="1.06419">
        <ele>73.58</ele>
        <time>2021-03-26T09:23:04Z</time>
      </trkpt>
      <trkpt lat="49.34165" lon="1.06508">
        <ele>73.87</ele>
        <time>2021-03-26T09:23:11Z</time>
      </trkpt>
      <trkpt lat="49.3412" lon="1.06611">
        <ele>70.34</ele>
        <time>2021-03-26T09:23:18Z</time>
      </trkpt>
      <trkpt lat="49.34085" lon="1.06685">
        <ele>66.67</ele>
        <time>2021-03-26T09:23:25Z</time>
      </trkpt>
      <trkpt lat="49.3404" lon="1.06768">
        <ele>64.54</ele>
        <time>2021-03-26T09:23:33Z</time>
      </trkpt>
      <trkpt lat="49.33944" lon="1.06939">
        <ele>55.57</ele>
        <time>2021-03-26T09:23:40Z</time>
      </trkpt>
      <trkpt lat="49.32979" lon="1.08654">
        <ele>8.65</ele>
        <time>2021-03-26T09:23:47Z</time>
      </trkpt>
      <trkpt lat="49.32883" lon="1.08824">
        <ele>8.48</ele>
        <time>2021-03-26T09:23:54Z</time>
      </trkpt>
      <trkpt lat="49.32498" lon="1.09505">
        <ele>10.39</ele>
        <time>2021-03-26T09:24:01Z</time>
      </trkpt>
      <trkpt lat="49.32364" lon="1.09731">
        <ele>22.33</ele>
        <time>2021-03-26T09:24:08Z</time>
      </trkpt>
      <trkpt lat="49.32249" lon="1.09914">
        <ele>33.54</ele>
        <time>2021-03-26T09:24:15Z</time>
      </trkpt>
      <trkpt lat="49.32193" lon="1.09999">
        <ele>35.33</ele>
        <time>2021-03-26T09:24:23Z</time>
      </trkpt>
      <trkpt lat="49.32097" lon="1.10135">
        <ele>33.68</ele>
        <time>2021-03-26T09:24:30Z</time>
      </trkpt>
      <trkpt lat="49.32009" lon="1.10256">
        <ele>26.04</ele>
        <time>2021-03-26T09:24:37Z</time>
      </trkpt>
      <trkpt lat="49.31944" lon="1.10339">
        <ele>21.93</ele>
        <time>2021-03-26T09:24:44Z</time>
      </trkpt>
      <trkpt lat="49.31872" lon="1.10427">
        <ele>15.42</ele>
        <time>2021-03-26T09:24:51Z</time>
      </trkpt>
      <trkpt lat="49.31722" lon="1.10601">
        <ele>9.97</ele>
        <time>2021-03-26T09:24:58Z</time>
      </trkpt>
      <trkpt lat="49.31601" lon="1.10728">
        <ele>6.44</ele>
        <time>2021-03-26T09:25:06Z</time>
      </trkpt>
      <trkpt lat="49.31469" lon="1.10857">
        <ele>5</ele>
        <time>2021-03-26T09:25:13Z</time>
      </trkpt>
      <trkpt lat="49.31368" lon="1.1095">
        <ele>5</ele>
        <time>2021-03-26T09:25:20Z</time>
      </trkpt>
      <trkpt lat="49.31251" lon="1.11049">
        <ele>5</ele>
        <time>2021-03-26T09:25:27Z</time>
      </trkpt>
      <trkpt lat="49.31187" lon="1.111">
        <ele>6</ele>
        <time>2021-03-26T09:25:34Z</time>
      </trkpt>
      <trkpt lat="49.30419" lon="1.11672">
        <ele>20.05</ele>
        <time>2021-03-26T09:25:41Z</time>
      </trkpt>
      <trkpt lat="49.3035" lon="1.11722">
        <ele>21</ele>
        <time>2021-03-26T09:25:49Z</time>
      </trkpt>
      <trkpt lat="49.30193" lon="1.11828">
        <ele>22</ele>
        <time>2021-03-26T09:25:56Z</time>
      </trkpt>
      <trkpt lat="49.30074" lon="1.11901">
        <ele>21.34</ele>
        <time>2021-03-26T09:26:03Z</time>
      </trkpt>
      <trkpt lat="49.30021" lon="1.11932">
        <ele>22.53</ele>
        <time>2021-03-26T09:26:10Z</time>
      </trkpt>
      <trkpt lat="49.29923" lon="1.11983">
        <ele>29.67</ele>
        <time>2021-03-26T09:26:17Z</time>
      </trkpt>
      <trkpt lat="49.29713" lon="1.12083">
        <ele>30.67</ele>
        <time>2021-03-26T09:26:24Z</time>
      </trkpt>
      <trkpt lat="49.29349" lon="1.12239">
        <ele>43.05</ele>
        <time>2021-03-26T09:26:32Z</time>
      </trkpt>
      <trkpt lat="49.28266" lon="1.12696">
        <ele>75.03</ele>
        <time>2021-03-26T09:26:39Z</time>
      </trkpt>
      <trkpt lat="49.2811" lon="1.12765">
        <ele>84.52</ele>
        <time>2021-03-26T09:26:46Z</time>
      </trkpt>
      <trkpt lat="49.27946" lon="1.12845">
        <ele>90.42</ele>
        <time>2021-03-26T09:26:53Z</time>
      </trkpt>
      <trkpt lat="49.27861" lon="1.1289">
        <ele>97.04</ele>
        <time>2021-03-26T09:27:00Z</time>
      </trkpt>
      <trkpt lat="49.2777" lon="1.12942">
        <ele>102.91</ele>
        <time>2021-03-26T09:27:07Z</time>
      </trkpt>
      <trkpt lat="49.27628" lon="1.13029">
        <ele>113</ele>
        <time>2021-03-26T09:27:14Z</time>
      </trkpt>
      <trkpt lat="49.27537" lon="1.13091">
        <ele>114.58</ele>
        <time>2021-03-26T09:27:22Z</time>
      </trkpt>
      <trkpt lat="49.27421" lon="1.13173">
        <ele>119.45</ele>
        <time>2021-03-26T09:27:29Z</time>
      </trkpt>
      <trkpt lat="49.27353" lon="1.13224">
        <ele>122.13</ele>
        <time>2021-03-26T09:27:36Z</time>
      </trkpt>
      <trkpt lat="49.27273" lon="1.13287">
        <ele>124.47</ele>
        <time>2021-03-26T09:27:43Z</time>
      </trkpt>
      <trkpt lat="49.27131" lon="1.13407">
        <ele>129.74</ele>
        <time>2021-03-26T09:27:50Z</time>
      </trkpt>
      <trkpt lat="49.27057" lon="1.13474">
        <ele>132.75</ele>
        <time>2021-03-26T09:27:57Z</time>
      </trkpt>
      <trkpt lat="49.2694" lon="1.13586">
        <ele>134.95</ele>
        <time>2021-03-26T09:28:05Z</time>
      </trkpt>
      <trkpt lat="49.26856" lon="1.1367">
        <ele>132.82</ele>
        <time>2021-03-26T09:28:12Z</time>
      </trkpt>
      <trkpt lat="49.26706" lon="1.13833">
        <ele>134.19</ele>
        <time>2021-03-26T09:28:19Z</time>
      </trkpt>
      <trkpt lat="49.26645" lon="1.13903">
        <ele>134.5</ele>
        <time>2021-03-26T09:28:26Z</time>
      </trkpt>
      <trkpt lat="49.26543" lon="1.14026">
        <ele>131.68</ele>
        <time>2021-03-26T09:28:33Z</time>
      </trkpt>
      <trkpt lat="49.26487" lon="1.14097">
        <ele>128.52</ele>
        <time>2021-03-26T09:28:40Z</time>
      </trkpt>
      <trkpt lat="49.2639" lon="1.14225">
        <ele>127.95</ele>
        <time>2021-03-26T09:28:48Z</time>
      </trkpt>
      <trkpt lat="49.26341" lon="1.14292">
        <ele>127.22</ele>
        <time>2021-03-26T09:28:55Z</time>
      </trkpt>
      <trkpt lat="49.2626" lon="1.14409">
        <ele>125.37</ele>
        <time>2021-03-26T09:29:02Z</time>
      </trkpt>
      <trkpt lat="49.26149" lon="1.14578">
        <ele>120.9</ele>
        <time>2021-03-26T09:29:09Z</time>
      </trkpt>
      <trkpt lat="49.26078" lon="1.14693">
        <ele>122.66</ele>
        <time>2021-03-26T09:29:16Z</time>
      </trkpt>
      <trkpt lat="49.25977" lon="1.14865">
        <ele>123.73</ele>
        <time>2021-03-26T09:29:23Z</time>
      </trkpt>
      <trkpt lat="49.25914" lon="1.14978">
        <ele>118.84</ele>
        <time>2021-03-26T09:29:31Z</time>
      </trkpt>
      <trkpt lat="49.25845" lon="1.15109">
        <ele>115.04</ele>
        <time>2021-03-26T09:29:38Z</time>
      </trkpt>
      <trkpt lat="49.25787" lon="1.15225">
        <ele>108.57</ele>
        <time>2021-03-26T09:29:45Z</time>
      </trkpt>
      <trkpt lat="49.25692" lon="1.15424">
        <ele>108.01</ele>
        <time>2021-03-26T09:29:52Z</time>
      </trkpt>
      <trkpt lat="49.2562" lon="1.15587">
        <ele>102.53</ele>
        <time>2021-03-26T09:29:59Z</time>
      </trkpt>
      <trkpt lat="49.25511" lon="1.15851">
        <ele>86.93</ele>
        <time>2021-03-26T09:30:06Z</time>
      </trkpt>
      <trkpt lat="49.25446" lon="1.16024">
        <ele>81.07</ele>
        <time>2021-03-26T09:30:13Z</time>
      </trkpt>
      <trkpt lat="49.25389" lon="1.1618">
        <ele>80</ele>
        <time>2021-03-26T09:30:21Z</time>
      </trkpt>
      <trkpt lat="49.24877" lon="1.17626">
        <ele>29</ele>
        <time>2021-03-26T09:30:28Z</time>
      </trkpt>
      <trkpt lat="49.24668" lon="1.18213">
        <ele>22.73</ele>
        <time>2021-03-26T09:30:35Z</time>
      </trkpt>
      <trkpt lat="49.24623" lon="1.18336">
        <ele>20</ele>
        <time>2021-03-26T09:30:42Z</time>
      </trkpt>
      <trkpt lat="49.24575" lon="1.18459">
        <ele>19.91</ele>
        <time>2021-03-26T09:30:49Z</time>
      </trkpt>
      <trkpt lat="49.24513" lon="1.18614">
        <ele>17.95</ele>
        <time>2021-03-26T09:30:56Z</time>
      </trkpt>
      <trkpt lat="49.24426" lon="1.18812">
        <ele>13</ele>
        <time>2021-03-26T09:31:04Z</time>
      </trkpt>
      <trkpt lat="49.24366" lon="1.18938">
        <ele>14.06</ele>
        <time>2021-03-26T09:31:11Z</time>
      </trkpt>
      <trkpt lat="49.24248" lon="1.19166">
        <ele>15.82</ele>
        <time>2021-03-26T09:31:18Z</time>
      </trkpt>
      <trkpt lat="49.24152" lon="1.19335">
        <ele>23.46</ele>
        <time>2021-03-26T09:31:25Z</time>
      </trkpt>
      <trkpt lat="49.24103" lon="1.19416">
        <ele>27.19</ele>
        <time>2021-03-26T09:31:32Z</time>
      </trkpt>
      <trkpt lat="49.24036" lon="1.19521">
        <ele>32.07</ele>
        <time>2021-03-26T09:31:39Z</time>
      </trkpt>
      <trkpt lat="49.23969" lon="1.19621">
        <ele>40.26</ele>
        <time>2021-03-26T09:31:47Z</time>
      </trkpt>
      <trkpt lat="49.23836" lon="1.19805">
        <ele>48.73</ele>
        <time>2021-03-26T09:31:54Z</time>
      </trkpt>
      <trkpt lat="49.23768" lon="1.19894">
        <ele>51.97</ele>
        <time>2021-03-26T09:32:01Z</time>
      </trkpt>
      <trkpt lat="49.23686" lon="1.19994">
        <ele>57.15</ele>
        <time>2021-03-26T09:32:08Z</time>
      </trkpt>
      <trkpt lat="49.23601" lon="1.2009">
        <ele>61.79</ele>
        <time>2021-03-26T09:32:15Z</time>
      </trkpt>
      <trkpt lat="49.23513" lon="1.20185">
        <ele>70.15</ele>
        <time>2021-03-26T09:32:22Z</time>
      </trkpt>
      <trkpt lat="49.23417" lon="1.2028">
        <ele>75.7</ele>
        <time>2021-03-26T09:32:30Z</time>
      </trkpt>
      <trkpt lat="49.2334" lon="1.20354">
        <ele>81.83</ele>
        <time>2021-03-26T09:32:37Z</time>
      </trkpt>
      <trkpt lat="49.23266" lon="1.20421">
        <ele>85.86</ele>
        <time>2021-03-26T09:32:44Z</time>
      </trkpt>
      <trkpt lat="49.23175" lon="1.20497">
        <ele>90.61</ele>
        <time>2021-03-26T09:32:51Z</time>
      </trkpt>
      <trkpt lat="49.23084" lon="1.20568">
        <ele>96.39</ele>
        <time>2021-03-26T09:32:58Z</time>
      </trkpt>
      <trkpt lat="49.22918" lon="1.2069">
        <ele>102.72</ele>
        <time>2021-03-26T09:33:05Z</time>
      </trkpt>
      <trkpt lat="49.21363" lon="1.2174">
        <ele>123.6</ele>
        <time>2021-03-26T09:33:12Z</time>
      </trkpt>
      <trkpt lat="49.19448" lon="1.2303">
        <ele>132.99</ele>
        <time>2021-03-26T09:33:20Z</time>
      </trkpt>
      <trkpt lat="49.19146" lon="1.23219">
        <ele>137.08</ele>
        <time>2021-03-26T09:33:27Z</time>
      </trkpt>
      <trkpt lat="49.19027" lon="1.23302">
        <ele>138.15</ele>
        <time>2021-03-26T09:33:34Z</time>
      </trkpt>
      <trkpt lat="49.1894" lon="1.2337">
        <ele>143.31</ele>
        <time>2021-03-26T09:33:41Z</time>
      </trkpt>
      <trkpt lat="49.18462" lon="1.23696">
        <ele>142.44</ele>
        <time>2021-03-26T09:33:48Z</time>
      </trkpt>
      <trkpt lat="49.18252" lon="1.23849">
        <ele>148.47</ele>
        <time>2021-03-26T09:33:55Z</time>
      </trkpt>
      <trkpt lat="49.18114" lon="1.23955">
        <ele>148.82</ele>
        <time>2021-03-26T09:34:03Z</time>
      </trkpt>
      <trkpt lat="49.17979" lon="1.24065">
        <ele>147.17</ele>
        <time>2021-03-26T09:34:10Z</time>
      </trkpt>
      <trkpt lat="49.17845" lon="1.24178">
        <ele>146.01</ele>
        <time>2021-03-26T09:34:17Z</time>
      </trkpt>
      <trkpt lat="49.17721" lon="1.2429">
        <ele>145</ele>
        <time>2021-03-26T09:34:24Z</time>
      </trkpt>
      <trkpt lat="49.17615" lon="1.24391">
        <ele>142.78</ele>
        <time>2021-03-26T09:34:31Z</time>
      </trkpt>
      <trkpt lat="49.17461" lon="1.24546">
        <ele>135.94</ele>
        <time>2021-03-26T09:34:38Z</time>
      </trkpt>
      <trkpt lat="49.1735" lon="1.24663">
        <ele>135.58</ele>
        <time>2021-03-26T09:34:46Z</time>
      </trkpt>
      <trkpt lat="49.1724" lon="1.24784">
        <ele>136.48</ele>
        <time>2021-03-26T09:34:53Z</time>
      </trkpt>
      <trkpt lat="49.17141" lon="1.24898">
        <ele>138.35</ele>
        <time>2021-03-26T09:35:00Z</time>
      </trkpt>
      <trkpt lat="49.17012" lon="1.25055">
        <ele>134.43</ele>
        <time>2021-03-26T09:35:07Z</time>
      </trkpt>
      <trkpt lat="49.16854" lon="1.25258">
        <ele>126.93</ele>
        <time>2021-03-26T09:35:14Z</time>
      </trkpt>
      <trkpt lat="49.16772" lon="1.25368">
        <ele>128.81</ele>
        <time>2021-03-26T09:35:21Z</time>
      </trkpt>
      <trkpt lat="49.16696" lon="1.25475">
        <ele>127.09</ele>
        <time>2021-03-26T09:35:29Z</time>
      </trkpt>
      <trkpt lat="49.16588" lon="1.25631">
        <ele>128.61</ele>
        <time>2021-03-26T09:35:36Z</time>
      </trkpt>
      <trkpt lat="49.16499" lon="1.25767">
        <ele>128.67</ele>
        <time>2021-03-26T09:35:43Z</time>
      </trkpt>
      <trkpt lat="49.16412" lon="1.25905">
        <ele>133.31</ele>
        <time>2021-03-26T09:35:50Z</time>
      </trkpt>
      <trkpt lat="49.16326" lon="1.26046">
        <ele>135.81</ele>
        <time>2021-03-26T09:35:57Z</time>
      </trkpt>
      <trkpt lat="49.1624" lon="1.26192">
        <ele>138.42</ele>
        <time>2021-03-26T09:36:04Z</time>
      </trkpt>
      <trkpt lat="49.1614" lon="1.26372">
        <ele>139.58</ele>
        <time>2021-03-26T09:36:11Z</time>
      </trkpt>
      <trkpt lat="49.16089" lon="1.26468">
        <ele>140.8</ele>
        <time>2021-03-26T09:36:19Z</time>
      </trkpt>
      <trkpt lat="49.1594" lon="1.26762">
        <ele>146.42</ele>
        <time>2021-03-26T09:36:26Z</time>
      </trkpt>
      <trkpt lat="49.1542" lon="1.2783">
        <ele>147.63</ele>
        <time>2021-03-26T09:36:33Z</time>
      </trkpt>
      <trkpt lat="49.15324" lon="1.28041">
        <ele>149.9</ele>
        <time>2021-03-26T09:36:40Z</time>
      </trkpt>
      <trkpt lat="49.14859" lon="1.29116">
        <ele>139.34</ele>
        <time>2021-03-26T09:36:47Z</time>
      </trkpt>
      <trkpt lat="49.14769" lon="1.29316">
        <ele>145.33</ele>
        <time>2021-03-26T09:36:54Z</time>
      </trkpt>
      <trkpt lat="49.14653" lon="1.29558">
        <ele>142.5</ele>
        <time>2021-03-26T09:37:02Z</time>
      </trkpt>
      <trkpt lat="49.1451" lon="1.29836">
        <ele>141.65</ele>
        <time>2021-03-26T09:37:09Z</time>
      </trkpt>
      <trkpt lat="49.14417" lon="1.30007">
        <ele>140.98</ele>
        <time>2021-03-26T09:37:16Z</time>
      </trkpt>
      <trkpt lat="49.14302" lon="1.30206">
        <ele>142</ele>
        <time>2021-03-26T09:37:23Z</time>
      </trkpt>
      <trkpt lat="49.14183" lon="1.304">
        <ele>138.15</ele>
        <time>2021-03-26T09:37:30Z</time>
      </trkpt>
      <trkpt lat="49.14081" lon="1.30561">
        <ele>139.98</ele>
        <time>2021-03-26T09:37:37Z</time>
      </trkpt>
      <trkpt lat="49.13957" lon="1.30746">
        <ele>137.44</ele>
        <time>2021-03-26T09:37:45Z</time>
      </trkpt>
      <trkpt lat="49.13901" lon="1.30825">
        <ele>138.61</ele>
        <time>2021-03-26T09:37:52Z</time>
      </trkpt>
      <trkpt lat="49.13737" lon="1.31045">
        <ele>137.49</ele>
        <time>2021-03-26T09:37:59Z</time>
      </trkpt>
      <trkpt lat="49.13511" lon="1.31334">
        <ele>138.61</ele>
        <time>2021-03-26T09:38:06Z</time>
      </trkpt>
      <trkpt lat="49.13027" lon="1.31945">
        <ele>138.94</ele>
        <time>2021-03-26T09:38:13Z</time>
      </trkpt>
      <trkpt lat="49.12932" lon="1.32058">
        <ele>135</ele>
        <time>2021-03-26T09:38:20Z</time>
      </trkpt>
      <trkpt lat="49.12818" lon="1.32188">
        <ele>135.45</ele>
        <time>2021-03-26T09:38:28Z</time>
      </trkpt>
      <trkpt lat="49.12759" lon="1.32253">
        <ele>136.09</ele>
        <time>2021-03-26T09:38:35Z</time>
      </trkpt>
      <trkpt lat="49.12583" lon="1.3244">
        <ele>136</ele>
        <time>2021-03-26T09:38:42Z</time>
      </trkpt>
      <trkpt lat="49.12442" lon="1.32578">
        <ele>135.18</ele>
        <time>2021-03-26T09:38:49Z</time>
      </trkpt>
      <trkpt lat="49.12304" lon="1.32707">
        <ele>138.51</ele>
        <time>2021-03-26T09:38:56Z</time>
      </trkpt>
      <trkpt lat="49.1218" lon="1.32814">
        <ele>135.84</ele>
        <time>2021-03-26T09:39:03Z</time>
      </trkpt>
      <trkpt lat="49.11696" lon="1.33217">
        <ele>130.67</ele>
        <time>2021-03-26T09:39:10Z</time>
      </trkpt>
      <trkpt lat="49.1152" lon="1.3337">
        <ele>133.33</ele>
        <time>2021-03-26T09:39:18Z</time>
      </trkpt>
      <trkpt lat="49.11405" lon="1.33477">
        <ele>131.03</ele>
        <time>2021-03-26T09:39:25Z</time>
      </trkpt>
      <trkpt lat="49.1131" lon="1.3357">
        <ele>130</ele>
        <time>2021-03-26T09:39:32Z</time>
      </trkpt>
      <trkpt lat="49.11182" lon="1.337">
        <ele>130.56</ele>
        <time>2021-03-26T09:39:39Z</time>
      </trkpt>
      <trkpt lat="49.11076" lon="1.33812">
        <ele>129.94</ele>
        <time>2021-03-26T09:39:46Z</time>
      </trkpt>
      <trkpt lat="49.10998" lon="1.33899">
        <ele>125.97</ele>
        <time>2021-03-26T09:39:53Z</time>
      </trkpt>
      <trkpt lat="49.10862" lon="1.34055">
        <ele>126</ele>
        <time>2021-03-26T09:40:01Z</time>
      </trkpt>
      <trkpt lat="49.10671" lon="1.34291">
        <ele>128.77</ele>
        <time>2021-03-26T09:40:08Z</time>
      </trkpt>
      <trkpt lat="49.10627" lon="1.34346">
        <ele>129.5</ele>
        <time>2021-03-26T09:40:15Z</time>
      </trkpt>
      <trkpt lat="49.10479" lon="1.34546">
        <ele>131.88</ele>
        <time>2021-03-26T09:40:22Z</time>
      </trkpt>
      <trkpt lat="49.10349" lon="1.34732">
        <ele>128.58</ele>
        <time>2021-03-26T09:40:29Z</time>
      </trkpt>
      <trkpt lat="49.10214" lon="1.3494">
        <ele>130.17</ele>
        <time>2021-03-26T09:40:36Z</time>
      </trkpt>
      <trkpt lat="49.10132" lon="1.3507">
        <ele>129.21</ele>
        <time>2021-03-26T09:40:44Z</time>
      </trkpt>
      <trkpt lat="49.10043" lon="1.35218">
        <ele>129.93</ele>
        <time>2021-03-26T09:40:51Z</time>
      </trkpt>
      <trkpt lat="49.09651" lon="1.35906">
        <ele>131.26</ele>
        <time>2021-03-26T09:40:58Z</time>
      </trkpt>
      <trkpt lat="49.09421" lon="1.36312">
        <ele>128</ele>
        <time>2021-03-26T09:41:05Z</time>
      </trkpt>
      <trkpt lat="49.09329" lon="1.36474">
        <ele>125.71</ele>
        <time>2021-03-26T09:41:12Z</time>
      </trkpt>
      <trkpt lat="49.09257" lon="1.36593">
        <ele>124.26</ele>
        <time>2021-03-26T09:41:19Z</time>
      </trkpt>
      <trkpt lat="49.09184" lon="1.3671">
        <ele>124.57</ele>
        <time>2021-03-26T09:41:27Z</time>
      </trkpt>
      <trkpt lat="49.09106" lon="1.36832">
        <ele>124.76</ele>
        <time>2021-03-26T09:41:34Z</time>
      </trkpt>
      <trkpt lat="49.0861" lon="1.3758">
        <ele>121.96</ele>
        <time>2021-03-26T09:41:41Z</time>
      </trkpt>
      <trkpt lat="49.08512" lon="1.37736">
        <ele>126.78</ele>
        <time>2021-03-26T09:41:48Z</time>
      </trkpt>
      <trkpt lat="49.0842" lon="1.3789">
        <ele>128.88</ele>
        <time>2021-03-26T09:41:55Z</time>
      </trkpt>
      <trkpt lat="49.0833" lon="1.38047">
        <ele>130</ele>
        <time>2021-03-26T09:42:02Z</time>
      </trkpt>
      <trkpt lat="49.0823" lon="1.38229">
        <ele>129.21</ele>
        <time>2021-03-26T09:42:09Z</time>
      </trkpt>
      <trkpt lat="49.08081" lon="1.38519">
        <ele>130.05</ele>
        <time>2021-03-26T09:42:17Z</time>
      </trkpt>
      <trkpt lat="49.07979" lon="1.38733">
        <ele>134.28</ele>
        <time>2021-03-26T09:42:24Z</time>
      </trkpt>
      <trkpt lat="49.07895" lon="1.38916">
        <ele>134.99</ele>
        <time>2021-03-26T09:42:31Z</time>
      </trkpt>
      <trkpt lat="49.07683" lon="1.39402">
        <ele>140</ele>
        <time>2021-03-26T09:42:38Z</time>
      </trkpt>
      <trkpt lat="49.07582" lon="1.39638">
        <ele>136.91</ele>
        <time>2021-03-26T09:42:45Z</time>
      </trkpt>
      <trkpt lat="49.07434" lon="1.39978">
        <ele>140.38</ele>
        <time>2021-03-26T09:42:52Z</time>
      </trkpt>
      <trkpt lat="49.07329" lon="1.40216">
        <ele>143.22</ele>
        <time>2021-03-26T09:43:00Z</time>
      </trkpt>
      <trkpt lat="49.07221" lon="1.40452">
        <ele>143.95</ele>
        <time>2021-03-26T09:43:07Z</time>
      </trkpt>
      <trkpt lat="49.07073" lon="1.40762">
        <ele>142.37</ele>
        <time>2021-03-26T09:43:14Z</time>
      </trkpt>
      <trkpt lat="49.06187" lon="1.42534">
        <ele>136.06</ele>
        <time>2021-03-26T09:43:21Z</time>
      </trkpt>
      <trkpt lat="49.06076" lon="1.42751">
        <ele>136.51</ele>
        <time>2021-03-26T09:43:28Z</time>
      </trkpt>
      <trkpt lat="49.05989" lon="1.42914">
        <ele>139</ele>
        <time>2021-03-26T09:43:35Z</time>
      </trkpt>
      <trkpt lat="49.05845" lon="1.43168">
        <ele>137</ele>
        <time>2021-03-26T09:43:43Z</time>
      </trkpt>
      <trkpt lat="49.05715" lon="1.43382">
        <ele>140</ele>
        <time>2021-03-26T09:43:50Z</time>
      </trkpt>
      <trkpt lat="49.05604" lon="1.43555">
        <ele>140.97</ele>
        <time>2021-03-26T09:43:57Z</time>
      </trkpt>
      <trkpt lat="49.0552" lon="1.43679">
        <ele>139.9</ele>
        <time>2021-03-26T09:44:04Z</time>
      </trkpt>
      <trkpt lat="49.05445" lon="1.43787">
        <ele>138</ele>
        <time>2021-03-26T09:44:11Z</time>
      </trkpt>
      <trkpt lat="49.05348" lon="1.43922">
        <ele>138.66</ele>
        <time>2021-03-26T09:44:18Z</time>
      </trkpt>
      <trkpt lat="49.0525" lon="1.44053">
        <ele>141</ele>
        <time>2021-03-26T09:44:26Z</time>
      </trkpt>
      <trkpt lat="49.05111" lon="1.44227">
        <ele>139.82</ele>
        <time>2021-03-26T09:44:33Z</time>
      </trkpt>
      <trkpt lat="49.05012" lon="1.44346">
        <ele>139.86</ele>
        <time>2021-03-26T09:44:40Z</time>
      </trkpt>
      <trkpt lat="49.04913" lon="1.4446">
        <ele>140.46</ele>
        <time>2021-03-26T09:44:47Z</time>
      </trkpt>
      <trkpt lat="49.04091" lon="1.4538">
        <ele>137.81</ele>
        <time>2021-03-26T09:44:54Z</time>
      </trkpt>
      <trkpt lat="49.03909" lon="1.45599">
        <ele>136.97</ele>
        <time>2021-03-26T09:45:01Z</time>
      </trkpt>
      <trkpt lat="49.0379" lon="1.45752">
        <ele>135.53</ele>
        <time>2021-03-26T09:45:08Z</time>
      </trkpt>
      <trkpt lat="49.03673" lon="1.45914">
        <ele>136.92</ele>
        <time>2021-03-26T09:45:16Z</time>
      </trkpt>
      <trkpt lat="49.03529" lon="1.46132">
        <ele>140.65</ele>
        <time>2021-03-26T09:45:23Z</time>
      </trkpt>
      <trkpt lat="49.03426" lon="1.463">
        <ele>141.74</ele>
        <time>2021-03-26T09:45:30Z</time>
      </trkpt>
      <trkpt lat="49.03303" lon="1.46515">
        <ele>144.41</ele>
        <time>2021-03-26T09:45:37Z</time>
      </trkpt>
      <trkpt lat="49.0324" lon="1.46632">
        <ele>146.49</ele>
        <time>2021-03-26T09:45:44Z</time>
      </trkpt>
      <trkpt lat="49.03179" lon="1.46752">
        <ele>147.4</ele>
        <time>2021-03-26T09:45:51Z</time>
      </trkpt>
      <trkpt lat="49.03133" lon="1.46846">
        <ele>147.65</ele>
        <time>2021-03-26T09:45:59Z</time>
      </trkpt>
      <trkpt lat="49.03009" lon="1.47117">
        <ele>144.12</ele>
        <time>2021-03-26T09:46:06Z</time>
      </trkpt>
      <trkpt lat="49.02936" lon="1.47291">
        <ele>143.84</ele>
        <time>2021-03-26T09:46:13Z</time>
      </trkpt>
      <trkpt lat="49.02867" lon="1.47467">
        <ele>143</ele>
        <time>2021-03-26T09:46:20Z</time>
      </trkpt>
      <trkpt lat="49.02801" lon="1.47645">
        <ele>145.19</ele>
        <time>2021-03-26T09:46:27Z</time>
      </trkpt>
      <trkpt lat="49.02744" lon="1.47812">
        <ele>145.8</ele>
        <time>2021-03-26T09:46:34Z</time>
      </trkpt>
      <trkpt lat="49.02697" lon="1.47961">
        <ele>145.37</ele>
        <time>2021-03-26T09:46:42Z</time>
      </trkpt>
      <trkpt lat="49.02641" lon="1.48147">
        <ele>146.29</ele>
        <time>2021-03-26T09:46:49Z</time>
      </trkpt>
      <trkpt lat="49.02598" lon="1.48299">
        <ele>150.26</ele>
        <time>2021-03-26T09:46:56Z</time>
      </trkpt>
      <trkpt lat="49.02543" lon="1.48514">
        <ele>147.03</ele>
        <time>2021-03-26T09:47:03Z</time>
      </trkpt>
      <trkpt lat="49.02505" lon="1.48675">
        <ele>147.05</ele>
        <time>2021-03-26T09:47:10Z</time>
      </trkpt>
      <trkpt lat="49.02472" lon="1.48824">
        <ele>149.01</ele>
        <time>2021-03-26T09:47:17Z</time>
      </trkpt>
      <trkpt lat="49.02405" lon="1.49156">
        <ele>152.41</ele>
        <time>2021-03-26T09:47:25Z</time>
      </trkpt>
      <trkpt lat="49.02314" lon="1.49645">
        <ele>148.38</ele>
        <time>2021-03-26T09:47:32Z</time>
      </trkpt>
      <trkpt lat="49.02118" lon="1.5071">
        <ele>140.66</ele>
        <time>2021-03-26T09:47:39Z</time>
      </trkpt>
      <trkpt lat="49.02093" lon="1.50853">
        <ele>137.05</ele>
        <time>2021-03-26T09:47:46Z</time>
      </trkpt>
      <trkpt lat="49.02069" lon="1.5101">
        <ele>134.65</ele>
        <time>2021-03-26T09:47:53Z</time>
      </trkpt>
      <trkpt lat="49.02036" lon="1.51252">
        <ele>131.76</ele>
        <time>2021-03-26T09:48:00Z</time>
      </trkpt>
      <trkpt lat="49.02014" lon="1.5144">
        <ele>132.83</ele>
        <time>2021-03-26T09:48:07Z</time>
      </trkpt>
      <trkpt lat="49.01991" lon="1.51701">
        <ele>132.92</ele>
        <time>2021-03-26T09:48:15Z</time>
      </trkpt>
      <trkpt lat="49.01978" lon="1.51883">
        <ele>131.95</ele>
        <time>2021-03-26T09:48:22Z</time>
      </trkpt>
      <trkpt lat="49.01965" lon="1.52156">
        <ele>133.4</ele>
        <time>2021-03-26T09:48:29Z</time>
      </trkpt>
      <trkpt lat="49.01959" lon="1.52445">
        <ele>128.07</ele>
        <time>2021-03-26T09:48:36Z</time>
      </trkpt>
      <trkpt lat="49.01959" lon="1.5258">
        <ele>128</ele>
        <time>2021-03-26T09:48:43Z</time>
      </trkpt>
      <trkpt lat="49.01962" lon="1.52753">
        <ele>127.38</ele>
        <time>2021-03-26T09:48:50Z</time>
      </trkpt>
      <trkpt lat="49.0197" lon="1.52977">
        <ele>128.02</ele>
        <time>2021-03-26T09:48:58Z</time>
      </trkpt>
      <trkpt lat="49.01979" lon="1.53162">
        <ele>122.64</ele>
        <time>2021-03-26T09:49:05Z</time>
      </trkpt>
      <trkpt lat="49.02064" lon="1.544">
        <ele>132.05</ele>
        <time>2021-03-26T09:49:12Z</time>
      </trkpt>
      <trkpt lat="49.02078" lon="1.54636">
        <ele>127.59</ele>
        <time>2021-03-26T09:49:19Z</time>
      </trkpt>
      <trkpt lat="49.02094" lon="1.55018">
        <ele>125</ele>
        <time>2021-03-26T09:49:26Z</time>
      </trkpt>
      <trkpt lat="49.02101" lon="1.55295">
        <ele>124.42</ele>
        <time>2021-03-26T09:49:33Z</time>
      </trkpt>
      <trkpt lat="49.02104" lon="1.55474">
        <ele>123.86</ele>
        <time>2021-03-26T09:49:41Z</time>
      </trkpt>
      <trkpt lat="49.02105" lon="1.55694">
        <ele>121.02</ele>
        <time>2021-03-26T09:49:48Z</time>
      </trkpt>
      <trkpt lat="49.02103" lon="1.56034">
        <ele>114.26</ele>
        <time>2021-03-26T09:49:55Z</time>
      </trkpt>
      <trkpt lat="49.02084" lon="1.56912">
        <ele>106.98</ele>
        <time>2021-03-26T09:50:02Z</time>
      </trkpt>
      <trkpt lat="49.02081" lon="1.57012">
        <ele>106.26</ele>
        <time>2021-03-26T09:50:09Z</time>
      </trkpt>
      <trkpt lat="49.02073" lon="1.57133">
        <ele>106.86</ele>
        <time>2021-03-26T09:50:16Z</time>
      </trkpt>
      <trkpt lat="49.02055" lon="1.57315">
        <ele>107.64</ele>
        <time>2021-03-26T09:50:24Z</time>
      </trkpt>
      <trkpt lat="49.02042" lon="1.57405">
        <ele>105.07</ele>
        <time>2021-03-26T09:50:31Z</time>
      </trkpt>
      <trkpt lat="49.02027" lon="1.57502">
        <ele>112.04</ele>
        <time>2021-03-26T09:50:38Z</time>
      </trkpt>
      <trkpt lat="49.02004" lon="1.57624">
        <ele>112.61</ele>
        <time>2021-03-26T09:50:45Z</time>
      </trkpt>
      <trkpt lat="49.01956" lon="1.57823">
        <ele>113.14</ele>
        <time>2021-03-26T09:50:52Z</time>
      </trkpt>
      <trkpt lat="49.01922" lon="1.57945">
        <ele>103.75</ele>
        <time>2021-03-26T09:50:59Z</time>
      </trkpt>
      <trkpt lat="49.01885" lon="1.58063">
        <ele>99.38</ele>
        <time>2021-03-26T09:51:06Z</time>
      </trkpt>
      <trkpt lat="49.01854" lon="1.5815">
        <ele>95.06</ele>
        <time>2021-03-26T09:51:14Z</time>
      </trkpt>
      <trkpt lat="49.01821" lon="1.58237">
        <ele>91.91</ele>
        <time>2021-03-26T09:51:21Z</time>
      </trkpt>
      <trkpt lat="49.01749" lon="1.58402">
        <ele>70.99</ele>
        <time>2021-03-26T09:51:28Z</time>
      </trkpt>
      <trkpt lat="49.01677" lon="1.58545">
        <ele>69.96</ele>
        <time>2021-03-26T09:51:35Z</time>
      </trkpt>
      <trkpt lat="49.01645" lon="1.58601">
        <ele>70.14</ele>
        <time>2021-03-26T09:51:42Z</time>
      </trkpt>
      <trkpt lat="49.01589" lon="1.58694">
        <ele>67.98</ele>
        <time>2021-03-26T09:51:49Z</time>
      </trkpt>
      <trkpt lat="49.0149" lon="1.58841">
        <ele>70.83</ele>
        <time>2021-03-26T09:51:57Z</time>
      </trkpt>
      <trkpt lat="49.01197" lon="1.59259">
        <ele>87.7</ele>
        <time>2021-03-26T09:52:04Z</time>
      </trkpt>
      <trkpt lat="49.00838" lon="1.59776">
        <ele>117.39</ele>
        <time>2021-03-26T09:52:11Z</time>
      </trkpt>
      <trkpt lat="49.005" lon="1.60258">
        <ele>118.81</ele>
        <time>2021-03-26T09:52:18Z</time>
      </trkpt>
      <trkpt lat="49.00315" lon="1.60525">
        <ele>114.95</ele>
        <time>2021-03-26T09:52:25Z</time>
      </trkpt>
      <trkpt lat="49.00268" lon="1.60597">
        <ele>111.07</ele>
        <time>2021-03-26T09:52:32Z</time>
      </trkpt>
      <trkpt lat="49.00224" lon="1.60671">
        <ele>110.27</ele>
        <time>2021-03-26T09:52:40Z</time>
      </trkpt>
      <trkpt lat="49.00181" lon="1.60748">
        <ele>109.07</ele>
        <time>2021-03-26T09:52:47Z</time>
      </trkpt>
      <trkpt lat="49.00023" lon="1.61052">
        <ele>83.74</ele>
        <time>2021-03-26T09:52:54Z</time>
      </trkpt>
      <trkpt lat="48.9995" lon="1.61184">
        <ele>81.08</ele>
        <time>2021-03-26T09:53:01Z</time>
      </trkpt>
      <trkpt lat="48.99907" lon="1.61255">
        <ele>84.1</ele>
        <time>2021-03-26T09:53:08Z</time>
      </trkpt>
      <trkpt lat="48.99849" lon="1.6134">
        <ele>80.39</ele>
        <time>2021-03-26T09:53:15Z</time>
      </trkpt>
      <trkpt lat="48.99737" lon="1.61492">
        <ele>68.45</ele>
        <time>2021-03-26T09:53:23Z</time>
      </trkpt>
      <trkpt lat="48.99685" lon="1.61572">
        <ele>61.48</ele>
        <time>2021-03-26T09:53:30Z</time>
      </trkpt>
      <trkpt lat="48.99653" lon="1.61627">
        <ele>57.6</ele>
        <time>2021-03-26T09:53:37Z</time>
      </trkpt>
      <trkpt lat="48.99621" lon="1.61685">
        <ele>54.5</ele>
        <time>2021-03-26T09:53:44Z</time>
      </trkpt>
      <trkpt lat="48.99601" lon="1.61727">
        <ele>52.46</ele>
        <time>2021-03-26T09:53:51Z</time>
      </trkpt>
      <trkpt lat="48.99571" lon="1.61799">
        <ele>50.47</ele>
        <time>2021-03-26T09:53:58Z</time>
      </trkpt>
      <trkpt lat="48.99534" lon="1.61901">
        <ele>45.57</ele>
        <time>2021-03-26T09:54:05Z</time>
      </trkpt>
      <trkpt lat="48.99507" lon="1.61988">
        <ele>42</ele>
        <time>2021-03-26T09:54:13Z</time>
      </trkpt>
      <trkpt lat="48.99481" lon="1.62094">
        <ele>37.49</ele>
        <time>2021-03-26T09:54:20Z</time>
      </trkpt>
      <trkpt lat="48.99449" lon="1.62256">
        <ele>39.52</ele>
        <time>2021-03-26T09:54:27Z</time>
      </trkpt>
      <trkpt lat="48.99334" lon="1.62903">
        <ele>35.01</ele>
        <time>2021-03-26T09:54:34Z</time>
      </trkpt>
      <trkpt lat="48.98925" lon="1.65235">
        <ele>44.06</ele>
        <time>2021-03-26T09:54:41Z</time>
      </trkpt>
      <trkpt lat="48.98901" lon="1.65362">
        <ele>43.02</ele>
        <time>2021-03-26T09:54:48Z</time>
      </trkpt>
      <trkpt lat="48.98563" lon="1.67065">
        <ele>49.63</ele>
        <time>2021-03-26T09:54:56Z</time>
      </trkpt>
      <trkpt lat="48.98509" lon="1.67345">
        <ele>53.35</ele>
        <time>2021-03-26T09:55:03Z</time>
      </trkpt>
      <trkpt lat="48.98466" lon="1.67567">
        <ele>51.4</ele>
        <time>2021-03-26T09:55:10Z</time>
      </trkpt>
      <trkpt lat="48.98361" lon="1.68112">
        <ele>54.02</ele>
        <time>2021-03-26T09:55:17Z</time>
      </trkpt>
      <trkpt lat="48.98262" lon="1.68591">
        <ele>57.15</ele>
        <time>2021-03-26T09:55:24Z</time>
      </trkpt>
      <trkpt lat="48.97963" lon="1.70107">
        <ele>63</ele>
        <time>2021-03-26T09:55:31Z</time>
      </trkpt>
      <trkpt lat="48.97917" lon="1.70375">
        <ele>55.51</ele>
        <time>2021-03-26T09:55:39Z</time>
      </trkpt>
      <trkpt lat="48.9779" lon="1.71091">
        <ele>39.88</ele>
        <time>2021-03-26T09:55:46Z</time>
      </trkpt>
      <trkpt lat="48.97733" lon="1.71414">
        <ele>35.72</ele>
        <time>2021-03-26T09:55:53Z</time>
      </trkpt>
      <trkpt lat="48.97573" lon="1.72315">
        <ele>43.33</ele>
        <time>2021-03-26T09:56:00Z</time>
      </trkpt>
      <trkpt lat="48.97558" lon="1.72388">
        <ele>47.74</ele>
        <time>2021-03-26T09:56:07Z</time>
      </trkpt>
      <trkpt lat="48.97525" lon="1.72513">
        <ele>53.33</ele>
        <time>2021-03-26T09:56:14Z</time>
      </trkpt>
      <trkpt lat="48.97489" lon="1.72621">
        <ele>45.53</ele>
        <time>2021-03-26T09:56:22Z</time>
      </trkpt>
      <trkpt lat="48.97465" lon="1.72679">
        <ele>42.72</ele>
        <time>2021-03-26T09:56:29Z</time>
      </trkpt>
      <trkpt lat="48.9742" lon="1.72776">
        <ele>41.9</ele>
        <time>2021-03-26T09:56:36Z</time>
      </trkpt>
      <trkpt lat="48.97368" lon="1.72869">
        <ele>46.01</ele>
        <time>2021-03-26T09:56:43Z</time>
      </trkpt>
      <trkpt lat="48.97335" lon="1.72922">
        <ele>43.44</ele>
        <time>2021-03-26T09:56:50Z</time>
      </trkpt>
      <trkpt lat="48.97171" lon="1.73157">
        <ele>26.69</ele>
        <time>2021-03-26T09:56:57Z</time>
      </trkpt>
      <trkpt lat="48.97132" lon="1.73216">
        <ele>29.28</ele>
        <time>2021-03-26T09:57:04Z</time>
      </trkpt>
      <trkpt lat="48.97102" lon="1.73265">
        <ele>33.71</ele>
        <time>2021-03-26T09:57:12Z</time>
      </trkpt>
      <trkpt lat="48.97067" lon="1.7333">
        <ele>33.63</ele>
        <time>2021-03-26T09:57:19Z</time>
      </trkpt>
      <trkpt lat="48.97033" lon="1.734">
        <ele>33.13</ele>
        <time>2021-03-26T09:57:26Z</time>
      </trkpt>
      <trkpt lat="48.96992" lon="1.73504">
        <ele>38.03</ele>
        <time>2021-03-26T09:57:33Z</time>
      </trkpt>
      <trkpt lat="48.96973" lon="1.73557">
        <ele>38.98</ele>
        <time>2021-03-26T09:57:40Z</time>
      </trkpt>
      <trkpt lat="48.96952" lon="1.73625">
        <ele>42.31</ele>
        <time>2021-03-26T09:57:47Z</time>
      </trkpt>
      <trkpt lat="48.96928" lon="1.73719">
        <ele>45.24</ele>
        <time>2021-03-26T09:57:55Z</time>
      </trkpt>
      <trkpt lat="48.96911" lon="1.738">
        <ele>49.05</ele>
        <time>2021-03-26T09:58:02Z</time>
      </trkpt>
      <trkpt lat="48.96898" lon="1.7388">
        <ele>52.63</ele>
        <time>2021-03-26T09:58:09Z</time>
      </trkpt>
      <trkpt lat="48.96875" lon="1.74058">
        <ele>56.93</ele>
        <time>2021-03-26T09:58:16Z</time>
      </trkpt>
      <trkpt lat="48.96862" lon="1.74147">
        <ele>59.58</ele>
        <time>2021-03-26T09:58:23Z</time>
      </trkpt>
      <trkpt lat="48.96847" lon="1.74226">
        <ele>64.52</ele>
        <time>2021-03-26T09:58:30Z</time>
      </trkpt>
      <trkpt lat="48.96828" lon="1.74312">
        <ele>68.16</ele>
        <time>2021-03-26T09:58:38Z</time>
      </trkpt>
      <trkpt lat="48.96804" lon="1.74397">
        <ele>63.65</ele>
        <time>2021-03-26T09:58:45Z</time>
      </trkpt>
      <trkpt lat="48.96779" lon="1.74475">
        <ele>63.86</ele>
        <time>2021-03-26T09:58:52Z</time>
      </trkpt>
      <trkpt lat="48.96745" lon="1.74561">
        <ele>67.29</ele>
        <time>2021-03-26T09:58:59Z</time>
      </trkpt>
      <trkpt lat="48.96675" lon="1.74717">
        <ele>72.62</ele>
        <time>2021-03-26T09:59:06Z</time>
      </trkpt>
      <trkpt lat="48.96611" lon="1.7487">
        <ele>80.95</ele>
        <time>2021-03-26T09:59:13Z</time>
      </trkpt>
      <trkpt lat="48.96566" lon="1.75018">
        <ele>55.55</ele>
        <time>2021-03-26T09:59:21Z</time>
      </trkpt>
      <trkpt lat="48.96532" lon="1.75181">
        <ele>50.23</ele>
        <time>2021-03-26T09:59:28Z</time>
      </trkpt>
      <trkpt lat="48.96515" lon="1.75305">
        <ele>39.05</ele>
        <time>2021-03-26T09:59:35Z</time>
      </trkpt>
      <trkpt lat="48.96506" lon="1.75403">
        <ele>38.44</ele>
        <time>2021-03-26T09:59:42Z</time>
      </trkpt>
      <trkpt lat="48.96503" lon="1.75507">
        <ele>32.46</ele>
        <time>2021-03-26T09:59:49Z</time>
      </trkpt>
      <trkpt lat="48.9651" lon="1.76103">
        <ele>25.28</ele>
        <time>2021-03-26T09:59:56Z</time>
      </trkpt>
      <trkpt lat="48.96494" lon="1.76436">
        <ele>23.77</ele>
        <time>2021-03-26T10:00:03Z</time>
      </trkpt>
      <trkpt lat="48.96483" lon="1.76583">
        <ele>22.76</ele>
        <time>2021-03-26T10:00:11Z</time>
      </trkpt>
      <trkpt lat="48.96465" lon="1.76768">
        <ele>24.34</ele>
        <time>2021-03-26T10:00:18Z</time>
      </trkpt>
      <trkpt lat="48.96433" lon="1.77042">
        <ele>20.09</ele>
        <time>2021-03-26T10:00:25Z</time>
      </trkpt>
      <trkpt lat="48.96408" lon="1.77291">
        <ele>18.16</ele>
        <time>2021-03-26T10:00:32Z</time>
      </trkpt>
      <trkpt lat="48.96401" lon="1.77395">
        <ele>17.68</ele>
        <time>2021-03-26T10:00:39Z</time>
      </trkpt>
      <trkpt lat="48.96393" lon="1.77571">
        <ele>21.24</ele>
        <time>2021-03-26T10:00:46Z</time>
      </trkpt>
      <trkpt lat="48.96386" lon="1.78022">
        <ele>17.78</ele>
        <time>2021-03-26T10:00:54Z</time>
      </trkpt>
      <trkpt lat="48.9638" lon="1.78761">
        <ele>17.13</ele>
        <time>2021-03-26T10:01:01Z</time>
      </trkpt>
      <trkpt lat="48.96384" lon="1.79077">
        <ele>16.1</ele>
        <time>2021-03-26T10:01:08Z</time>
      </trkpt>
      <trkpt lat="48.96402" lon="1.79454">
        <ele>18.84</ele>
        <time>2021-03-26T10:01:15Z</time>
      </trkpt>
      <trkpt lat="48.96435" lon="1.79852">
        <ele>18.46</ele>
        <time>2021-03-26T10:01:22Z</time>
      </trkpt>
      <trkpt lat="48.96472" lon="1.80141">
        <ele>20.98</ele>
        <time>2021-03-26T10:01:29Z</time>
      </trkpt>
      <trkpt lat="48.96523" lon="1.80503">
        <ele>21.45</ele>
        <time>2021-03-26T10:01:37Z</time>
      </trkpt>
      <trkpt lat="48.96553" lon="1.80769">
        <ele>22.86</ele>
        <time>2021-03-26T10:01:44Z</time>
      </trkpt>
      <trkpt lat="48.96561" lon="1.80895">
        <ele>21.21</ele>
        <time>2021-03-26T10:01:51Z</time>
      </trkpt>
      <trkpt lat="48.96566" lon="1.81002">
        <ele>23.08</ele>
        <time>2021-03-26T10:01:58Z</time>
      </trkpt>
      <trkpt lat="48.96567" lon="1.81115">
        <ele>24.78</ele>
        <time>2021-03-26T10:02:05Z</time>
      </trkpt>
      <trkpt lat="48.9656" lon="1.81343">
        <ele>19.91</ele>
        <time>2021-03-26T10:02:12Z</time>
      </trkpt>
      <trkpt lat="48.96549" lon="1.81472">
        <ele>21.11</ele>
        <time>2021-03-26T10:02:20Z</time>
      </trkpt>
      <trkpt lat="48.96531" lon="1.81637">
        <ele>19.85</ele>
        <time>2021-03-26T10:02:27Z</time>
      </trkpt>
      <trkpt lat="48.96372" lon="1.82716">
        <ele>23.28</ele>
        <time>2021-03-26T10:02:34Z</time>
      </trkpt>
      <trkpt lat="48.96343" lon="1.82915">
        <ele>22.4</ele>
        <time>2021-03-26T10:02:41Z</time>
      </trkpt>
      <trkpt lat="48.96318" lon="1.83116">
        <ele>21.9</ele>
        <time>2021-03-26T10:02:48Z</time>
      </trkpt>
      <trkpt lat="48.96302" lon="1.83374">
        <ele>23.59</ele>
        <time>2021-03-26T10:02:55Z</time>
      </trkpt>
      <trkpt lat="48.96302" lon="1.8359">
        <ele>22.97</ele>
        <time>2021-03-26T10:03:02Z</time>
      </trkpt>
      <trkpt lat="48.96315" lon="1.83863">
        <ele>22.09</ele>
        <time>2021-03-26T10:03:10Z</time>
      </trkpt>
      <trkpt lat="48.9634" lon="1.84102">
        <ele>23.45</ele>
        <time>2021-03-26T10:03:17Z</time>
      </trkpt>
      <trkpt lat="48.96371" lon="1.84278">
        <ele>28</ele>
        <time>2021-03-26T10:03:24Z</time>
      </trkpt>
      <trkpt lat="48.96411" lon="1.84466">
        <ele>27.61</ele>
        <time>2021-03-26T10:03:31Z</time>
      </trkpt>
      <trkpt lat="48.96451" lon="1.84617">
        <ele>26.2</ele>
        <time>2021-03-26T10:03:38Z</time>
      </trkpt>
      <trkpt lat="48.96545" lon="1.84946">
        <ele>29.63</ele>
        <time>2021-03-26T10:03:45Z</time>
      </trkpt>
      <trkpt lat="48.96684" lon="1.85426">
        <ele>30</ele>
        <time>2021-03-26T10:03:53Z</time>
      </trkpt>
      <trkpt lat="48.96805" lon="1.85879">
        <ele>29.36</ele>
        <time>2021-03-26T10:04:00Z</time>
      </trkpt>
      <trkpt lat="48.96842" lon="1.86041">
        <ele>28.74</ele>
        <time>2021-03-26T10:04:07Z</time>
      </trkpt>
      <trkpt lat="48.96914" lon="1.86407">
        <ele>32.99</ele>
        <time>2021-03-26T10:04:14Z</time>
      </trkpt>
      <trkpt lat="48.96939" lon="1.86554">
        <ele>28.47</ele>
        <time>2021-03-26T10:04:21Z</time>
      </trkpt>
      <trkpt lat="48.96962" lon="1.86709">
        <ele>27.59</ele>
        <time>2021-03-26T10:04:28Z</time>
      </trkpt>
      <trkpt lat="48.97002" lon="1.87025">
        <ele>30.1</ele>
        <time>2021-03-26T10:04:36Z</time>
      </trkpt>
      <trkpt lat="48.97019" lon="1.87211">
        <ele>25.71</ele>
        <time>2021-03-26T10:04:43Z</time>
      </trkpt>
      <trkpt lat="48.97032" lon="1.87377">
        <ele>32.76</ele>
        <time>2021-03-26T10:04:50Z</time>
      </trkpt>
      <trkpt lat="48.97047" lon="1.87608">
        <ele>31.03</ele>
        <time>2021-03-26T10:04:57Z</time>
      </trkpt>
      <trkpt lat="48.97055" lon="1.8792">
        <ele>29.97</ele>
        <time>2021-03-26T10:05:04Z</time>
      </trkpt>
      <trkpt lat="48.97044" lon="1.89046">
        <ele>35.86</ele>
        <time>2021-03-26T10:05:11Z</time>
      </trkpt>
      <trkpt lat="48.97025" lon="1.90616">
        <ele>39.15</ele>
        <time>2021-03-26T10:05:19Z</time>
      </trkpt>
      <trkpt lat="48.97021" lon="1.90809">
        <ele>36.72</ele>
        <time>2021-03-26T10:05:26Z</time>
      </trkpt>
      <trkpt lat="48.97005" lon="1.91027">
        <ele>36.64</ele>
        <time>2021-03-26T10:05:33Z</time>
      </trkpt>
      <trkpt lat="48.96971" lon="1.91273">
        <ele>34.28</ele>
        <time>2021-03-26T10:05:40Z</time>
      </trkpt>
      <trkpt lat="48.96926" lon="1.91495">
        <ele>36.12</ele>
        <time>2021-03-26T10:05:47Z</time>
      </trkpt>
      <trkpt lat="48.96893" lon="1.9162">
        <ele>38.58</ele>
        <time>2021-03-26T10:05:54Z</time>
      </trkpt>
      <trkpt lat="48.96854" lon="1.91747">
        <ele>38.17</ele>
        <time>2021-03-26T10:06:01Z</time>
      </trkpt>
      <trkpt lat="48.96786" lon="1.91932">
        <ele>38.17</ele>
        <time>2021-03-26T10:06:09Z</time>
      </trkpt>
      <trkpt lat="48.96696" lon="1.92133">
        <ele>38.94</ele>
        <time>2021-03-26T10:06:16Z</time>
      </trkpt>
      <trkpt lat="48.96638" lon="1.92242">
        <ele>40.72</ele>
        <time>2021-03-26T10:06:23Z</time>
      </trkpt>
      <trkpt lat="48.96578" lon="1.9234">
        <ele>40.95</ele>
        <time>2021-03-26T10:06:30Z</time>
      </trkpt>
      <trkpt lat="48.965" lon="1.92458">
        <ele>42.48</ele>
        <time>2021-03-26T10:06:37Z</time>
      </trkpt>
      <trkpt lat="48.9642" lon="1.92576">
        <ele>44.57</ele>
        <time>2021-03-26T10:06:44Z</time>
      </trkpt>
      <trkpt lat="48.96077" lon="1.93024">
        <ele>69.9</ele>
        <time>2021-03-26T10:06:52Z</time>
      </trkpt>
      <trkpt lat="48.95387" lon="1.93931">
        <ele>89.36</ele>
        <time>2021-03-26T10:06:59Z</time>
      </trkpt>
      <trkpt lat="48.95217" lon="1.94141">
        <ele>84.81</ele>
        <time>2021-03-26T10:07:06Z</time>
      </trkpt>
      <trkpt lat="48.95099" lon="1.94283">
        <ele>81.01</ele>
        <time>2021-03-26T10:07:13Z</time>
      </trkpt>
      <trkpt lat="48.94952" lon="1.94449">
        <ele>81.12</ele>
        <time>2021-03-26T10:07:20Z</time>
      </trkpt>
      <trkpt lat="48.94767" lon="1.9465">
        <ele>80.46</ele>
        <time>2021-03-26T10:07:27Z</time>
      </trkpt>
      <trkpt lat="48.94648" lon="1.94771">
        <ele>79.15</ele>
        <time>2021-03-26T10:07:35Z</time>
      </trkpt>
      <trkpt lat="48.94284" lon="1.95126">
        <ele>92.96</ele>
        <time>2021-03-26T10:07:42Z</time>
      </trkpt>
      <trkpt lat="48.9415" lon="1.95265">
        <ele>95</ele>
        <time>2021-03-26T10:07:49Z</time>
      </trkpt>
      <trkpt lat="48.9407" lon="1.95352">
        <ele>93.36</ele>
        <time>2021-03-26T10:07:56Z</time>
      </trkpt>
      <trkpt lat="48.93995" lon="1.95449">
        <ele>97.92</ele>
        <time>2021-03-26T10:08:03Z</time>
      </trkpt>
      <trkpt lat="48.93904" lon="1.95578">
        <ele>99.82</ele>
        <time>2021-03-26T10:08:10Z</time>
      </trkpt>
      <trkpt lat="48.93845" lon="1.95671">
        <ele>101.12</ele>
        <time>2021-03-26T10:08:18Z</time>
      </trkpt>
      <trkpt lat="48.93738" lon="1.95866">
        <ele>101.32</ele>
        <time>2021-03-26T10:08:25Z</time>
      </trkpt>
      <trkpt lat="48.9366" lon="1.96044">
        <ele>103.58</ele>
        <time>2021-03-26T10:08:32Z</time>
      </trkpt>
      <trkpt lat="48.93604" lon="1.96191">
        <ele>104.52</ele>
        <time>2021-03-26T10:08:39Z</time>
      </trkpt>
      <trkpt lat="48.93537" lon="1.96395">
        <ele>104.11</ele>
        <time>2021-03-26T10:08:46Z</time>
      </trkpt>
      <trkpt lat="48.93476" lon="1.96613">
        <ele>98.32</ele>
        <time>2021-03-26T10:08:53Z</time>
      </trkpt>
      <trkpt lat="48.92995" lon="1.9836">
        <ele>92.57</ele>
        <time>2021-03-26T10:09:00Z</time>
      </trkpt>
      <trkpt lat="48.92888" lon="1.98731">
        <ele>83.68</ele>
        <time>2021-03-26T10:09:08Z</time>
      </trkpt>
      <trkpt lat="48.92821" lon="1.98953">
        <ele>76.23</ele>
        <time>2021-03-26T10:09:15Z</time>
      </trkpt>
      <trkpt lat="48.92734" lon="1.99226">
        <ele>76.45</ele>
        <time>2021-03-26T10:09:22Z</time>
      </trkpt>
      <trkpt lat="48.92632" lon="1.99529">
        <ele>73.97</ele>
        <time>2021-03-26T10:09:29Z</time>
      </trkpt>
      <trkpt lat="48.92585" lon="1.99656">
        <ele>72.59</ele>
        <time>2021-03-26T10:09:36Z</time>
      </trkpt>
      <trkpt lat="48.92539" lon="1.99769">
        <ele>72.51</ele>
        <time>2021-03-26T10:09:43Z</time>
      </trkpt>
      <trkpt lat="48.92491" lon="1.99861">
        <ele>71.34</ele>
        <time>2021-03-26T10:09:51Z</time>
      </trkpt>
      <trkpt lat="48.92459" lon="1.99914">
        <ele>72.48</ele>
        <time>2021-03-26T10:09:58Z</time>
      </trkpt>
      <trkpt lat="48.92426" lon="1.99963">
        <ele>74.35</ele>
        <time>2021-03-26T10:10:05Z</time>
      </trkpt>
      <trkpt lat="48.92372" lon="2.00032">
        <ele>72.49</ele>
        <time>2021-03-26T10:10:13Z</time>
      </trkpt>
      <trkpt lat="48.92243" lon="2.00193">
        <ele>73.75</ele>
        <time>2021-03-26T10:10:22Z</time>
      </trkpt>
      <trkpt lat="48.9222" lon="2.00228">
        <ele>73</ele>
        <time>2021-03-26T10:10:31Z</time>
      </trkpt>
      <trkpt lat="48.92183" lon="2.003">
        <ele>72.42</ele>
        <time>2021-03-26T10:10:40Z</time>
      </trkpt>
      <trkpt lat="48.92138" lon="2.00405">
        <ele>71.44</ele>
        <time>2021-03-26T10:10:49Z</time>
      </trkpt>
      <trkpt lat="48.9199" lon="2.00807">
        <ele>63.07</ele>
        <time>2021-03-26T10:10:59Z</time>
      </trkpt>
      <trkpt lat="48.91875" lon="2.01136">
        <ele>65.47</ele>
        <time>2021-03-26T10:11:08Z</time>
      </trkpt>
      <trkpt lat="48.91764" lon="2.0151">
        <ele>62.32</ele>
        <time>2021-03-26T10:11:17Z</time>
      </trkpt>
      <trkpt lat="48.91734" lon="2.01625">
        <ele>60.41</ele>
        <time>2021-03-26T10:11:26Z</time>
      </trkpt>
      <trkpt lat="48.91717" lon="2.01697">
        <ele>60.76</ele>
        <time>2021-03-26T10:11:36Z</time>
      </trkpt>
      <trkpt lat="48.91683" lon="2.01858">
        <ele>66.48</ele>
        <time>2021-03-26T10:11:45Z</time>
      </trkpt>
      <trkpt lat="48.91637" lon="2.02091">
        <ele>64.9</ele>
        <time>2021-03-26T10:11:54Z</time>
      </trkpt>
      <trkpt lat="48.91618" lon="2.02205">
        <ele>65.72</ele>
        <time>2021-03-26T10:12:03Z</time>
      </trkpt>
      <trkpt lat="48.91603" lon="2.0233">
        <ele>66.61</ele>
        <time>2021-03-26T10:12:13Z</time>
      </trkpt>
      <trkpt lat="48.91591" lon="2.02454">
        <ele>67.48</ele>
        <time>2021-03-26T10:12:22Z</time>
      </trkpt>
      <trkpt lat="48.91578" lon="2.02671">
        <ele>69.21</ele>
        <time>2021-03-26T10:12:31Z</time>
      </trkpt>
      <trkpt lat="48.91566" lon="2.02817">
        <ele>70</ele>
        <time>2021-03-26T10:12:40Z</time>
      </trkpt>
      <trkpt lat="48.91552" lon="2.03024">
        <ele>69.01</ele>
        <time>2021-03-26T10:12:50Z</time>
      </trkpt>
      <trkpt lat="48.91537" lon="2.03189">
        <ele>71.64</ele>
        <time>2021-03-26T10:12:59Z</time>
      </trkpt>
      <trkpt lat="48.9152" lon="2.03397">
        <ele>69.29</ele>
        <time>2021-03-26T10:13:08Z</time>
      </trkpt>
      <trkpt lat="48.91487" lon="2.03751">
        <ele>65.98</ele>
        <time>2021-03-26T10:13:17Z</time>
      </trkpt>
      <trkpt lat="48.91476" lon="2.03842">
        <ele>63.13</ele>
        <time>2021-03-26T10:13:26Z</time>
      </trkpt>
      <trkpt lat="48.9146" lon="2.03946">
        <ele>67</ele>
        <time>2021-03-26T10:13:36Z</time>
      </trkpt>
      <trkpt lat="48.91445" lon="2.04017">
        <ele>65.41</ele>
        <time>2021-03-26T10:13:45Z</time>
      </trkpt>
      <trkpt lat="48.91429" lon="2.04081">
        <ele>62.57</ele>
        <time>2021-03-26T10:13:54Z</time>
      </trkpt>
      <trkpt lat="48.91408" lon="2.04158">
        <ele>60.78</ele>
        <time>2021-03-26T10:14:03Z</time>
      </trkpt>
      <trkpt lat="48.91379" lon="2.04243">
        <ele>59.36</ele>
        <time>2021-03-26T10:14:13Z</time>
      </trkpt>
      <trkpt lat="48.91345" lon="2.04329">
        <ele>62.16</ele>
        <time>2021-03-26T10:14:22Z</time>
      </trkpt>
      <trkpt lat="48.91309" lon="2.04403">
        <ele>63.83</ele>
        <time>2021-03-26T10:14:31Z</time>
      </trkpt>
      <trkpt lat="48.91269" lon="2.04478">
        <ele>63</ele>
        <time>2021-03-26T10:14:40Z</time>
      </trkpt>
      <trkpt lat="48.91212" lon="2.04566">
        <ele>65</ele>
        <time>2021-03-26T10:14:50Z</time>
      </trkpt>
      <trkpt lat="48.9113" lon="2.04686">
        <ele>63.35</ele>
        <time>2021-03-26T10:14:59Z</time>
      </trkpt>
      <trkpt lat="48.90992" lon="2.04874">
        <ele>65.25</ele>
        <time>2021-03-26T10:15:08Z</time>
      </trkpt>
      <trkpt lat="48.9088" lon="2.0503">
        <ele>68.37</ele>
        <time>2021-03-26T10:15:17Z</time>
      </trkpt>
      <trkpt lat="48.90795" lon="2.05155">
        <ele>70.14</ele>
        <time>2021-03-26T10:15:26Z</time>
      </trkpt>
      <trkpt lat="48.9077" lon="2.05194">
        <ele>69</ele>
        <time>2021-03-26T10:15:36Z</time>
      </trkpt>
      <trkpt lat="48.90733" lon="2.05259">
        <ele>72.49</ele>
        <time>2021-03-26T10:15:45Z</time>
      </trkpt>
      <trkpt lat="48.90695" lon="2.05338">
        <ele>73.84</ele>
        <time>2021-03-26T10:15:54Z</time>
      </trkpt>
      <trkpt lat="48.90656" lon="2.05437">
        <ele>71.72</ele>
        <time>2021-03-26T10:16:03Z</time>
      </trkpt>
      <trkpt lat="48.90637" lon="2.05496">
        <ele>71.82</ele>
        <time>2021-03-26T10:16:13Z</time>
      </trkpt>
      <trkpt lat="48.90624" lon="2.05549">
        <ele>71.47</ele>
        <time>2021-03-26T10:16:22Z</time>
      </trkpt>
      <trkpt lat="48.90606" lon="2.05629">
        <ele>74.95</ele>
        <time>2021-03-26T10:16:31Z</time>
      </trkpt>
      <trkpt lat="48.90578" lon="2.05761">
        <ele>75.05</ele>
        <time>2021-03-26T10:16:40Z</time>
      </trkpt>
      <trkpt lat="48.90565" lon="2.05889">
        <ele>75.13</ele>
        <time>2021-03-26T10:16:50Z</time>
      </trkpt>
      <trkpt lat="48.90574" lon="2.06052">
        <ele>75.24</ele>
        <time>2021-03-26T10:16:59Z</time>
      </trkpt>
      <trkpt lat="48.90595" lon="2.06199">
        <ele>75.34</ele>
        <time>2021-03-26T10:17:08Z</time>
      </trkpt>
      <trkpt lat="48.90629" lon="2.0636">
        <ele>75.46</ele>
        <time>2021-03-26T10:17:17Z</time>
      </trkpt>
      <trkpt lat="48.90659" lon="2.06484">
        <ele>75.54</ele>
        <time>2021-03-26T10:17:27Z</time>
      </trkpt>
      <trkpt lat="48.90686" lon="2.06581">
        <ele>75.61</ele>
        <time>2021-03-26T10:17:36Z</time>
      </trkpt>
      <trkpt lat="48.9074" lon="2.06759">
        <ele>75.74</ele>
        <time>2021-03-26T10:17:45Z</time>
      </trkpt>
      <trkpt lat="48.90817" lon="2.07045">
        <ele>75.94</ele>
        <time>2021-03-26T10:17:54Z</time>
      </trkpt>
      <trkpt lat="48.90836" lon="2.07111">
        <ele>75.99</ele>
        <time>2021-03-26T10:18:03Z</time>
      </trkpt>
      <trkpt lat="48.90855" lon="2.07189">
        <ele>76.04</ele>
        <time>2021-03-26T10:18:13Z</time>
      </trkpt>
      <trkpt lat="48.90873" lon="2.07268">
        <ele>76.1</ele>
        <time>2021-03-26T10:18:22Z</time>
      </trkpt>
      <trkpt lat="48.9091" lon="2.07481">
        <ele>76.25</ele>
        <time>2021-03-26T10:18:31Z</time>
      </trkpt>
      <trkpt lat="48.90932" lon="2.07649">
        <ele>76.37</ele>
        <time>2021-03-26T10:18:40Z</time>
      </trkpt>
      <trkpt lat="48.90961" lon="2.07909">
        <ele>77</ele>
        <time>2021-03-26T10:18:50Z</time>
      </trkpt>
      <trkpt lat="48.90996" lon="2.08203">
        <ele>73.11</ele>
        <time>2021-03-26T10:18:59Z</time>
      </trkpt>
      <trkpt lat="48.91086" lon="2.09026">
        <ele>62.25</ele>
        <time>2021-03-26T10:19:08Z</time>
      </trkpt>
      <trkpt lat="48.91176" lon="2.09812">
        <ele>51.91</ele>
        <time>2021-03-26T10:19:17Z</time>
      </trkpt>
      <trkpt lat="48.91195" lon="2.10081">
        <ele>48.42</ele>
        <time>2021-03-26T10:19:27Z</time>
      </trkpt>
      <trkpt lat="48.91217" lon="2.10343">
        <ele>45.04</ele>
        <time>2021-03-26T10:19:36Z</time>
      </trkpt>
      <trkpt lat="48.91233" lon="2.10523">
        <ele>42.75</ele>
        <time>2021-03-26T10:19:45Z</time>
      </trkpt>
      <trkpt lat="48.91245" lon="2.1061">
        <ele>41.63</ele>
        <time>2021-03-26T10:19:54Z</time>
      </trkpt>
      <trkpt lat="48.91259" lon="2.10684">
        <ele>40.66</ele>
        <time>2021-03-26T10:20:03Z</time>
      </trkpt>
      <trkpt lat="48.91275" lon="2.10753">
        <ele>39.77</ele>
        <time>2021-03-26T10:20:13Z</time>
      </trkpt>
      <trkpt lat="48.91292" lon="2.10813">
        <ele>38.97</ele>
        <time>2021-03-26T10:20:22Z</time>
      </trkpt>
      <trkpt lat="48.9132" lon="2.10929">
        <ele>37.45</ele>
        <time>2021-03-26T10:20:31Z</time>
      </trkpt>
      <trkpt lat="48.91363" lon="2.11064">
        <ele>35.65</ele>
        <time>2021-03-26T10:20:40Z</time>
      </trkpt>
      <trkpt lat="48.91383" lon="2.11115">
        <ele>34.95</ele>
        <time>2021-03-26T10:20:50Z</time>
      </trkpt>
      <trkpt lat="48.91506" lon="2.1133">
        <ele>31.75</ele>
        <time>2021-03-26T10:20:59Z</time>
      </trkpt>
      <trkpt lat="48.9163" lon="2.11495">
        <ele>29.06</ele>
        <time>2021-03-26T10:21:08Z</time>
      </trkpt>
      <trkpt lat="48.91659" lon="2.11542">
        <ele>28.93</ele>
        <time>2021-03-26T10:21:17Z</time>
      </trkpt>
      <trkpt lat="48.91687" lon="2.11599">
        <ele>28.93</ele>
        <time>2021-03-26T10:21:27Z</time>
      </trkpt>
      <trkpt lat="48.91705" lon="2.11644">
        <ele>28.93</ele>
        <time>2021-03-26T10:21:36Z</time>
      </trkpt>
      <trkpt lat="48.91727" lon="2.11709">
        <ele>28.94</ele>
        <time>2021-03-26T10:21:45Z</time>
      </trkpt>
      <trkpt lat="48.91744" lon="2.11778">
        <ele>28.94</ele>
        <time>2021-03-26T10:21:54Z</time>
      </trkpt>
      <trkpt lat="48.91752" lon="2.11816">
        <ele>28.94</ele>
        <time>2021-03-26T10:22:03Z</time>
      </trkpt>
      <trkpt lat="48.91762" lon="2.11887">
        <ele>28.94</ele>
        <time>2021-03-26T10:22:13Z</time>
      </trkpt>
      <trkpt lat="48.91765" lon="2.11944">
        <ele>28.94</ele>
        <time>2021-03-26T10:22:22Z</time>
      </trkpt>
      <trkpt lat="48.91766" lon="2.11998">
        <ele>28.95</ele>
        <time>2021-03-26T10:22:31Z</time>
      </trkpt>
      <trkpt lat="48.91765" lon="2.12053">
        <ele>28.95</ele>
        <time>2021-03-26T10:22:40Z</time>
      </trkpt>
      <trkpt lat="48.91759" lon="2.12117">
        <ele>28.95</ele>
        <time>2021-03-26T10:22:50Z</time>
      </trkpt>
      <trkpt lat="48.91755" lon="2.12149">
        <ele>28.95</ele>
        <time>2021-03-26T10:22:59Z</time>
      </trkpt>
      <trkpt lat="48.91739" lon="2.12236">
        <ele>31.3</ele>
        <time>2021-03-26T10:23:08Z</time>
      </trkpt>
      <trkpt lat="48.91694" lon="2.1245">
        <ele>29.79</ele>
        <time>2021-03-26T10:23:17Z</time>
      </trkpt>
      <trkpt lat="48.91663" lon="2.12612">
        <ele>29.86</ele>
        <time>2021-03-26T10:23:27Z</time>
      </trkpt>
      <trkpt lat="48.91654" lon="2.12666">
        <ele>29.01</ele>
        <time>2021-03-26T10:23:36Z</time>
      </trkpt>
      <trkpt lat="48.9158" lon="2.13101">
        <ele>30.07</ele>
        <time>2021-03-26T10:23:45Z</time>
      </trkpt>
      <trkpt lat="48.9151" lon="2.13533">
        <ele>29.31</ele>
        <time>2021-03-26T10:23:54Z</time>
      </trkpt>
      <trkpt lat="48.91498" lon="2.13617">
        <ele>31.49</ele>
        <time>2021-03-26T10:24:04Z</time>
      </trkpt>
      <trkpt lat="48.91475" lon="2.13828">
        <ele>35.51</ele>
        <time>2021-03-26T10:24:13Z</time>
      </trkpt>
      <trkpt lat="48.91471" lon="2.13877">
        <ele>37.06</ele>
        <time>2021-03-26T10:24:22Z</time>
      </trkpt>
      <trkpt lat="48.91463" lon="2.1403">
        <ele>39.06</ele>
        <time>2021-03-26T10:24:31Z</time>
      </trkpt>
      <trkpt lat="48.91443" lon="2.14732">
        <ele>46</ele>
        <time>2021-03-26T10:24:40Z</time>
      </trkpt>
      <trkpt lat="48.91435" lon="2.14903">
        <ele>45.17</ele>
        <time>2021-03-26T10:24:50Z</time>
      </trkpt>
      <trkpt lat="48.91425" lon="2.15077">
        <ele>48.55</ele>
        <time>2021-03-26T10:24:59Z</time>
      </trkpt>
      <trkpt lat="48.91417" lon="2.15172">
        <ele>49.19</ele>
        <time>2021-03-26T10:25:08Z</time>
      </trkpt>
      <trkpt lat="48.91402" lon="2.15333">
        <ele>46.52</ele>
        <time>2021-03-26T10:25:17Z</time>
      </trkpt>
      <trkpt lat="48.91389" lon="2.15444">
        <ele>46.04</ele>
        <time>2021-03-26T10:25:27Z</time>
      </trkpt>
      <trkpt lat="48.91367" lon="2.15602">
        <ele>49.45</ele>
        <time>2021-03-26T10:25:36Z</time>
      </trkpt>
      <trkpt lat="48.91357" lon="2.15707">
        <ele>47.81</ele>
        <time>2021-03-26T10:25:45Z</time>
      </trkpt>
      <trkpt lat="48.91352" lon="2.15788">
        <ele>47.57</ele>
        <time>2021-03-26T10:25:54Z</time>
      </trkpt>
      <trkpt lat="48.91325" lon="2.16043">
        <ele>47.23</ele>
        <time>2021-03-26T10:26:04Z</time>
      </trkpt>
      <trkpt lat="48.91311" lon="2.162">
        <ele>48.25</ele>
        <time>2021-03-26T10:26:13Z</time>
      </trkpt>
      <trkpt lat="48.91298" lon="2.16459">
        <ele>47.02</ele>
        <time>2021-03-26T10:26:22Z</time>
      </trkpt>
      <trkpt lat="48.91269" lon="2.17113">
        <ele>49.43</ele>
        <time>2021-03-26T10:26:31Z</time>
      </trkpt>
      <trkpt lat="48.91259" lon="2.17431">
        <ele>51.89</ele>
        <time>2021-03-26T10:26:40Z</time>
      </trkpt>
      <trkpt lat="48.9125" lon="2.17635">
        <ele>49.15</ele>
        <time>2021-03-26T10:26:50Z</time>
      </trkpt>
      <trkpt lat="48.91236" lon="2.17866">
        <ele>52.42</ele>
        <time>2021-03-26T10:26:59Z</time>
      </trkpt>
      <trkpt lat="48.91226" lon="2.17964">
        <ele>51.71</ele>
        <time>2021-03-26T10:27:08Z</time>
      </trkpt>
      <trkpt lat="48.91214" lon="2.18051">
        <ele>49.69</ele>
        <time>2021-03-26T10:27:17Z</time>
      </trkpt>
      <trkpt lat="48.91193" lon="2.18159">
        <ele>47.18</ele>
        <time>2021-03-26T10:27:27Z</time>
      </trkpt>
      <trkpt lat="48.91129" lon="2.18436">
        <ele>40.65</ele>
        <time>2021-03-26T10:27:36Z</time>
      </trkpt>
      <trkpt lat="48.91102" lon="2.18526">
        <ele>38.69</ele>
        <time>2021-03-26T10:27:45Z</time>
      </trkpt>
      <trkpt lat="48.91051" lon="2.18665">
        <ele>32.92</ele>
        <time>2021-03-26T10:27:54Z</time>
      </trkpt>
      <trkpt lat="48.91008" lon="2.18759">
        <ele>31.74</ele>
        <time>2021-03-26T10:28:04Z</time>
      </trkpt>
      <trkpt lat="48.90963" lon="2.18851">
        <ele>34</ele>
        <time>2021-03-26T10:28:13Z</time>
      </trkpt>
      <trkpt lat="48.90917" lon="2.1894">
        <ele>32.33</ele>
        <time>2021-03-26T10:28:22Z</time>
      </trkpt>
      <trkpt lat="48.90788" lon="2.19136">
        <ele>32.03</ele>
        <time>2021-03-26T10:28:31Z</time>
      </trkpt>
      <trkpt lat="48.90556" lon="2.19471">
        <ele>31.5</ele>
        <time>2021-03-26T10:28:41Z</time>
      </trkpt>
      <trkpt lat="48.90469" lon="2.19608">
        <ele>31.29</ele>
        <time>2021-03-26T10:28:50Z</time>
      </trkpt>
      <trkpt lat="48.90401" lon="2.19711">
        <ele>31.14</ele>
        <time>2021-03-26T10:28:59Z</time>
      </trkpt>
      <trkpt lat="48.90336" lon="2.19842">
        <ele>30.95</ele>
        <time>2021-03-26T10:29:08Z</time>
      </trkpt>
      <trkpt lat="48.90301" lon="2.19916">
        <ele>30.84</ele>
        <time>2021-03-26T10:29:17Z</time>
      </trkpt>
      <trkpt lat="48.90256" lon="2.20021">
        <ele>23.54</ele>
        <time>2021-03-26T10:29:27Z</time>
      </trkpt>
      <trkpt lat="48.90111" lon="2.20388">
        <ele>26.56</ele>
        <time>2021-03-26T10:29:36Z</time>
      </trkpt>
      <trkpt lat="48.90085" lon="2.20484">
        <ele>27.31</ele>
        <time>2021-03-26T10:29:45Z</time>
      </trkpt>
      <trkpt lat="48.9006" lon="2.20597">
        <ele>28.19</ele>
        <time>2021-03-26T10:29:54Z</time>
      </trkpt>
      <trkpt lat="48.90047" lon="2.20669">
        <ele>28.75</ele>
        <time>2021-03-26T10:30:04Z</time>
      </trkpt>
      <trkpt lat="48.90039" lon="2.2074">
        <ele>29.29</ele>
        <time>2021-03-26T10:30:13Z</time>
      </trkpt>
      <trkpt lat="48.90007" lon="2.20958">
        <ele>30.98</ele>
        <time>2021-03-26T10:30:22Z</time>
      </trkpt>
      <trkpt lat="48.89973" lon="2.21122">
        <ele>32.21</ele>
        <time>2021-03-26T10:30:31Z</time>
      </trkpt>
      <trkpt lat="48.89925" lon="2.21342">
        <ele>35.88</ele>
        <time>2021-03-26T10:30:41Z</time>
      </trkpt>
      <trkpt lat="48.89891" lon="2.21477">
        <ele>38.13</ele>
        <time>2021-03-26T10:30:50Z</time>
      </trkpt>
      <trkpt lat="48.89867" lon="2.21562">
        <ele>39.57</ele>
        <time>2021-03-26T10:30:59Z</time>
      </trkpt>
      <trkpt lat="48.8981" lon="2.21757">
        <ele>42.88</ele>
        <time>2021-03-26T10:31:08Z</time>
      </trkpt>
      <trkpt lat="48.89546" lon="2.22625">
        <ele>57.66</ele>
        <time>2021-03-26T10:31:17Z</time>
      </trkpt>
      <trkpt lat="48.89494" lon="2.22797">
        <ele>56.81</ele>
        <time>2021-03-26T10:31:27Z</time>
      </trkpt>
      <trkpt lat="48.89112" lon="2.23902">
        <ele>51.31</ele>
        <time>2021-03-26T10:31:36Z</time>
      </trkpt>
      <trkpt lat="48.88996" lon="2.24341">
        <ele>49.18</ele>
        <time>2021-03-26T10:31:45Z</time>
      </trkpt>
      <trkpt lat="48.88894" lon="2.2468">
        <ele>47.51</ele>
        <time>2021-03-26T10:31:54Z</time>
      </trkpt>
      <trkpt lat="48.88788" lon="2.25017">
        <ele>40.46</ele>
        <time>2021-03-26T10:32:04Z</time>
      </trkpt>
      <trkpt lat="48.88762" lon="2.2511">
        <ele>41.38</ele>
        <time>2021-03-26T10:32:13Z</time>
      </trkpt>
      <trkpt lat="48.88727" lon="2.25231">
        <ele>36.89</ele>
        <time>2021-03-26T10:32:22Z</time>
      </trkpt>
      <trkpt lat="48.8871" lon="2.25274">
        <ele>35.62</ele>
        <time>2021-03-26T10:32:31Z</time>
      </trkpt>
      <trkpt lat="48.88707" lon="2.25283">
        <ele>35.16</ele>
        <time>2021-03-26T10:32:41Z</time>
      </trkpt>
      <trkpt lat="48.88581" lon="2.25683">
        <ele>40.68</ele>
        <time>2021-03-26T10:32:50Z</time>
      </trkpt>
      <trkpt lat="48.88411" lon="2.26226">
        <ele>42.81</ele>
        <time>2021-03-26T10:32:59Z</time>
      </trkpt>
      <trkpt lat="48.88325" lon="2.265">
        <ele>45.81</ele>
        <time>2021-03-26T10:33:08Z</time>
      </trkpt>
      <trkpt lat="48.88303" lon="2.26559">
        <ele>43.09</ele>
        <time>2021-03-26T10:33:18Z</time>
      </trkpt>
      <trkpt lat="48.87939" lon="2.27718">
        <ele>44</ele>
        <time>2021-03-26T10:33:27Z</time>
      </trkpt>
      <trkpt lat="48.87928" lon="2.27731">
        <ele>44.13</ele>
        <time>2021-03-26T10:33:33Z</time>
      </trkpt>
      <trkpt lat="48.87887" lon="2.27831">
        <ele>45.95</ele>
        <time>2021-03-26T10:33:38Z</time>
      </trkpt>
      <trkpt lat="48.87845" lon="2.27961">
        <ele>44.94</ele>
        <time>2021-03-26T10:33:44Z</time>
      </trkpt>
      <trkpt lat="48.8784" lon="2.27978">
        <ele>43.09</ele>
        <time>2021-03-26T10:33:50Z</time>
      </trkpt>
      <trkpt lat="48.87845" lon="2.28">
        <ele>41.87</ele>
        <time>2021-03-26T10:33:53Z</time>
      </trkpt>
      <trkpt lat="48.87832" lon="2.28042">
        <ele>38.58</ele>
        <time>2021-03-26T10:33:56Z</time>
      </trkpt>
      <trkpt lat="48.87826" lon="2.28049">
        <ele>38.41</ele>
        <time>2021-03-26T10:33:59Z</time>
      </trkpt>
      <trkpt lat="48.87815" lon="2.28079">
        <ele>37.99</ele>
        <time>2021-03-26T10:34:01Z</time>
      </trkpt>
      <trkpt lat="48.87801" lon="2.2809">
        <ele>38.81</ele>
        <time>2021-03-26T10:34:04Z</time>
      </trkpt>
      <trkpt lat="48.87775" lon="2.28096">
        <ele>38.87</ele>
        <time>2021-03-26T10:34:07Z</time>
      </trkpt>
      <trkpt lat="48.87757" lon="2.28105">
        <ele>38.09</ele>
        <time>2021-03-26T10:34:09Z</time>
      </trkpt>
      <trkpt lat="48.87745" lon="2.28115">
        <ele>38</ele>
        <time>2021-03-26T10:34:12Z</time>
      </trkpt>
      <trkpt lat="48.87739" lon="2.28122">
        <ele>38</ele>
        <time>2021-03-26T10:34:15Z</time>
      </trkpt>
      <trkpt lat="48.87713" lon="2.28165">
        <ele>37.42</ele>
        <time>2021-03-26T10:34:17Z</time>
      </trkpt>
      <trkpt lat="48.87706" lon="2.28183">
        <ele>36.4</ele>
        <time>2021-03-26T10:34:20Z</time>
      </trkpt>
      <trkpt lat="48.87699" lon="2.28221">
        <ele>35.85</ele>
        <time>2021-03-26T10:34:23Z</time>
      </trkpt>
      <trkpt lat="48.87697" lon="2.28257">
        <ele>36.48</ele>
        <time>2021-03-26T10:34:25Z</time>
      </trkpt>
      <trkpt lat="48.87698" lon="2.2828">
        <ele>37.97</ele>
        <time>2021-03-26T10:34:28Z</time>
      </trkpt>
      <trkpt lat="48.87702" lon="2.28313">
        <ele>39.18</ele>
        <time>2021-03-26T10:34:31Z</time>
      </trkpt>
      <trkpt lat="48.87707" lon="2.28344">
        <ele>38.99</ele>
        <time>2021-03-26T10:34:33Z</time>
      </trkpt>
      <trkpt lat="48.87724" lon="2.28382">
        <ele>40.36</ele>
        <time>2021-03-26T10:34:36Z</time>
      </trkpt>
      <trkpt lat="48.87715" lon="2.28414">
        <ele>45.03</ele>
        <time>2021-03-26T10:35:01Z</time>
      </trkpt>
      <trkpt lat="48.87713" lon="2.28426">
        <ele>46.69</ele>
        <time>2021-03-26T10:35:26Z</time>
      </trkpt>
      <trkpt lat="48.87715" lon="2.28444">
        <ele>49.32</ele>
        <time>2021-03-26T10:35:51Z</time>
      </trkpt>
      <trkpt lat="48.87404" lon="2.29424">
        <ele>58.15</ele>
        <time>2021-03-26T10:36:16Z</time>
      </trkpt>
      <trkpt lat="48.87388" lon="2.29416">
        <ele>61.15</ele>
        <time>2021-03-26T10:36:28Z</time>
      </trkpt>
      <trkpt lat="48.87374" lon="2.29415">
        <ele>64.22</ele>
        <time>2021-03-26T10:36:41Z</time>
      </trkpt>
      <trkpt lat="48.87361" lon="2.29418">
        <ele>67.11</ele>
        <time>2021-03-26T10:36:53Z</time>
      </trkpt>
      <trkpt lat="48.87347" lon="2.29428">
        <ele>68.84</ele>
        <time>2021-03-26T10:37:05Z</time>
      </trkpt>
      <trkpt lat="48.87334" lon="2.29444">
        <ele>69.99</ele>
        <time>2021-03-26T10:37:18Z</time>
      </trkpt>
      <trkpt lat="48.87325" lon="2.29465">
        <ele>69.24</ele>
        <time>2021-03-26T10:37:30Z</time>
      </trkpt>
      <trkpt lat="48.8732" lon="2.29486">
        <ele>68.45</ele>
        <time>2021-03-26T10:37:42Z</time>
      </trkpt>
      <trkpt lat="48.8732" lon="2.29514">
        <ele>66.22</ele>
        <time>2021-03-26T10:37:54Z</time>
      </trkpt>
      <trkpt lat="48.87323" lon="2.29535">
        <ele>63.47</ele>
        <time>2021-03-26T10:38:07Z</time>
      </trkpt>
      <trkpt lat="48.8733" lon="2.29554">
        <ele>61.14</ele>
        <time>2021-03-26T10:38:19Z</time>
      </trkpt>
      <trkpt lat="48.87342" lon="2.29574">
        <ele>61.43</ele>
        <time>2021-03-26T10:38:31Z</time>
      </trkpt>
      <trkpt lat="48.87353" lon="2.29583">
        <ele>62.39</ele>
        <time>2021-03-26T10:38:44Z</time>
      </trkpt>
      <trkpt lat="48.86905" lon="2.3099">
        <ele>44.28</ele>
        <time>2021-03-26T10:38:56Z</time>
      </trkpt>
      <trkpt lat="48.86895" lon="2.30987">
        <ele>42.27</ele>
        <time>2021-03-26T10:39:02Z</time>
      </trkpt>
      <trkpt lat="48.86888" lon="2.30992">
        <ele>40.53</ele>
        <time>2021-03-26T10:39:08Z</time>
      </trkpt>
      <trkpt lat="48.86884" lon="2.30999">
        <ele>39.72</ele>
        <time>2021-03-26T10:39:14Z</time>
      </trkpt>
      <trkpt lat="48.86882" lon="2.31013">
        <ele>38.12</ele>
        <time>2021-03-26T10:39:20Z</time>
      </trkpt>
      <trkpt lat="48.86885" lon="2.31027">
        <ele>36.77</ele>
        <time>2021-03-26T10:39:26Z</time>
      </trkpt>
      <trkpt lat="48.86891" lon="2.31034">
        <ele>37.21</ele>
        <time>2021-03-26T10:39:32Z</time>
      </trkpt>
      <trkpt lat="48.86776" lon="2.31397">
        <ele>35.7</ele>
        <time>2021-03-26T10:39:38Z</time>
      </trkpt>
      <trkpt lat="48.86752" lon="2.31399">
        <ele>35.3</ele>
        <time>2021-03-26T10:40:35Z</time>
      </trkpt>
      <trkpt lat="48.85996" lon="2.31311">
        <ele>26.05</ele>
        <time>2021-03-26T10:41:32Z</time>
      </trkpt>
      <trkpt lat="48.85997" lon="2.31484">
        <ele>39.58</ele>
        <time>2021-03-26T10:41:45Z</time>
      </trkpt>
      <trkpt lat="48.85992" lon="2.31698">
        <ele>39.76</ele>
        <time>2021-03-26T10:41:58Z</time>
      </trkpt>
      <trkpt lat="48.8598" lon="2.31816">
        <ele>43.28</ele>
        <time>2021-03-26T10:42:11Z</time>
      </trkpt>
      <trkpt lat="48.85957" lon="2.31902">
        <ele>39.35</ele>
        <time>2021-03-26T10:42:24Z</time>
      </trkpt>
      <trkpt lat="48.85914" lon="2.32021">
        <ele>43</ele>
        <time>2021-03-26T10:42:36Z</time>
      </trkpt>
      <trkpt lat="48.85889" lon="2.32003">
        <ele>43.44</ele>
        <time>2021-03-26T10:42:43Z</time>
      </trkpt>
    </trkseg>
  </trk>
</gpx>